<?xml version="1.0" encoding="UTF-8" standalone="no" ?>
<gpx xmlns="http://www.topografix.com/GPX/1/1" xmlns:xsi="http://www.w3.org/2001/XMLSchema-instance" xsi:schemaLocation="http://www.topografix.com/GPX/1/1 http://www.topografix.com/GPX/1/1/gpx.xsd" version="1.1" creator="VisuGPX - https://www.visugpx.com">
  <metadata>
    <name>vtt 18/12/2010</name>
    <desc><![CDATA[test rungps]]></desc>
  </metadata>
  <trk>
    <name><![CDATA[sans nom]]></name>
    <trkseg>
      <trkpt lat="43.42236" lon="5.29168">
        <ele>79</ele>
        <time>2010-12-18T14:25:40.746Z</time>
      </trkpt>
      <trkpt lat="43.42233" lon="5.29167">
        <ele>79</ele>
        <time>2010-12-18T14:25:41.712Z</time>
      </trkpt>
      <trkpt lat="43.42236" lon="5.29168">
        <ele>143.033335368</ele>
        <time>2010-12-18T14:25:42.708Z</time>
      </trkpt>
      <trkpt lat="43.42241" lon="5.29169">
        <ele>143.033335368</ele>
        <time>2010-12-18T14:25:45.897Z</time>
      </trkpt>
      <trkpt lat="43.42244" lon="5.2917">
        <ele>143.033335368</ele>
        <time>2010-12-18T14:25:49.803Z</time>
      </trkpt>
      <trkpt lat="43.42244" lon="5.2917">
        <ele>143.033335368</ele>
        <time>2010-12-18T14:25:53.763Z</time>
      </trkpt>
      <trkpt lat="43.42244" lon="5.2917">
        <ele>149.176470588</ele>
        <time>2010-12-18T14:25:56.781Z</time>
      </trkpt>
      <trkpt lat="43.42244" lon="5.2917">
        <ele>149.505000305</ele>
        <time>2010-12-18T14:25:59.823Z</time>
      </trkpt>
      <trkpt lat="43.42243" lon="5.2917">
        <ele>149.791667302</ele>
        <time>2010-12-18T14:26:03.641Z</time>
      </trkpt>
      <trkpt lat="43.42243" lon="5.2917">
        <ele>149.937037715</ele>
        <time>2010-12-18T14:26:06.725Z</time>
      </trkpt>
      <trkpt lat="43.42244" lon="5.2917">
        <ele>150.209677912</ele>
        <time>2010-12-18T14:26:10.697Z</time>
      </trkpt>
      <trkpt lat="43.42246" lon="5.2917">
        <ele>151.62333374</ele>
        <time>2010-12-18T14:26:13.708Z</time>
      </trkpt>
      <trkpt lat="43.42246" lon="5.2917">
        <ele>152.383871263</ele>
        <time>2010-12-18T14:26:17.849Z</time>
      </trkpt>
      <trkpt lat="43.42228" lon="5.29165">
        <ele>151.825807141</ele>
        <time>2010-12-18T14:26:19.702Z</time>
      </trkpt>
      <trkpt lat="43.42226" lon="5.29167">
        <ele>149.732259443</ele>
        <time>2010-12-18T14:26:22.644Z</time>
      </trkpt>
      <trkpt lat="43.42225" lon="5.29167">
        <ele>149.016130509</ele>
        <time>2010-12-18T14:26:23.645Z</time>
      </trkpt>
      <trkpt lat="43.42225" lon="5.29167">
        <ele>148.270969514</ele>
        <time>2010-12-18T14:26:24.721Z</time>
      </trkpt>
      <trkpt lat="43.42228" lon="5.29167">
        <ele>145.309679093</ele>
        <time>2010-12-18T14:26:28.694Z</time>
      </trkpt>
      <trkpt lat="43.42229" lon="5.29167">
        <ele>143.177420831</ele>
        <time>2010-12-18T14:26:31.763Z</time>
      </trkpt>
      <trkpt lat="43.4223" lon="5.29167">
        <ele>140.532259049</ele>
        <time>2010-12-18T14:26:35.697Z</time>
      </trkpt>
      <trkpt lat="43.4223" lon="5.29167">
        <ele>137.880646244</ele>
        <time>2010-12-18T14:26:39.690Z</time>
      </trkpt>
      <trkpt lat="43.4223" lon="5.29167">
        <ele>135.050001526</ele>
        <time>2010-12-18T14:26:42.741Z</time>
      </trkpt>
      <trkpt lat="43.4223" lon="5.29167">
        <ele>132.636668396</ele>
        <time>2010-12-18T14:26:45.787Z</time>
      </trkpt>
      <trkpt lat="43.42227" lon="5.29167">
        <ele>129.900001526</ele>
        <time>2010-12-18T14:26:49.699Z</time>
      </trkpt>
      <trkpt lat="43.42227" lon="5.29168">
        <ele>129.606667837</ele>
        <time>2010-12-18T14:26:53.193Z</time>
      </trkpt>
      <trkpt lat="43.42226" lon="5.29168">
        <ele>129.345162176</ele>
        <time>2010-12-18T14:26:56.688Z</time>
      </trkpt>
      <trkpt lat="43.42226" lon="5.29168">
        <ele>129.180001068</ele>
        <time>2010-12-18T14:27:00.197Z</time>
      </trkpt>
      <trkpt lat="43.42226" lon="5.29168">
        <ele>128.832258901</ele>
        <time>2010-12-18T14:27:03.687Z</time>
      </trkpt>
      <trkpt lat="43.42226" lon="5.29168">
        <ele>128.335485397</ele>
        <time>2010-12-18T14:27:07.674Z</time>
      </trkpt>
      <trkpt lat="43.42227" lon="5.29168">
        <ele>127.990324205</ele>
        <time>2010-12-18T14:27:10.704Z</time>
      </trkpt>
      <trkpt lat="43.42229" lon="5.29168">
        <ele>127.600001272</ele>
        <time>2010-12-18T14:27:12.764Z</time>
      </trkpt>
      <trkpt lat="43.42229" lon="5.29166">
        <ele>127.500001231</ele>
        <time>2010-12-18T14:27:13.755Z</time>
      </trkpt>
      <trkpt lat="43.42231" lon="5.29166">
        <ele>127.230001068</ele>
        <time>2010-12-18T14:27:14.698Z</time>
      </trkpt>
      <trkpt lat="43.42231" lon="5.29163">
        <ele>127.180646097</ele>
        <time>2010-12-18T14:27:15.691Z</time>
      </trkpt>
      <trkpt lat="43.42232" lon="5.2916">
        <ele>126.874194237</ele>
        <time>2010-12-18T14:27:17.688Z</time>
      </trkpt>
      <trkpt lat="43.42232" lon="5.29159">
        <ele>126.690000916</ele>
        <time>2010-12-18T14:27:18.687Z</time>
      </trkpt>
      <trkpt lat="43.42232" lon="5.29156">
        <ele>126.619355725</ele>
        <time>2010-12-18T14:27:19.684Z</time>
      </trkpt>
      <trkpt lat="43.42232" lon="5.29154">
        <ele>126.470000966</ele>
        <time>2010-12-18T14:27:20.721Z</time>
      </trkpt>
      <trkpt lat="43.42231" lon="5.29151">
        <ele>126.235484708</ele>
        <time>2010-12-18T14:27:22.688Z</time>
      </trkpt>
      <trkpt lat="43.42229" lon="5.2915">
        <ele>126.135484511</ele>
        <time>2010-12-18T14:27:23.680Z</time>
      </trkpt>
      <trkpt lat="43.42228" lon="5.29148">
        <ele>126.01000061</ele>
        <time>2010-12-18T14:27:24.706Z</time>
      </trkpt>
      <trkpt lat="43.42225" lon="5.29146">
        <ele>125.930000559</ele>
        <time>2010-12-18T14:27:25.701Z</time>
      </trkpt>
      <trkpt lat="43.42222" lon="5.29144">
        <ele>125.896667226</ele>
        <time>2010-12-18T14:27:26.706Z</time>
      </trkpt>
      <trkpt lat="43.42219" lon="5.29141">
        <ele>125.850000509</ele>
        <time>2010-12-18T14:27:27.699Z</time>
      </trkpt>
      <trkpt lat="43.42222" lon="5.29131">
        <ele>125.832258655</ele>
        <time>2010-12-18T14:27:28.703Z</time>
      </trkpt>
      <trkpt lat="43.42221" lon="5.29121">
        <ele>125.680000305</ele>
        <time>2010-12-18T14:27:30.683Z</time>
      </trkpt>
      <trkpt lat="43.42221" lon="5.29115">
        <ele>125.616666921</ele>
        <time>2010-12-18T14:27:31.693Z</time>
      </trkpt>
      <trkpt lat="43.42222" lon="5.29109">
        <ele>125.563333639</ele>
        <time>2010-12-18T14:27:32.699Z</time>
      </trkpt>
      <trkpt lat="43.42224" lon="5.29101">
        <ele>125.5</ele>
        <time>2010-12-18T14:27:34.712Z</time>
      </trkpt>
      <trkpt lat="43.42225" lon="5.29099">
        <ele>125.483333333</ele>
        <time>2010-12-18T14:27:35.715Z</time>
      </trkpt>
      <trkpt lat="43.42227" lon="5.29096">
        <ele>125.483333333</ele>
        <time>2010-12-18T14:27:36.704Z</time>
      </trkpt>
      <trkpt lat="43.4223" lon="5.29094">
        <ele>125.483333333</ele>
        <time>2010-12-18T14:27:37.703Z</time>
      </trkpt>
      <trkpt lat="43.42231" lon="5.29093">
        <ele>125.532258065</ele>
        <time>2010-12-18T14:27:38.705Z</time>
      </trkpt>
      <trkpt lat="43.42232" lon="5.29092">
        <ele>125.532258065</ele>
        <time>2010-12-18T14:27:39.707Z</time>
      </trkpt>
      <trkpt lat="43.42236" lon="5.29094">
        <ele>125.561290126</ele>
        <time>2010-12-18T14:27:40.697Z</time>
      </trkpt>
      <trkpt lat="43.42242" lon="5.29092">
        <ele>125.632258015</ele>
        <time>2010-12-18T14:27:42.700Z</time>
      </trkpt>
      <trkpt lat="43.42246" lon="5.29092">
        <ele>125.864515981</ele>
        <time>2010-12-18T14:27:44.698Z</time>
      </trkpt>
      <trkpt lat="43.42249" lon="5.29092">
        <ele>125.983333079</ele>
        <time>2010-12-18T14:27:45.702Z</time>
      </trkpt>
      <trkpt lat="43.42257" lon="5.29094">
        <ele>126.280000305</ele>
        <time>2010-12-18T14:27:48.286Z</time>
      </trkpt>
      <trkpt lat="43.42268" lon="5.29098">
        <ele>126.825806156</ele>
        <time>2010-12-18T14:27:50.695Z</time>
      </trkpt>
      <trkpt lat="43.42272" lon="5.29101">
        <ele>127.054838611</ele>
        <time>2010-12-18T14:27:51.699Z</time>
      </trkpt>
      <trkpt lat="43.42278" lon="5.29107">
        <ele>127.760000102</ele>
        <time>2010-12-18T14:27:53.696Z</time>
      </trkpt>
      <trkpt lat="43.42281" lon="5.29108">
        <ele>128.03666687</ele>
        <time>2010-12-18T14:27:54.721Z</time>
      </trkpt>
      <trkpt lat="43.42285" lon="5.29109">
        <ele>128.183871362</ele>
        <time>2010-12-18T14:27:55.696Z</time>
      </trkpt>
      <trkpt lat="43.42291" lon="5.29109">
        <ele>128.800000254</ele>
        <time>2010-12-18T14:27:57.703Z</time>
      </trkpt>
      <trkpt lat="43.42304" lon="5.29111">
        <ele>129.863334147</ele>
        <time>2010-12-18T14:28:01.699Z</time>
      </trkpt>
      <trkpt lat="43.42312" lon="5.29114">
        <ele>130.593549421</ele>
        <time>2010-12-18T14:28:04.695Z</time>
      </trkpt>
      <trkpt lat="43.42316" lon="5.29114">
        <ele>130.870968972</ele>
        <time>2010-12-18T14:28:05.698Z</time>
      </trkpt>
      <trkpt lat="43.42319" lon="5.29114">
        <ele>131.280001322</ele>
        <time>2010-12-18T14:28:06.712Z</time>
      </trkpt>
      <trkpt lat="43.42321" lon="5.29115">
        <ele>131.396775276</ele>
        <time>2010-12-18T14:28:07.698Z</time>
      </trkpt>
      <trkpt lat="43.42327" lon="5.29116">
        <ele>131.925807584</ele>
        <time>2010-12-18T14:28:09.699Z</time>
      </trkpt>
      <trkpt lat="43.4233" lon="5.29115">
        <ele>132.430001322</ele>
        <time>2010-12-18T14:28:10.704Z</time>
      </trkpt>
      <trkpt lat="43.42337" lon="5.29115">
        <ele>133.176667786</ele>
        <time>2010-12-18T14:28:12.702Z</time>
      </trkpt>
      <trkpt lat="43.42339" lon="5.29113">
        <ele>133.416130312</ele>
        <time>2010-12-18T14:28:13.685Z</time>
      </trkpt>
      <trkpt lat="43.42341" lon="5.2911">
        <ele>133.803227086</ele>
        <time>2010-12-18T14:28:14.688Z</time>
      </trkpt>
      <trkpt lat="43.42343" lon="5.29108">
        <ele>134.187097857</ele>
        <time>2010-12-18T14:28:15.699Z</time>
      </trkpt>
      <trkpt lat="43.42344" lon="5.29105">
        <ele>134.720001221</ele>
        <time>2010-12-18T14:28:16.702Z</time>
      </trkpt>
      <trkpt lat="43.42347" lon="5.291">
        <ele>134.896775276</ele>
        <time>2010-12-18T14:28:17.698Z</time>
      </trkpt>
      <trkpt lat="43.42355" lon="5.29085">
        <ele>136.135485741</ele>
        <time>2010-12-18T14:28:21.692Z</time>
      </trkpt>
      <trkpt lat="43.42359" lon="5.29078">
        <ele>136.687098349</ele>
        <time>2010-12-18T14:28:23.691Z</time>
      </trkpt>
      <trkpt lat="43.42366" lon="5.29071">
        <ele>137.686668396</ele>
        <time>2010-12-18T14:28:26.703Z</time>
      </trkpt>
      <trkpt lat="43.42368" lon="5.29069">
        <ele>137.822582122</ele>
        <time>2010-12-18T14:28:27.694Z</time>
      </trkpt>
      <trkpt lat="43.42374" lon="5.29064">
        <ele>138.576668294</ele>
        <time>2010-12-18T14:28:30.285Z</time>
      </trkpt>
      <trkpt lat="43.42377" lon="5.29062">
        <ele>138.693549864</ele>
        <time>2010-12-18T14:28:30.696Z</time>
      </trkpt>
      <trkpt lat="43.4238" lon="5.2906">
        <ele>138.99354947</ele>
        <time>2010-12-18T14:28:31.696Z</time>
      </trkpt>
      <trkpt lat="43.42389" lon="5.29053">
        <ele>139.996666972</ele>
        <time>2010-12-18T14:28:34.697Z</time>
      </trkpt>
      <trkpt lat="43.42396" lon="5.29049">
        <ele>140.566666667</ele>
        <time>2010-12-18T14:28:37.305Z</time>
      </trkpt>
      <trkpt lat="43.42403" lon="5.29046">
        <ele>141.093333435</ele>
        <time>2010-12-18T14:28:38.707Z</time>
      </trkpt>
      <trkpt lat="43.4241" lon="5.29043">
        <ele>141.383870771</ele>
        <time>2010-12-18T14:28:40.699Z</time>
      </trkpt>
      <trkpt lat="43.42413" lon="5.29043">
        <ele>141.603333028</ele>
        <time>2010-12-18T14:28:41.713Z</time>
      </trkpt>
      <trkpt lat="43.42417" lon="5.29042">
        <ele>141.638709284</ele>
        <time>2010-12-18T14:28:42.697Z</time>
      </trkpt>
      <trkpt lat="43.42424" lon="5.2904">
        <ele>141.829999288</ele>
        <time>2010-12-18T14:28:44.698Z</time>
      </trkpt>
      <trkpt lat="43.42435" lon="5.29038">
        <ele>142.096665955</ele>
        <time>2010-12-18T14:28:47.723Z</time>
      </trkpt>
      <trkpt lat="43.42441" lon="5.29037">
        <ele>142.206450432</ele>
        <time>2010-12-18T14:28:49.695Z</time>
      </trkpt>
      <trkpt lat="43.42448" lon="5.29037">
        <ele>142.367740262</ele>
        <time>2010-12-18T14:28:51.680Z</time>
      </trkpt>
      <trkpt lat="43.4245" lon="5.29041">
        <ele>142.503331502</ele>
        <time>2010-12-18T14:28:53.277Z</time>
      </trkpt>
      <trkpt lat="43.42453" lon="5.29044">
        <ele>142.526664734</ele>
        <time>2010-12-18T14:28:54.283Z</time>
      </trkpt>
      <trkpt lat="43.42454" lon="5.29048">
        <ele>142.499998031</ele>
        <time>2010-12-18T14:28:54.699Z</time>
      </trkpt>
      <trkpt lat="43.42455" lon="5.29052">
        <ele>142.566664124</ele>
        <time>2010-12-18T14:28:55.699Z</time>
      </trkpt>
      <trkpt lat="43.42455" lon="5.29055">
        <ele>142.558062153</ele>
        <time>2010-12-18T14:28:56.686Z</time>
      </trkpt>
      <trkpt lat="43.42458" lon="5.29064">
        <ele>142.622578283</ele>
        <time>2010-12-18T14:28:59.683Z</time>
      </trkpt>
      <trkpt lat="43.42459" lon="5.29066">
        <ele>142.625803794</ele>
        <time>2010-12-18T14:29:00.685Z</time>
      </trkpt>
      <trkpt lat="43.42462" lon="5.29076">
        <ele>142.519352575</ele>
        <time>2010-12-18T14:29:04.685Z</time>
      </trkpt>
      <trkpt lat="43.42464" lon="5.29085">
        <ele>142.509675549</ele>
        <time>2010-12-18T14:29:06.697Z</time>
      </trkpt>
      <trkpt lat="43.42467" lon="5.29099">
        <ele>142.429997762</ele>
        <time>2010-12-18T14:29:10.271Z</time>
      </trkpt>
      <trkpt lat="43.42469" lon="5.29103">
        <ele>142.433331299</ele>
        <time>2010-12-18T14:29:11.279Z</time>
      </trkpt>
      <trkpt lat="43.4247" lon="5.29112">
        <ele>142.416127359</ele>
        <time>2010-12-18T14:29:12.693Z</time>
      </trkpt>
      <trkpt lat="43.42474" lon="5.29126">
        <ele>142.416127359</ele>
        <time>2010-12-18T14:29:15.695Z</time>
      </trkpt>
      <trkpt lat="43.42476" lon="5.2913">
        <ele>142.42903088</ele>
        <time>2010-12-18T14:29:16.697Z</time>
      </trkpt>
      <trkpt lat="43.42481" lon="5.29143">
        <ele>142.376665243</ele>
        <time>2010-12-18T14:29:20.275Z</time>
      </trkpt>
      <trkpt lat="43.42486" lon="5.29156">
        <ele>142.377418272</ele>
        <time>2010-12-18T14:29:22.703Z</time>
      </trkpt>
      <trkpt lat="43.42489" lon="5.29163">
        <ele>142.443332418</ele>
        <time>2010-12-18T14:29:25.290Z</time>
      </trkpt>
      <trkpt lat="43.42497" lon="5.29178">
        <ele>142.38999939</ele>
        <time>2010-12-18T14:29:28.693Z</time>
      </trkpt>
      <trkpt lat="43.42499" lon="5.29182">
        <ele>142.38999939</ele>
        <time>2010-12-18T14:29:29.702Z</time>
      </trkpt>
      <trkpt lat="43.42505" lon="5.29192">
        <ele>142.469999186</ele>
        <time>2010-12-18T14:29:32.694Z</time>
      </trkpt>
      <trkpt lat="43.42507" lon="5.29195">
        <ele>142.516666158</ele>
        <time>2010-12-18T14:29:33.695Z</time>
      </trkpt>
      <trkpt lat="43.42514" lon="5.29203">
        <ele>142.622580251</ele>
        <time>2010-12-18T14:29:36.695Z</time>
      </trkpt>
      <trkpt lat="43.4252" lon="5.29211">
        <ele>142.748386998</ele>
        <time>2010-12-18T14:29:39.700Z</time>
      </trkpt>
      <trkpt lat="43.42522" lon="5.29214">
        <ele>142.816666667</ele>
        <time>2010-12-18T14:29:41.289Z</time>
      </trkpt>
      <trkpt lat="43.42524" lon="5.29216">
        <ele>142.88666687</ele>
        <time>2010-12-18T14:29:42.284Z</time>
      </trkpt>
      <trkpt lat="43.42528" lon="5.29221">
        <ele>142.980645457</ele>
        <time>2010-12-18T14:29:43.693Z</time>
      </trkpt>
      <trkpt lat="43.42534" lon="5.29227">
        <ele>143.116129721</ele>
        <time>2010-12-18T14:29:46.697Z</time>
      </trkpt>
      <trkpt lat="43.42539" lon="5.29231">
        <ele>143.212903915</ele>
        <time>2010-12-18T14:29:48.695Z</time>
      </trkpt>
      <trkpt lat="43.42546" lon="5.29237">
        <ele>143.450001017</ele>
        <time>2010-12-18T14:29:52.270Z</time>
      </trkpt>
      <trkpt lat="43.42551" lon="5.2924">
        <ele>143.609678207</ele>
        <time>2010-12-18T14:29:53.679Z</time>
      </trkpt>
      <trkpt lat="43.42557" lon="5.29244">
        <ele>144.006667582</ele>
        <time>2010-12-18T14:29:56.701Z</time>
      </trkpt>
      <trkpt lat="43.42566" lon="5.2925">
        <ele>144.576668294</ele>
        <time>2010-12-18T14:30:00.699Z</time>
      </trkpt>
      <trkpt lat="43.4257" lon="5.29253">
        <ele>144.873335266</ele>
        <time>2010-12-18T14:30:02.698Z</time>
      </trkpt>
      <trkpt lat="43.42577" lon="5.29257">
        <ele>145.222581925</ele>
        <time>2010-12-18T14:30:05.693Z</time>
      </trkpt>
      <trkpt lat="43.42584" lon="5.29261">
        <ele>145.673334249</ele>
        <time>2010-12-18T14:30:08.696Z</time>
      </trkpt>
      <trkpt lat="43.42586" lon="5.29261">
        <ele>145.738710465</ele>
        <time>2010-12-18T14:30:09.700Z</time>
      </trkpt>
      <trkpt lat="43.42591" lon="5.29263">
        <ele>145.987097956</ele>
        <time>2010-12-18T14:30:11.695Z</time>
      </trkpt>
      <trkpt lat="43.42595" lon="5.29264">
        <ele>146.340000916</ele>
        <time>2010-12-18T14:30:14.285Z</time>
      </trkpt>
      <trkpt lat="43.426" lon="5.29265">
        <ele>146.656667074</ele>
        <time>2010-12-18T14:30:15.698Z</time>
      </trkpt>
      <trkpt lat="43.42605" lon="5.29266">
        <ele>146.976667277</ele>
        <time>2010-12-18T14:30:17.698Z</time>
      </trkpt>
      <trkpt lat="43.42615" lon="5.29268">
        <ele>147.529033046</ele>
        <time>2010-12-18T14:30:21.695Z</time>
      </trkpt>
      <trkpt lat="43.42622" lon="5.29268">
        <ele>148.056667582</ele>
        <time>2010-12-18T14:30:24.702Z</time>
      </trkpt>
      <trkpt lat="43.42625" lon="5.29268">
        <ele>148.213334147</ele>
        <time>2010-12-18T14:30:25.700Z</time>
      </trkpt>
      <trkpt lat="43.42627" lon="5.29268">
        <ele>148.29677508</ele>
        <time>2010-12-18T14:30:26.700Z</time>
      </trkpt>
      <trkpt lat="43.42635" lon="5.29267">
        <ele>148.866667175</ele>
        <time>2010-12-18T14:30:30.293Z</time>
      </trkpt>
      <trkpt lat="43.4264" lon="5.29266">
        <ele>149.17333374</ele>
        <time>2010-12-18T14:30:31.698Z</time>
      </trkpt>
      <trkpt lat="43.42647" lon="5.29265">
        <ele>149.616667175</ele>
        <time>2010-12-18T14:30:34.699Z</time>
      </trkpt>
      <trkpt lat="43.42651" lon="5.29262">
        <ele>149.825807141</ele>
        <time>2010-12-18T14:30:36.693Z</time>
      </trkpt>
      <trkpt lat="43.42656" lon="5.2926">
        <ele>150.103226692</ele>
        <time>2010-12-18T14:30:38.694Z</time>
      </trkpt>
      <trkpt lat="43.42658" lon="5.29258">
        <ele>150.251613986</ele>
        <time>2010-12-18T14:30:39.695Z</time>
      </trkpt>
      <trkpt lat="43.42659" lon="5.29256">
        <ele>150.486667887</ele>
        <time>2010-12-18T14:30:40.702Z</time>
      </trkpt>
      <trkpt lat="43.42663" lon="5.29253">
        <ele>150.766667684</ele>
        <time>2010-12-18T14:30:42.703Z</time>
      </trkpt>
      <trkpt lat="43.42667" lon="5.29248">
        <ele>150.95161438</ele>
        <time>2010-12-18T14:30:44.697Z</time>
      </trkpt>
      <trkpt lat="43.42668" lon="5.29245">
        <ele>151.143334961</ele>
        <time>2010-12-18T14:30:46.293Z</time>
      </trkpt>
      <trkpt lat="43.42669" lon="5.29242">
        <ele>151.266668193</ele>
        <time>2010-12-18T14:30:47.296Z</time>
      </trkpt>
      <trkpt lat="43.42674" lon="5.29231">
        <ele>151.730001831</ele>
        <time>2010-12-18T14:30:50.797Z</time>
      </trkpt>
      <trkpt lat="43.42676" lon="5.29224">
        <ele>151.940001933</ele>
        <time>2010-12-18T14:30:52.814Z</time>
      </trkpt>
      <trkpt lat="43.42679" lon="5.29213">
        <ele>152.15806678</ele>
        <time>2010-12-18T14:30:55.698Z</time>
      </trkpt>
      <trkpt lat="43.4268" lon="5.29208">
        <ele>152.283335368</ele>
        <time>2010-12-18T14:30:56.701Z</time>
      </trkpt>
      <trkpt lat="43.42684" lon="5.29193">
        <ele>152.480646933</ele>
        <time>2010-12-18T14:31:00.695Z</time>
      </trkpt>
      <trkpt lat="43.42689" lon="5.29175">
        <ele>152.629033735</ele>
        <time>2010-12-18T14:31:04.695Z</time>
      </trkpt>
      <trkpt lat="43.42691" lon="5.29166">
        <ele>152.710001628</ele>
        <time>2010-12-18T14:31:06.696Z</time>
      </trkpt>
      <trkpt lat="43.42695" lon="5.29152">
        <ele>152.750001526</ele>
        <time>2010-12-18T14:31:09.698Z</time>
      </trkpt>
      <trkpt lat="43.42697" lon="5.29144">
        <ele>152.738710957</ele>
        <time>2010-12-18T14:31:11.697Z</time>
      </trkpt>
      <trkpt lat="43.427" lon="5.29134">
        <ele>152.733334351</ele>
        <time>2010-12-18T14:31:14.699Z</time>
      </trkpt>
      <trkpt lat="43.42703" lon="5.29126">
        <ele>152.7064524</ele>
        <time>2010-12-18T14:31:16.697Z</time>
      </trkpt>
      <trkpt lat="43.42706" lon="5.29117">
        <ele>152.670000712</ele>
        <time>2010-12-18T14:31:19.297Z</time>
      </trkpt>
      <trkpt lat="43.42713" lon="5.29099">
        <ele>152.545161586</ele>
        <time>2010-12-18T14:31:22.696Z</time>
      </trkpt>
      <trkpt lat="43.42721" lon="5.29081">
        <ele>152.373333232</ele>
        <time>2010-12-18T14:31:26.718Z</time>
      </trkpt>
      <trkpt lat="43.42723" lon="5.29076">
        <ele>152.336666361</ele>
        <time>2010-12-18T14:31:27.703Z</time>
      </trkpt>
      <trkpt lat="43.42727" lon="5.29064">
        <ele>152.267742034</ele>
        <time>2010-12-18T14:31:30.685Z</time>
      </trkpt>
      <trkpt lat="43.42729" lon="5.2906">
        <ele>152.238709973</ele>
        <time>2010-12-18T14:31:31.698Z</time>
      </trkpt>
      <trkpt lat="43.42731" lon="5.29056">
        <ele>152.200000509</ele>
        <time>2010-12-18T14:31:32.704Z</time>
      </trkpt>
      <trkpt lat="43.42732" lon="5.29051">
        <ele>152.176667277</ele>
        <time>2010-12-18T14:31:33.699Z</time>
      </trkpt>
      <trkpt lat="43.42738" lon="5.29037">
        <ele>152.15</ele>
        <time>2010-12-18T14:31:36.703Z</time>
      </trkpt>
      <trkpt lat="43.4274" lon="5.29031">
        <ele>152.158064319</ele>
        <time>2010-12-18T14:31:37.699Z</time>
      </trkpt>
      <trkpt lat="43.42742" lon="5.29027">
        <ele>152.151612805</ele>
        <time>2010-12-18T14:31:38.709Z</time>
      </trkpt>
      <trkpt lat="43.42747" lon="5.29016">
        <ele>152.156666565</ele>
        <time>2010-12-18T14:31:40.710Z</time>
      </trkpt>
      <trkpt lat="43.42753" lon="5.28998">
        <ele>152.139999898</ele>
        <time>2010-12-18T14:31:43.702Z</time>
      </trkpt>
      <trkpt lat="43.42755" lon="5.28993">
        <ele>152.136666361</ele>
        <time>2010-12-18T14:31:45.291Z</time>
      </trkpt>
      <trkpt lat="43.42757" lon="5.28987">
        <ele>152.129031766</ele>
        <time>2010-12-18T14:31:45.698Z</time>
      </trkpt>
      <trkpt lat="43.4276" lon="5.28981">
        <ele>152.099999491</ele>
        <time>2010-12-18T14:31:46.701Z</time>
      </trkpt>
      <trkpt lat="43.42762" lon="5.28974">
        <ele>152.077418666</ele>
        <time>2010-12-18T14:31:47.699Z</time>
      </trkpt>
      <trkpt lat="43.42768" lon="5.28956">
        <ele>151.983332316</ele>
        <time>2010-12-18T14:31:51.294Z</time>
      </trkpt>
      <trkpt lat="43.42775" lon="5.28938">
        <ele>151.896665446</ele>
        <time>2010-12-18T14:31:53.703Z</time>
      </trkpt>
      <trkpt lat="43.42782" lon="5.2892">
        <ele>151.777418075</ele>
        <time>2010-12-18T14:31:56.698Z</time>
      </trkpt>
      <trkpt lat="43.42789" lon="5.28902">
        <ele>151.649998474</ele>
        <time>2010-12-18T14:31:59.700Z</time>
      </trkpt>
      <trkpt lat="43.42795" lon="5.2889">
        <ele>151.573331706</ele>
        <time>2010-12-18T14:32:01.700Z</time>
      </trkpt>
      <trkpt lat="43.42797" lon="5.28885">
        <ele>151.545159617</ele>
        <time>2010-12-18T14:32:02.703Z</time>
      </trkpt>
      <trkpt lat="43.428" lon="5.28879">
        <ele>151.499998523</ele>
        <time>2010-12-18T14:32:03.699Z</time>
      </trkpt>
      <trkpt lat="43.42808" lon="5.28862">
        <ele>151.286665344</ele>
        <time>2010-12-18T14:32:07.291Z</time>
      </trkpt>
      <trkpt lat="43.4281" lon="5.28856">
        <ele>151.258063039</ele>
        <time>2010-12-18T14:32:07.697Z</time>
      </trkpt>
      <trkpt lat="43.42811" lon="5.2885">
        <ele>151.180643882</ele>
        <time>2010-12-18T14:32:08.704Z</time>
      </trkpt>
      <trkpt lat="43.42814" lon="5.28844">
        <ele>151.106450235</ele>
        <time>2010-12-18T14:32:09.705Z</time>
      </trkpt>
      <trkpt lat="43.42821" lon="5.28827">
        <ele>150.793331909</ele>
        <time>2010-12-18T14:32:12.722Z</time>
      </trkpt>
      <trkpt lat="43.42825" lon="5.28815">
        <ele>150.683869885</ele>
        <time>2010-12-18T14:32:14.679Z</time>
      </trkpt>
      <trkpt lat="43.42831" lon="5.28797">
        <ele>150.446665955</ele>
        <time>2010-12-18T14:32:18.276Z</time>
      </trkpt>
      <trkpt lat="43.42839" lon="5.28773">
        <ele>150.241934992</ele>
        <time>2010-12-18T14:32:21.746Z</time>
      </trkpt>
      <trkpt lat="43.42844" lon="5.28761">
        <ele>150.093332926</ele>
        <time>2010-12-18T14:32:24.287Z</time>
      </trkpt>
      <trkpt lat="43.4285" lon="5.28743">
        <ele>149.923333232</ele>
        <time>2010-12-18T14:32:26.704Z</time>
      </trkpt>
      <trkpt lat="43.42853" lon="5.28736">
        <ele>149.866666667</ele>
        <time>2010-12-18T14:32:27.699Z</time>
      </trkpt>
      <trkpt lat="43.4286" lon="5.28717">
        <ele>149.679999797</ele>
        <time>2010-12-18T14:32:30.702Z</time>
      </trkpt>
      <trkpt lat="43.42867" lon="5.28699">
        <ele>149.486666361</ele>
        <time>2010-12-18T14:32:34.287Z</time>
      </trkpt>
      <trkpt lat="43.42869" lon="5.28695">
        <ele>149.454838414</ele>
        <time>2010-12-18T14:32:34.699Z</time>
      </trkpt>
      <trkpt lat="43.42875" lon="5.28682">
        <ele>149.286666361</ele>
        <time>2010-12-18T14:32:37.719Z</time>
      </trkpt>
      <trkpt lat="43.42877" lon="5.28677">
        <ele>149.26333313</ele>
        <time>2010-12-18T14:32:38.709Z</time>
      </trkpt>
      <trkpt lat="43.4288" lon="5.28672">
        <ele>149.236666361</ele>
        <time>2010-12-18T14:32:40.312Z</time>
      </trkpt>
      <trkpt lat="43.42891" lon="5.28653">
        <ele>149.173332723</ele>
        <time>2010-12-18T14:32:43.704Z</time>
      </trkpt>
      <trkpt lat="43.42897" lon="5.28642">
        <ele>149.141934795</ele>
        <time>2010-12-18T14:32:45.697Z</time>
      </trkpt>
      <trkpt lat="43.42904" lon="5.28631">
        <ele>149.077419158</ele>
        <time>2010-12-18T14:32:47.703Z</time>
      </trkpt>
      <trkpt lat="43.42918" lon="5.2861">
        <ele>148.977418469</ele>
        <time>2010-12-18T14:32:51.701Z</time>
      </trkpt>
      <trkpt lat="43.42929" lon="5.28595">
        <ele>148.932257375</ele>
        <time>2010-12-18T14:32:54.704Z</time>
      </trkpt>
      <trkpt lat="43.4294" lon="5.2858">
        <ele>148.909999084</ele>
        <time>2010-12-18T14:32:57.704Z</time>
      </trkpt>
      <trkpt lat="43.42947" lon="5.2857">
        <ele>148.923332723</ele>
        <time>2010-12-18T14:32:59.706Z</time>
      </trkpt>
      <trkpt lat="43.42951" lon="5.28566">
        <ele>148.935483379</ele>
        <time>2010-12-18T14:33:00.701Z</time>
      </trkpt>
      <trkpt lat="43.42955" lon="5.28561">
        <ele>148.943333435</ele>
        <time>2010-12-18T14:33:01.698Z</time>
      </trkpt>
      <trkpt lat="43.42963" lon="5.28551">
        <ele>148.987096971</ele>
        <time>2010-12-18T14:33:03.702Z</time>
      </trkpt>
      <trkpt lat="43.42968" lon="5.28546">
        <ele>149.029032061</ele>
        <time>2010-12-18T14:33:04.695Z</time>
      </trkpt>
      <trkpt lat="43.4298" lon="5.28532">
        <ele>149.17096784</ele>
        <time>2010-12-18T14:33:07.698Z</time>
      </trkpt>
      <trkpt lat="43.42989" lon="5.28523">
        <ele>149.209677419</ele>
        <time>2010-12-18T14:33:09.715Z</time>
      </trkpt>
      <trkpt lat="43.42997" lon="5.28512">
        <ele>149.241935484</ele>
        <time>2010-12-18T14:33:11.696Z</time>
      </trkpt>
      <trkpt lat="43.43001" lon="5.28508">
        <ele>149.26333313</ele>
        <time>2010-12-18T14:33:12.697Z</time>
      </trkpt>
      <trkpt lat="43.43013" lon="5.28493">
        <ele>149.33666687</ele>
        <time>2010-12-18T14:33:15.699Z</time>
      </trkpt>
      <trkpt lat="43.43025" lon="5.28478">
        <ele>149.4483869</ele>
        <time>2010-12-18T14:33:18.697Z</time>
      </trkpt>
      <trkpt lat="43.43038" lon="5.28465">
        <ele>149.620000203</ele>
        <time>2010-12-18T14:33:21.703Z</time>
      </trkpt>
      <trkpt lat="43.4305" lon="5.28451">
        <ele>149.76333313</ele>
        <time>2010-12-18T14:33:24.715Z</time>
      </trkpt>
      <trkpt lat="43.4306" lon="5.28442">
        <ele>149.809676632</ele>
        <time>2010-12-18T14:33:26.698Z</time>
      </trkpt>
      <trkpt lat="43.4307" lon="5.28435">
        <ele>149.899998983</ele>
        <time>2010-12-18T14:33:29.285Z</time>
      </trkpt>
      <trkpt lat="43.43075" lon="5.28432">
        <ele>149.916665649</ele>
        <time>2010-12-18T14:33:29.707Z</time>
      </trkpt>
      <trkpt lat="43.43079" lon="5.2843">
        <ele>149.91290234</ele>
        <time>2010-12-18T14:33:30.698Z</time>
      </trkpt>
      <trkpt lat="43.43085" lon="5.28428">
        <ele>149.956665548</ele>
        <time>2010-12-18T14:33:31.699Z</time>
      </trkpt>
      <trkpt lat="43.43101" lon="5.28424">
        <ele>149.993332418</ele>
        <time>2010-12-18T14:33:34.698Z</time>
      </trkpt>
      <trkpt lat="43.4311" lon="5.28422">
        <ele>149.98999939</ele>
        <time>2010-12-18T14:33:36.736Z</time>
      </trkpt>
      <trkpt lat="43.43131" lon="5.2842">
        <ele>150.023333232</ele>
        <time>2010-12-18T14:33:40.699Z</time>
      </trkpt>
      <trkpt lat="43.43146" lon="5.28418">
        <ele>150.066666667</ele>
        <time>2010-12-18T14:33:44.296Z</time>
      </trkpt>
      <trkpt lat="43.43166" lon="5.28416">
        <ele>150.103333537</ele>
        <time>2010-12-18T14:33:47.698Z</time>
      </trkpt>
      <trkpt lat="43.43185" lon="5.28415">
        <ele>150.141936271</ele>
        <time>2010-12-18T14:33:51.702Z</time>
      </trkpt>
      <trkpt lat="43.43195" lon="5.28415">
        <ele>150.176667786</ele>
        <time>2010-12-18T14:33:53.700Z</time>
      </trkpt>
      <trkpt lat="43.43209" lon="5.28416">
        <ele>150.248388475</ele>
        <time>2010-12-18T14:33:56.697Z</time>
      </trkpt>
      <trkpt lat="43.43217" lon="5.28417">
        <ele>150.30645309</ele>
        <time>2010-12-18T14:33:58.693Z</time>
      </trkpt>
      <trkpt lat="43.4323" lon="5.28419">
        <ele>150.409678798</ele>
        <time>2010-12-18T14:34:01.695Z</time>
      </trkpt>
      <trkpt lat="43.43244" lon="5.28421">
        <ele>150.513334656</ele>
        <time>2010-12-18T14:34:04.702Z</time>
      </trkpt>
      <trkpt lat="43.43261" lon="5.28423">
        <ele>150.635484757</ele>
        <time>2010-12-18T14:34:08.702Z</time>
      </trkpt>
      <trkpt lat="43.4328" lon="5.28425">
        <ele>150.84838818</ele>
        <time>2010-12-18T14:34:12.698Z</time>
      </trkpt>
      <trkpt lat="43.43294" lon="5.28424">
        <ele>151.041936075</ele>
        <time>2010-12-18T14:34:15.694Z</time>
      </trkpt>
      <trkpt lat="43.43308" lon="5.28423">
        <ele>151.290000407</ele>
        <time>2010-12-18T14:34:18.702Z</time>
      </trkpt>
      <trkpt lat="43.43328" lon="5.2842">
        <ele>151.546666463</ele>
        <time>2010-12-18T14:34:22.696Z</time>
      </trkpt>
      <trkpt lat="43.43343" lon="5.28418">
        <ele>151.736666361</ele>
        <time>2010-12-18T14:34:25.698Z</time>
      </trkpt>
      <trkpt lat="43.43365" lon="5.28416">
        <ele>151.916128835</ele>
        <time>2010-12-18T14:34:29.695Z</time>
      </trkpt>
      <trkpt lat="43.43382" lon="5.28414">
        <ele>152.079999797</ele>
        <time>2010-12-18T14:34:33.299Z</time>
      </trkpt>
      <trkpt lat="43.43387" lon="5.28413">
        <ele>152.119999695</ele>
        <time>2010-12-18T14:34:34.299Z</time>
      </trkpt>
      <trkpt lat="43.43399" lon="5.28412">
        <ele>152.186666361</ele>
        <time>2010-12-18T14:34:35.704Z</time>
      </trkpt>
      <trkpt lat="43.43417" lon="5.28413">
        <ele>152.251612509</ele>
        <time>2010-12-18T14:34:38.699Z</time>
      </trkpt>
      <trkpt lat="43.43428" lon="5.28415">
        <ele>152.299999606</ele>
        <time>2010-12-18T14:34:40.700Z</time>
      </trkpt>
      <trkpt lat="43.43443" lon="5.2842">
        <ele>152.336665853</ele>
        <time>2010-12-18T14:34:44.296Z</time>
      </trkpt>
      <trkpt lat="43.43452" lon="5.28424">
        <ele>152.353333028</ele>
        <time>2010-12-18T14:34:45.933Z</time>
      </trkpt>
      <trkpt lat="43.43461" lon="5.28429">
        <ele>152.399999803</ele>
        <time>2010-12-18T14:34:47.700Z</time>
      </trkpt>
      <trkpt lat="43.43469" lon="5.28435">
        <ele>152.445160897</ele>
        <time>2010-12-18T14:34:49.697Z</time>
      </trkpt>
      <trkpt lat="43.43484" lon="5.28448">
        <ele>152.553333028</ele>
        <time>2010-12-18T14:34:53.695Z</time>
      </trkpt>
      <trkpt lat="43.4349" lon="5.28456">
        <ele>152.619999695</ele>
        <time>2010-12-18T14:34:55.700Z</time>
      </trkpt>
      <trkpt lat="43.43498" lon="5.28466">
        <ele>152.738708988</ele>
        <time>2010-12-18T14:34:58.679Z</time>
      </trkpt>
      <trkpt lat="43.43504" lon="5.28473">
        <ele>152.91333313</ele>
        <time>2010-12-18T14:35:00.700Z</time>
      </trkpt>
      <trkpt lat="43.43507" lon="5.28477">
        <ele>152.983870968</ele>
        <time>2010-12-18T14:35:01.696Z</time>
      </trkpt>
      <trkpt lat="43.43514" lon="5.28487">
        <ele>153.33666687</ele>
        <time>2010-12-18T14:35:05.279Z</time>
      </trkpt>
      <trkpt lat="43.43522" lon="5.28498">
        <ele>153.612902734</ele>
        <time>2010-12-18T14:35:07.682Z</time>
      </trkpt>
      <trkpt lat="43.43535" lon="5.28511">
        <ele>154.006451514</ele>
        <time>2010-12-18T14:35:11.690Z</time>
      </trkpt>
      <trkpt lat="43.43543" lon="5.28518">
        <ele>154.180645358</ele>
        <time>2010-12-18T14:35:13.690Z</time>
      </trkpt>
      <trkpt lat="43.43546" lon="5.28522">
        <ele>154.264516523</ele>
        <time>2010-12-18T14:35:14.693Z</time>
      </trkpt>
      <trkpt lat="43.43555" lon="5.2853">
        <ele>154.435483871</ele>
        <time>2010-12-18T14:35:16.696Z</time>
      </trkpt>
      <trkpt lat="43.43572" lon="5.28545">
        <ele>154.661290815</ele>
        <time>2010-12-18T14:35:20.694Z</time>
      </trkpt>
      <trkpt lat="43.43576" lon="5.28549">
        <ele>154.763334147</ele>
        <time>2010-12-18T14:35:22.274Z</time>
      </trkpt>
      <trkpt lat="43.4358" lon="5.28552">
        <ele>154.823334249</ele>
        <time>2010-12-18T14:35:23.277Z</time>
      </trkpt>
      <trkpt lat="43.43585" lon="5.28557">
        <ele>154.82258163</ele>
        <time>2010-12-18T14:35:23.687Z</time>
      </trkpt>
      <trkpt lat="43.43599" lon="5.28571">
        <ele>154.951613395</ele>
        <time>2010-12-18T14:35:26.694Z</time>
      </trkpt>
      <trkpt lat="43.43613" lon="5.28586">
        <ele>155.029032553</ele>
        <time>2010-12-18T14:35:29.695Z</time>
      </trkpt>
      <trkpt lat="43.43618" lon="5.28588">
        <ele>155.006452007</ele>
        <time>2010-12-18T14:35:30.698Z</time>
      </trkpt>
      <trkpt lat="43.43628" lon="5.28595">
        <ele>154.893333435</ele>
        <time>2010-12-18T14:35:32.697Z</time>
      </trkpt>
      <trkpt lat="43.43639" lon="5.28602">
        <ele>154.72258094</ele>
        <time>2010-12-18T14:35:34.701Z</time>
      </trkpt>
      <trkpt lat="43.4365" lon="5.28606">
        <ele>154.46000061</ele>
        <time>2010-12-18T14:35:36.703Z</time>
      </trkpt>
      <trkpt lat="43.43655" lon="5.28607">
        <ele>154.333334351</ele>
        <time>2010-12-18T14:35:38.283Z</time>
      </trkpt>
      <trkpt lat="43.43668" lon="5.2861">
        <ele>154.04666748</ele>
        <time>2010-12-18T14:35:39.712Z</time>
      </trkpt>
      <trkpt lat="43.43674" lon="5.2861">
        <ele>153.906667074</ele>
        <time>2010-12-18T14:35:40.703Z</time>
      </trkpt>
      <trkpt lat="43.43686" lon="5.28611">
        <ele>153.620000203</ele>
        <time>2010-12-18T14:35:42.697Z</time>
      </trkpt>
      <trkpt lat="43.43697" lon="5.28609">
        <ele>153.333333333</ele>
        <time>2010-12-18T14:35:44.701Z</time>
      </trkpt>
      <trkpt lat="43.43702" lon="5.28607">
        <ele>153.18666687</ele>
        <time>2010-12-18T14:35:45.700Z</time>
      </trkpt>
      <trkpt lat="43.43713" lon="5.28603">
        <ele>152.903333537</ele>
        <time>2010-12-18T14:35:48.296Z</time>
      </trkpt>
      <trkpt lat="43.43717" lon="5.28601">
        <ele>152.76333313</ele>
        <time>2010-12-18T14:35:48.700Z</time>
      </trkpt>
      <trkpt lat="43.43731" lon="5.28592">
        <ele>152.512903029</ele>
        <time>2010-12-18T14:35:51.703Z</time>
      </trkpt>
      <trkpt lat="43.43744" lon="5.28584">
        <ele>152.08999939</ele>
        <time>2010-12-18T14:35:55.304Z</time>
      </trkpt>
      <trkpt lat="43.43753" lon="5.28577">
        <ele>151.941934893</ele>
        <time>2010-12-18T14:35:56.684Z</time>
      </trkpt>
      <trkpt lat="43.43762" lon="5.28571">
        <ele>151.58999939</ele>
        <time>2010-12-18T14:35:58.699Z</time>
      </trkpt>
      <trkpt lat="43.43774" lon="5.28562">
        <ele>151.425806353</ele>
        <time>2010-12-18T14:36:01.703Z</time>
      </trkpt>
      <trkpt lat="43.43782" lon="5.28558">
        <ele>151.377418764</ele>
        <time>2010-12-18T14:36:03.702Z</time>
      </trkpt>
      <trkpt lat="43.43787" lon="5.28557">
        <ele>151.383870279</ele>
        <time>2010-12-18T14:36:04.698Z</time>
      </trkpt>
      <trkpt lat="43.43796" lon="5.28557">
        <ele>151.470966954</ele>
        <time>2010-12-18T14:36:06.699Z</time>
      </trkpt>
      <trkpt lat="43.438" lon="5.28555">
        <ele>151.538709087</ele>
        <time>2010-12-18T14:36:07.729Z</time>
      </trkpt>
      <trkpt lat="43.43804" lon="5.28552">
        <ele>151.612902241</ele>
        <time>2010-12-18T14:36:08.700Z</time>
      </trkpt>
      <trkpt lat="43.43808" lon="5.28548">
        <ele>151.706450924</ele>
        <time>2010-12-18T14:36:09.703Z</time>
      </trkpt>
      <trkpt lat="43.4381" lon="5.28544">
        <ele>151.836666361</ele>
        <time>2010-12-18T14:36:10.704Z</time>
      </trkpt>
      <trkpt lat="43.43817" lon="5.28535">
        <ele>152.05</ele>
        <time>2010-12-18T14:36:12.703Z</time>
      </trkpt>
      <trkpt lat="43.43821" lon="5.28531">
        <ele>152.160000102</ele>
        <time>2010-12-18T14:36:13.704Z</time>
      </trkpt>
      <trkpt lat="43.43825" lon="5.28529">
        <ele>152.283333333</ele>
        <time>2010-12-18T14:36:14.725Z</time>
      </trkpt>
      <trkpt lat="43.43829" lon="5.28528">
        <ele>152.361290224</ele>
        <time>2010-12-18T14:36:15.699Z</time>
      </trkpt>
      <trkpt lat="43.43833" lon="5.28527">
        <ele>152.553333028</ele>
        <time>2010-12-18T14:36:16.703Z</time>
      </trkpt>
      <trkpt lat="43.43851" lon="5.28523">
        <ele>153.139999898</ele>
        <time>2010-12-18T14:36:21.287Z</time>
      </trkpt>
      <trkpt lat="43.43866" lon="5.2852">
        <ele>153.761290027</ele>
        <time>2010-12-18T14:36:24.720Z</time>
      </trkpt>
      <trkpt lat="43.4388" lon="5.28516">
        <ele>154.27741906</ele>
        <time>2010-12-18T14:36:27.703Z</time>
      </trkpt>
      <trkpt lat="43.43895" lon="5.28512">
        <ele>154.816666667</ele>
        <time>2010-12-18T14:36:30.724Z</time>
      </trkpt>
      <trkpt lat="43.439" lon="5.28513">
        <ele>154.82903216</ele>
        <time>2010-12-18T14:36:31.698Z</time>
      </trkpt>
      <trkpt lat="43.43911" lon="5.28512">
        <ele>155.012903029</ele>
        <time>2010-12-18T14:36:33.701Z</time>
      </trkpt>
      <trkpt lat="43.43916" lon="5.2851">
        <ele>155.070967643</ele>
        <time>2010-12-18T14:36:34.679Z</time>
      </trkpt>
      <trkpt lat="43.43921" lon="5.28506">
        <ele>155.122580744</ele>
        <time>2010-12-18T14:36:35.700Z</time>
      </trkpt>
      <trkpt lat="43.43926" lon="5.28502">
        <ele>155.164516326</ele>
        <time>2010-12-18T14:36:36.685Z</time>
      </trkpt>
      <trkpt lat="43.43928" lon="5.28497">
        <ele>155.216129426</ele>
        <time>2010-12-18T14:36:37.704Z</time>
      </trkpt>
      <trkpt lat="43.4393" lon="5.28491">
        <ele>155.283871066</ele>
        <time>2010-12-18T14:36:38.698Z</time>
      </trkpt>
      <trkpt lat="43.43932" lon="5.28486">
        <ele>155.345161684</ele>
        <time>2010-12-18T14:36:39.700Z</time>
      </trkpt>
      <trkpt lat="43.43934" lon="5.2848">
        <ele>155.443333435</ele>
        <time>2010-12-18T14:36:40.711Z</time>
      </trkpt>
      <trkpt lat="43.43936" lon="5.28475">
        <ele>155.5</ele>
        <time>2010-12-18T14:36:41.812Z</time>
      </trkpt>
      <trkpt lat="43.43941" lon="5.28465">
        <ele>155.561290126</ele>
        <time>2010-12-18T14:36:43.686Z</time>
      </trkpt>
      <trkpt lat="43.43943" lon="5.2846">
        <ele>155.622580251</ele>
        <time>2010-12-18T14:36:44.698Z</time>
      </trkpt>
      <trkpt lat="43.43946" lon="5.28456">
        <ele>155.703333028</ele>
        <time>2010-12-18T14:36:45.704Z</time>
      </trkpt>
      <trkpt lat="43.43949" lon="5.28452">
        <ele>155.703225413</ele>
        <time>2010-12-18T14:36:46.694Z</time>
      </trkpt>
      <trkpt lat="43.43956" lon="5.28443">
        <ele>155.759999593</ele>
        <time>2010-12-18T14:36:48.712Z</time>
      </trkpt>
      <trkpt lat="43.43963" lon="5.28435">
        <ele>155.745160995</ele>
        <time>2010-12-18T14:36:50.700Z</time>
      </trkpt>
      <trkpt lat="43.43967" lon="5.28431">
        <ele>155.729031963</ele>
        <time>2010-12-18T14:36:51.683Z</time>
      </trkpt>
      <trkpt lat="43.43972" lon="5.28428">
        <ele>155.676666768</ele>
        <time>2010-12-18T14:36:52.702Z</time>
      </trkpt>
      <trkpt lat="43.43976" lon="5.28426">
        <ele>155.626666768</ele>
        <time>2010-12-18T14:36:53.712Z</time>
      </trkpt>
      <trkpt lat="43.43991" lon="5.28417">
        <ele>155.490322974</ele>
        <time>2010-12-18T14:36:57.700Z</time>
      </trkpt>
      <trkpt lat="43.44007" lon="5.28409">
        <ele>155.451613395</ele>
        <time>2010-12-18T14:37:01.696Z</time>
      </trkpt>
      <trkpt lat="43.44018" lon="5.28404">
        <ele>155.57333374</ele>
        <time>2010-12-18T14:37:04.695Z</time>
      </trkpt>
      <trkpt lat="43.44024" lon="5.28401">
        <ele>155.666666667</ele>
        <time>2010-12-18T14:37:06.699Z</time>
      </trkpt>
      <trkpt lat="43.44027" lon="5.28399">
        <ele>155.674193351</ele>
        <time>2010-12-18T14:37:07.703Z</time>
      </trkpt>
      <trkpt lat="43.4403" lon="5.28395">
        <ele>155.71333313</ele>
        <time>2010-12-18T14:37:08.700Z</time>
      </trkpt>
      <trkpt lat="43.44031" lon="5.2839">
        <ele>155.725806452</ele>
        <time>2010-12-18T14:37:09.698Z</time>
      </trkpt>
      <trkpt lat="43.44032" lon="5.28385">
        <ele>155.758064516</ele>
        <time>2010-12-18T14:37:10.697Z</time>
      </trkpt>
      <trkpt lat="43.44032" lon="5.28382">
        <ele>155.806451613</ele>
        <time>2010-12-18T14:37:11.716Z</time>
      </trkpt>
      <trkpt lat="43.44033" lon="5.28377">
        <ele>155.933333333</ele>
        <time>2010-12-18T14:37:13.695Z</time>
      </trkpt>
      <trkpt lat="43.44034" lon="5.28374">
        <ele>155.990000407</ele>
        <time>2010-12-18T14:37:14.706Z</time>
      </trkpt>
      <trkpt lat="43.44036" lon="5.28371">
        <ele>156.038710071</ele>
        <time>2010-12-18T14:37:15.699Z</time>
      </trkpt>
      <trkpt lat="43.44039" lon="5.28364">
        <ele>156.145161783</ele>
        <time>2010-12-18T14:37:17.705Z</time>
      </trkpt>
      <trkpt lat="43.44043" lon="5.28357">
        <ele>156.293333944</ele>
        <time>2010-12-18T14:37:19.703Z</time>
      </trkpt>
      <trkpt lat="43.44046" lon="5.28354">
        <ele>156.370000712</ele>
        <time>2010-12-18T14:37:20.709Z</time>
      </trkpt>
      <trkpt lat="43.44049" lon="5.28352">
        <ele>156.446666972</ele>
        <time>2010-12-18T14:37:21.696Z</time>
      </trkpt>
      <trkpt lat="43.44052" lon="5.28351">
        <ele>156.496774489</ele>
        <time>2010-12-18T14:37:22.695Z</time>
      </trkpt>
      <trkpt lat="43.44055" lon="5.2835">
        <ele>156.580645161</ele>
        <time>2010-12-18T14:37:23.698Z</time>
      </trkpt>
      <trkpt lat="43.44061" lon="5.28347">
        <ele>156.813333639</ele>
        <time>2010-12-18T14:37:25.714Z</time>
      </trkpt>
      <trkpt lat="43.44074" lon="5.28341">
        <ele>157.148386801</ele>
        <time>2010-12-18T14:37:29.703Z</time>
      </trkpt>
      <trkpt lat="43.44081" lon="5.28336">
        <ele>157.393332926</ele>
        <time>2010-12-18T14:37:32.294Z</time>
      </trkpt>
      <trkpt lat="43.44094" lon="5.28327">
        <ele>157.669999695</ele>
        <time>2010-12-18T14:37:35.705Z</time>
      </trkpt>
      <trkpt lat="43.44105" lon="5.28321">
        <ele>157.806451121</ele>
        <time>2010-12-18T14:37:38.699Z</time>
      </trkpt>
      <trkpt lat="43.44113" lon="5.28317">
        <ele>157.97666626</ele>
        <time>2010-12-18T14:37:40.699Z</time>
      </trkpt>
      <trkpt lat="43.44125" lon="5.28314">
        <ele>158.046665955</ele>
        <time>2010-12-18T14:37:43.696Z</time>
      </trkpt>
      <trkpt lat="43.44133" lon="5.28312">
        <ele>158.083332825</ele>
        <time>2010-12-18T14:37:45.701Z</time>
      </trkpt>
      <trkpt lat="43.44141" lon="5.28309">
        <ele>158.136666361</ele>
        <time>2010-12-18T14:37:48.292Z</time>
      </trkpt>
      <trkpt lat="43.44155" lon="5.28302">
        <ele>158.223333232</ele>
        <time>2010-12-18T14:37:51.703Z</time>
      </trkpt>
      <trkpt lat="43.44165" lon="5.28296">
        <ele>158.253333028</ele>
        <time>2010-12-18T14:37:54.718Z</time>
      </trkpt>
      <trkpt lat="43.44173" lon="5.28289">
        <ele>158.270000203</ele>
        <time>2010-12-18T14:37:58.293Z</time>
      </trkpt>
      <trkpt lat="43.44183" lon="5.28279">
        <ele>158.280645555</ele>
        <time>2010-12-18T14:38:00.701Z</time>
      </trkpt>
      <trkpt lat="43.44196" lon="5.28267">
        <ele>158.34666748</ele>
        <time>2010-12-18T14:38:04.704Z</time>
      </trkpt>
      <trkpt lat="43.44199" lon="5.28264">
        <ele>158.354839694</ele>
        <time>2010-12-18T14:38:05.699Z</time>
      </trkpt>
      <trkpt lat="43.44209" lon="5.28254">
        <ele>158.448388377</ele>
        <time>2010-12-18T14:38:08.699Z</time>
      </trkpt>
      <trkpt lat="43.44221" lon="5.28241">
        <ele>158.586668396</ele>
        <time>2010-12-18T14:38:12.702Z</time>
      </trkpt>
      <trkpt lat="43.4423" lon="5.2823">
        <ele>158.693334961</ele>
        <time>2010-12-18T14:38:15.741Z</time>
      </trkpt>
      <trkpt lat="43.44237" lon="5.28223">
        <ele>158.770969022</ele>
        <time>2010-12-18T14:38:17.705Z</time>
      </trkpt>
      <trkpt lat="43.44247" lon="5.28215">
        <ele>158.940001424</ele>
        <time>2010-12-18T14:38:21.292Z</time>
      </trkpt>
      <trkpt lat="43.44253" lon="5.28208">
        <ele>159.050001017</ele>
        <time>2010-12-18T14:38:22.739Z</time>
      </trkpt>
      <trkpt lat="43.44266" lon="5.28196">
        <ele>159.263334656</ele>
        <time>2010-12-18T14:38:26.703Z</time>
      </trkpt>
      <trkpt lat="43.44269" lon="5.28192">
        <ele>159.283872051</ele>
        <time>2010-12-18T14:38:27.699Z</time>
      </trkpt>
      <trkpt lat="43.44276" lon="5.28187">
        <ele>159.376667786</ele>
        <time>2010-12-18T14:38:30.288Z</time>
      </trkpt>
      <trkpt lat="43.44292" lon="5.28177">
        <ele>159.448387884</ele>
        <time>2010-12-18T14:38:33.701Z</time>
      </trkpt>
      <trkpt lat="43.44296" lon="5.28176">
        <ele>159.461291405</ele>
        <time>2010-12-18T14:38:34.697Z</time>
      </trkpt>
      <trkpt lat="43.44301" lon="5.28175">
        <ele>159.51000061</ele>
        <time>2010-12-18T14:38:36.296Z</time>
      </trkpt>
      <trkpt lat="43.44319" lon="5.28171">
        <ele>159.520000712</ele>
        <time>2010-12-18T14:38:39.706Z</time>
      </trkpt>
      <trkpt lat="43.44333" lon="5.28169">
        <ele>159.493333944</ele>
        <time>2010-12-18T14:38:42.713Z</time>
      </trkpt>
      <trkpt lat="43.44351" lon="5.28167">
        <ele>159.406667074</ele>
        <time>2010-12-18T14:38:47.294Z</time>
      </trkpt>
      <trkpt lat="43.4437" lon="5.28166">
        <ele>159.209677912</ele>
        <time>2010-12-18T14:38:50.702Z</time>
      </trkpt>
      <trkpt lat="43.44375" lon="5.28165">
        <ele>159.103334045</ele>
        <time>2010-12-18T14:38:52.289Z</time>
      </trkpt>
      <trkpt lat="43.44396" lon="5.28161">
        <ele>158.740000407</ele>
        <time>2010-12-18T14:38:55.698Z</time>
      </trkpt>
      <trkpt lat="43.44402" lon="5.28158">
        <ele>158.636667379</ele>
        <time>2010-12-18T14:38:56.712Z</time>
      </trkpt>
      <trkpt lat="43.44418" lon="5.28151">
        <ele>158.335484659</ele>
        <time>2010-12-18T14:38:59.703Z</time>
      </trkpt>
      <trkpt lat="43.44424" lon="5.2815">
        <ele>158.212903915</ele>
        <time>2010-12-18T14:39:00.700Z</time>
      </trkpt>
      <trkpt lat="43.4443" lon="5.28147">
        <ele>158.036667379</ele>
        <time>2010-12-18T14:39:01.714Z</time>
      </trkpt>
      <trkpt lat="43.44441" lon="5.28143">
        <ele>157.835484659</ele>
        <time>2010-12-18T14:39:03.696Z</time>
      </trkpt>
      <trkpt lat="43.4445" lon="5.28138">
        <ele>157.619355725</ele>
        <time>2010-12-18T14:39:05.702Z</time>
      </trkpt>
      <trkpt lat="43.44454" lon="5.28134">
        <ele>157.466667684</ele>
        <time>2010-12-18T14:39:06.703Z</time>
      </trkpt>
      <trkpt lat="43.44458" lon="5.2813">
        <ele>157.419355823</ele>
        <time>2010-12-18T14:39:07.704Z</time>
      </trkpt>
      <trkpt lat="43.44462" lon="5.28127">
        <ele>157.273334249</ele>
        <time>2010-12-18T14:39:08.705Z</time>
      </trkpt>
      <trkpt lat="43.44466" lon="5.28125">
        <ele>157.238710465</ele>
        <time>2010-12-18T14:39:09.697Z</time>
      </trkpt>
      <trkpt lat="43.44471" lon="5.28124">
        <ele>157.151613789</ele>
        <time>2010-12-18T14:39:10.696Z</time>
      </trkpt>
      <trkpt lat="43.44475" lon="5.28122">
        <ele>157.016667175</ele>
        <time>2010-12-18T14:39:11.704Z</time>
      </trkpt>
      <trkpt lat="43.4448" lon="5.28121">
        <ele>157.000000492</ele>
        <time>2010-12-18T14:39:12.702Z</time>
      </trkpt>
      <trkpt lat="43.44492" lon="5.28115">
        <ele>156.841935681</ele>
        <time>2010-12-18T14:39:15.701Z</time>
      </trkpt>
      <trkpt lat="43.44496" lon="5.28112">
        <ele>156.803226102</ele>
        <time>2010-12-18T14:39:16.698Z</time>
      </trkpt>
      <trkpt lat="43.44507" lon="5.28106">
        <ele>156.732258951</ele>
        <time>2010-12-18T14:39:19.697Z</time>
      </trkpt>
      <trkpt lat="43.4451" lon="5.28103">
        <ele>156.680000814</ele>
        <time>2010-12-18T14:39:20.705Z</time>
      </trkpt>
      <trkpt lat="43.44517" lon="5.28099">
        <ele>156.725806944</ele>
        <time>2010-12-18T14:39:22.705Z</time>
      </trkpt>
      <trkpt lat="43.4452" lon="5.28097">
        <ele>156.741935976</ele>
        <time>2010-12-18T14:39:23.700Z</time>
      </trkpt>
      <trkpt lat="43.44523" lon="5.28094">
        <ele>156.758065008</ele>
        <time>2010-12-18T14:39:24.716Z</time>
      </trkpt>
      <trkpt lat="43.44526" lon="5.28091">
        <ele>156.766667684</ele>
        <time>2010-12-18T14:39:25.703Z</time>
      </trkpt>
      <trkpt lat="43.44535" lon="5.28082">
        <ele>156.933333842</ele>
        <time>2010-12-18T14:39:28.704Z</time>
      </trkpt>
      <trkpt lat="43.44538" lon="5.28079">
        <ele>157.01000061</ele>
        <time>2010-12-18T14:39:29.705Z</time>
      </trkpt>
      <trkpt lat="43.44544" lon="5.28074">
        <ele>157.161290815</ele>
        <time>2010-12-18T14:39:31.700Z</time>
      </trkpt>
      <trkpt lat="43.44547" lon="5.28071">
        <ele>157.326667277</ele>
        <time>2010-12-18T14:39:32.700Z</time>
      </trkpt>
      <trkpt lat="43.44554" lon="5.28067">
        <ele>157.570000712</ele>
        <time>2010-12-18T14:39:35.294Z</time>
      </trkpt>
      <trkpt lat="43.4456" lon="5.28062">
        <ele>157.748387491</ele>
        <time>2010-12-18T14:39:36.697Z</time>
      </trkpt>
      <trkpt lat="43.44563" lon="5.28059">
        <ele>157.861290716</ele>
        <time>2010-12-18T14:39:37.698Z</time>
      </trkpt>
      <trkpt lat="43.44572" lon="5.28051">
        <ele>158.293333944</ele>
        <time>2010-12-18T14:39:41.302Z</time>
      </trkpt>
      <trkpt lat="43.44578" lon="5.28045">
        <ele>158.553334045</ele>
        <time>2010-12-18T14:39:42.716Z</time>
      </trkpt>
      <trkpt lat="43.44589" lon="5.28032">
        <ele>159.010001119</ele>
        <time>2010-12-18T14:39:46.699Z</time>
      </trkpt>
      <trkpt lat="43.44593" lon="5.28029">
        <ele>159.120001221</ele>
        <time>2010-12-18T14:39:47.705Z</time>
      </trkpt>
      <trkpt lat="43.44602" lon="5.2802">
        <ele>159.420000712</ele>
        <time>2010-12-18T14:39:51.276Z</time>
      </trkpt>
      <trkpt lat="43.44613" lon="5.28008">
        <ele>159.770968037</ele>
        <time>2010-12-18T14:39:54.714Z</time>
      </trkpt>
      <trkpt lat="43.44619" lon="5.28004">
        <ele>160.053333537</ele>
        <time>2010-12-18T14:39:57.289Z</time>
      </trkpt>
      <trkpt lat="43.44626" lon="5.28">
        <ele>160.22258094</ele>
        <time>2010-12-18T14:39:58.702Z</time>
      </trkpt>
      <trkpt lat="43.44629" lon="5.27998">
        <ele>160.335484166</ele>
        <time>2010-12-18T14:39:59.703Z</time>
      </trkpt>
      <trkpt lat="43.44632" lon="5.27995">
        <ele>160.520000203</ele>
        <time>2010-12-18T14:40:00.712Z</time>
      </trkpt>
      <trkpt lat="43.44645" lon="5.27983">
        <ele>160.874193745</ele>
        <time>2010-12-18T14:40:04.699Z</time>
      </trkpt>
      <trkpt lat="43.44654" lon="5.27975">
        <ele>161.2</ele>
        <time>2010-12-18T14:40:08.268Z</time>
      </trkpt>
      <trkpt lat="43.44664" lon="5.27968">
        <ele>161.409677321</ele>
        <time>2010-12-18T14:40:10.701Z</time>
      </trkpt>
      <trkpt lat="43.44674" lon="5.2796">
        <ele>161.659999593</ele>
        <time>2010-12-18T14:40:14.272Z</time>
      </trkpt>
      <trkpt lat="43.44687" lon="5.2795">
        <ele>161.899999803</ele>
        <time>2010-12-18T14:40:17.704Z</time>
      </trkpt>
      <trkpt lat="43.447" lon="5.27939">
        <ele>162.243333435</ele>
        <time>2010-12-18T14:40:21.699Z</time>
      </trkpt>
      <trkpt lat="43.44709" lon="5.27929">
        <ele>162.47333374</ele>
        <time>2010-12-18T14:40:24.718Z</time>
      </trkpt>
      <trkpt lat="43.44722" lon="5.27917">
        <ele>162.780000305</ele>
        <time>2010-12-18T14:40:29.284Z</time>
      </trkpt>
      <trkpt lat="43.44725" lon="5.27913">
        <ele>162.856667074</ele>
        <time>2010-12-18T14:40:30.285Z</time>
      </trkpt>
      <trkpt lat="43.44733" lon="5.27903">
        <ele>163.07333374</ele>
        <time>2010-12-18T14:40:32.704Z</time>
      </trkpt>
      <trkpt lat="43.44739" lon="5.27898">
        <ele>163.226666768</ele>
        <time>2010-12-18T14:40:34.795Z</time>
      </trkpt>
      <trkpt lat="43.44748" lon="5.27889">
        <ele>163.441935385</ele>
        <time>2010-12-18T14:40:37.717Z</time>
      </trkpt>
      <trkpt lat="43.44759" lon="5.27876">
        <ele>163.836667887</ele>
        <time>2010-12-18T14:40:41.701Z</time>
      </trkpt>
      <trkpt lat="43.44766" lon="5.27865">
        <ele>164.032259541</ele>
        <time>2010-12-18T14:40:44.681Z</time>
      </trkpt>
      <trkpt lat="43.44768" lon="5.2786">
        <ele>164.143334961</ele>
        <time>2010-12-18T14:40:46.278Z</time>
      </trkpt>
      <trkpt lat="43.44771" lon="5.2785">
        <ele>164.187098349</ele>
        <time>2010-12-18T14:40:47.699Z</time>
      </trkpt>
      <trkpt lat="43.44777" lon="5.27834">
        <ele>164.229033932</ele>
        <time>2010-12-18T14:40:50.698Z</time>
      </trkpt>
      <trkpt lat="43.44779" lon="5.27827">
        <ele>164.209678896</ele>
        <time>2010-12-18T14:40:51.694Z</time>
      </trkpt>
      <trkpt lat="43.44784" lon="5.27804">
        <ele>164.056668599</ele>
        <time>2010-12-18T14:40:54.719Z</time>
      </trkpt>
      <trkpt lat="43.44784" lon="5.27796">
        <ele>163.970001729</ele>
        <time>2010-12-18T14:40:56.293Z</time>
      </trkpt>
      <trkpt lat="43.44782" lon="5.2779">
        <ele>163.880646736</ele>
        <time>2010-12-18T14:40:56.677Z</time>
      </trkpt>
      <trkpt lat="43.44781" lon="5.27784">
        <ele>163.803227578</ele>
        <time>2010-12-18T14:40:57.695Z</time>
      </trkpt>
      <trkpt lat="43.44779" lon="5.27775">
        <ele>163.625808224</ele>
        <time>2010-12-18T14:40:59.699Z</time>
      </trkpt>
      <trkpt lat="43.44777" lon="5.27767">
        <ele>163.419356808</ele>
        <time>2010-12-18T14:41:01.698Z</time>
      </trkpt>
      <trkpt lat="43.44776" lon="5.27763">
        <ele>163.3161311</ele>
        <time>2010-12-18T14:41:02.696Z</time>
      </trkpt>
      <trkpt lat="43.44773" lon="5.27756">
        <ele>163.129034227</ele>
        <time>2010-12-18T14:41:04.697Z</time>
      </trkpt>
      <trkpt lat="43.44772" lon="5.27752">
        <ele>163.041937551</ele>
        <time>2010-12-18T14:41:05.697Z</time>
      </trkpt>
      <trkpt lat="43.44769" lon="5.27746">
        <ele>162.887098743</ele>
        <time>2010-12-18T14:41:07.701Z</time>
      </trkpt>
      <trkpt lat="43.44764" lon="5.27733">
        <ele>162.553335063</ele>
        <time>2010-12-18T14:41:12.278Z</time>
      </trkpt>
      <trkpt lat="43.44761" lon="5.27724">
        <ele>162.426667786</ele>
        <time>2010-12-18T14:41:14.699Z</time>
      </trkpt>
      <trkpt lat="43.44759" lon="5.27718">
        <ele>162.474194434</ele>
        <time>2010-12-18T14:41:16.682Z</time>
      </trkpt>
      <trkpt lat="43.4476" lon="5.27712">
        <ele>162.44666748</ele>
        <time>2010-12-18T14:41:19.279Z</time>
      </trkpt>
      <trkpt lat="43.4476" lon="5.27709">
        <ele>162.516130017</ele>
        <time>2010-12-18T14:41:19.697Z</time>
      </trkpt>
      <trkpt lat="43.4476" lon="5.27705">
        <ele>162.564517113</ele>
        <time>2010-12-18T14:41:20.696Z</time>
      </trkpt>
      <trkpt lat="43.44761" lon="5.27698">
        <ele>162.733333842</ele>
        <time>2010-12-18T14:41:22.697Z</time>
      </trkpt>
      <trkpt lat="43.44762" lon="5.27691">
        <ele>162.95806491</ele>
        <time>2010-12-18T14:41:24.715Z</time>
      </trkpt>
      <trkpt lat="43.44765" lon="5.27681">
        <ele>163.490000407</ele>
        <time>2010-12-18T14:41:27.701Z</time>
      </trkpt>
      <trkpt lat="43.44767" lon="5.27674">
        <ele>163.85</ele>
        <time>2010-12-18T14:41:29.704Z</time>
      </trkpt>
      <trkpt lat="43.44768" lon="5.27672">
        <ele>164.043332926</ele>
        <time>2010-12-18T14:41:30.705Z</time>
      </trkpt>
      <trkpt lat="43.44769" lon="5.27668">
        <ele>164.246666463</ele>
        <time>2010-12-18T14:41:31.702Z</time>
      </trkpt>
      <trkpt lat="43.44771" lon="5.27665">
        <ele>164.459999593</ele>
        <time>2010-12-18T14:41:32.698Z</time>
      </trkpt>
      <trkpt lat="43.44772" lon="5.27662">
        <ele>164.656666565</ele>
        <time>2010-12-18T14:41:33.699Z</time>
      </trkpt>
      <trkpt lat="43.44774" lon="5.2766">
        <ele>164.853333028</ele>
        <time>2010-12-18T14:41:34.699Z</time>
      </trkpt>
      <trkpt lat="43.44776" lon="5.27657">
        <ele>164.935483379</ele>
        <time>2010-12-18T14:41:35.696Z</time>
      </trkpt>
      <trkpt lat="43.44778" lon="5.27655">
        <ele>165.125805763</ele>
        <time>2010-12-18T14:41:36.699Z</time>
      </trkpt>
      <trkpt lat="43.4478" lon="5.27653">
        <ele>165.399999491</ele>
        <time>2010-12-18T14:41:37.704Z</time>
      </trkpt>
      <trkpt lat="43.44786" lon="5.27647">
        <ele>165.919998678</ele>
        <time>2010-12-18T14:41:40.703Z</time>
      </trkpt>
      <trkpt lat="43.44788" lon="5.27644">
        <ele>166.003224527</ele>
        <time>2010-12-18T14:41:41.736Z</time>
      </trkpt>
      <trkpt lat="43.4479" lon="5.27641">
        <ele>166.170966364</ele>
        <time>2010-12-18T14:41:42.699Z</time>
      </trkpt>
      <trkpt lat="43.44791" lon="5.27638">
        <ele>166.429998271</ele>
        <time>2010-12-18T14:41:43.748Z</time>
      </trkpt>
      <trkpt lat="43.44795" lon="5.2763">
        <ele>166.896665446</ele>
        <time>2010-12-18T14:41:46.700Z</time>
      </trkpt>
      <trkpt lat="43.44798" lon="5.27623">
        <ele>167.103224724</ele>
        <time>2010-12-18T14:41:48.709Z</time>
      </trkpt>
      <trkpt lat="43.448" lon="5.27617">
        <ele>167.479998779</ele>
        <time>2010-12-18T14:41:51.295Z</time>
      </trkpt>
      <trkpt lat="43.44803" lon="5.2761">
        <ele>167.680644374</ele>
        <time>2010-12-18T14:41:52.697Z</time>
      </trkpt>
      <trkpt lat="43.44808" lon="5.27601">
        <ele>168.143332418</ele>
        <time>2010-12-18T14:41:55.703Z</time>
      </trkpt>
      <trkpt lat="43.44815" lon="5.27588">
        <ele>168.583332825</ele>
        <time>2010-12-18T14:41:59.717Z</time>
      </trkpt>
      <trkpt lat="43.44819" lon="5.27579">
        <ele>168.832257671</ele>
        <time>2010-12-18T14:42:02.696Z</time>
      </trkpt>
      <trkpt lat="43.44827" lon="5.27567">
        <ele>169.286666361</ele>
        <time>2010-12-18T14:42:07.285Z</time>
      </trkpt>
      <trkpt lat="43.4483" lon="5.27561">
        <ele>169.432257868</ele>
        <time>2010-12-18T14:42:08.702Z</time>
      </trkpt>
      <trkpt lat="43.44832" lon="5.27557">
        <ele>169.529032061</ele>
        <time>2010-12-18T14:42:09.704Z</time>
      </trkpt>
      <trkpt lat="43.44833" lon="5.27554">
        <ele>169.65</ele>
        <time>2010-12-18T14:42:10.704Z</time>
      </trkpt>
      <trkpt lat="43.44836" lon="5.27547">
        <ele>169.787096577</ele>
        <time>2010-12-18T14:42:12.699Z</time>
      </trkpt>
      <trkpt lat="43.44839" lon="5.27541">
        <ele>169.961290421</ele>
        <time>2010-12-18T14:42:14.696Z</time>
      </trkpt>
      <trkpt lat="43.44846" lon="5.27528">
        <ele>170.296773603</ele>
        <time>2010-12-18T14:42:18.697Z</time>
      </trkpt>
      <trkpt lat="43.4485" lon="5.27518">
        <ele>170.599998983</ele>
        <time>2010-12-18T14:42:21.700Z</time>
      </trkpt>
      <trkpt lat="43.44854" lon="5.27511">
        <ele>170.776665243</ele>
        <time>2010-12-18T14:42:24.297Z</time>
      </trkpt>
      <trkpt lat="43.44857" lon="5.27505">
        <ele>170.953332011</ele>
        <time>2010-12-18T14:42:25.706Z</time>
      </trkpt>
      <trkpt lat="43.44861" lon="5.27498">
        <ele>171.123331706</ele>
        <time>2010-12-18T14:42:27.704Z</time>
      </trkpt>
      <trkpt lat="43.44866" lon="5.27492">
        <ele>171.251611033</ele>
        <time>2010-12-18T14:42:29.704Z</time>
      </trkpt>
      <trkpt lat="43.44872" lon="5.2748">
        <ele>171.573331197</ele>
        <time>2010-12-18T14:42:33.295Z</time>
      </trkpt>
      <trkpt lat="43.44879" lon="5.27466">
        <ele>171.912901355</ele>
        <time>2010-12-18T14:42:36.702Z</time>
      </trkpt>
      <trkpt lat="43.44885" lon="5.27455">
        <ele>172.243331401</ele>
        <time>2010-12-18T14:42:40.299Z</time>
      </trkpt>
      <trkpt lat="43.44893" lon="5.2744">
        <ele>172.606450235</ele>
        <time>2010-12-18T14:42:43.696Z</time>
      </trkpt>
      <trkpt lat="43.449" lon="5.27426">
        <ele>173.041934598</ele>
        <time>2010-12-18T14:42:47.694Z</time>
      </trkpt>
      <trkpt lat="43.44905" lon="5.27416">
        <ele>173.46451544</ele>
        <time>2010-12-18T14:42:50.686Z</time>
      </trkpt>
      <trkpt lat="43.44909" lon="5.27408">
        <ele>173.883870279</ele>
        <time>2010-12-18T14:42:53.694Z</time>
      </trkpt>
      <trkpt lat="43.44911" lon="5.27402">
        <ele>174.236665853</ele>
        <time>2010-12-18T14:42:56.290Z</time>
      </trkpt>
      <trkpt lat="43.44913" lon="5.27395">
        <ele>174.458063925</ele>
        <time>2010-12-18T14:42:57.697Z</time>
      </trkpt>
      <trkpt lat="43.44915" lon="5.27392">
        <ele>174.603225216</ele>
        <time>2010-12-18T14:42:58.697Z</time>
      </trkpt>
      <trkpt lat="43.44918" lon="5.27382">
        <ele>175.035483576</ele>
        <time>2010-12-18T14:43:01.694Z</time>
      </trkpt>
      <trkpt lat="43.44921" lon="5.27376">
        <ele>175.309677124</ele>
        <time>2010-12-18T14:43:03.697Z</time>
      </trkpt>
      <trkpt lat="43.44923" lon="5.27373">
        <ele>175.445160897</ele>
        <time>2010-12-18T14:43:04.698Z</time>
      </trkpt>
      <trkpt lat="43.44924" lon="5.27371">
        <ele>175.646666463</ele>
        <time>2010-12-18T14:43:05.702Z</time>
      </trkpt>
      <trkpt lat="43.44926" lon="5.27369">
        <ele>175.706451416</ele>
        <time>2010-12-18T14:43:06.701Z</time>
      </trkpt>
      <trkpt lat="43.44931" lon="5.27365">
        <ele>175.961289929</ele>
        <time>2010-12-18T14:43:08.699Z</time>
      </trkpt>
      <trkpt lat="43.44933" lon="5.27363">
        <ele>176.077418666</ele>
        <time>2010-12-18T14:43:09.696Z</time>
      </trkpt>
      <trkpt lat="43.44936" lon="5.27363">
        <ele>176.263332621</ele>
        <time>2010-12-18T14:43:10.699Z</time>
      </trkpt>
      <trkpt lat="43.44939" lon="5.27363">
        <ele>176.303225117</ele>
        <time>2010-12-18T14:43:11.696Z</time>
      </trkpt>
      <trkpt lat="43.44941" lon="5.27364">
        <ele>176.486665853</ele>
        <time>2010-12-18T14:43:12.707Z</time>
      </trkpt>
      <trkpt lat="43.44944" lon="5.27364">
        <ele>176.519354051</ele>
        <time>2010-12-18T14:43:13.695Z</time>
      </trkpt>
      <trkpt lat="43.44946" lon="5.27365">
        <ele>176.616128245</ele>
        <time>2010-12-18T14:43:14.696Z</time>
      </trkpt>
      <trkpt lat="43.44949" lon="5.27366">
        <ele>176.699998917</ele>
        <time>2010-12-18T14:43:15.704Z</time>
      </trkpt>
      <trkpt lat="43.44951" lon="5.27368">
        <ele>176.846665446</ele>
        <time>2010-12-18T14:43:16.978Z</time>
      </trkpt>
      <trkpt lat="43.44954" lon="5.2737">
        <ele>176.916665141</ele>
        <time>2010-12-18T14:43:17.706Z</time>
      </trkpt>
      <trkpt lat="43.44955" lon="5.27373">
        <ele>176.969998678</ele>
        <time>2010-12-18T14:43:18.700Z</time>
      </trkpt>
      <trkpt lat="43.44957" lon="5.27376">
        <ele>176.964514948</ele>
        <time>2010-12-18T14:43:19.696Z</time>
      </trkpt>
      <trkpt lat="43.44958" lon="5.27379">
        <ele>177.026665243</ele>
        <time>2010-12-18T14:43:20.697Z</time>
      </trkpt>
      <trkpt lat="43.44958" lon="5.27383">
        <ele>177.056665039</ele>
        <time>2010-12-18T14:43:21.703Z</time>
      </trkpt>
      <trkpt lat="43.44958" lon="5.27386">
        <ele>177.045159617</ele>
        <time>2010-12-18T14:43:22.684Z</time>
      </trkpt>
      <trkpt lat="43.44959" lon="5.2739">
        <ele>177.064514652</ele>
        <time>2010-12-18T14:43:23.686Z</time>
      </trkpt>
      <trkpt lat="43.44958" lon="5.27394">
        <ele>177.080643685</ele>
        <time>2010-12-18T14:43:24.711Z</time>
      </trkpt>
      <trkpt lat="43.44958" lon="5.27398">
        <ele>177.090321202</ele>
        <time>2010-12-18T14:43:25.698Z</time>
      </trkpt>
      <trkpt lat="43.44958" lon="5.27402">
        <ele>177.096773209</ele>
        <time>2010-12-18T14:43:26.695Z</time>
      </trkpt>
      <trkpt lat="43.44959" lon="5.27406">
        <ele>177.113332113</ele>
        <time>2010-12-18T14:43:27.705Z</time>
      </trkpt>
      <trkpt lat="43.44959" lon="5.27409">
        <ele>177.116665649</ele>
        <time>2010-12-18T14:43:28.704Z</time>
      </trkpt>
      <trkpt lat="43.4496" lon="5.27413">
        <ele>177.119999186</ele>
        <time>2010-12-18T14:43:29.705Z</time>
      </trkpt>
      <trkpt lat="43.44962" lon="5.27416">
        <ele>177.119999186</ele>
        <time>2010-12-18T14:43:30.692Z</time>
      </trkpt>
      <trkpt lat="43.44963" lon="5.2742">
        <ele>177.123332214</ele>
        <time>2010-12-18T14:43:31.699Z</time>
      </trkpt>
      <trkpt lat="43.44968" lon="5.27433">
        <ele>177.129031766</ele>
        <time>2010-12-18T14:43:35.699Z</time>
      </trkpt>
      <trkpt lat="43.44971" lon="5.27439">
        <ele>177.15</ele>
        <time>2010-12-18T14:43:38.292Z</time>
      </trkpt>
      <trkpt lat="43.44974" lon="5.27444">
        <ele>177.203333537</ele>
        <time>2010-12-18T14:43:39.699Z</time>
      </trkpt>
      <trkpt lat="43.44977" lon="5.2745">
        <ele>177.28666687</ele>
        <time>2010-12-18T14:43:41.700Z</time>
      </trkpt>
      <trkpt lat="43.44981" lon="5.27455">
        <ele>177.390000407</ele>
        <time>2010-12-18T14:43:44.289Z</time>
      </trkpt>
      <trkpt lat="43.44987" lon="5.27462">
        <ele>177.612903718</ele>
        <time>2010-12-18T14:43:46.698Z</time>
      </trkpt>
      <trkpt lat="43.44991" lon="5.27468">
        <ele>177.793549076</ele>
        <time>2010-12-18T14:43:48.694Z</time>
      </trkpt>
      <trkpt lat="43.44993" lon="5.27471">
        <ele>177.930000305</ele>
        <time>2010-12-18T14:43:49.707Z</time>
      </trkpt>
      <trkpt lat="43.44998" lon="5.27476">
        <ele>178.132258261</ele>
        <time>2010-12-18T14:43:51.696Z</time>
      </trkpt>
      <trkpt lat="43.45003" lon="5.27484">
        <ele>178.503226496</ele>
        <time>2010-12-18T14:43:54.710Z</time>
      </trkpt>
      <trkpt lat="43.45007" lon="5.27489">
        <ele>178.846666972</ele>
        <time>2010-12-18T14:43:56.698Z</time>
      </trkpt>
      <trkpt lat="43.45009" lon="5.27492">
        <ele>178.919355331</ele>
        <time>2010-12-18T14:43:57.697Z</time>
      </trkpt>
      <trkpt lat="43.45012" lon="5.27494">
        <ele>179.054839103</ele>
        <time>2010-12-18T14:43:58.695Z</time>
      </trkpt>
      <trkpt lat="43.45017" lon="5.27499">
        <ele>179.383333333</ele>
        <time>2010-12-18T14:44:00.698Z</time>
      </trkpt>
      <trkpt lat="43.45022" lon="5.27503">
        <ele>179.541935582</ele>
        <time>2010-12-18T14:44:02.695Z</time>
      </trkpt>
      <trkpt lat="43.45031" lon="5.2751">
        <ele>179.88064526</ele>
        <time>2010-12-18T14:44:05.699Z</time>
      </trkpt>
      <trkpt lat="43.45034" lon="5.27512">
        <ele>180.046666463</ele>
        <time>2010-12-18T14:44:06.696Z</time>
      </trkpt>
      <trkpt lat="43.45044" lon="5.27522">
        <ele>180.326666768</ele>
        <time>2010-12-18T14:44:11.292Z</time>
      </trkpt>
      <trkpt lat="43.45054" lon="5.27532">
        <ele>180.416129328</ele>
        <time>2010-12-18T14:44:14.700Z</time>
      </trkpt>
      <trkpt lat="43.45059" lon="5.27537">
        <ele>180.446666972</ele>
        <time>2010-12-18T14:44:17.288Z</time>
      </trkpt>
      <trkpt lat="43.45062" lon="5.27539">
        <ele>180.433333842</ele>
        <time>2010-12-18T14:44:17.702Z</time>
      </trkpt>
      <trkpt lat="43.45067" lon="5.27543">
        <ele>180.370967742</ele>
        <time>2010-12-18T14:44:19.695Z</time>
      </trkpt>
      <trkpt lat="43.4507" lon="5.27546">
        <ele>180.333333842</ele>
        <time>2010-12-18T14:44:20.702Z</time>
      </trkpt>
      <trkpt lat="43.45075" lon="5.27551">
        <ele>180.245161979</ele>
        <time>2010-12-18T14:44:22.703Z</time>
      </trkpt>
      <trkpt lat="43.45078" lon="5.27553">
        <ele>180.193548879</ele>
        <time>2010-12-18T14:44:23.700Z</time>
      </trkpt>
      <trkpt lat="43.45086" lon="5.27558">
        <ele>179.980000814</ele>
        <time>2010-12-18T14:44:27.290Z</time>
      </trkpt>
      <trkpt lat="43.45088" lon="5.2756">
        <ele>179.893333944</ele>
        <time>2010-12-18T14:44:27.699Z</time>
      </trkpt>
      <trkpt lat="43.45091" lon="5.27561">
        <ele>179.820000712</ele>
        <time>2010-12-18T14:44:28.696Z</time>
      </trkpt>
      <trkpt lat="43.45094" lon="5.27563">
        <ele>179.777420044</ele>
        <time>2010-12-18T14:44:29.696Z</time>
      </trkpt>
      <trkpt lat="43.45098" lon="5.27565">
        <ele>179.693549372</ele>
        <time>2010-12-18T14:44:30.697Z</time>
      </trkpt>
      <trkpt lat="43.45108" lon="5.27572">
        <ele>179.454839891</ele>
        <time>2010-12-18T14:44:33.694Z</time>
      </trkpt>
      <trkpt lat="43.45118" lon="5.27577">
        <ele>179.213334656</ele>
        <time>2010-12-18T14:44:36.697Z</time>
      </trkpt>
      <trkpt lat="43.45124" lon="5.27579">
        <ele>179.120001221</ele>
        <time>2010-12-18T14:44:38.697Z</time>
      </trkpt>
      <trkpt lat="43.45129" lon="5.2758">
        <ele>179.109678699</ele>
        <time>2010-12-18T14:44:40.698Z</time>
      </trkpt>
      <trkpt lat="43.45131" lon="5.2758">
        <ele>179.103226692</ele>
        <time>2010-12-18T14:44:41.693Z</time>
      </trkpt>
      <trkpt lat="43.45137" lon="5.27582">
        <ele>179.096774686</ele>
        <time>2010-12-18T14:44:43.695Z</time>
      </trkpt>
      <trkpt lat="43.4514" lon="5.27582">
        <ele>179.096774686</ele>
        <time>2010-12-18T14:44:44.700Z</time>
      </trkpt>
      <trkpt lat="43.45154" lon="5.27584">
        <ele>179.213334147</ele>
        <time>2010-12-18T14:44:49.286Z</time>
      </trkpt>
      <trkpt lat="43.45163" lon="5.27587">
        <ele>179.409677813</ele>
        <time>2010-12-18T14:44:51.694Z</time>
      </trkpt>
      <trkpt lat="43.45172" lon="5.2759">
        <ele>179.689999898</ele>
        <time>2010-12-18T14:44:54.718Z</time>
      </trkpt>
      <trkpt lat="43.45176" lon="5.2759">
        <ele>179.758064516</ele>
        <time>2010-12-18T14:44:55.698Z</time>
      </trkpt>
      <trkpt lat="43.45179" lon="5.2759">
        <ele>179.858064221</ele>
        <time>2010-12-18T14:44:56.698Z</time>
      </trkpt>
      <trkpt lat="43.45192" lon="5.27591">
        <ele>180.366666158</ele>
        <time>2010-12-18T14:45:00.703Z</time>
      </trkpt>
      <trkpt lat="43.45199" lon="5.27592">
        <ele>180.633332825</ele>
        <time>2010-12-18T14:45:02.699Z</time>
      </trkpt>
      <trkpt lat="43.45203" lon="5.27595">
        <ele>180.683870377</ele>
        <time>2010-12-18T14:45:03.694Z</time>
      </trkpt>
      <trkpt lat="43.45206" lon="5.27597">
        <ele>180.812902635</ele>
        <time>2010-12-18T14:45:04.701Z</time>
      </trkpt>
      <trkpt lat="43.45209" lon="5.27601">
        <ele>180.929031372</ele>
        <time>2010-12-18T14:45:05.697Z</time>
      </trkpt>
      <trkpt lat="43.45216" lon="5.27606">
        <ele>181.189998881</ele>
        <time>2010-12-18T14:45:07.699Z</time>
      </trkpt>
      <trkpt lat="43.4522" lon="5.27607">
        <ele>181.263332113</ele>
        <time>2010-12-18T14:45:08.705Z</time>
      </trkpt>
      <trkpt lat="43.45224" lon="5.27606">
        <ele>181.319998678</ele>
        <time>2010-12-18T14:45:09.703Z</time>
      </trkpt>
      <trkpt lat="43.45228" lon="5.27604">
        <ele>181.373331706</ele>
        <time>2010-12-18T14:45:10.699Z</time>
      </trkpt>
      <trkpt lat="43.45236" lon="5.27601">
        <ele>181.396772815</ele>
        <time>2010-12-18T14:45:12.703Z</time>
      </trkpt>
      <trkpt lat="43.4524" lon="5.27598">
        <ele>181.473332214</ele>
        <time>2010-12-18T14:45:13.696Z</time>
      </trkpt>
      <trkpt lat="43.45257" lon="5.27587">
        <ele>181.439998372</ele>
        <time>2010-12-18T14:45:17.704Z</time>
      </trkpt>
      <trkpt lat="43.45261" lon="5.27585">
        <ele>181.380643783</ele>
        <time>2010-12-18T14:45:18.720Z</time>
      </trkpt>
      <trkpt lat="43.45266" lon="5.27584">
        <ele>181.338708693</ele>
        <time>2010-12-18T14:45:19.702Z</time>
      </trkpt>
      <trkpt lat="43.4527" lon="5.27583">
        <ele>181.296773111</ele>
        <time>2010-12-18T14:45:20.698Z</time>
      </trkpt>
      <trkpt lat="43.45274" lon="5.27583">
        <ele>181.246665955</ele>
        <time>2010-12-18T14:45:21.697Z</time>
      </trkpt>
      <trkpt lat="43.45282" lon="5.2758">
        <ele>181.180644374</ele>
        <time>2010-12-18T14:45:23.708Z</time>
      </trkpt>
      <trkpt lat="43.45285" lon="5.27578">
        <ele>181.138708791</ele>
        <time>2010-12-18T14:45:24.711Z</time>
      </trkpt>
      <trkpt lat="43.45291" lon="5.27574">
        <ele>181.054838119</ele>
        <time>2010-12-18T14:45:26.696Z</time>
      </trkpt>
      <trkpt lat="43.45294" lon="5.27571">
        <ele>181.012903029</ele>
        <time>2010-12-18T14:45:27.715Z</time>
      </trkpt>
      <trkpt lat="43.45296" lon="5.27567">
        <ele>180.936666361</ele>
        <time>2010-12-18T14:45:28.704Z</time>
      </trkpt>
      <trkpt lat="43.45299" lon="5.27564">
        <ele>180.893332926</ele>
        <time>2010-12-18T14:45:29.697Z</time>
      </trkpt>
      <trkpt lat="43.45308" lon="5.27554">
        <ele>180.716666158</ele>
        <time>2010-12-18T14:45:32.714Z</time>
      </trkpt>
      <trkpt lat="43.45312" lon="5.27551">
        <ele>180.646666463</ele>
        <time>2010-12-18T14:45:33.703Z</time>
      </trkpt>
      <trkpt lat="43.45319" lon="5.27547">
        <ele>180.551612608</ele>
        <time>2010-12-18T14:45:35.695Z</time>
      </trkpt>
      <trkpt lat="43.45323" lon="5.27546">
        <ele>180.439999898</ele>
        <time>2010-12-18T14:45:36.714Z</time>
      </trkpt>
      <trkpt lat="43.45328" lon="5.27544">
        <ele>180.36333313</ele>
        <time>2010-12-18T14:45:37.713Z</time>
      </trkpt>
      <trkpt lat="43.45337" lon="5.27539">
        <ele>180.179999797</ele>
        <time>2010-12-18T14:45:39.707Z</time>
      </trkpt>
      <trkpt lat="43.4535" lon="5.27532">
        <ele>179.983332825</ele>
        <time>2010-12-18T14:45:42.723Z</time>
      </trkpt>
      <trkpt lat="43.45353" lon="5.27529">
        <ele>179.963332621</ele>
        <time>2010-12-18T14:45:43.700Z</time>
      </trkpt>
      <trkpt lat="43.45355" lon="5.27527">
        <ele>179.959999593</ele>
        <time>2010-12-18T14:45:44.710Z</time>
      </trkpt>
      <trkpt lat="43.45357" lon="5.27524">
        <ele>179.99032199</ele>
        <time>2010-12-18T14:45:45.711Z</time>
      </trkpt>
      <trkpt lat="43.45362" lon="5.27519">
        <ele>180.064515145</ele>
        <time>2010-12-18T14:45:47.704Z</time>
      </trkpt>
      <trkpt lat="43.45364" lon="5.27516">
        <ele>180.106450727</ele>
        <time>2010-12-18T14:45:48.705Z</time>
      </trkpt>
      <trkpt lat="43.45367" lon="5.27513">
        <ele>180.164514849</ele>
        <time>2010-12-18T14:45:49.696Z</time>
      </trkpt>
      <trkpt lat="43.4537" lon="5.2751">
        <ele>180.239998372</ele>
        <time>2010-12-18T14:45:50.702Z</time>
      </trkpt>
      <trkpt lat="43.45372" lon="5.27507">
        <ele>180.289998372</ele>
        <time>2010-12-18T14:45:51.701Z</time>
      </trkpt>
      <trkpt lat="43.45376" lon="5.27505">
        <ele>180.326665243</ele>
        <time>2010-12-18T14:45:52.708Z</time>
      </trkpt>
      <trkpt lat="43.45379" lon="5.27503">
        <ele>180.358063236</ele>
        <time>2010-12-18T14:45:53.707Z</time>
      </trkpt>
      <trkpt lat="43.45382" lon="5.27502">
        <ele>180.383332316</ele>
        <time>2010-12-18T14:45:54.727Z</time>
      </trkpt>
      <trkpt lat="43.4539" lon="5.275">
        <ele>180.433331807</ele>
        <time>2010-12-18T14:45:56.708Z</time>
      </trkpt>
      <trkpt lat="43.45397" lon="5.27499">
        <ele>180.470966462</ele>
        <time>2010-12-18T14:45:58.702Z</time>
      </trkpt>
      <trkpt lat="43.454" lon="5.27497">
        <ele>180.479998779</ele>
        <time>2010-12-18T14:45:59.703Z</time>
      </trkpt>
      <trkpt lat="43.45404" lon="5.27495">
        <ele>180.503332011</ele>
        <time>2010-12-18T14:46:00.710Z</time>
      </trkpt>
      <trkpt lat="43.45407" lon="5.27493">
        <ele>180.538708595</ele>
        <time>2010-12-18T14:46:01.702Z</time>
      </trkpt>
      <trkpt lat="43.45412" lon="5.27488">
        <ele>180.629031274</ele>
        <time>2010-12-18T14:46:03.703Z</time>
      </trkpt>
      <trkpt lat="43.45417" lon="5.27484">
        <ele>180.745160011</ele>
        <time>2010-12-18T14:46:05.686Z</time>
      </trkpt>
      <trkpt lat="43.45421" lon="5.27483">
        <ele>180.80967614</ele>
        <time>2010-12-18T14:46:06.705Z</time>
      </trkpt>
      <trkpt lat="43.45424" lon="5.27484">
        <ele>180.890321301</ele>
        <time>2010-12-18T14:46:07.706Z</time>
      </trkpt>
      <trkpt lat="43.45427" lon="5.27485">
        <ele>180.990321006</ele>
        <time>2010-12-18T14:46:08.706Z</time>
      </trkpt>
      <trkpt lat="43.4543" lon="5.27487">
        <ele>181.112901749</ele>
        <time>2010-12-18T14:46:09.699Z</time>
      </trkpt>
      <trkpt lat="43.45438" lon="5.27492">
        <ele>181.487095987</ele>
        <time>2010-12-18T14:46:12.706Z</time>
      </trkpt>
      <trkpt lat="43.45447" lon="5.27498">
        <ele>181.70322492</ele>
        <time>2010-12-18T14:46:15.698Z</time>
      </trkpt>
      <trkpt lat="43.4545" lon="5.275">
        <ele>181.748386506</ele>
        <time>2010-12-18T14:46:16.697Z</time>
      </trkpt>
      <trkpt lat="43.45453" lon="5.27502">
        <ele>181.780644571</ele>
        <time>2010-12-18T14:46:17.698Z</time>
      </trkpt>
      <trkpt lat="43.45455" lon="5.27504">
        <ele>181.812902635</ele>
        <time>2010-12-18T14:46:18.705Z</time>
      </trkpt>
      <trkpt lat="43.45458" lon="5.27507">
        <ele>181.854838217</ele>
        <time>2010-12-18T14:46:19.695Z</time>
      </trkpt>
      <trkpt lat="43.45463" lon="5.27513">
        <ele>181.925806353</ele>
        <time>2010-12-18T14:46:21.697Z</time>
      </trkpt>
      <trkpt lat="43.45466" lon="5.27515">
        <ele>181.961289929</ele>
        <time>2010-12-18T14:46:22.699Z</time>
      </trkpt>
      <trkpt lat="43.45475" lon="5.27521">
        <ele>182.069999695</ele>
        <time>2010-12-18T14:46:26.294Z</time>
      </trkpt>
      <trkpt lat="43.45478" lon="5.27523">
        <ele>182.089999898</ele>
        <time>2010-12-18T14:46:27.305Z</time>
      </trkpt>
      <trkpt lat="43.45484" lon="5.27528">
        <ele>182.116666158</ele>
        <time>2010-12-18T14:46:28.708Z</time>
      </trkpt>
      <trkpt lat="43.45487" lon="5.2753">
        <ele>182.087096184</ele>
        <time>2010-12-18T14:46:29.695Z</time>
      </trkpt>
      <trkpt lat="43.45492" lon="5.27537">
        <ele>182.093332926</ele>
        <time>2010-12-18T14:46:31.715Z</time>
      </trkpt>
      <trkpt lat="43.45495" lon="5.27542">
        <ele>182.054838119</ele>
        <time>2010-12-18T14:46:32.704Z</time>
      </trkpt>
      <trkpt lat="43.45497" lon="5.27546">
        <ele>182.02666626</ele>
        <time>2010-12-18T14:46:33.706Z</time>
      </trkpt>
      <trkpt lat="43.45498" lon="5.2755">
        <ele>181.99032199</ele>
        <time>2010-12-18T14:46:34.705Z</time>
      </trkpt>
      <trkpt lat="43.45499" lon="5.27556">
        <ele>181.956666056</ele>
        <time>2010-12-18T14:46:35.707Z</time>
      </trkpt>
      <trkpt lat="43.45499" lon="5.2756">
        <ele>181.906450825</ele>
        <time>2010-12-18T14:46:36.685Z</time>
      </trkpt>
      <trkpt lat="43.45498" lon="5.27565">
        <ele>181.848386703</ele>
        <time>2010-12-18T14:46:37.696Z</time>
      </trkpt>
      <trkpt lat="43.45497" lon="5.2757">
        <ele>181.767741542</ele>
        <time>2010-12-18T14:46:38.702Z</time>
      </trkpt>
      <trkpt lat="43.45496" lon="5.27574">
        <ele>181.677419355</ele>
        <time>2010-12-18T14:46:39.699Z</time>
      </trkpt>
      <trkpt lat="43.45495" lon="5.27579">
        <ele>181.580645161</ele>
        <time>2010-12-18T14:46:40.697Z</time>
      </trkpt>
      <trkpt lat="43.45494" lon="5.27583">
        <ele>181.429999797</ele>
        <time>2010-12-18T14:46:41.715Z</time>
      </trkpt>
      <trkpt lat="43.45493" lon="5.27593">
        <ele>181.225805959</ele>
        <time>2010-12-18T14:46:43.699Z</time>
      </trkpt>
      <trkpt lat="43.45493" lon="5.27599">
        <ele>181.06333313</ele>
        <time>2010-12-18T14:46:44.774Z</time>
      </trkpt>
      <trkpt lat="43.45493" lon="5.27604">
        <ele>180.943333435</ele>
        <time>2010-12-18T14:46:45.759Z</time>
      </trkpt>
      <trkpt lat="43.45494" lon="5.27614">
        <ele>180.683333333</ele>
        <time>2010-12-18T14:46:47.711Z</time>
      </trkpt>
      <trkpt lat="43.45497" lon="5.27635">
        <ele>180.096666972</ele>
        <time>2010-12-18T14:46:51.710Z</time>
      </trkpt>
      <trkpt lat="43.45497" lon="5.27651">
        <ele>179.706451908</ele>
        <time>2010-12-18T14:46:54.719Z</time>
      </trkpt>
      <trkpt lat="43.45497" lon="5.27656">
        <ele>179.554839103</ele>
        <time>2010-12-18T14:46:55.702Z</time>
      </trkpt>
      <trkpt lat="43.45496" lon="5.27666">
        <ele>179.176666768</ele>
        <time>2010-12-18T14:46:58.302Z</time>
      </trkpt>
      <trkpt lat="43.45496" lon="5.2767">
        <ele>179.03666687</ele>
        <time>2010-12-18T14:46:59.303Z</time>
      </trkpt>
      <trkpt lat="43.45498" lon="5.27673">
        <ele>178.903333537</ele>
        <time>2010-12-18T14:46:59.697Z</time>
      </trkpt>
      <trkpt lat="43.45501" lon="5.27675">
        <ele>178.845161684</ele>
        <time>2010-12-18T14:47:00.695Z</time>
      </trkpt>
      <trkpt lat="43.45505" lon="5.27676">
        <ele>178.639999898</ele>
        <time>2010-12-18T14:47:01.728Z</time>
      </trkpt>
      <trkpt lat="43.45508" lon="5.27676">
        <ele>178.59354819</ele>
        <time>2010-12-18T14:47:02.694Z</time>
      </trkpt>
      <trkpt lat="43.45512" lon="5.27676">
        <ele>178.393333435</ele>
        <time>2010-12-18T14:47:03.710Z</time>
      </trkpt>
      <trkpt lat="43.45522" lon="5.27674">
        <ele>178.02333374</ele>
        <time>2010-12-18T14:47:06.703Z</time>
      </trkpt>
      <trkpt lat="43.45526" lon="5.27672">
        <ele>177.910000102</ele>
        <time>2010-12-18T14:47:07.715Z</time>
      </trkpt>
      <trkpt lat="43.45529" lon="5.2767">
        <ele>177.864516227</ele>
        <time>2010-12-18T14:47:08.702Z</time>
      </trkpt>
      <trkpt lat="43.45532" lon="5.27667">
        <ele>177.758064516</ele>
        <time>2010-12-18T14:47:09.696Z</time>
      </trkpt>
      <trkpt lat="43.45535" lon="5.27663">
        <ele>177.583333333</ele>
        <time>2010-12-18T14:47:10.700Z</time>
      </trkpt>
      <trkpt lat="43.45542" lon="5.27655">
        <ele>177.40645181</ele>
        <time>2010-12-18T14:47:12.700Z</time>
      </trkpt>
      <trkpt lat="43.45552" lon="5.27646">
        <ele>177.012903521</ele>
        <time>2010-12-18T14:47:15.703Z</time>
      </trkpt>
      <trkpt lat="43.45555" lon="5.27644">
        <ele>176.870967742</ele>
        <time>2010-12-18T14:47:16.703Z</time>
      </trkpt>
      <trkpt lat="43.45562" lon="5.2764">
        <ele>176.593548682</ele>
        <time>2010-12-18T14:47:18.704Z</time>
      </trkpt>
      <trkpt lat="43.45561" lon="5.27637">
        <ele>176.436667379</ele>
        <time>2010-12-18T14:47:19.755Z</time>
      </trkpt>
      <trkpt lat="43.45562" lon="5.27634">
        <ele>176.403226299</ele>
        <time>2010-12-18T14:47:20.704Z</time>
      </trkpt>
      <trkpt lat="43.45562" lon="5.27631">
        <ele>176.319355134</ele>
        <time>2010-12-18T14:47:21.703Z</time>
      </trkpt>
      <trkpt lat="43.45563" lon="5.27627">
        <ele>176.241935484</ele>
        <time>2010-12-18T14:47:22.703Z</time>
      </trkpt>
      <trkpt lat="43.45566" lon="5.27611">
        <ele>175.958064418</ele>
        <time>2010-12-18T14:47:26.686Z</time>
      </trkpt>
      <trkpt lat="43.45567" lon="5.27603">
        <ele>175.832257671</ele>
        <time>2010-12-18T14:47:28.686Z</time>
      </trkpt>
      <trkpt lat="43.45567" lon="5.27599">
        <ele>175.729999797</ele>
        <time>2010-12-18T14:47:29.704Z</time>
      </trkpt>
      <trkpt lat="43.45569" lon="5.27591">
        <ele>175.693547895</ele>
        <time>2010-12-18T14:47:31.702Z</time>
      </trkpt>
      <trkpt lat="43.4557" lon="5.2758">
        <ele>175.586665853</ele>
        <time>2010-12-18T14:47:34.706Z</time>
      </trkpt>
      <trkpt lat="43.45572" lon="5.27566">
        <ele>175.68709638</ele>
        <time>2010-12-18T14:47:38.696Z</time>
      </trkpt>
      <trkpt lat="43.45574" lon="5.27562">
        <ele>175.71333313</ele>
        <time>2010-12-18T14:47:39.701Z</time>
      </trkpt>
      <trkpt lat="43.45575" lon="5.27555">
        <ele>175.854838217</ele>
        <time>2010-12-18T14:47:41.695Z</time>
      </trkpt>
      <trkpt lat="43.45576" lon="5.27551">
        <ele>175.93870889</ele>
        <time>2010-12-18T14:47:42.695Z</time>
      </trkpt>
      <trkpt lat="43.45577" lon="5.27548">
        <ele>176.038709087</ele>
        <time>2010-12-18T14:47:43.698Z</time>
      </trkpt>
      <trkpt lat="43.45579" lon="5.27545">
        <ele>176.164515341</ele>
        <time>2010-12-18T14:47:44.696Z</time>
      </trkpt>
      <trkpt lat="43.4558" lon="5.27542">
        <ele>176.373332214</ele>
        <time>2010-12-18T14:47:45.707Z</time>
      </trkpt>
      <trkpt lat="43.45584" lon="5.27536">
        <ele>176.713332113</ele>
        <time>2010-12-18T14:47:47.710Z</time>
      </trkpt>
      <trkpt lat="43.45587" lon="5.27534">
        <ele>176.889998881</ele>
        <time>2010-12-18T14:47:48.707Z</time>
      </trkpt>
      <trkpt lat="43.4559" lon="5.27528">
        <ele>177.112901749</ele>
        <time>2010-12-18T14:47:50.704Z</time>
      </trkpt>
      <trkpt lat="43.45592" lon="5.27526">
        <ele>177.313332113</ele>
        <time>2010-12-18T14:47:51.704Z</time>
      </trkpt>
      <trkpt lat="43.45597" lon="5.27522">
        <ele>177.561289141</ele>
        <time>2010-12-18T14:47:53.705Z</time>
      </trkpt>
      <trkpt lat="43.45599" lon="5.2752">
        <ele>177.793332418</ele>
        <time>2010-12-18T14:47:54.716Z</time>
      </trkpt>
      <trkpt lat="43.45605" lon="5.27516">
        <ele>178.099998983</ele>
        <time>2010-12-18T14:47:57.285Z</time>
      </trkpt>
      <trkpt lat="43.4561" lon="5.27513">
        <ele>178.399998983</ele>
        <time>2010-12-18T14:47:58.701Z</time>
      </trkpt>
      <trkpt lat="43.45616" lon="5.27512">
        <ele>178.686665344</ele>
        <time>2010-12-18T14:48:00.704Z</time>
      </trkpt>
      <trkpt lat="43.45619" lon="5.27511">
        <ele>178.722579464</ele>
        <time>2010-12-18T14:48:01.702Z</time>
      </trkpt>
      <trkpt lat="43.45626" lon="5.27511">
        <ele>179.039998881</ele>
        <time>2010-12-18T14:48:03.720Z</time>
      </trkpt>
      <trkpt lat="43.45633" lon="5.2751">
        <ele>179.233332316</ele>
        <time>2010-12-18T14:48:05.719Z</time>
      </trkpt>
      <trkpt lat="43.4564" lon="5.27511">
        <ele>179.399998983</ele>
        <time>2010-12-18T14:48:07.703Z</time>
      </trkpt>
      <trkpt lat="43.45649" lon="5.27513">
        <ele>179.525805566</ele>
        <time>2010-12-18T14:48:10.698Z</time>
      </trkpt>
      <trkpt lat="43.45652" lon="5.27514">
        <ele>179.623332723</ele>
        <time>2010-12-18T14:48:11.701Z</time>
      </trkpt>
      <trkpt lat="43.45662" lon="5.27516">
        <ele>179.72666626</ele>
        <time>2010-12-18T14:48:14.704Z</time>
      </trkpt>
      <trkpt lat="43.45671" lon="5.27517">
        <ele>179.758064024</ele>
        <time>2010-12-18T14:48:17.678Z</time>
      </trkpt>
      <trkpt lat="43.45674" lon="5.27516">
        <ele>179.783332825</ele>
        <time>2010-12-18T14:48:19.277Z</time>
      </trkpt>
      <trkpt lat="43.45681" lon="5.27516">
        <ele>179.783870574</ele>
        <time>2010-12-18T14:48:20.697Z</time>
      </trkpt>
      <trkpt lat="43.45684" lon="5.27517">
        <ele>179.793548092</ele>
        <time>2010-12-18T14:48:21.697Z</time>
      </trkpt>
      <trkpt lat="43.45688" lon="5.27517">
        <ele>179.769999695</ele>
        <time>2010-12-18T14:48:22.698Z</time>
      </trkpt>
      <trkpt lat="43.45697" lon="5.27518">
        <ele>179.716128442</ele>
        <time>2010-12-18T14:48:25.696Z</time>
      </trkpt>
      <trkpt lat="43.45701" lon="5.27518">
        <ele>179.703225413</ele>
        <time>2010-12-18T14:48:26.695Z</time>
      </trkpt>
      <trkpt lat="43.45704" lon="5.27518">
        <ele>179.696773898</ele>
        <time>2010-12-18T14:48:27.696Z</time>
      </trkpt>
      <trkpt lat="43.45715" lon="5.27519">
        <ele>179.706451416</ele>
        <time>2010-12-18T14:48:30.687Z</time>
      </trkpt>
      <trkpt lat="43.45719" lon="5.2752">
        <ele>179.712903423</ele>
        <time>2010-12-18T14:48:31.691Z</time>
      </trkpt>
      <trkpt lat="43.45729" lon="5.27523">
        <ele>179.783333333</ele>
        <time>2010-12-18T14:48:35.275Z</time>
      </trkpt>
      <trkpt lat="43.45735" lon="5.27527">
        <ele>179.85483871</ele>
        <time>2010-12-18T14:48:36.674Z</time>
      </trkpt>
      <trkpt lat="43.45738" lon="5.27532">
        <ele>179.890322778</ele>
        <time>2010-12-18T14:48:37.682Z</time>
      </trkpt>
      <trkpt lat="43.4574" lon="5.27535">
        <ele>179.922580842</ele>
        <time>2010-12-18T14:48:38.686Z</time>
      </trkpt>
      <trkpt lat="43.45742" lon="5.27538">
        <ele>179.974193942</ele>
        <time>2010-12-18T14:48:39.697Z</time>
      </trkpt>
      <trkpt lat="43.45746" lon="5.27546">
        <ele>180.11935474</ele>
        <time>2010-12-18T14:48:41.694Z</time>
      </trkpt>
      <trkpt lat="43.45748" lon="5.2755">
        <ele>180.21333313</ele>
        <time>2010-12-18T14:48:42.697Z</time>
      </trkpt>
      <trkpt lat="43.4575" lon="5.27554">
        <ele>180.254838513</ele>
        <time>2010-12-18T14:48:43.694Z</time>
      </trkpt>
      <trkpt lat="43.45752" lon="5.27556">
        <ele>180.316128638</ele>
        <time>2010-12-18T14:48:44.702Z</time>
      </trkpt>
      <trkpt lat="43.45755" lon="5.27558">
        <ele>180.396666463</ele>
        <time>2010-12-18T14:48:45.694Z</time>
      </trkpt>
      <trkpt lat="43.45758" lon="5.27558">
        <ele>180.466666667</ele>
        <time>2010-12-18T14:48:46.701Z</time>
      </trkpt>
      <trkpt lat="43.45761" lon="5.27557">
        <ele>180.533333333</ele>
        <time>2010-12-18T14:48:47.717Z</time>
      </trkpt>
      <trkpt lat="43.45764" lon="5.27556">
        <ele>180.570967643</ele>
        <time>2010-12-18T14:48:48.700Z</time>
      </trkpt>
      <trkpt lat="43.45767" lon="5.27555">
        <ele>180.673333232</ele>
        <time>2010-12-18T14:48:49.707Z</time>
      </trkpt>
      <trkpt lat="43.4577" lon="5.27553">
        <ele>180.706451416</ele>
        <time>2010-12-18T14:48:50.697Z</time>
      </trkpt>
      <trkpt lat="43.45773" lon="5.27551">
        <ele>180.816666158</ele>
        <time>2010-12-18T14:48:51.698Z</time>
      </trkpt>
      <trkpt lat="43.45781" lon="5.27546">
        <ele>181.083333333</ele>
        <time>2010-12-18T14:48:54.714Z</time>
      </trkpt>
      <trkpt lat="43.45784" lon="5.27546">
        <ele>181.183333333</ele>
        <time>2010-12-18T14:48:55.718Z</time>
      </trkpt>
      <trkpt lat="43.45787" lon="5.27547">
        <ele>181.289999898</ele>
        <time>2010-12-18T14:48:56.699Z</time>
      </trkpt>
      <trkpt lat="43.4579" lon="5.27548">
        <ele>181.406666565</ele>
        <time>2010-12-18T14:48:57.699Z</time>
      </trkpt>
      <trkpt lat="43.45793" lon="5.2755">
        <ele>181.520000203</ele>
        <time>2010-12-18T14:48:58.699Z</time>
      </trkpt>
      <trkpt lat="43.45799" lon="5.27553">
        <ele>181.76000061</ele>
        <time>2010-12-18T14:49:00.698Z</time>
      </trkpt>
      <trkpt lat="43.45811" lon="5.2756">
        <ele>182.148387786</ele>
        <time>2010-12-18T14:49:04.711Z</time>
      </trkpt>
      <trkpt lat="43.45818" lon="5.27562">
        <ele>182.39666748</ele>
        <time>2010-12-18T14:49:06.696Z</time>
      </trkpt>
      <trkpt lat="43.45829" lon="5.27565">
        <ele>182.706667582</ele>
        <time>2010-12-18T14:49:10.265Z</time>
      </trkpt>
      <trkpt lat="43.45833" lon="5.27565">
        <ele>182.790000916</ele>
        <time>2010-12-18T14:49:11.266Z</time>
      </trkpt>
      <trkpt lat="43.45837" lon="5.27566">
        <ele>182.853334045</ele>
        <time>2010-12-18T14:49:11.707Z</time>
      </trkpt>
      <trkpt lat="43.45852" lon="5.27567">
        <ele>183.140000916</ele>
        <time>2010-12-18T14:49:15.703Z</time>
      </trkpt>
      <trkpt lat="43.45868" lon="5.27568">
        <ele>183.393548781</ele>
        <time>2010-12-18T14:49:19.706Z</time>
      </trkpt>
      <trkpt lat="43.45878" lon="5.27569">
        <ele>183.664516818</ele>
        <time>2010-12-18T14:49:22.699Z</time>
      </trkpt>
      <trkpt lat="43.4589" lon="5.2757">
        <ele>183.922581334</ele>
        <time>2010-12-18T14:49:25.703Z</time>
      </trkpt>
      <trkpt lat="43.45905" lon="5.27572">
        <ele>184.229033439</ele>
        <time>2010-12-18T14:49:29.700Z</time>
      </trkpt>
      <trkpt lat="43.4592" lon="5.27574">
        <ele>184.48666687</ele>
        <time>2010-12-18T14:49:33.701Z</time>
      </trkpt>
      <trkpt lat="43.45928" lon="5.27574">
        <ele>184.56000061</ele>
        <time>2010-12-18T14:49:35.726Z</time>
      </trkpt>
      <trkpt lat="43.45936" lon="5.27576">
        <ele>184.633333842</ele>
        <time>2010-12-18T14:49:37.716Z</time>
      </trkpt>
      <trkpt lat="43.4594" lon="5.27578">
        <ele>184.676666768</ele>
        <time>2010-12-18T14:49:38.718Z</time>
      </trkpt>
      <trkpt lat="43.45943" lon="5.2758">
        <ele>184.706451908</ele>
        <time>2010-12-18T14:49:39.718Z</time>
      </trkpt>
      <trkpt lat="43.45946" lon="5.27583">
        <ele>184.764516031</ele>
        <time>2010-12-18T14:49:40.709Z</time>
      </trkpt>
      <trkpt lat="43.4595" lon="5.27587">
        <ele>184.956666565</ele>
        <time>2010-12-18T14:49:42.723Z</time>
      </trkpt>
      <trkpt lat="43.45954" lon="5.27591">
        <ele>185.16333313</ele>
        <time>2010-12-18T14:49:44.734Z</time>
      </trkpt>
      <trkpt lat="43.45956" lon="5.27594">
        <ele>185.273333232</ele>
        <time>2010-12-18T14:49:45.712Z</time>
      </trkpt>
      <trkpt lat="43.45958" lon="5.27598">
        <ele>185.38666687</ele>
        <time>2010-12-18T14:49:46.724Z</time>
      </trkpt>
      <trkpt lat="43.45961" lon="5.27604">
        <ele>185.640000407</ele>
        <time>2010-12-18T14:49:48.717Z</time>
      </trkpt>
      <trkpt lat="43.45966" lon="5.27612">
        <ele>185.961290421</ele>
        <time>2010-12-18T14:49:51.705Z</time>
      </trkpt>
      <trkpt lat="43.4597" lon="5.27618">
        <ele>186.364516227</ele>
        <time>2010-12-18T14:49:54.713Z</time>
      </trkpt>
      <trkpt lat="43.45971" lon="5.2762">
        <ele>186.543333435</ele>
        <time>2010-12-18T14:49:55.738Z</time>
      </trkpt>
      <trkpt lat="43.45972" lon="5.27623">
        <ele>186.61935474</ele>
        <time>2010-12-18T14:49:56.699Z</time>
      </trkpt>
      <trkpt lat="43.45976" lon="5.2763">
        <ele>187.066666158</ele>
        <time>2010-12-18T14:49:59.715Z</time>
      </trkpt>
      <trkpt lat="43.45977" lon="5.27633">
        <ele>187.151612313</ele>
        <time>2010-12-18T14:50:00.648Z</time>
      </trkpt>
      <trkpt lat="43.4598" lon="5.27637">
        <ele>187.458063925</ele>
        <time>2010-12-18T14:50:02.662Z</time>
      </trkpt>
      <trkpt lat="43.45982" lon="5.27639">
        <ele>187.625806255</ele>
        <time>2010-12-18T14:50:03.668Z</time>
      </trkpt>
      <trkpt lat="43.45984" lon="5.2764">
        <ele>187.809677124</ele>
        <time>2010-12-18T14:50:04.657Z</time>
      </trkpt>
      <trkpt lat="43.45986" lon="5.2764">
        <ele>187.999999508</ele>
        <time>2010-12-18T14:50:05.666Z</time>
      </trkpt>
      <trkpt lat="43.45988" lon="5.2764">
        <ele>188.199999902</ele>
        <time>2010-12-18T14:50:06.693Z</time>
      </trkpt>
      <trkpt lat="43.4599" lon="5.2764">
        <ele>188.399999803</ele>
        <time>2010-12-18T14:50:07.668Z</time>
      </trkpt>
      <trkpt lat="43.45992" lon="5.27639">
        <ele>188.606451711</ele>
        <time>2010-12-18T14:50:08.663Z</time>
      </trkpt>
      <trkpt lat="43.45994" lon="5.27638">
        <ele>188.819355134</ele>
        <time>2010-12-18T14:50:09.667Z</time>
      </trkpt>
      <trkpt lat="43.45996" lon="5.27637">
        <ele>189.035484068</ele>
        <time>2010-12-18T14:50:10.668Z</time>
      </trkpt>
      <trkpt lat="43.46" lon="5.27637">
        <ele>189.451613395</ele>
        <time>2010-12-18T14:50:12.699Z</time>
      </trkpt>
      <trkpt lat="43.46002" lon="5.27637">
        <ele>189.658064811</ele>
        <time>2010-12-18T14:50:13.703Z</time>
      </trkpt>
      <trkpt lat="43.46004" lon="5.27637">
        <ele>189.867742231</ele>
        <time>2010-12-18T14:50:14.705Z</time>
      </trkpt>
      <trkpt lat="43.46006" lon="5.27638">
        <ele>190.074193647</ele>
        <time>2010-12-18T14:50:15.704Z</time>
      </trkpt>
      <trkpt lat="43.46007" lon="5.27639">
        <ele>190.27741906</ele>
        <time>2010-12-18T14:50:16.698Z</time>
      </trkpt>
      <trkpt lat="43.46009" lon="5.27641">
        <ele>190.480644964</ele>
        <time>2010-12-18T14:50:17.723Z</time>
      </trkpt>
      <trkpt lat="43.4601" lon="5.27642">
        <ele>190.680644866</ele>
        <time>2010-12-18T14:50:18.715Z</time>
      </trkpt>
      <trkpt lat="43.46012" lon="5.27644">
        <ele>190.88064526</ele>
        <time>2010-12-18T14:50:19.698Z</time>
      </trkpt>
      <trkpt lat="43.46013" lon="5.27646">
        <ele>191.080645161</ele>
        <time>2010-12-18T14:50:20.705Z</time>
      </trkpt>
      <trkpt lat="43.46018" lon="5.27651">
        <ele>191.756666565</ele>
        <time>2010-12-18T14:50:23.725Z</time>
      </trkpt>
      <trkpt lat="43.4602" lon="5.27653">
        <ele>191.943333435</ele>
        <time>2010-12-18T14:50:24.745Z</time>
      </trkpt>
      <trkpt lat="43.46021" lon="5.27655">
        <ele>192.032258065</ele>
        <time>2010-12-18T14:50:25.665Z</time>
      </trkpt>
      <trkpt lat="43.46025" lon="5.27657">
        <ele>192.416128835</ele>
        <time>2010-12-18T14:50:27.712Z</time>
      </trkpt>
      <trkpt lat="43.46028" lon="5.27657">
        <ele>192.699999491</ele>
        <time>2010-12-18T14:50:28.718Z</time>
      </trkpt>
      <trkpt lat="43.4603" lon="5.27658">
        <ele>192.896665955</ele>
        <time>2010-12-18T14:50:29.722Z</time>
      </trkpt>
      <trkpt lat="43.46032" lon="5.27658">
        <ele>193.083332825</ele>
        <time>2010-12-18T14:50:30.723Z</time>
      </trkpt>
      <trkpt lat="43.46038" lon="5.27662">
        <ele>193.60333252</ele>
        <time>2010-12-18T14:50:33.670Z</time>
      </trkpt>
      <trkpt lat="43.46039" lon="5.27663">
        <ele>193.749998983</ele>
        <time>2010-12-18T14:50:34.659Z</time>
      </trkpt>
      <trkpt lat="43.46041" lon="5.27664">
        <ele>193.909999084</ele>
        <time>2010-12-18T14:50:35.695Z</time>
      </trkpt>
      <trkpt lat="43.46043" lon="5.27665">
        <ele>194.069998678</ele>
        <time>2010-12-18T14:50:36.707Z</time>
      </trkpt>
      <trkpt lat="43.46045" lon="5.27666">
        <ele>194.229998779</ele>
        <time>2010-12-18T14:50:37.698Z</time>
      </trkpt>
      <trkpt lat="43.46047" lon="5.27666">
        <ele>194.393331909</ele>
        <time>2010-12-18T14:50:38.696Z</time>
      </trkpt>
      <trkpt lat="43.46051" lon="5.27668">
        <ele>194.699998474</ele>
        <time>2010-12-18T14:50:40.697Z</time>
      </trkpt>
      <trkpt lat="43.46053" lon="5.27669">
        <ele>194.856665548</ele>
        <time>2010-12-18T14:50:41.698Z</time>
      </trkpt>
      <trkpt lat="43.46054" lon="5.2767">
        <ele>195.006665548</ele>
        <time>2010-12-18T14:50:42.700Z</time>
      </trkpt>
      <trkpt lat="43.46058" lon="5.27672">
        <ele>195.235482985</ele>
        <time>2010-12-18T14:50:44.680Z</time>
      </trkpt>
      <trkpt lat="43.4606" lon="5.27674">
        <ele>195.38709579</ele>
        <time>2010-12-18T14:50:45.697Z</time>
      </trkpt>
      <trkpt lat="43.46063" lon="5.27676">
        <ele>195.70322492</ele>
        <time>2010-12-18T14:50:47.716Z</time>
      </trkpt>
      <trkpt lat="43.46064" lon="5.27676">
        <ele>195.86128924</ele>
        <time>2010-12-18T14:50:48.707Z</time>
      </trkpt>
      <trkpt lat="43.46066" lon="5.27677">
        <ele>196.086665344</ele>
        <time>2010-12-18T14:50:49.705Z</time>
      </trkpt>
      <trkpt lat="43.46067" lon="5.27678">
        <ele>196.180643882</ele>
        <time>2010-12-18T14:50:50.695Z</time>
      </trkpt>
      <trkpt lat="43.4607" lon="5.27679">
        <ele>196.506450038</ele>
        <time>2010-12-18T14:50:52.694Z</time>
      </trkpt>
      <trkpt lat="43.46072" lon="5.2768">
        <ele>196.674192367</ele>
        <time>2010-12-18T14:50:53.700Z</time>
      </trkpt>
      <trkpt lat="43.46073" lon="5.27681">
        <ele>196.83548269</ele>
        <time>2010-12-18T14:50:54.705Z</time>
      </trkpt>
      <trkpt lat="43.46079" lon="5.27683">
        <ele>197.332257179</ele>
        <time>2010-12-18T14:50:57.699Z</time>
      </trkpt>
      <trkpt lat="43.4608" lon="5.27684">
        <ele>197.49032199</ele>
        <time>2010-12-18T14:50:58.699Z</time>
      </trkpt>
      <trkpt lat="43.46084" lon="5.27685">
        <ele>197.812903127</ele>
        <time>2010-12-18T14:51:00.701Z</time>
      </trkpt>
      <trkpt lat="43.46087" lon="5.27689">
        <ele>198.219999695</ele>
        <time>2010-12-18T14:51:02.696Z</time>
      </trkpt>
      <trkpt lat="43.46089" lon="5.2769">
        <ele>198.379999288</ele>
        <time>2010-12-18T14:51:03.697Z</time>
      </trkpt>
      <trkpt lat="43.46091" lon="5.27691">
        <ele>198.549999491</ele>
        <time>2010-12-18T14:51:04.717Z</time>
      </trkpt>
      <trkpt lat="43.46092" lon="5.27692">
        <ele>198.625805763</ele>
        <time>2010-12-18T14:51:05.692Z</time>
      </trkpt>
      <trkpt lat="43.46094" lon="5.27694">
        <ele>198.7935476</ele>
        <time>2010-12-18T14:51:06.697Z</time>
      </trkpt>
      <trkpt lat="43.46096" lon="5.27696">
        <ele>198.96451544</ele>
        <time>2010-12-18T14:51:07.698Z</time>
      </trkpt>
      <trkpt lat="43.46099" lon="5.277">
        <ele>199.283870082</ele>
        <time>2010-12-18T14:51:09.696Z</time>
      </trkpt>
      <trkpt lat="43.461" lon="5.27702">
        <ele>199.441934893</ele>
        <time>2010-12-18T14:51:10.697Z</time>
      </trkpt>
      <trkpt lat="43.46103" lon="5.27707">
        <ele>199.745160503</ele>
        <time>2010-12-18T14:51:12.699Z</time>
      </trkpt>
      <trkpt lat="43.46104" lon="5.27709">
        <ele>199.893547304</ele>
        <time>2010-12-18T14:51:13.699Z</time>
      </trkpt>
      <trkpt lat="43.46106" lon="5.27711">
        <ele>200.126665751</ele>
        <time>2010-12-18T14:51:14.695Z</time>
      </trkpt>
      <trkpt lat="43.46107" lon="5.27713">
        <ele>200.193547403</ele>
        <time>2010-12-18T14:51:15.691Z</time>
      </trkpt>
      <trkpt lat="43.46109" lon="5.27714">
        <ele>200.335483182</ele>
        <time>2010-12-18T14:51:16.696Z</time>
      </trkpt>
      <trkpt lat="43.46113" lon="5.27716">
        <ele>200.596773701</ele>
        <time>2010-12-18T14:51:18.701Z</time>
      </trkpt>
      <trkpt lat="43.46117" lon="5.27718">
        <ele>200.923332723</ele>
        <time>2010-12-18T14:51:20.699Z</time>
      </trkpt>
      <trkpt lat="43.46123" lon="5.27721">
        <ele>201.232257474</ele>
        <time>2010-12-18T14:51:23.694Z</time>
      </trkpt>
      <trkpt lat="43.46126" lon="5.27722">
        <ele>201.341934696</ele>
        <time>2010-12-18T14:51:24.698Z</time>
      </trkpt>
      <trkpt lat="43.4613" lon="5.27726">
        <ele>201.558064122</ele>
        <time>2010-12-18T14:51:26.686Z</time>
      </trkpt>
      <trkpt lat="43.46132" lon="5.2773">
        <ele>201.667741837</ele>
        <time>2010-12-18T14:51:27.693Z</time>
      </trkpt>
      <trkpt lat="43.46133" lon="5.27733">
        <ele>201.774193548</ele>
        <time>2010-12-18T14:51:28.695Z</time>
      </trkpt>
      <trkpt lat="43.46134" lon="5.27737">
        <ele>201.883870771</ele>
        <time>2010-12-18T14:51:29.693Z</time>
      </trkpt>
      <trkpt lat="43.46135" lon="5.2774">
        <ele>201.983870476</ele>
        <time>2010-12-18T14:51:30.678Z</time>
      </trkpt>
      <trkpt lat="43.46139" lon="5.27749">
        <ele>202.16128983</ele>
        <time>2010-12-18T14:51:32.695Z</time>
      </trkpt>
      <trkpt lat="43.46144" lon="5.2776">
        <ele>202.245161487</ele>
        <time>2010-12-18T14:51:34.698Z</time>
      </trkpt>
      <trkpt lat="43.46149" lon="5.27771">
        <ele>202.277419552</ele>
        <time>2010-12-18T14:51:36.697Z</time>
      </trkpt>
      <trkpt lat="43.46151" lon="5.27778">
        <ele>202.303333537</ele>
        <time>2010-12-18T14:51:37.739Z</time>
      </trkpt>
      <trkpt lat="43.46152" lon="5.27785">
        <ele>202.283333842</ele>
        <time>2010-12-18T14:51:38.789Z</time>
      </trkpt>
      <trkpt lat="43.46155" lon="5.278">
        <ele>202.213334147</ele>
        <time>2010-12-18T14:51:40.791Z</time>
      </trkpt>
      <trkpt lat="43.46156" lon="5.27807">
        <ele>202.166667175</ele>
        <time>2010-12-18T14:51:41.759Z</time>
      </trkpt>
      <trkpt lat="43.46157" lon="5.27813">
        <ele>202.113334147</ele>
        <time>2010-12-18T14:51:42.703Z</time>
      </trkpt>
      <trkpt lat="43.4616" lon="5.27819">
        <ele>202.056667582</ele>
        <time>2010-12-18T14:51:43.728Z</time>
      </trkpt>
      <trkpt lat="43.46163" lon="5.27825">
        <ele>201.976667277</ele>
        <time>2010-12-18T14:51:44.746Z</time>
      </trkpt>
      <trkpt lat="43.46166" lon="5.2783">
        <ele>201.900000509</ele>
        <time>2010-12-18T14:51:45.781Z</time>
      </trkpt>
      <trkpt lat="43.4617" lon="5.27834">
        <ele>201.82333374</ele>
        <time>2010-12-18T14:51:46.792Z</time>
      </trkpt>
      <trkpt lat="43.46178" lon="5.27842">
        <ele>201.666667175</ele>
        <time>2010-12-18T14:51:48.770Z</time>
      </trkpt>
      <trkpt lat="43.46182" lon="5.27844">
        <ele>201.566667175</ele>
        <time>2010-12-18T14:51:49.723Z</time>
      </trkpt>
      <trkpt lat="43.46199" lon="5.27852">
        <ele>201.130000814</ele>
        <time>2010-12-18T14:51:53.703Z</time>
      </trkpt>
      <trkpt lat="43.46203" lon="5.27852">
        <ele>201.016667684</ele>
        <time>2010-12-18T14:51:54.717Z</time>
      </trkpt>
      <trkpt lat="43.46212" lon="5.27853">
        <ele>200.786667379</ele>
        <time>2010-12-18T14:51:56.713Z</time>
      </trkpt>
      <trkpt lat="43.46226" lon="5.27856">
        <ele>200.403334045</ele>
        <time>2010-12-18T14:51:59.714Z</time>
      </trkpt>
      <trkpt lat="43.46236" lon="5.27857">
        <ele>200.126667786</ele>
        <time>2010-12-18T14:52:01.696Z</time>
      </trkpt>
      <trkpt lat="43.46256" lon="5.27859">
        <ele>199.803226594</ele>
        <time>2010-12-18T14:52:05.716Z</time>
      </trkpt>
      <trkpt lat="43.4627" lon="5.27861">
        <ele>199.648388278</ele>
        <time>2010-12-18T14:52:08.717Z</time>
      </trkpt>
      <trkpt lat="43.46288" lon="5.27864">
        <ele>199.54516257</ele>
        <time>2010-12-18T14:52:12.657Z</time>
      </trkpt>
      <trkpt lat="43.46301" lon="5.27868">
        <ele>199.564517113</ele>
        <time>2010-12-18T14:52:15.667Z</time>
      </trkpt>
      <trkpt lat="43.46312" lon="5.27873">
        <ele>199.632259246</ele>
        <time>2010-12-18T14:52:18.663Z</time>
      </trkpt>
      <trkpt lat="43.46321" lon="5.27876">
        <ele>199.706452893</ele>
        <time>2010-12-18T14:52:20.666Z</time>
      </trkpt>
      <trkpt lat="43.46325" lon="5.27878">
        <ele>199.760001119</ele>
        <time>2010-12-18T14:52:22.190Z</time>
      </trkpt>
      <trkpt lat="43.46334" lon="5.27882">
        <ele>199.860001119</ele>
        <time>2010-12-18T14:52:24.189Z</time>
      </trkpt>
      <trkpt lat="43.46338" lon="5.27883">
        <ele>199.896775276</ele>
        <time>2010-12-18T14:52:24.665Z</time>
      </trkpt>
      <trkpt lat="43.46343" lon="5.27883">
        <ele>199.938710367</ele>
        <time>2010-12-18T14:52:25.662Z</time>
      </trkpt>
      <trkpt lat="43.46347" lon="5.27883">
        <ele>199.980645949</ele>
        <time>2010-12-18T14:52:26.702Z</time>
      </trkpt>
      <trkpt lat="43.46361" lon="5.27882">
        <ele>200.145161783</ele>
        <time>2010-12-18T14:52:29.699Z</time>
      </trkpt>
      <trkpt lat="43.46366" lon="5.27881">
        <ele>200.219354937</ele>
        <time>2010-12-18T14:52:30.697Z</time>
      </trkpt>
      <trkpt lat="43.46371" lon="5.27881">
        <ele>200.296774095</ele>
        <time>2010-12-18T14:52:31.679Z</time>
      </trkpt>
      <trkpt lat="43.46389" lon="5.27879">
        <ele>200.635483773</ele>
        <time>2010-12-18T14:52:35.684Z</time>
      </trkpt>
      <trkpt lat="43.46398" lon="5.27879">
        <ele>200.876666768</ele>
        <time>2010-12-18T14:52:38.263Z</time>
      </trkpt>
      <trkpt lat="43.46403" lon="5.2788">
        <ele>200.946666463</ele>
        <time>2010-12-18T14:52:39.263Z</time>
      </trkpt>
      <trkpt lat="43.4642" lon="5.2788">
        <ele>201.199999491</ele>
        <time>2010-12-18T14:52:42.696Z</time>
      </trkpt>
      <trkpt lat="43.46435" lon="5.27881">
        <ele>201.343332926</ele>
        <time>2010-12-18T14:52:45.698Z</time>
      </trkpt>
      <trkpt lat="43.4644" lon="5.2788">
        <ele>201.406666056</ele>
        <time>2010-12-18T14:52:46.702Z</time>
      </trkpt>
      <trkpt lat="43.46444" lon="5.27879">
        <ele>201.47666626</ele>
        <time>2010-12-18T14:52:47.699Z</time>
      </trkpt>
      <trkpt lat="43.46448" lon="5.27877">
        <ele>201.553333028</ele>
        <time>2010-12-18T14:52:48.713Z</time>
      </trkpt>
      <trkpt lat="43.46452" lon="5.27873">
        <ele>201.619999695</ele>
        <time>2010-12-18T14:52:49.715Z</time>
      </trkpt>
      <trkpt lat="43.46455" lon="5.2787">
        <ele>201.679999288</ele>
        <time>2010-12-18T14:52:50.700Z</time>
      </trkpt>
      <trkpt lat="43.46465" lon="5.27858">
        <ele>201.809677124</ele>
        <time>2010-12-18T14:52:53.701Z</time>
      </trkpt>
      <trkpt lat="43.46476" lon="5.2784">
        <ele>202.12333374</ele>
        <time>2010-12-18T14:52:57.712Z</time>
      </trkpt>
      <trkpt lat="43.46478" lon="5.27836">
        <ele>202.190000407</ele>
        <time>2010-12-18T14:52:58.706Z</time>
      </trkpt>
      <trkpt lat="43.46481" lon="5.27831">
        <ele>202.23666687</ele>
        <time>2010-12-18T14:52:59.707Z</time>
      </trkpt>
      <trkpt lat="43.46483" lon="5.27822">
        <ele>202.343333435</ele>
        <time>2010-12-18T14:53:01.697Z</time>
      </trkpt>
      <trkpt lat="43.46487" lon="5.2781">
        <ele>202.550000509</ele>
        <time>2010-12-18T14:53:05.283Z</time>
      </trkpt>
      <trkpt lat="43.46488" lon="5.27806">
        <ele>202.603333537</ele>
        <time>2010-12-18T14:53:05.700Z</time>
      </trkpt>
      <trkpt lat="43.46489" lon="5.27796">
        <ele>202.670967348</ele>
        <time>2010-12-18T14:53:07.702Z</time>
      </trkpt>
      <trkpt lat="43.46492" lon="5.27792">
        <ele>202.71290293</ele>
        <time>2010-12-18T14:53:08.700Z</time>
      </trkpt>
      <trkpt lat="43.46493" lon="5.27788">
        <ele>202.81333313</ele>
        <time>2010-12-18T14:53:09.699Z</time>
      </trkpt>
      <trkpt lat="43.46496" lon="5.27784">
        <ele>202.832257671</ele>
        <time>2010-12-18T14:53:10.699Z</time>
      </trkpt>
      <trkpt lat="43.46499" lon="5.2778">
        <ele>202.890322285</ele>
        <time>2010-12-18T14:53:11.699Z</time>
      </trkpt>
      <trkpt lat="43.46504" lon="5.27773">
        <ele>203.086666361</ele>
        <time>2010-12-18T14:53:13.707Z</time>
      </trkpt>
      <trkpt lat="43.46514" lon="5.27761">
        <ele>203.343332926</ele>
        <time>2010-12-18T14:53:17.709Z</time>
      </trkpt>
      <trkpt lat="43.46517" lon="5.27758">
        <ele>203.358064221</ele>
        <time>2010-12-18T14:53:18.708Z</time>
      </trkpt>
      <trkpt lat="43.46519" lon="5.27755">
        <ele>203.393547796</ele>
        <time>2010-12-18T14:53:19.703Z</time>
      </trkpt>
      <trkpt lat="43.4653" lon="5.27743">
        <ele>203.632257769</ele>
        <time>2010-12-18T14:53:23.680Z</time>
      </trkpt>
      <trkpt lat="43.46533" lon="5.27742">
        <ele>203.719354445</ele>
        <time>2010-12-18T14:53:24.722Z</time>
      </trkpt>
      <trkpt lat="43.46536" lon="5.27739">
        <ele>203.793548092</ele>
        <time>2010-12-18T14:53:25.702Z</time>
      </trkpt>
      <trkpt lat="43.46539" lon="5.27738">
        <ele>203.88999939</ele>
        <time>2010-12-18T14:53:26.702Z</time>
      </trkpt>
      <trkpt lat="43.46542" lon="5.27737">
        <ele>203.945160897</ele>
        <time>2010-12-18T14:53:27.698Z</time>
      </trkpt>
      <trkpt lat="43.46546" lon="5.27737">
        <ele>204.01612854</ele>
        <time>2010-12-18T14:53:28.704Z</time>
      </trkpt>
      <trkpt lat="43.46549" lon="5.27737">
        <ele>204.087096184</ele>
        <time>2010-12-18T14:53:29.684Z</time>
      </trkpt>
      <trkpt lat="43.46552" lon="5.27738">
        <ele>204.167741345</ele>
        <time>2010-12-18T14:53:30.704Z</time>
      </trkpt>
      <trkpt lat="43.46555" lon="5.27739">
        <ele>204.286666361</ele>
        <time>2010-12-18T14:53:31.704Z</time>
      </trkpt>
      <trkpt lat="43.46559" lon="5.27739">
        <ele>204.32903216</ele>
        <time>2010-12-18T14:53:32.706Z</time>
      </trkpt>
      <trkpt lat="43.46562" lon="5.27737">
        <ele>204.390322285</ele>
        <time>2010-12-18T14:53:33.701Z</time>
      </trkpt>
      <trkpt lat="43.46565" lon="5.27735">
        <ele>204.429031864</ele>
        <time>2010-12-18T14:53:34.704Z</time>
      </trkpt>
      <trkpt lat="43.46568" lon="5.27732">
        <ele>204.509999593</ele>
        <time>2010-12-18T14:53:35.711Z</time>
      </trkpt>
      <trkpt lat="43.46581" lon="5.27722">
        <ele>204.749999491</ele>
        <time>2010-12-18T14:53:39.703Z</time>
      </trkpt>
      <trkpt lat="43.46586" lon="5.27718">
        <ele>204.883332825</ele>
        <time>2010-12-18T14:53:41.701Z</time>
      </trkpt>
      <trkpt lat="43.46593" lon="5.27714">
        <ele>205.023332723</ele>
        <time>2010-12-18T14:53:44.289Z</time>
      </trkpt>
      <trkpt lat="43.46605" lon="5.27706">
        <ele>205.319999695</ele>
        <time>2010-12-18T14:53:47.715Z</time>
      </trkpt>
      <trkpt lat="43.46612" lon="5.27703">
        <ele>205.5</ele>
        <time>2010-12-18T14:53:49.715Z</time>
      </trkpt>
      <trkpt lat="43.46623" lon="5.27697">
        <ele>205.803333028</ele>
        <time>2010-12-18T14:53:54.283Z</time>
      </trkpt>
      <trkpt lat="43.46631" lon="5.27693">
        <ele>205.99032199</ele>
        <time>2010-12-18T14:53:56.699Z</time>
      </trkpt>
      <trkpt lat="43.46634" lon="5.27691">
        <ele>206.083332316</ele>
        <time>2010-12-18T14:53:57.701Z</time>
      </trkpt>
      <trkpt lat="43.46637" lon="5.27689">
        <ele>206.156666056</ele>
        <time>2010-12-18T14:53:59.285Z</time>
      </trkpt>
      <trkpt lat="43.46639" lon="5.27688">
        <ele>206.23999939</ele>
        <time>2010-12-18T14:53:59.707Z</time>
      </trkpt>
      <trkpt lat="43.46645" lon="5.27686">
        <ele>206.37096725</ele>
        <time>2010-12-18T14:54:01.704Z</time>
      </trkpt>
      <trkpt lat="43.46648" lon="5.27686">
        <ele>206.458063925</ele>
        <time>2010-12-18T14:54:02.705Z</time>
      </trkpt>
      <trkpt lat="43.46651" lon="5.27685">
        <ele>206.579999288</ele>
        <time>2010-12-18T14:54:03.704Z</time>
      </trkpt>
      <trkpt lat="43.46657" lon="5.27685">
        <ele>206.761289535</ele>
        <time>2010-12-18T14:54:05.705Z</time>
      </trkpt>
      <trkpt lat="43.4666" lon="5.27686">
        <ele>206.874192761</ele>
        <time>2010-12-18T14:54:06.699Z</time>
      </trkpt>
      <trkpt lat="43.46666" lon="5.27687">
        <ele>207.156666056</ele>
        <time>2010-12-18T14:54:08.704Z</time>
      </trkpt>
      <trkpt lat="43.46669" lon="5.27688">
        <ele>207.203225413</ele>
        <time>2010-12-18T14:54:09.696Z</time>
      </trkpt>
      <trkpt lat="43.46682" lon="5.27692">
        <ele>207.648386801</ele>
        <time>2010-12-18T14:54:13.699Z</time>
      </trkpt>
      <trkpt lat="43.46692" lon="5.27696">
        <ele>208.01000061</ele>
        <time>2010-12-18T14:54:17.293Z</time>
      </trkpt>
      <trkpt lat="43.46698" lon="5.27697">
        <ele>208.206666565</ele>
        <time>2010-12-18T14:54:18.704Z</time>
      </trkpt>
      <trkpt lat="43.46705" lon="5.27697">
        <ele>208.419999695</ele>
        <time>2010-12-18T14:54:20.703Z</time>
      </trkpt>
      <trkpt lat="43.46715" lon="5.27697">
        <ele>208.625806255</ele>
        <time>2010-12-18T14:54:23.813Z</time>
      </trkpt>
      <trkpt lat="43.46723" lon="5.27697">
        <ele>208.83666687</ele>
        <time>2010-12-18T14:54:25.796Z</time>
      </trkpt>
      <trkpt lat="43.46726" lon="5.27698">
        <ele>208.91333313</ele>
        <time>2010-12-18T14:54:26.742Z</time>
      </trkpt>
      <trkpt lat="43.4673" lon="5.277">
        <ele>208.989999898</ele>
        <time>2010-12-18T14:54:27.721Z</time>
      </trkpt>
      <trkpt lat="43.46733" lon="5.27703">
        <ele>209.022580547</ele>
        <time>2010-12-18T14:54:28.725Z</time>
      </trkpt>
      <trkpt lat="43.4674" lon="5.27708">
        <ele>209.216666158</ele>
        <time>2010-12-18T14:54:30.722Z</time>
      </trkpt>
      <trkpt lat="43.46749" lon="5.27715">
        <ele>209.409999593</ele>
        <time>2010-12-18T14:54:34.303Z</time>
      </trkpt>
      <trkpt lat="43.46762" lon="5.27725">
        <ele>209.561290126</ele>
        <time>2010-12-18T14:54:37.698Z</time>
      </trkpt>
      <trkpt lat="43.46766" lon="5.27727">
        <ele>209.603225708</ele>
        <time>2010-12-18T14:54:38.698Z</time>
      </trkpt>
      <trkpt lat="43.46769" lon="5.2773">
        <ele>209.64516129</ele>
        <time>2010-12-18T14:54:39.694Z</time>
      </trkpt>
      <trkpt lat="43.46778" lon="5.27739">
        <ele>209.725806944</ele>
        <time>2010-12-18T14:54:42.695Z</time>
      </trkpt>
      <trkpt lat="43.46782" lon="5.27742">
        <ele>209.745161487</ele>
        <time>2010-12-18T14:54:43.693Z</time>
      </trkpt>
      <trkpt lat="43.46793" lon="5.2775">
        <ele>209.835483674</ele>
        <time>2010-12-18T14:54:46.697Z</time>
      </trkpt>
      <trkpt lat="43.46808" lon="5.2776">
        <ele>209.863333639</ele>
        <time>2010-12-18T14:54:50.708Z</time>
      </trkpt>
      <trkpt lat="43.4682" lon="5.27769">
        <ele>209.87333374</ele>
        <time>2010-12-18T14:54:54.277Z</time>
      </trkpt>
      <trkpt lat="43.46836" lon="5.27779">
        <ele>209.843333944</ele>
        <time>2010-12-18T14:54:57.729Z</time>
      </trkpt>
      <trkpt lat="43.46852" lon="5.27789">
        <ele>209.760000102</ele>
        <time>2010-12-18T14:55:01.743Z</time>
      </trkpt>
      <trkpt lat="43.46859" lon="5.27795">
        <ele>209.719354445</ele>
        <time>2010-12-18T14:55:03.704Z</time>
      </trkpt>
      <trkpt lat="43.46871" lon="5.27802">
        <ele>209.666666667</ele>
        <time>2010-12-18T14:55:06.789Z</time>
      </trkpt>
      <trkpt lat="43.46876" lon="5.27804">
        <ele>209.646666972</ele>
        <time>2010-12-18T14:55:07.735Z</time>
      </trkpt>
      <trkpt lat="43.4688" lon="5.27805">
        <ele>209.640000407</ele>
        <time>2010-12-18T14:55:08.767Z</time>
      </trkpt>
      <trkpt lat="43.46889" lon="5.27805">
        <ele>209.620000712</ele>
        <time>2010-12-18T14:55:10.721Z</time>
      </trkpt>
      <trkpt lat="43.46906" lon="5.27801">
        <ele>209.456667074</ele>
        <time>2010-12-18T14:55:13.750Z</time>
      </trkpt>
      <trkpt lat="43.46911" lon="5.27798">
        <ele>209.370000203</ele>
        <time>2010-12-18T14:55:15.293Z</time>
      </trkpt>
      <trkpt lat="43.46916" lon="5.27792">
        <ele>209.26333313</ele>
        <time>2010-12-18T14:55:15.758Z</time>
      </trkpt>
      <trkpt lat="43.46921" lon="5.27787">
        <ele>209.146666463</ele>
        <time>2010-12-18T14:55:16.810Z</time>
      </trkpt>
      <trkpt lat="43.46926" lon="5.27781">
        <ele>209.054838611</ele>
        <time>2010-12-18T14:55:17.875Z</time>
      </trkpt>
      <trkpt lat="43.46939" lon="5.27766">
        <ele>208.633333333</ele>
        <time>2010-12-18T14:55:21.314Z</time>
      </trkpt>
      <trkpt lat="43.46948" lon="5.27756">
        <ele>208.370967742</ele>
        <time>2010-12-18T14:55:22.762Z</time>
      </trkpt>
      <trkpt lat="43.46952" lon="5.2775">
        <ele>208.199999902</ele>
        <time>2010-12-18T14:55:23.786Z</time>
      </trkpt>
      <trkpt lat="43.46955" lon="5.27746">
        <ele>207.973333232</ele>
        <time>2010-12-18T14:55:24.839Z</time>
      </trkpt>
      <trkpt lat="43.46959" lon="5.27743">
        <ele>207.806666565</ele>
        <time>2010-12-18T14:55:25.920Z</time>
      </trkpt>
      <trkpt lat="43.46963" lon="5.27741">
        <ele>207.716128934</ele>
        <time>2010-12-18T14:55:26.649Z</time>
      </trkpt>
      <trkpt lat="43.46967" lon="5.2774">
        <ele>207.567742132</ele>
        <time>2010-12-18T14:55:27.693Z</time>
      </trkpt>
      <trkpt lat="43.4697" lon="5.2774">
        <ele>207.429032357</ele>
        <time>2010-12-18T14:55:28.705Z</time>
      </trkpt>
      <trkpt lat="43.46977" lon="5.27741">
        <ele>207.170968333</ele>
        <time>2010-12-18T14:55:30.717Z</time>
      </trkpt>
      <trkpt lat="43.46981" lon="5.27741">
        <ele>207.054839596</ele>
        <time>2010-12-18T14:55:31.701Z</time>
      </trkpt>
      <trkpt lat="43.46989" lon="5.27744">
        <ele>206.845162669</ele>
        <time>2010-12-18T14:55:33.704Z</time>
      </trkpt>
      <trkpt lat="43.47001" lon="5.27749">
        <ele>206.436667379</ele>
        <time>2010-12-18T14:55:37.271Z</time>
      </trkpt>
      <trkpt lat="43.47009" lon="5.27752">
        <ele>206.309678108</ele>
        <time>2010-12-18T14:55:38.695Z</time>
      </trkpt>
      <trkpt lat="43.47017" lon="5.27755">
        <ele>206.080645654</ele>
        <time>2010-12-18T14:55:40.696Z</time>
      </trkpt>
      <trkpt lat="43.47021" lon="5.27755">
        <ele>205.993548486</ele>
        <time>2010-12-18T14:55:41.704Z</time>
      </trkpt>
      <trkpt lat="43.47025" lon="5.27754">
        <ele>205.922580842</ele>
        <time>2010-12-18T14:55:42.704Z</time>
      </trkpt>
      <trkpt lat="43.47029" lon="5.27753">
        <ele>205.880645752</ele>
        <time>2010-12-18T14:55:43.703Z</time>
      </trkpt>
      <trkpt lat="43.4704" lon="5.2775">
        <ele>205.843333944</ele>
        <time>2010-12-18T14:55:47.288Z</time>
      </trkpt>
      <trkpt lat="43.47048" lon="5.2775">
        <ele>205.935484363</ele>
        <time>2010-12-18T14:55:48.703Z</time>
      </trkpt>
      <trkpt lat="43.47052" lon="5.27752">
        <ele>205.977419946</ele>
        <time>2010-12-18T14:55:49.699Z</time>
      </trkpt>
      <trkpt lat="43.47055" lon="5.27756">
        <ele>206.041936075</ele>
        <time>2010-12-18T14:55:50.766Z</time>
      </trkpt>
      <trkpt lat="43.47057" lon="5.2776">
        <ele>206.109677715</ele>
        <time>2010-12-18T14:55:51.721Z</time>
      </trkpt>
      <trkpt lat="43.47057" lon="5.27765">
        <ele>206.180645358</ele>
        <time>2010-12-18T14:55:52.738Z</time>
      </trkpt>
      <trkpt lat="43.47055" lon="5.27769">
        <ele>206.248387491</ele>
        <time>2010-12-18T14:55:53.723Z</time>
      </trkpt>
      <trkpt lat="43.47053" lon="5.27772">
        <ele>206.406667074</ele>
        <time>2010-12-18T14:55:55.066Z</time>
      </trkpt>
      <trkpt lat="43.47051" lon="5.27774">
        <ele>206.429032849</ele>
        <time>2010-12-18T14:55:55.773Z</time>
      </trkpt>
      <trkpt lat="43.4705" lon="5.27777">
        <ele>206.563333639</ele>
        <time>2010-12-18T14:55:56.790Z</time>
      </trkpt>
      <trkpt lat="43.47047" lon="5.27783">
        <ele>206.720000203</ele>
        <time>2010-12-18T14:55:58.785Z</time>
      </trkpt>
      <trkpt lat="43.47046" lon="5.27787">
        <ele>206.810000102</ele>
        <time>2010-12-18T14:55:59.865Z</time>
      </trkpt>
      <trkpt lat="43.47046" lon="5.2779">
        <ele>206.893333435</ele>
        <time>2010-12-18T14:56:00.856Z</time>
      </trkpt>
      <trkpt lat="43.47046" lon="5.27792">
        <ele>206.979999797</ele>
        <time>2010-12-18T14:56:01.893Z</time>
      </trkpt>
      <trkpt lat="43.47046" lon="5.27795">
        <ele>207.066666667</ele>
        <time>2010-12-18T14:56:02.758Z</time>
      </trkpt>
      <trkpt lat="43.47047" lon="5.27798">
        <ele>207.16333313</ele>
        <time>2010-12-18T14:56:03.795Z</time>
      </trkpt>
      <trkpt lat="43.47047" lon="5.27801">
        <ele>207.25</ele>
        <time>2010-12-18T14:56:04.876Z</time>
      </trkpt>
      <trkpt lat="43.47049" lon="5.27805">
        <ele>207.316129131</ele>
        <time>2010-12-18T14:56:05.652Z</time>
      </trkpt>
      <trkpt lat="43.47051" lon="5.27808">
        <ele>207.422580842</ele>
        <time>2010-12-18T14:56:06.903Z</time>
      </trkpt>
      <trkpt lat="43.47054" lon="5.27813">
        <ele>207.720000203</ele>
        <time>2010-12-18T14:56:08.830Z</time>
      </trkpt>
      <trkpt lat="43.47058" lon="5.27819">
        <ele>207.973333232</ele>
        <time>2010-12-18T14:56:10.800Z</time>
      </trkpt>
      <trkpt lat="43.47062" lon="5.27824">
        <ele>208.21333313</ele>
        <time>2010-12-18T14:56:12.768Z</time>
      </trkpt>
      <trkpt lat="43.47063" lon="5.27828">
        <ele>208.333332825</ele>
        <time>2010-12-18T14:56:13.792Z</time>
      </trkpt>
      <trkpt lat="43.47064" lon="5.27831">
        <ele>208.443332926</ele>
        <time>2010-12-18T14:56:14.742Z</time>
      </trkpt>
      <trkpt lat="43.47069" lon="5.27842">
        <ele>208.723333232</ele>
        <time>2010-12-18T14:56:17.830Z</time>
      </trkpt>
      <trkpt lat="43.47075" lon="5.27853">
        <ele>209.003333028</ele>
        <time>2010-12-18T14:56:20.798Z</time>
      </trkpt>
      <trkpt lat="43.4708" lon="5.27861">
        <ele>209.203333028</ele>
        <time>2010-12-18T14:56:22.763Z</time>
      </trkpt>
      <trkpt lat="43.47088" lon="5.27874">
        <ele>209.519999186</ele>
        <time>2010-12-18T14:56:25.786Z</time>
      </trkpt>
      <trkpt lat="43.47091" lon="5.27878">
        <ele>209.60333252</ele>
        <time>2010-12-18T14:56:26.802Z</time>
      </trkpt>
      <trkpt lat="43.47095" lon="5.27883">
        <ele>209.676665751</ele>
        <time>2010-12-18T14:56:27.740Z</time>
      </trkpt>
      <trkpt lat="43.471" lon="5.27893">
        <ele>209.741934992</ele>
        <time>2010-12-18T14:56:29.786Z</time>
      </trkpt>
      <trkpt lat="43.47102" lon="5.27899">
        <ele>209.799999606</ele>
        <time>2010-12-18T14:56:30.840Z</time>
      </trkpt>
      <trkpt lat="43.47103" lon="5.27904">
        <ele>209.851612214</ele>
        <time>2010-12-18T14:56:31.781Z</time>
      </trkpt>
      <trkpt lat="43.47106" lon="5.27914">
        <ele>209.929031864</ele>
        <time>2010-12-18T14:56:33.791Z</time>
      </trkpt>
      <trkpt lat="43.47108" lon="5.27924">
        <ele>210.006666056</ele>
        <time>2010-12-18T14:56:36.279Z</time>
      </trkpt>
      <trkpt lat="43.4711" lon="5.27929">
        <ele>210.01612854</ele>
        <time>2010-12-18T14:56:36.700Z</time>
      </trkpt>
      <trkpt lat="43.47115" lon="5.27943">
        <ele>210.08387018</ele>
        <time>2010-12-18T14:56:39.702Z</time>
      </trkpt>
      <trkpt lat="43.47118" lon="5.27947">
        <ele>210.10967673</ele>
        <time>2010-12-18T14:56:40.723Z</time>
      </trkpt>
      <trkpt lat="43.4712" lon="5.27951">
        <ele>210.132257277</ele>
        <time>2010-12-18T14:56:41.750Z</time>
      </trkpt>
      <trkpt lat="43.47123" lon="5.27954">
        <ele>210.167741345</ele>
        <time>2010-12-18T14:56:42.656Z</time>
      </trkpt>
      <trkpt lat="43.47126" lon="5.27956">
        <ele>210.203225413</ele>
        <time>2010-12-18T14:56:43.671Z</time>
      </trkpt>
      <trkpt lat="43.4713" lon="5.27958">
        <ele>210.245160995</ele>
        <time>2010-12-18T14:56:44.668Z</time>
      </trkpt>
      <trkpt lat="43.47134" lon="5.27959">
        <ele>210.303225117</ele>
        <time>2010-12-18T14:56:45.663Z</time>
      </trkpt>
      <trkpt lat="43.47137" lon="5.27959">
        <ele>210.358063729</ele>
        <time>2010-12-18T14:56:46.665Z</time>
      </trkpt>
      <trkpt lat="43.47141" lon="5.27959">
        <ele>210.425805369</ele>
        <time>2010-12-18T14:56:47.664Z</time>
      </trkpt>
      <trkpt lat="43.47148" lon="5.27958">
        <ele>210.561289141</ele>
        <time>2010-12-18T14:56:49.667Z</time>
      </trkpt>
      <trkpt lat="43.47155" lon="5.27957">
        <ele>210.696665446</ele>
        <time>2010-12-18T14:56:52.271Z</time>
      </trkpt>
      <trkpt lat="43.47162" lon="5.27958">
        <ele>210.825805172</ele>
        <time>2010-12-18T14:56:53.664Z</time>
      </trkpt>
      <trkpt lat="43.47166" lon="5.27959">
        <ele>210.896772815</ele>
        <time>2010-12-18T14:56:54.657Z</time>
      </trkpt>
      <trkpt lat="43.47177" lon="5.27961">
        <ele>211.233332316</ele>
        <time>2010-12-18T14:56:58.257Z</time>
      </trkpt>
      <trkpt lat="43.47181" lon="5.2796">
        <ele>211.290321596</ele>
        <time>2010-12-18T14:56:58.674Z</time>
      </trkpt>
      <trkpt lat="43.47184" lon="5.2796">
        <ele>211.409676336</ele>
        <time>2010-12-18T14:56:59.661Z</time>
      </trkpt>
      <trkpt lat="43.47195" lon="5.27959">
        <ele>211.777418567</ele>
        <time>2010-12-18T14:57:02.666Z</time>
      </trkpt>
      <trkpt lat="43.47199" lon="5.2796">
        <ele>211.906450825</ele>
        <time>2010-12-18T14:57:03.674Z</time>
      </trkpt>
      <trkpt lat="43.47202" lon="5.27962">
        <ele>212.038708595</ele>
        <time>2010-12-18T14:57:04.671Z</time>
      </trkpt>
      <trkpt lat="43.47205" lon="5.27965">
        <ele>212.170966364</ele>
        <time>2010-12-18T14:57:05.663Z</time>
      </trkpt>
      <trkpt lat="43.47207" lon="5.27968">
        <ele>212.303224625</ele>
        <time>2010-12-18T14:57:06.670Z</time>
      </trkpt>
      <trkpt lat="43.4721" lon="5.27972">
        <ele>212.432256883</ele>
        <time>2010-12-18T14:57:07.671Z</time>
      </trkpt>
      <trkpt lat="43.47211" lon="5.27975">
        <ele>212.561289141</ele>
        <time>2010-12-18T14:57:08.669Z</time>
      </trkpt>
      <trkpt lat="43.47214" lon="5.27978">
        <ele>212.712902438</ele>
        <time>2010-12-18T14:57:09.658Z</time>
      </trkpt>
      <trkpt lat="43.47216" lon="5.2798">
        <ele>212.864515735</ele>
        <time>2010-12-18T14:57:10.660Z</time>
      </trkpt>
      <trkpt lat="43.47219" lon="5.27983">
        <ele>213.01612854</ele>
        <time>2010-12-18T14:57:11.660Z</time>
      </trkpt>
      <trkpt lat="43.47222" lon="5.27985">
        <ele>213.23999939</ele>
        <time>2010-12-18T14:57:12.660Z</time>
      </trkpt>
      <trkpt lat="43.47225" lon="5.27987">
        <ele>213.306451121</ele>
        <time>2010-12-18T14:57:13.663Z</time>
      </trkpt>
      <trkpt lat="43.47233" lon="5.27992">
        <ele>213.793332926</ele>
        <time>2010-12-18T14:57:16.687Z</time>
      </trkpt>
      <trkpt lat="43.47236" lon="5.27994">
        <ele>213.936666361</ele>
        <time>2010-12-18T14:57:17.699Z</time>
      </trkpt>
      <trkpt lat="43.47239" lon="5.27996">
        <ele>214.083333333</ele>
        <time>2010-12-18T14:57:18.698Z</time>
      </trkpt>
      <trkpt lat="43.4725" lon="5.28005">
        <ele>214.667742329</ele>
        <time>2010-12-18T14:57:22.658Z</time>
      </trkpt>
      <trkpt lat="43.47256" lon="5.28009">
        <ele>215.080000814</ele>
        <time>2010-12-18T14:57:24.667Z</time>
      </trkpt>
      <trkpt lat="43.47258" lon="5.28012">
        <ele>215.177420339</ele>
        <time>2010-12-18T14:57:25.660Z</time>
      </trkpt>
      <trkpt lat="43.47263" lon="5.28017">
        <ele>215.53548456</ele>
        <time>2010-12-18T14:57:27.696Z</time>
      </trkpt>
      <trkpt lat="43.47272" lon="5.28023">
        <ele>216.193333944</ele>
        <time>2010-12-18T14:57:31.226Z</time>
      </trkpt>
      <trkpt lat="43.47281" lon="5.28031">
        <ele>216.966666667</ele>
        <time>2010-12-18T14:57:34.703Z</time>
      </trkpt>
      <trkpt lat="43.47283" lon="5.28033">
        <ele>217.153333537</ele>
        <time>2010-12-18T14:57:35.689Z</time>
      </trkpt>
      <trkpt lat="43.47286" lon="5.28035">
        <ele>217.346666972</ele>
        <time>2010-12-18T14:57:36.695Z</time>
      </trkpt>
      <trkpt lat="43.47288" lon="5.28036">
        <ele>217.540000407</ele>
        <time>2010-12-18T14:57:37.694Z</time>
      </trkpt>
      <trkpt lat="43.47293" lon="5.28038">
        <ele>217.903333537</ele>
        <time>2010-12-18T14:57:40.254Z</time>
      </trkpt>
      <trkpt lat="43.47296" lon="5.2804">
        <ele>218.083333333</ele>
        <time>2010-12-18T14:57:40.679Z</time>
      </trkpt>
      <trkpt lat="43.47297" lon="5.28042">
        <ele>218.256667074</ele>
        <time>2010-12-18T14:57:41.700Z</time>
      </trkpt>
      <trkpt lat="43.47302" lon="5.28046">
        <ele>218.616667175</ele>
        <time>2010-12-18T14:57:43.696Z</time>
      </trkpt>
      <trkpt lat="43.47307" lon="5.28049">
        <ele>218.956667074</ele>
        <time>2010-12-18T14:57:46.258Z</time>
      </trkpt>
      <trkpt lat="43.47313" lon="5.28052">
        <ele>219.167742329</ele>
        <time>2010-12-18T14:57:47.695Z</time>
      </trkpt>
      <trkpt lat="43.47318" lon="5.28055">
        <ele>219.523333232</ele>
        <time>2010-12-18T14:57:49.699Z</time>
      </trkpt>
      <trkpt lat="43.47324" lon="5.28056">
        <ele>219.677419355</ele>
        <time>2010-12-18T14:57:51.692Z</time>
      </trkpt>
      <trkpt lat="43.47329" lon="5.28057">
        <ele>219.85483871</ele>
        <time>2010-12-18T14:57:53.693Z</time>
      </trkpt>
      <trkpt lat="43.47337" lon="5.28058">
        <ele>220.153333537</ele>
        <time>2010-12-18T14:57:57.269Z</time>
      </trkpt>
      <trkpt lat="43.47348" lon="5.28059">
        <ele>220.277419552</ele>
        <time>2010-12-18T14:58:00.696Z</time>
      </trkpt>
      <trkpt lat="43.47356" lon="5.28059">
        <ele>220.366666667</ele>
        <time>2010-12-18T14:58:03.700Z</time>
      </trkpt>
      <trkpt lat="43.47365" lon="5.28059">
        <ele>220.433333333</ele>
        <time>2010-12-18T14:58:06.704Z</time>
      </trkpt>
      <trkpt lat="43.47376" lon="5.28061">
        <ele>220.43999939</ele>
        <time>2010-12-18T14:58:10.700Z</time>
      </trkpt>
      <trkpt lat="43.47388" lon="5.28061">
        <ele>220.422579858</ele>
        <time>2010-12-18T14:58:14.710Z</time>
      </trkpt>
      <trkpt lat="43.47393" lon="5.28061">
        <ele>220.387096282</ele>
        <time>2010-12-18T14:58:16.702Z</time>
      </trkpt>
      <trkpt lat="43.47399" lon="5.28062">
        <ele>220.316666667</ele>
        <time>2010-12-18T14:58:18.696Z</time>
      </trkpt>
      <trkpt lat="43.47402" lon="5.28062">
        <ele>220.309677616</ele>
        <time>2010-12-18T14:58:19.699Z</time>
      </trkpt>
      <trkpt lat="43.47408" lon="5.28062">
        <ele>220.266666667</ele>
        <time>2010-12-18T14:58:21.699Z</time>
      </trkpt>
      <trkpt lat="43.47411" lon="5.28062">
        <ele>220.280645063</ele>
        <time>2010-12-18T14:58:22.704Z</time>
      </trkpt>
      <trkpt lat="43.47413" lon="5.28062">
        <ele>220.279999797</ele>
        <time>2010-12-18T14:58:23.716Z</time>
      </trkpt>
      <trkpt lat="43.47419" lon="5.28063">
        <ele>220.299999491</ele>
        <time>2010-12-18T14:58:25.708Z</time>
      </trkpt>
      <trkpt lat="43.47425" lon="5.28063">
        <ele>220.332257179</ele>
        <time>2010-12-18T14:58:27.703Z</time>
      </trkpt>
      <trkpt lat="43.4743" lon="5.28064">
        <ele>220.396665446</ele>
        <time>2010-12-18T14:58:29.699Z</time>
      </trkpt>
      <trkpt lat="43.47439" lon="5.28064">
        <ele>220.487095494</ele>
        <time>2010-12-18T14:58:32.696Z</time>
      </trkpt>
      <trkpt lat="43.47445" lon="5.28064">
        <ele>220.586665344</ele>
        <time>2010-12-18T14:58:35.295Z</time>
      </trkpt>
      <trkpt lat="43.47454" lon="5.28063">
        <ele>220.739998372</ele>
        <time>2010-12-18T14:58:37.708Z</time>
      </trkpt>
      <trkpt lat="43.47458" lon="5.28064">
        <ele>220.803332011</ele>
        <time>2010-12-18T14:58:38.708Z</time>
      </trkpt>
      <trkpt lat="43.4747" lon="5.28065">
        <ele>221.070966167</ele>
        <time>2010-12-18T14:58:42.710Z</time>
      </trkpt>
      <trkpt lat="43.47483" lon="5.28066">
        <ele>221.338708201</ele>
        <time>2010-12-18T14:58:46.699Z</time>
      </trkpt>
      <trkpt lat="43.47492" lon="5.28066">
        <ele>221.636664836</ele>
        <time>2010-12-18T14:58:49.713Z</time>
      </trkpt>
      <trkpt lat="43.47501" lon="5.28066">
        <ele>221.906665039</ele>
        <time>2010-12-18T14:58:52.717Z</time>
      </trkpt>
      <trkpt lat="43.47505" lon="5.28066">
        <ele>221.999998474</ele>
        <time>2010-12-18T14:58:53.746Z</time>
      </trkpt>
      <trkpt lat="43.47514" lon="5.28066">
        <ele>222.276665751</ele>
        <time>2010-12-18T14:58:56.760Z</time>
      </trkpt>
      <trkpt lat="43.4752" lon="5.28065">
        <ele>222.419354346</ele>
        <time>2010-12-18T14:58:58.672Z</time>
      </trkpt>
      <trkpt lat="43.4753" lon="5.28063">
        <ele>222.776666768</ele>
        <time>2010-12-18T14:59:01.705Z</time>
      </trkpt>
      <trkpt lat="43.47536" lon="5.2806">
        <ele>222.989999898</ele>
        <time>2010-12-18T14:59:03.709Z</time>
      </trkpt>
      <trkpt lat="43.47548" lon="5.28055">
        <ele>223.393333435</ele>
        <time>2010-12-18T14:59:07.714Z</time>
      </trkpt>
      <trkpt lat="43.4756" lon="5.28048">
        <ele>223.760000102</ele>
        <time>2010-12-18T14:59:11.710Z</time>
      </trkpt>
      <trkpt lat="43.47568" lon="5.28043">
        <ele>224.054838611</ele>
        <time>2010-12-18T14:59:14.711Z</time>
      </trkpt>
      <trkpt lat="43.47578" lon="5.28038">
        <ele>224.443332418</ele>
        <time>2010-12-18T14:59:18.278Z</time>
      </trkpt>
      <trkpt lat="43.47587" lon="5.28035">
        <ele>224.712902438</ele>
        <time>2010-12-18T14:59:20.697Z</time>
      </trkpt>
      <trkpt lat="43.47596" lon="5.28031">
        <ele>225.073332723</ele>
        <time>2010-12-18T14:59:24.284Z</time>
      </trkpt>
      <trkpt lat="43.47609" lon="5.28026">
        <ele>225.479998779</ele>
        <time>2010-12-18T14:59:27.727Z</time>
      </trkpt>
      <trkpt lat="43.47618" lon="5.28022">
        <ele>225.754838021</ele>
        <time>2010-12-18T14:59:30.705Z</time>
      </trkpt>
      <trkpt lat="43.47627" lon="5.28017">
        <ele>226.13999939</ele>
        <time>2010-12-18T14:59:34.293Z</time>
      </trkpt>
      <trkpt lat="43.47637" lon="5.2801">
        <ele>226.545160601</ele>
        <time>2010-12-18T14:59:37.705Z</time>
      </trkpt>
      <trkpt lat="43.47639" lon="5.28008">
        <ele>226.658063827</ele>
        <time>2010-12-18T14:59:38.704Z</time>
      </trkpt>
      <trkpt lat="43.47642" lon="5.28007">
        <ele>226.770967053</ele>
        <time>2010-12-18T14:59:39.703Z</time>
      </trkpt>
      <trkpt lat="43.47645" lon="5.28007">
        <ele>226.887096282</ele>
        <time>2010-12-18T14:59:40.702Z</time>
      </trkpt>
      <trkpt lat="43.47647" lon="5.28006">
        <ele>226.993547993</ele>
        <time>2010-12-18T14:59:41.705Z</time>
      </trkpt>
      <trkpt lat="43.47655" lon="5.28002">
        <ele>227.258064516</ele>
        <time>2010-12-18T14:59:44.709Z</time>
      </trkpt>
      <trkpt lat="43.47665" lon="5.27998">
        <ele>227.622581236</ele>
        <time>2010-12-18T14:59:48.705Z</time>
      </trkpt>
      <trkpt lat="43.47671" lon="5.27996">
        <ele>227.876667277</ele>
        <time>2010-12-18T14:59:50.709Z</time>
      </trkpt>
      <trkpt lat="43.47676" lon="5.27993">
        <ele>228.022581039</ele>
        <time>2010-12-18T14:59:52.704Z</time>
      </trkpt>
      <trkpt lat="43.47683" lon="5.27988">
        <ele>228.37333374</ele>
        <time>2010-12-18T14:59:56.283Z</time>
      </trkpt>
      <trkpt lat="43.47694" lon="5.27983">
        <ele>228.716667684</ele>
        <time>2010-12-18T14:59:59.705Z</time>
      </trkpt>
      <trkpt lat="43.47705" lon="5.27978">
        <ele>228.970968431</ele>
        <time>2010-12-18T15:00:03.705Z</time>
      </trkpt>
      <trkpt lat="43.47707" lon="5.27977">
        <ele>229.048388081</ele>
        <time>2010-12-18T15:00:04.705Z</time>
      </trkpt>
      <trkpt lat="43.47712" lon="5.27974">
        <ele>229.226667786</ele>
        <time>2010-12-18T15:00:06.705Z</time>
      </trkpt>
      <trkpt lat="43.47717" lon="5.27971">
        <ele>229.358065205</ele>
        <time>2010-12-18T15:00:08.699Z</time>
      </trkpt>
      <trkpt lat="43.47722" lon="5.27968">
        <ele>229.553334045</ele>
        <time>2010-12-18T15:00:11.290Z</time>
      </trkpt>
      <trkpt lat="43.47727" lon="5.27965">
        <ele>229.723334757</ele>
        <time>2010-12-18T15:00:13.292Z</time>
      </trkpt>
      <trkpt lat="43.47732" lon="5.27962">
        <ele>229.910001119</ele>
        <time>2010-12-18T15:00:14.717Z</time>
      </trkpt>
      <trkpt lat="43.47742" lon="5.27957">
        <ele>230.270968529</ele>
        <time>2010-12-18T15:00:18.702Z</time>
      </trkpt>
      <trkpt lat="43.47747" lon="5.27954">
        <ele>230.500000492</ele>
        <time>2010-12-18T15:00:20.699Z</time>
      </trkpt>
      <trkpt lat="43.47755" lon="5.2795">
        <ele>230.841936665</ele>
        <time>2010-12-18T15:00:23.711Z</time>
      </trkpt>
      <trkpt lat="43.47764" lon="5.27946">
        <ele>231.410000102</ele>
        <time>2010-12-18T15:00:28.296Z</time>
      </trkpt>
      <trkpt lat="43.47766" lon="5.27945">
        <ele>231.553333028</ele>
        <time>2010-12-18T15:00:29.297Z</time>
      </trkpt>
      <trkpt lat="43.47771" lon="5.27942">
        <ele>231.856666565</ele>
        <time>2010-12-18T15:00:30.707Z</time>
      </trkpt>
      <trkpt lat="43.47781" lon="5.27938">
        <ele>232.473333232</ele>
        <time>2010-12-18T15:00:34.708Z</time>
      </trkpt>
      <trkpt lat="43.47783" lon="5.27937">
        <ele>232.619999695</ele>
        <time>2010-12-18T15:00:35.709Z</time>
      </trkpt>
      <trkpt lat="43.47788" lon="5.27935">
        <ele>232.85483871</ele>
        <time>2010-12-18T15:00:37.712Z</time>
      </trkpt>
      <trkpt lat="43.47792" lon="5.27933">
        <ele>233.148387294</ele>
        <time>2010-12-18T15:00:39.698Z</time>
      </trkpt>
      <trkpt lat="43.47803" lon="5.2793">
        <ele>233.796666463</ele>
        <time>2010-12-18T15:00:44.283Z</time>
      </trkpt>
      <trkpt lat="43.4781" lon="5.27929">
        <ele>234.200000509</ele>
        <time>2010-12-18T15:00:46.707Z</time>
      </trkpt>
      <trkpt lat="43.47813" lon="5.27929">
        <ele>234.326667277</ele>
        <time>2010-12-18T15:00:47.704Z</time>
      </trkpt>
      <trkpt lat="43.4782" lon="5.27928">
        <ele>234.596774686</ele>
        <time>2010-12-18T15:00:50.686Z</time>
      </trkpt>
      <trkpt lat="43.47822" lon="5.27925">
        <ele>234.780000305</ele>
        <time>2010-12-18T15:00:51.710Z</time>
      </trkpt>
      <trkpt lat="43.47824" lon="5.27923">
        <ele>234.822581137</ele>
        <time>2010-12-18T15:00:52.713Z</time>
      </trkpt>
      <trkpt lat="43.47832" lon="5.27914">
        <ele>235.280000814</ele>
        <time>2010-12-18T15:00:56.700Z</time>
      </trkpt>
      <trkpt lat="43.47835" lon="5.27909">
        <ele>235.412904309</ele>
        <time>2010-12-18T15:00:58.697Z</time>
      </trkpt>
      <trkpt lat="43.47837" lon="5.27902">
        <ele>235.587098152</ele>
        <time>2010-12-18T15:01:00.698Z</time>
      </trkpt>
      <trkpt lat="43.47839" lon="5.27895">
        <ele>235.754839989</ele>
        <time>2010-12-18T15:01:02.693Z</time>
      </trkpt>
      <trkpt lat="43.4784" lon="5.27892">
        <ele>235.880001322</ele>
        <time>2010-12-18T15:01:03.699Z</time>
      </trkpt>
      <trkpt lat="43.47837" lon="5.27888">
        <ele>235.929033341</ele>
        <time>2010-12-18T15:01:04.707Z</time>
      </trkpt>
      <trkpt lat="43.47836" lon="5.27884">
        <ele>236.016130017</ele>
        <time>2010-12-18T15:01:05.705Z</time>
      </trkpt>
      <trkpt lat="43.47836" lon="5.27881">
        <ele>236.096775178</ele>
        <time>2010-12-18T15:01:06.699Z</time>
      </trkpt>
      <trkpt lat="43.47834" lon="5.27869">
        <ele>236.350001017</ele>
        <time>2010-12-18T15:01:09.701Z</time>
      </trkpt>
      <trkpt lat="43.47832" lon="5.27859">
        <ele>236.536667379</ele>
        <time>2010-12-18T15:01:12.705Z</time>
      </trkpt>
      <trkpt lat="43.47831" lon="5.27856">
        <ele>236.56129111</ele>
        <time>2010-12-18T15:01:13.698Z</time>
      </trkpt>
      <trkpt lat="43.4783" lon="5.27849">
        <ele>236.703333537</ele>
        <time>2010-12-18T15:01:15.703Z</time>
      </trkpt>
      <trkpt lat="43.47829" lon="5.27847">
        <ele>236.745161487</ele>
        <time>2010-12-18T15:01:16.706Z</time>
      </trkpt>
      <trkpt lat="43.47828" lon="5.27844">
        <ele>236.866666667</ele>
        <time>2010-12-18T15:01:17.706Z</time>
      </trkpt>
      <trkpt lat="43.47825" lon="5.27842">
        <ele>236.953333028</ele>
        <time>2010-12-18T15:01:18.708Z</time>
      </trkpt>
      <trkpt lat="43.47823" lon="5.2784">
        <ele>237.003225511</ele>
        <time>2010-12-18T15:01:19.688Z</time>
      </trkpt>
      <trkpt lat="43.47821" lon="5.27839">
        <ele>237.136666361</ele>
        <time>2010-12-18T15:01:20.695Z</time>
      </trkpt>
      <trkpt lat="43.47819" lon="5.27838">
        <ele>237.193547895</ele>
        <time>2010-12-18T15:01:21.706Z</time>
      </trkpt>
      <trkpt lat="43.47816" lon="5.27837">
        <ele>237.299999606</ele>
        <time>2010-12-18T15:01:22.704Z</time>
      </trkpt>
      <trkpt lat="43.47812" lon="5.27836">
        <ele>237.525806058</ele>
        <time>2010-12-18T15:01:24.715Z</time>
      </trkpt>
      <trkpt lat="43.4781" lon="5.27835">
        <ele>237.68999939</ele>
        <time>2010-12-18T15:01:25.705Z</time>
      </trkpt>
      <trkpt lat="43.47808" lon="5.27832">
        <ele>237.949999491</ele>
        <time>2010-12-18T15:01:27.727Z</time>
      </trkpt>
      <trkpt lat="43.47807" lon="5.2783">
        <ele>238.093332418</ele>
        <time>2010-12-18T15:01:28.778Z</time>
      </trkpt>
      <trkpt lat="43.47805" lon="5.27828">
        <ele>238.190321892</ele>
        <time>2010-12-18T15:01:29.670Z</time>
      </trkpt>
      <trkpt lat="43.47805" lon="5.27825">
        <ele>238.345160207</ele>
        <time>2010-12-18T15:01:30.675Z</time>
      </trkpt>
      <trkpt lat="43.47804" lon="5.27823">
        <ele>238.499999016</ele>
        <time>2010-12-18T15:01:31.673Z</time>
      </trkpt>
      <trkpt lat="43.47804" lon="5.2782">
        <ele>238.658063335</ele>
        <time>2010-12-18T15:01:32.671Z</time>
      </trkpt>
      <trkpt lat="43.47804" lon="5.27817">
        <ele>238.809676632</ele>
        <time>2010-12-18T15:01:33.699Z</time>
      </trkpt>
      <trkpt lat="43.47803" lon="5.27812">
        <ele>239.09354819</ele>
        <time>2010-12-18T15:01:35.690Z</time>
      </trkpt>
      <trkpt lat="43.47804" lon="5.27806">
        <ele>239.370967742</ele>
        <time>2010-12-18T15:01:37.701Z</time>
      </trkpt>
      <trkpt lat="43.47805" lon="5.27802">
        <ele>239.556666565</ele>
        <time>2010-12-18T15:01:38.700Z</time>
      </trkpt>
      <trkpt lat="43.47806" lon="5.27792">
        <ele>239.906451318</ele>
        <time>2010-12-18T15:01:41.691Z</time>
      </trkpt>
      <trkpt lat="43.47805" lon="5.2779">
        <ele>240.058064122</ele>
        <time>2010-12-18T15:01:42.698Z</time>
      </trkpt>
      <trkpt lat="43.47804" lon="5.27786">
        <ele>240.351612706</ele>
        <time>2010-12-18T15:01:44.700Z</time>
      </trkpt>
      <trkpt lat="43.47803" lon="5.27783">
        <ele>240.623333232</ele>
        <time>2010-12-18T15:01:45.704Z</time>
      </trkpt>
      <trkpt lat="43.47801" lon="5.27777">
        <ele>241.076666768</ele>
        <time>2010-12-18T15:01:49.283Z</time>
      </trkpt>
      <trkpt lat="43.47798" lon="5.27772">
        <ele>241.451612903</ele>
        <time>2010-12-18T15:01:51.686Z</time>
      </trkpt>
      <trkpt lat="43.47797" lon="5.27771">
        <ele>241.606451711</ele>
        <time>2010-12-18T15:01:52.696Z</time>
      </trkpt>
      <trkpt lat="43.47796" lon="5.2777">
        <ele>241.751613002</ele>
        <time>2010-12-18T15:01:53.691Z</time>
      </trkpt>
      <trkpt lat="43.47793" lon="5.27768">
        <ele>242.029032061</ele>
        <time>2010-12-18T15:01:55.686Z</time>
      </trkpt>
      <trkpt lat="43.47792" lon="5.27766">
        <ele>242.243333435</ele>
        <time>2010-12-18T15:01:56.710Z</time>
      </trkpt>
      <trkpt lat="43.47789" lon="5.27764">
        <ele>242.451612903</ele>
        <time>2010-12-18T15:01:58.705Z</time>
      </trkpt>
      <trkpt lat="43.47785" lon="5.2776">
        <ele>242.880000305</ele>
        <time>2010-12-18T15:02:01.702Z</time>
      </trkpt>
      <trkpt lat="43.47783" lon="5.27758">
        <ele>243.080645654</ele>
        <time>2010-12-18T15:02:03.698Z</time>
      </trkpt>
      <trkpt lat="43.47777" lon="5.27751">
        <ele>243.72666626</ele>
        <time>2010-12-18T15:02:07.715Z</time>
      </trkpt>
      <trkpt lat="43.47773" lon="5.27748">
        <ele>244.056666565</ele>
        <time>2010-12-18T15:02:09.719Z</time>
      </trkpt>
      <trkpt lat="43.47771" lon="5.27744">
        <ele>244.376666768</ele>
        <time>2010-12-18T15:02:11.699Z</time>
      </trkpt>
      <trkpt lat="43.47769" lon="5.2774">
        <ele>244.638710268</ele>
        <time>2010-12-18T15:02:13.716Z</time>
      </trkpt>
      <trkpt lat="43.47769" lon="5.27737">
        <ele>244.916667175</ele>
        <time>2010-12-18T15:02:14.704Z</time>
      </trkpt>
      <trkpt lat="43.4777" lon="5.27735">
        <ele>245.09666748</ele>
        <time>2010-12-18T15:02:15.705Z</time>
      </trkpt>
      <trkpt lat="43.4777" lon="5.27733">
        <ele>245.187097365</ele>
        <time>2010-12-18T15:02:16.694Z</time>
      </trkpt>
      <trkpt lat="43.47771" lon="5.2773">
        <ele>245.446666972</ele>
        <time>2010-12-18T15:02:17.699Z</time>
      </trkpt>
      <trkpt lat="43.47772" lon="5.27728">
        <ele>245.529032553</ele>
        <time>2010-12-18T15:02:18.703Z</time>
      </trkpt>
      <trkpt lat="43.47773" lon="5.27726">
        <ele>245.693548879</ele>
        <time>2010-12-18T15:02:19.698Z</time>
      </trkpt>
      <trkpt lat="43.47774" lon="5.27724">
        <ele>245.940000916</ele>
        <time>2010-12-18T15:02:20.705Z</time>
      </trkpt>
      <trkpt lat="43.47777" lon="5.27721">
        <ele>246.286667887</ele>
        <time>2010-12-18T15:02:22.702Z</time>
      </trkpt>
      <trkpt lat="43.47778" lon="5.2772">
        <ele>246.456667582</ele>
        <time>2010-12-18T15:02:23.705Z</time>
      </trkpt>
      <trkpt lat="43.47781" lon="5.27717">
        <ele>246.763334147</ele>
        <time>2010-12-18T15:02:25.703Z</time>
      </trkpt>
      <trkpt lat="43.47786" lon="5.27713">
        <ele>247.041936075</ele>
        <time>2010-12-18T15:02:28.697Z</time>
      </trkpt>
      <trkpt lat="43.4779" lon="5.27709">
        <ele>247.303333537</ele>
        <time>2010-12-18T15:02:30.719Z</time>
      </trkpt>
      <trkpt lat="43.47793" lon="5.27705">
        <ele>247.432257868</ele>
        <time>2010-12-18T15:02:32.694Z</time>
      </trkpt>
      <trkpt lat="43.47794" lon="5.27703">
        <ele>247.529032061</ele>
        <time>2010-12-18T15:02:33.697Z</time>
      </trkpt>
      <trkpt lat="43.478" lon="5.27694">
        <ele>247.849999491</ele>
        <time>2010-12-18T15:02:38.287Z</time>
      </trkpt>
      <trkpt lat="43.47804" lon="5.27691">
        <ele>247.925805861</ele>
        <time>2010-12-18T15:02:39.708Z</time>
      </trkpt>
      <trkpt lat="43.47807" lon="5.27687">
        <ele>248.109999593</ele>
        <time>2010-12-18T15:02:41.711Z</time>
      </trkpt>
      <trkpt lat="43.47809" lon="5.27685">
        <ele>248.169999186</ele>
        <time>2010-12-18T15:02:42.704Z</time>
      </trkpt>
      <trkpt lat="43.47811" lon="5.27683">
        <ele>248.206450924</ele>
        <time>2010-12-18T15:02:43.701Z</time>
      </trkpt>
      <trkpt lat="43.47813" lon="5.27682">
        <ele>248.299998983</ele>
        <time>2010-12-18T15:02:44.714Z</time>
      </trkpt>
      <trkpt lat="43.47817" lon="5.27679">
        <ele>248.423332214</ele>
        <time>2010-12-18T15:02:46.710Z</time>
      </trkpt>
      <trkpt lat="43.47819" lon="5.27677">
        <ele>248.479999288</ele>
        <time>2010-12-18T15:02:47.702Z</time>
      </trkpt>
      <trkpt lat="43.47824" lon="5.27675">
        <ele>248.599999491</ele>
        <time>2010-12-18T15:02:49.699Z</time>
      </trkpt>
      <trkpt lat="43.47828" lon="5.27672">
        <ele>248.683332825</ele>
        <time>2010-12-18T15:02:51.699Z</time>
      </trkpt>
      <trkpt lat="43.47833" lon="5.2767">
        <ele>248.719999695</ele>
        <time>2010-12-18T15:02:54.293Z</time>
      </trkpt>
      <trkpt lat="43.47836" lon="5.27668">
        <ele>248.739999898</ele>
        <time>2010-12-18T15:02:54.736Z</time>
      </trkpt>
      <trkpt lat="43.47839" lon="5.27666">
        <ele>248.746666463</ele>
        <time>2010-12-18T15:02:55.711Z</time>
      </trkpt>
      <trkpt lat="43.47841" lon="5.27664">
        <ele>248.756666565</ele>
        <time>2010-12-18T15:02:56.705Z</time>
      </trkpt>
      <trkpt lat="43.47844" lon="5.27661">
        <ele>248.783333333</ele>
        <time>2010-12-18T15:02:57.715Z</time>
      </trkpt>
      <trkpt lat="43.47846" lon="5.27658">
        <ele>248.810000102</ele>
        <time>2010-12-18T15:02:58.702Z</time>
      </trkpt>
      <trkpt lat="43.47851" lon="5.27651">
        <ele>248.854839202</ele>
        <time>2010-12-18T15:03:01.692Z</time>
      </trkpt>
      <trkpt lat="43.47852" lon="5.27647">
        <ele>248.870968234</ele>
        <time>2010-12-18T15:03:02.689Z</time>
      </trkpt>
      <trkpt lat="43.47853" lon="5.27644">
        <ele>248.893548781</ele>
        <time>2010-12-18T15:03:03.692Z</time>
      </trkpt>
      <trkpt lat="43.47854" lon="5.27641">
        <ele>248.922580842</ele>
        <time>2010-12-18T15:03:04.696Z</time>
      </trkpt>
      <trkpt lat="43.47855" lon="5.27638">
        <ele>249.003333537</ele>
        <time>2010-12-18T15:03:05.703Z</time>
      </trkpt>
      <trkpt lat="43.47855" lon="5.27636">
        <ele>249.056667074</ele>
        <time>2010-12-18T15:03:06.697Z</time>
      </trkpt>
      <trkpt lat="43.47857" lon="5.27627">
        <ele>249.230000305</ele>
        <time>2010-12-18T15:03:10.283Z</time>
      </trkpt>
      <trkpt lat="43.47857" lon="5.27624">
        <ele>249.296666972</ele>
        <time>2010-12-18T15:03:10.696Z</time>
      </trkpt>
      <trkpt lat="43.47858" lon="5.27618">
        <ele>249.419354839</ele>
        <time>2010-12-18T15:03:12.696Z</time>
      </trkpt>
      <trkpt lat="43.47861" lon="5.2761">
        <ele>249.650000509</ele>
        <time>2010-12-18T15:03:15.703Z</time>
      </trkpt>
      <trkpt lat="43.47862" lon="5.27606">
        <ele>249.780646047</ele>
        <time>2010-12-18T15:03:17.698Z</time>
      </trkpt>
      <trkpt lat="43.47865" lon="5.27601">
        <ele>249.909677813</ele>
        <time>2010-12-18T15:03:19.698Z</time>
      </trkpt>
      <trkpt lat="43.47867" lon="5.27592">
        <ele>250.096774194</ele>
        <time>2010-12-18T15:03:22.687Z</time>
      </trkpt>
      <trkpt lat="43.4787" lon="5.27587">
        <ele>250.235483969</ele>
        <time>2010-12-18T15:03:24.724Z</time>
      </trkpt>
      <trkpt lat="43.47873" lon="5.27582">
        <ele>250.390322778</ele>
        <time>2010-12-18T15:03:26.693Z</time>
      </trkpt>
      <trkpt lat="43.47877" lon="5.27575">
        <ele>250.679999797</ele>
        <time>2010-12-18T15:03:29.704Z</time>
      </trkpt>
      <trkpt lat="43.4788" lon="5.27572">
        <ele>250.853333028</ele>
        <time>2010-12-18T15:03:31.704Z</time>
      </trkpt>
      <trkpt lat="43.47886" lon="5.27566">
        <ele>250.996773997</ele>
        <time>2010-12-18T15:03:34.689Z</time>
      </trkpt>
      <trkpt lat="43.47888" lon="5.27564">
        <ele>251.116666667</ele>
        <time>2010-12-18T15:03:36.284Z</time>
      </trkpt>
      <trkpt lat="43.47894" lon="5.27559">
        <ele>251.245161487</ele>
        <time>2010-12-18T15:03:38.691Z</time>
      </trkpt>
      <trkpt lat="43.47899" lon="5.27556">
        <ele>251.33666687</ele>
        <time>2010-12-18T15:03:40.717Z</time>
      </trkpt>
      <trkpt lat="43.479" lon="5.27554">
        <ele>251.296774587</ele>
        <time>2010-12-18T15:03:41.698Z</time>
      </trkpt>
      <trkpt lat="43.47902" lon="5.27549">
        <ele>251.260001119</ele>
        <time>2010-12-18T15:03:44.287Z</time>
      </trkpt>
      <trkpt lat="43.47905" lon="5.2755">
        <ele>251.210001119</ele>
        <time>2010-12-18T15:03:44.715Z</time>
      </trkpt>
      <trkpt lat="43.47909" lon="5.2755">
        <ele>251.130000814</ele>
        <time>2010-12-18T15:03:45.712Z</time>
      </trkpt>
      <trkpt lat="43.47912" lon="5.27548">
        <ele>251.040000916</ele>
        <time>2010-12-18T15:03:46.697Z</time>
      </trkpt>
      <trkpt lat="43.47914" lon="5.27546">
        <ele>250.956667582</ele>
        <time>2010-12-18T15:03:47.705Z</time>
      </trkpt>
      <trkpt lat="43.47917" lon="5.27544">
        <ele>250.873334249</ele>
        <time>2010-12-18T15:03:48.700Z</time>
      </trkpt>
      <trkpt lat="43.47923" lon="5.27542">
        <ele>250.751613494</ele>
        <time>2010-12-18T15:03:50.695Z</time>
      </trkpt>
      <trkpt lat="43.47926" lon="5.27542">
        <ele>250.646666972</ele>
        <time>2010-12-18T15:03:51.703Z</time>
      </trkpt>
      <trkpt lat="43.47929" lon="5.27541">
        <ele>250.57333374</ele>
        <time>2010-12-18T15:03:52.710Z</time>
      </trkpt>
      <trkpt lat="43.47934" lon="5.27539">
        <ele>250.439999898</ele>
        <time>2010-12-18T15:03:54.750Z</time>
      </trkpt>
      <trkpt lat="43.4794" lon="5.27538">
        <ele>250.320000203</ele>
        <time>2010-12-18T15:03:56.705Z</time>
      </trkpt>
      <trkpt lat="43.47945" lon="5.27536">
        <ele>250.243333435</ele>
        <time>2010-12-18T15:03:59.290Z</time>
      </trkpt>
      <trkpt lat="43.47949" lon="5.27533">
        <ele>250.219354937</ele>
        <time>2010-12-18T15:04:00.699Z</time>
      </trkpt>
      <trkpt lat="43.47951" lon="5.27531">
        <ele>250.170000203</ele>
        <time>2010-12-18T15:04:01.752Z</time>
      </trkpt>
      <trkpt lat="43.47955" lon="5.27527">
        <ele>250.16000061</ele>
        <time>2010-12-18T15:04:03.697Z</time>
      </trkpt>
      <trkpt lat="43.47959" lon="5.27522">
        <ele>250.164516326</ele>
        <time>2010-12-18T15:04:05.751Z</time>
      </trkpt>
      <trkpt lat="43.4796" lon="5.27519">
        <ele>250.145161783</ele>
        <time>2010-12-18T15:04:06.677Z</time>
      </trkpt>
      <trkpt lat="43.47962" lon="5.27516">
        <ele>250.122581236</ele>
        <time>2010-12-18T15:04:07.663Z</time>
      </trkpt>
      <trkpt lat="43.47966" lon="5.27506">
        <ele>250.022581531</ele>
        <time>2010-12-18T15:04:10.693Z</time>
      </trkpt>
      <trkpt lat="43.47966" lon="5.27503">
        <ele>250.040000407</ele>
        <time>2010-12-18T15:04:11.713Z</time>
      </trkpt>
      <trkpt lat="43.47966" lon="5.27499">
        <ele>250.054839103</ele>
        <time>2010-12-18T15:04:12.707Z</time>
      </trkpt>
      <trkpt lat="43.47967" lon="5.27494">
        <ele>250.067742132</ele>
        <time>2010-12-18T15:04:13.684Z</time>
      </trkpt>
      <trkpt lat="43.47967" lon="5.2749">
        <ele>250.067742132</ele>
        <time>2010-12-18T15:04:14.698Z</time>
      </trkpt>
      <trkpt lat="43.47968" lon="5.2748">
        <ele>250.199999902</ele>
        <time>2010-12-18T15:04:17.704Z</time>
      </trkpt>
      <trkpt lat="43.47969" lon="5.27468">
        <ele>250.580645161</ele>
        <time>2010-12-18T15:04:21.696Z</time>
      </trkpt>
      <trkpt lat="43.47969" lon="5.27464">
        <ele>250.683871362</ele>
        <time>2010-12-18T15:04:22.697Z</time>
      </trkpt>
      <trkpt lat="43.47968" lon="5.27458">
        <ele>250.919355331</ele>
        <time>2010-12-18T15:04:24.720Z</time>
      </trkpt>
      <trkpt lat="43.47968" lon="5.27448">
        <ele>251.366667175</ele>
        <time>2010-12-18T15:04:27.706Z</time>
      </trkpt>
      <trkpt lat="43.47968" lon="5.27444">
        <ele>251.461290913</ele>
        <time>2010-12-18T15:04:28.704Z</time>
      </trkpt>
      <trkpt lat="43.47967" lon="5.27441">
        <ele>251.61290421</ele>
        <time>2010-12-18T15:04:29.705Z</time>
      </trkpt>
      <trkpt lat="43.47966" lon="5.27438">
        <ele>251.803334554</ele>
        <time>2010-12-18T15:04:30.704Z</time>
      </trkpt>
      <trkpt lat="43.47965" lon="5.27435">
        <ele>251.906452794</ele>
        <time>2010-12-18T15:04:31.707Z</time>
      </trkpt>
      <trkpt lat="43.47964" lon="5.27428">
        <ele>252.200001378</ele>
        <time>2010-12-18T15:04:33.694Z</time>
      </trkpt>
      <trkpt lat="43.47963" lon="5.27422">
        <ele>252.535485052</ele>
        <time>2010-12-18T15:04:35.699Z</time>
      </trkpt>
      <trkpt lat="43.47963" lon="5.27419">
        <ele>252.773334249</ele>
        <time>2010-12-18T15:04:36.691Z</time>
      </trkpt>
      <trkpt lat="43.47962" lon="5.27408">
        <ele>253.316667175</ele>
        <time>2010-12-18T15:04:39.710Z</time>
      </trkpt>
      <trkpt lat="43.47962" lon="5.27397">
        <ele>253.741936468</ele>
        <time>2010-12-18T15:04:42.696Z</time>
      </trkpt>
      <trkpt lat="43.47963" lon="5.27393">
        <ele>254.016667684</ele>
        <time>2010-12-18T15:04:43.686Z</time>
      </trkpt>
      <trkpt lat="43.47963" lon="5.27384">
        <ele>254.361291209</ele>
        <time>2010-12-18T15:04:46.695Z</time>
      </trkpt>
      <trkpt lat="43.47964" lon="5.27374">
        <ele>254.754839989</ele>
        <time>2010-12-18T15:04:49.699Z</time>
      </trkpt>
      <trkpt lat="43.47966" lon="5.27364">
        <ele>255.160001119</ele>
        <time>2010-12-18T15:04:52.713Z</time>
      </trkpt>
      <trkpt lat="43.47967" lon="5.27357">
        <ele>255.319356118</ele>
        <time>2010-12-18T15:04:54.715Z</time>
      </trkpt>
      <trkpt lat="43.47968" lon="5.27346">
        <ele>255.670001221</ele>
        <time>2010-12-18T15:04:58.283Z</time>
      </trkpt>
      <trkpt lat="43.4797" lon="5.27332">
        <ele>255.861290716</ele>
        <time>2010-12-18T15:05:01.696Z</time>
      </trkpt>
      <trkpt lat="43.47971" lon="5.27325">
        <ele>255.99666748</ele>
        <time>2010-12-18T15:05:03.696Z</time>
      </trkpt>
      <trkpt lat="43.47971" lon="5.27322">
        <ele>256.038710071</ele>
        <time>2010-12-18T15:05:04.695Z</time>
      </trkpt>
      <trkpt lat="43.47972" lon="5.27314">
        <ele>256.256667074</ele>
        <time>2010-12-18T15:05:07.706Z</time>
      </trkpt>
      <trkpt lat="43.47973" lon="5.27308">
        <ele>256.426667277</ele>
        <time>2010-12-18T15:05:09.717Z</time>
      </trkpt>
      <trkpt lat="43.47972" lon="5.27298">
        <ele>256.676666768</ele>
        <time>2010-12-18T15:05:12.716Z</time>
      </trkpt>
      <trkpt lat="43.47972" lon="5.27291">
        <ele>256.825806156</ele>
        <time>2010-12-18T15:05:14.695Z</time>
      </trkpt>
      <trkpt lat="43.47973" lon="5.27285">
        <ele>257.08999939</ele>
        <time>2010-12-18T15:05:16.706Z</time>
      </trkpt>
      <trkpt lat="43.47975" lon="5.27275">
        <ele>257.463332113</ele>
        <time>2010-12-18T15:05:20.284Z</time>
      </trkpt>
      <trkpt lat="43.47977" lon="5.27268">
        <ele>257.856665039</ele>
        <time>2010-12-18T15:05:22.723Z</time>
      </trkpt>
      <trkpt lat="43.4798" lon="5.27256">
        <ele>258.187094412</ele>
        <time>2010-12-18T15:05:26.690Z</time>
      </trkpt>
      <trkpt lat="43.47982" lon="5.27253">
        <ele>258.258061563</ele>
        <time>2010-12-18T15:05:27.704Z</time>
      </trkpt>
      <trkpt lat="43.47983" lon="5.2725">
        <ele>258.416663615</ele>
        <time>2010-12-18T15:05:28.705Z</time>
      </trkpt>
      <trkpt lat="43.47985" lon="5.27244">
        <ele>258.516126079</ele>
        <time>2010-12-18T15:05:30.702Z</time>
      </trkpt>
      <trkpt lat="43.47989" lon="5.27238">
        <ele>258.783330282</ele>
        <time>2010-12-18T15:05:32.705Z</time>
      </trkpt>
      <trkpt lat="43.47991" lon="5.27235">
        <ele>258.883330282</ele>
        <time>2010-12-18T15:05:33.714Z</time>
      </trkpt>
      <trkpt lat="43.47997" lon="5.27228">
        <ele>259.126664225</ele>
        <time>2010-12-18T15:05:37.284Z</time>
      </trkpt>
      <trkpt lat="43.48002" lon="5.27221">
        <ele>259.296772618</ele>
        <time>2010-12-18T15:05:39.705Z</time>
      </trkpt>
      <trkpt lat="43.48006" lon="5.27215">
        <ele>259.396772815</ele>
        <time>2010-12-18T15:05:41.696Z</time>
      </trkpt>
      <trkpt lat="43.48008" lon="5.27212">
        <ele>259.435482887</ele>
        <time>2010-12-18T15:05:42.700Z</time>
      </trkpt>
      <trkpt lat="43.4801" lon="5.27204">
        <ele>259.559999593</ele>
        <time>2010-12-18T15:05:44.704Z</time>
      </trkpt>
      <trkpt lat="43.48011" lon="5.272">
        <ele>259.62666626</ele>
        <time>2010-12-18T15:05:45.702Z</time>
      </trkpt>
      <trkpt lat="43.48012" lon="5.27196">
        <ele>259.664515341</ele>
        <time>2010-12-18T15:05:46.678Z</time>
      </trkpt>
      <trkpt lat="43.48014" lon="5.27184">
        <ele>259.864514751</ele>
        <time>2010-12-18T15:05:49.693Z</time>
      </trkpt>
      <trkpt lat="43.48016" lon="5.27177">
        <ele>259.993332926</ele>
        <time>2010-12-18T15:05:52.278Z</time>
      </trkpt>
      <trkpt lat="43.48018" lon="5.27168">
        <ele>260.112902241</ele>
        <time>2010-12-18T15:05:53.707Z</time>
      </trkpt>
      <trkpt lat="43.4802" lon="5.27164">
        <ele>260.187095396</ele>
        <time>2010-12-18T15:05:54.715Z</time>
      </trkpt>
      <trkpt lat="43.48025" lon="5.27151">
        <ele>260.474191973</ele>
        <time>2010-12-18T15:05:57.701Z</time>
      </trkpt>
      <trkpt lat="43.48026" lon="5.27148">
        <ele>260.596773209</ele>
        <time>2010-12-18T15:05:58.694Z</time>
      </trkpt>
      <trkpt lat="43.48028" lon="5.27144">
        <ele>260.71935346</ele>
        <time>2010-12-18T15:05:59.694Z</time>
      </trkpt>
      <trkpt lat="43.48034" lon="5.27135">
        <ele>261.093547206</ele>
        <time>2010-12-18T15:06:02.700Z</time>
      </trkpt>
      <trkpt lat="43.48042" lon="5.27122">
        <ele>261.496773012</ele>
        <time>2010-12-18T15:06:06.707Z</time>
      </trkpt>
      <trkpt lat="43.48044" lon="5.2712">
        <ele>261.639998372</ele>
        <time>2010-12-18T15:06:07.700Z</time>
      </trkpt>
      <trkpt lat="43.48049" lon="5.27111">
        <ele>261.97096597</ele>
        <time>2010-12-18T15:06:10.697Z</time>
      </trkpt>
      <trkpt lat="43.48052" lon="5.27108">
        <ele>262.119353264</ele>
        <time>2010-12-18T15:06:11.696Z</time>
      </trkpt>
      <trkpt lat="43.48056" lon="5.27103">
        <ele>262.533332316</ele>
        <time>2010-12-18T15:06:13.722Z</time>
      </trkpt>
      <trkpt lat="43.48059" lon="5.27101">
        <ele>262.679998779</ele>
        <time>2010-12-18T15:06:14.714Z</time>
      </trkpt>
      <trkpt lat="43.48066" lon="5.27096">
        <ele>263.109999593</ele>
        <time>2010-12-18T15:06:17.698Z</time>
      </trkpt>
      <trkpt lat="43.48072" lon="5.27092">
        <ele>263.42333374</ele>
        <time>2010-12-18T15:06:19.703Z</time>
      </trkpt>
      <trkpt lat="43.48075" lon="5.27091">
        <ele>263.503226003</ele>
        <time>2010-12-18T15:06:20.698Z</time>
      </trkpt>
      <trkpt lat="43.48077" lon="5.27089">
        <ele>263.664516326</ele>
        <time>2010-12-18T15:06:21.699Z</time>
      </trkpt>
      <trkpt lat="43.4808" lon="5.27088">
        <ele>263.81290362</ele>
        <time>2010-12-18T15:06:22.699Z</time>
      </trkpt>
      <trkpt lat="43.48083" lon="5.27087">
        <ele>263.964516917</ele>
        <time>2010-12-18T15:06:23.698Z</time>
      </trkpt>
      <trkpt lat="43.48095" lon="5.27082">
        <ele>264.573335775</ele>
        <time>2010-12-18T15:06:27.704Z</time>
      </trkpt>
      <trkpt lat="43.481" lon="5.2708">
        <ele>264.846668498</ele>
        <time>2010-12-18T15:06:29.698Z</time>
      </trkpt>
      <trkpt lat="43.48103" lon="5.27079">
        <ele>264.993334961</ele>
        <time>2010-12-18T15:06:30.702Z</time>
      </trkpt>
      <trkpt lat="43.4811" lon="5.27074">
        <ele>265.296776556</ele>
        <time>2010-12-18T15:06:33.701Z</time>
      </trkpt>
      <trkpt lat="43.48113" lon="5.27071">
        <ele>265.486668905</ele>
        <time>2010-12-18T15:06:35.297Z</time>
      </trkpt>
      <trkpt lat="43.48116" lon="5.27067">
        <ele>265.512904998</ele>
        <time>2010-12-18T15:06:35.697Z</time>
      </trkpt>
      <trkpt lat="43.48121" lon="5.27059">
        <ele>265.690324353</ele>
        <time>2010-12-18T15:06:37.696Z</time>
      </trkpt>
      <trkpt lat="43.48123" lon="5.27053">
        <ele>265.735486431</ele>
        <time>2010-12-18T15:06:38.699Z</time>
      </trkpt>
      <trkpt lat="43.48129" lon="5.27034">
        <ele>265.813334147</ele>
        <time>2010-12-18T15:06:42.290Z</time>
      </trkpt>
      <trkpt lat="43.48131" lon="5.27015">
        <ele>265.638709284</ele>
        <time>2010-12-18T15:06:44.696Z</time>
      </trkpt>
      <trkpt lat="43.48131" lon="5.27009">
        <ele>265.586665853</ele>
        <time>2010-12-18T15:06:45.704Z</time>
      </trkpt>
      <trkpt lat="43.48129" lon="5.27003">
        <ele>265.464514948</ele>
        <time>2010-12-18T15:06:46.700Z</time>
      </trkpt>
      <trkpt lat="43.48126" lon="5.26996">
        <ele>265.333332316</ele>
        <time>2010-12-18T15:06:47.706Z</time>
      </trkpt>
      <trkpt lat="43.48122" lon="5.26985">
        <ele>264.896665446</ele>
        <time>2010-12-18T15:06:49.706Z</time>
      </trkpt>
      <trkpt lat="43.48114" lon="5.26968">
        <ele>263.933332316</ele>
        <time>2010-12-18T15:06:52.702Z</time>
      </trkpt>
      <trkpt lat="43.48111" lon="5.26962">
        <ele>263.563332113</ele>
        <time>2010-12-18T15:06:53.700Z</time>
      </trkpt>
      <trkpt lat="43.48107" lon="5.26951">
        <ele>262.809999084</ele>
        <time>2010-12-18T15:06:56.297Z</time>
      </trkpt>
      <trkpt lat="43.48105" lon="5.26945">
        <ele>262.426665243</ele>
        <time>2010-12-18T15:06:56.708Z</time>
      </trkpt>
      <trkpt lat="43.48102" lon="5.26935">
        <ele>261.993331909</ele>
        <time>2010-12-18T15:06:57.713Z</time>
      </trkpt>
      <trkpt lat="43.48095" lon="5.26906">
        <ele>260.348385719</ele>
        <time>2010-12-18T15:07:01.691Z</time>
      </trkpt>
      <trkpt lat="43.4809" lon="5.26892">
        <ele>259.186664327</ele>
        <time>2010-12-18T15:07:03.709Z</time>
      </trkpt>
      <trkpt lat="43.48089" lon="5.26885">
        <ele>258.93548141</ele>
        <time>2010-12-18T15:07:04.700Z</time>
      </trkpt>
      <trkpt lat="43.48087" lon="5.26879">
        <ele>258.429029895</ele>
        <time>2010-12-18T15:07:05.686Z</time>
      </trkpt>
      <trkpt lat="43.48085" lon="5.26872">
        <ele>257.649997457</ele>
        <time>2010-12-18T15:07:06.718Z</time>
      </trkpt>
      <trkpt lat="43.48083" lon="5.26863">
        <ele>257.116664632</ele>
        <time>2010-12-18T15:07:07.705Z</time>
      </trkpt>
      <trkpt lat="43.48083" lon="5.26853">
        <ele>256.593330892</ele>
        <time>2010-12-18T15:07:08.700Z</time>
      </trkpt>
      <trkpt lat="43.48083" lon="5.26845">
        <ele>256.063331095</ele>
        <time>2010-12-18T15:07:09.702Z</time>
      </trkpt>
      <trkpt lat="43.48084" lon="5.26828">
        <ele>255.283869097</ele>
        <time>2010-12-18T15:07:11.717Z</time>
      </trkpt>
      <trkpt lat="43.48086" lon="5.26814">
        <ele>253.946665446</ele>
        <time>2010-12-18T15:07:14.294Z</time>
      </trkpt>
      <trkpt lat="43.48087" lon="5.26808">
        <ele>253.473332214</ele>
        <time>2010-12-18T15:07:14.707Z</time>
      </trkpt>
      <trkpt lat="43.48089" lon="5.26802">
        <ele>253.303224625</ele>
        <time>2010-12-18T15:07:15.698Z</time>
      </trkpt>
      <trkpt lat="43.48092" lon="5.26791">
        <ele>252.406450825</ele>
        <time>2010-12-18T15:07:17.698Z</time>
      </trkpt>
      <trkpt lat="43.48096" lon="5.26777">
        <ele>251.270966561</ele>
        <time>2010-12-18T15:07:20.701Z</time>
      </trkpt>
      <trkpt lat="43.481" lon="5.26761">
        <ele>250.273331706</ele>
        <time>2010-12-18T15:07:24.294Z</time>
      </trkpt>
      <trkpt lat="43.48103" lon="5.2675">
        <ele>249.880643783</ele>
        <time>2010-12-18T15:07:25.708Z</time>
      </trkpt>
      <trkpt lat="43.48104" lon="5.26744">
        <ele>249.616127752</ele>
        <time>2010-12-18T15:07:26.696Z</time>
      </trkpt>
      <trkpt lat="43.48105" lon="5.26739">
        <ele>249.351611722</ele>
        <time>2010-12-18T15:07:27.697Z</time>
      </trkpt>
      <trkpt lat="43.48106" lon="5.26732">
        <ele>249.122579267</ele>
        <time>2010-12-18T15:07:28.698Z</time>
      </trkpt>
      <trkpt lat="43.48108" lon="5.26721">
        <ele>248.539998881</ele>
        <time>2010-12-18T15:07:30.704Z</time>
      </trkpt>
      <trkpt lat="43.48112" lon="5.26702">
        <ele>247.999999016</ele>
        <time>2010-12-18T15:07:33.694Z</time>
      </trkpt>
      <trkpt lat="43.48112" lon="5.26695">
        <ele>247.673332723</ele>
        <time>2010-12-18T15:07:34.717Z</time>
      </trkpt>
      <trkpt lat="43.48111" lon="5.26687">
        <ele>247.519999695</ele>
        <time>2010-12-18T15:07:35.717Z</time>
      </trkpt>
      <trkpt lat="43.48112" lon="5.26679">
        <ele>247.4483869</ele>
        <time>2010-12-18T15:07:36.705Z</time>
      </trkpt>
      <trkpt lat="43.48113" lon="5.26671">
        <ele>247.261290027</ele>
        <time>2010-12-18T15:07:37.703Z</time>
      </trkpt>
      <trkpt lat="43.48114" lon="5.26662">
        <ele>246.98999939</ele>
        <time>2010-12-18T15:07:38.718Z</time>
      </trkpt>
      <trkpt lat="43.48118" lon="5.26644">
        <ele>246.636666361</ele>
        <time>2010-12-18T15:07:40.704Z</time>
      </trkpt>
      <trkpt lat="43.4812" lon="5.26635">
        <ele>246.512903029</ele>
        <time>2010-12-18T15:07:41.707Z</time>
      </trkpt>
      <trkpt lat="43.48125" lon="5.26627">
        <ele>246.332258163</ele>
        <time>2010-12-18T15:07:42.700Z</time>
      </trkpt>
      <trkpt lat="43.48134" lon="5.26614">
        <ele>245.977419453</ele>
        <time>2010-12-18T15:07:44.706Z</time>
      </trkpt>
      <trkpt lat="43.48147" lon="5.26597">
        <ele>245.353333537</ele>
        <time>2010-12-18T15:07:47.703Z</time>
      </trkpt>
      <trkpt lat="43.48155" lon="5.26586">
        <ele>244.996666972</ele>
        <time>2010-12-18T15:07:49.716Z</time>
      </trkpt>
      <trkpt lat="43.48157" lon="5.26579">
        <ele>244.803334045</ele>
        <time>2010-12-18T15:07:50.713Z</time>
      </trkpt>
      <trkpt lat="43.48162" lon="5.26567">
        <ele>244.53548456</ele>
        <time>2010-12-18T15:07:52.701Z</time>
      </trkpt>
      <trkpt lat="43.48168" lon="5.26558">
        <ele>244.212903915</ele>
        <time>2010-12-18T15:07:54.716Z</time>
      </trkpt>
      <trkpt lat="43.48171" lon="5.26554">
        <ele>244.006667074</ele>
        <time>2010-12-18T15:07:56.291Z</time>
      </trkpt>
      <trkpt lat="43.48173" lon="5.2655">
        <ele>243.890000407</ele>
        <time>2010-12-18T15:07:56.717Z</time>
      </trkpt>
      <trkpt lat="43.48179" lon="5.26543">
        <ele>243.663333639</ele>
        <time>2010-12-18T15:07:58.700Z</time>
      </trkpt>
      <trkpt lat="43.48185" lon="5.26537">
        <ele>243.567742132</ele>
        <time>2010-12-18T15:08:00.693Z</time>
      </trkpt>
      <trkpt lat="43.4819" lon="5.26532">
        <ele>243.380645752</ele>
        <time>2010-12-18T15:08:02.695Z</time>
      </trkpt>
      <trkpt lat="43.48195" lon="5.26525">
        <ele>243.254839497</ele>
        <time>2010-12-18T15:08:04.705Z</time>
      </trkpt>
      <trkpt lat="43.48203" lon="5.26515">
        <ele>243.063334147</ele>
        <time>2010-12-18T15:08:07.704Z</time>
      </trkpt>
      <trkpt lat="43.48208" lon="5.26509">
        <ele>243.116667684</ele>
        <time>2010-12-18T15:08:09.713Z</time>
      </trkpt>
      <trkpt lat="43.48217" lon="5.265">
        <ele>243.346666972</ele>
        <time>2010-12-18T15:08:12.707Z</time>
      </trkpt>
      <trkpt lat="43.4822" lon="5.26497">
        <ele>243.443333944</ele>
        <time>2010-12-18T15:08:13.736Z</time>
      </trkpt>
      <trkpt lat="43.48222" lon="5.26493">
        <ele>243.496774981</ele>
        <time>2010-12-18T15:08:14.693Z</time>
      </trkpt>
      <trkpt lat="43.48223" lon="5.26489">
        <ele>243.567742625</ele>
        <time>2010-12-18T15:08:15.698Z</time>
      </trkpt>
      <trkpt lat="43.48224" lon="5.26481">
        <ele>243.780000305</ele>
        <time>2010-12-18T15:08:17.719Z</time>
      </trkpt>
      <trkpt lat="43.48226" lon="5.26471">
        <ele>244.067742132</ele>
        <time>2010-12-18T15:08:20.704Z</time>
      </trkpt>
      <trkpt lat="43.48228" lon="5.26456">
        <ele>244.640000407</ele>
        <time>2010-12-18T15:08:24.724Z</time>
      </trkpt>
      <trkpt lat="43.48228" lon="5.26449">
        <ele>244.83871017</ele>
        <time>2010-12-18T15:08:26.704Z</time>
      </trkpt>
      <trkpt lat="43.4823" lon="5.2644">
        <ele>245.183334351</ele>
        <time>2010-12-18T15:08:29.294Z</time>
      </trkpt>
      <trkpt lat="43.4823" lon="5.26437">
        <ele>245.340000916</ele>
        <time>2010-12-18T15:08:29.694Z</time>
      </trkpt>
      <trkpt lat="43.48231" lon="5.26429">
        <ele>245.593549667</ele>
        <time>2010-12-18T15:08:31.704Z</time>
      </trkpt>
      <trkpt lat="43.48231" lon="5.26418">
        <ele>246.029033046</ele>
        <time>2010-12-18T15:08:34.699Z</time>
      </trkpt>
      <trkpt lat="43.48232" lon="5.2641">
        <ele>246.270968037</ele>
        <time>2010-12-18T15:08:36.704Z</time>
      </trkpt>
      <trkpt lat="43.48233" lon="5.26407">
        <ele>246.440000407</ele>
        <time>2010-12-18T15:08:37.746Z</time>
      </trkpt>
      <trkpt lat="43.48234" lon="5.26399">
        <ele>246.554839103</ele>
        <time>2010-12-18T15:08:39.700Z</time>
      </trkpt>
      <trkpt lat="43.48235" lon="5.26392">
        <ele>246.703225905</ele>
        <time>2010-12-18T15:08:41.659Z</time>
      </trkpt>
      <trkpt lat="43.48237" lon="5.2639">
        <ele>246.770968037</ele>
        <time>2010-12-18T15:08:42.669Z</time>
      </trkpt>
      <trkpt lat="43.48238" lon="5.26387">
        <ele>246.841936173</ele>
        <time>2010-12-18T15:08:43.662Z</time>
      </trkpt>
      <trkpt lat="43.4824" lon="5.26384">
        <ele>246.943333944</ele>
        <time>2010-12-18T15:08:44.700Z</time>
      </trkpt>
      <trkpt lat="43.48243" lon="5.26378">
        <ele>247.053334045</ele>
        <time>2010-12-18T15:08:46.705Z</time>
      </trkpt>
      <trkpt lat="43.48249" lon="5.26366">
        <ele>247.140000916</ele>
        <time>2010-12-18T15:08:51.257Z</time>
      </trkpt>
      <trkpt lat="43.48256" lon="5.26353">
        <ele>247.253334045</ele>
        <time>2010-12-18T15:08:54.728Z</time>
      </trkpt>
      <trkpt lat="43.48257" lon="5.26349">
        <ele>247.250000509</ele>
        <time>2010-12-18T15:08:55.724Z</time>
      </trkpt>
      <trkpt lat="43.48258" lon="5.26345">
        <ele>247.232258458</ele>
        <time>2010-12-18T15:08:56.696Z</time>
      </trkpt>
      <trkpt lat="43.48259" lon="5.26342">
        <ele>247.226666768</ele>
        <time>2010-12-18T15:08:57.716Z</time>
      </trkpt>
      <trkpt lat="43.4826" lon="5.26334">
        <ele>247.153333028</ele>
        <time>2010-12-18T15:08:59.701Z</time>
      </trkpt>
      <trkpt lat="43.48261" lon="5.26326">
        <ele>247.099999705</ele>
        <time>2010-12-18T15:09:01.698Z</time>
      </trkpt>
      <trkpt lat="43.48262" lon="5.26322">
        <ele>247.036666361</ele>
        <time>2010-12-18T15:09:02.703Z</time>
      </trkpt>
      <trkpt lat="43.48264" lon="5.2631">
        <ele>246.970000203</ele>
        <time>2010-12-18T15:09:05.709Z</time>
      </trkpt>
      <trkpt lat="43.48264" lon="5.26307">
        <ele>246.950000509</ele>
        <time>2010-12-18T15:09:06.705Z</time>
      </trkpt>
      <trkpt lat="43.48267" lon="5.26294">
        <ele>246.950000509</ele>
        <time>2010-12-18T15:09:09.710Z</time>
      </trkpt>
      <trkpt lat="43.48269" lon="5.26279">
        <ele>247.013333639</ele>
        <time>2010-12-18T15:09:13.698Z</time>
      </trkpt>
      <trkpt lat="43.48271" lon="5.26271">
        <ele>247.048387097</ele>
        <time>2010-12-18T15:09:15.695Z</time>
      </trkpt>
      <trkpt lat="43.48273" lon="5.26268">
        <ele>247.089999898</ele>
        <time>2010-12-18T15:09:17.279Z</time>
      </trkpt>
      <trkpt lat="43.48274" lon="5.26265">
        <ele>247.103225708</ele>
        <time>2010-12-18T15:09:17.695Z</time>
      </trkpt>
      <trkpt lat="43.48277" lon="5.26254">
        <ele>247.203225905</ele>
        <time>2010-12-18T15:09:20.702Z</time>
      </trkpt>
      <trkpt lat="43.48281" lon="5.26242">
        <ele>247.289999898</ele>
        <time>2010-12-18T15:09:24.286Z</time>
      </trkpt>
      <trkpt lat="43.48287" lon="5.26226">
        <ele>247.43225836</ele>
        <time>2010-12-18T15:09:27.705Z</time>
      </trkpt>
      <trkpt lat="43.48292" lon="5.26209">
        <ele>247.620001221</ele>
        <time>2010-12-18T15:09:31.702Z</time>
      </trkpt>
      <trkpt lat="43.48293" lon="5.26204">
        <ele>247.63871076</ele>
        <time>2010-12-18T15:09:32.703Z</time>
      </trkpt>
      <trkpt lat="43.48295" lon="5.26196">
        <ele>247.726667786</ele>
        <time>2010-12-18T15:09:34.711Z</time>
      </trkpt>
      <trkpt lat="43.48298" lon="5.26181">
        <ele>247.850000509</ele>
        <time>2010-12-18T15:09:37.707Z</time>
      </trkpt>
      <trkpt lat="43.483" lon="5.26172">
        <ele>247.923334249</ele>
        <time>2010-12-18T15:09:40.302Z</time>
      </trkpt>
      <trkpt lat="43.48302" lon="5.26168">
        <ele>247.953334554</ele>
        <time>2010-12-18T15:09:40.703Z</time>
      </trkpt>
      <trkpt lat="43.48304" lon="5.2616">
        <ele>248.009678502</ele>
        <time>2010-12-18T15:09:42.697Z</time>
      </trkpt>
      <trkpt lat="43.48305" lon="5.26156">
        <ele>248.063334656</ele>
        <time>2010-12-18T15:09:43.717Z</time>
      </trkpt>
      <trkpt lat="43.48309" lon="5.2614">
        <ele>248.256668091</ele>
        <time>2010-12-18T15:09:47.703Z</time>
      </trkpt>
      <trkpt lat="43.48311" lon="5.26133">
        <ele>248.370001221</ele>
        <time>2010-12-18T15:09:50.299Z</time>
      </trkpt>
      <trkpt lat="43.48312" lon="5.26124">
        <ele>248.458065402</ele>
        <time>2010-12-18T15:09:51.697Z</time>
      </trkpt>
      <trkpt lat="43.48313" lon="5.26112">
        <ele>248.673334249</ele>
        <time>2010-12-18T15:09:55.294Z</time>
      </trkpt>
      <trkpt lat="43.48315" lon="5.26096">
        <ele>248.926667277</ele>
        <time>2010-12-18T15:09:58.724Z</time>
      </trkpt>
      <trkpt lat="43.48316" lon="5.26084">
        <ele>249.130000814</ele>
        <time>2010-12-18T15:10:01.711Z</time>
      </trkpt>
      <trkpt lat="43.48319" lon="5.26067">
        <ele>249.400001017</ele>
        <time>2010-12-18T15:10:06.297Z</time>
      </trkpt>
      <trkpt lat="43.48321" lon="5.26063">
        <ele>249.435484855</ele>
        <time>2010-12-18T15:10:06.699Z</time>
      </trkpt>
      <trkpt lat="43.48325" lon="5.26052">
        <ele>249.61290421</ele>
        <time>2010-12-18T15:10:09.712Z</time>
      </trkpt>
      <trkpt lat="43.48328" lon="5.26045">
        <ele>249.763333639</ele>
        <time>2010-12-18T15:10:11.704Z</time>
      </trkpt>
      <trkpt lat="43.48331" lon="5.26038">
        <ele>249.825806649</ele>
        <time>2010-12-18T15:10:13.707Z</time>
      </trkpt>
      <trkpt lat="43.48334" lon="5.26034">
        <ele>249.903333537</ele>
        <time>2010-12-18T15:10:14.708Z</time>
      </trkpt>
      <trkpt lat="43.48338" lon="5.26029">
        <ele>249.980000305</ele>
        <time>2010-12-18T15:10:16.729Z</time>
      </trkpt>
      <trkpt lat="43.48341" lon="5.26026">
        <ele>250.010000102</ele>
        <time>2010-12-18T15:10:17.710Z</time>
      </trkpt>
      <trkpt lat="43.4835" lon="5.26013">
        <ele>250.043333435</ele>
        <time>2010-12-18T15:10:22.302Z</time>
      </trkpt>
      <trkpt lat="43.48359" lon="5.26">
        <ele>250.012903521</ele>
        <time>2010-12-18T15:10:25.709Z</time>
      </trkpt>
      <trkpt lat="43.48366" lon="5.2599">
        <ele>249.98387146</ele>
        <time>2010-12-18T15:10:28.712Z</time>
      </trkpt>
      <trkpt lat="43.48374" lon="5.25976">
        <ele>249.889999898</ele>
        <time>2010-12-18T15:10:32.705Z</time>
      </trkpt>
      <trkpt lat="43.48378" lon="5.25969">
        <ele>249.835483674</ele>
        <time>2010-12-18T15:10:34.706Z</time>
      </trkpt>
      <trkpt lat="43.4838" lon="5.25965">
        <ele>249.80322561</ele>
        <time>2010-12-18T15:10:35.704Z</time>
      </trkpt>
      <trkpt lat="43.48382" lon="5.25961">
        <ele>249.736666361</ele>
        <time>2010-12-18T15:10:36.720Z</time>
      </trkpt>
      <trkpt lat="43.48384" lon="5.25957">
        <ele>249.725805959</ele>
        <time>2010-12-18T15:10:37.705Z</time>
      </trkpt>
      <trkpt lat="43.48388" lon="5.2595">
        <ele>249.654838316</ele>
        <time>2010-12-18T15:10:39.705Z</time>
      </trkpt>
      <trkpt lat="43.4839" lon="5.25947">
        <ele>249.599999491</ele>
        <time>2010-12-18T15:10:40.712Z</time>
      </trkpt>
      <trkpt lat="43.48392" lon="5.25945">
        <ele>249.559999593</ele>
        <time>2010-12-18T15:10:41.710Z</time>
      </trkpt>
      <trkpt lat="43.48394" lon="5.25942">
        <ele>249.519999695</ele>
        <time>2010-12-18T15:10:42.707Z</time>
      </trkpt>
      <trkpt lat="43.48396" lon="5.25937">
        <ele>249.467741935</ele>
        <time>2010-12-18T15:10:44.705Z</time>
      </trkpt>
      <trkpt lat="43.48396" lon="5.25935">
        <ele>249.419999695</ele>
        <time>2010-12-18T15:10:45.716Z</time>
      </trkpt>
      <trkpt lat="43.48395" lon="5.25934">
        <ele>249.412902832</ele>
        <time>2010-12-18T15:10:46.718Z</time>
      </trkpt>
      <trkpt lat="43.48393" lon="5.25932">
        <ele>249.403225806</ele>
        <time>2010-12-18T15:10:47.704Z</time>
      </trkpt>
      <trkpt lat="43.48391" lon="5.2593">
        <ele>249.38666687</ele>
        <time>2010-12-18T15:10:48.716Z</time>
      </trkpt>
      <trkpt lat="43.48389" lon="5.25929">
        <ele>249.403225806</ele>
        <time>2010-12-18T15:10:49.703Z</time>
      </trkpt>
      <trkpt lat="43.48387" lon="5.25927">
        <ele>249.425806353</ele>
        <time>2010-12-18T15:10:50.698Z</time>
      </trkpt>
      <trkpt lat="43.48386" lon="5.25924">
        <ele>249.464516424</ele>
        <time>2010-12-18T15:10:51.702Z</time>
      </trkpt>
      <trkpt lat="43.48385" lon="5.25922">
        <ele>249.509677518</ele>
        <time>2010-12-18T15:10:52.703Z</time>
      </trkpt>
      <trkpt lat="43.48384" lon="5.25919">
        <ele>249.570967643</ele>
        <time>2010-12-18T15:10:53.704Z</time>
      </trkpt>
      <trkpt lat="43.48383" lon="5.25916">
        <ele>249.61935474</ele>
        <time>2010-12-18T15:10:54.727Z</time>
      </trkpt>
      <trkpt lat="43.48383" lon="5.25913">
        <ele>249.658064319</ele>
        <time>2010-12-18T15:10:55.703Z</time>
      </trkpt>
      <trkpt lat="43.48382" lon="5.2591">
        <ele>249.693548387</ele>
        <time>2010-12-18T15:10:56.697Z</time>
      </trkpt>
      <trkpt lat="43.4838" lon="5.25904">
        <ele>249.777419552</ele>
        <time>2010-12-18T15:10:58.705Z</time>
      </trkpt>
      <trkpt lat="43.48379" lon="5.25901">
        <ele>249.816666667</ele>
        <time>2010-12-18T15:10:59.705Z</time>
      </trkpt>
      <trkpt lat="43.48377" lon="5.25898">
        <ele>249.835483674</ele>
        <time>2010-12-18T15:11:00.699Z</time>
      </trkpt>
      <trkpt lat="43.48375" lon="5.25896">
        <ele>249.858064221</ele>
        <time>2010-12-18T15:11:01.701Z</time>
      </trkpt>
      <trkpt lat="43.48373" lon="5.25894">
        <ele>249.887096282</ele>
        <time>2010-12-18T15:11:02.704Z</time>
      </trkpt>
      <trkpt lat="43.4837" lon="5.25889">
        <ele>249.929031864</ele>
        <time>2010-12-18T15:11:04.705Z</time>
      </trkpt>
      <trkpt lat="43.48362" lon="5.2588">
        <ele>250.058064615</ele>
        <time>2010-12-18T15:11:08.698Z</time>
      </trkpt>
      <trkpt lat="43.48355" lon="5.25871">
        <ele>250.187096873</ele>
        <time>2010-12-18T15:11:12.703Z</time>
      </trkpt>
      <trkpt lat="43.48353" lon="5.25868">
        <ele>250.266666158</ele>
        <time>2010-12-18T15:11:13.701Z</time>
      </trkpt>
      <trkpt lat="43.48347" lon="5.25862">
        <ele>250.409999593</ele>
        <time>2010-12-18T15:11:17.298Z</time>
      </trkpt>
      <trkpt lat="43.4834" lon="5.25853">
        <ele>250.516666667</ele>
        <time>2010-12-18T15:11:20.704Z</time>
      </trkpt>
      <trkpt lat="43.48337" lon="5.25848">
        <ele>250.532258065</ele>
        <time>2010-12-18T15:11:22.702Z</time>
      </trkpt>
      <trkpt lat="43.48335" lon="5.25845">
        <ele>250.529032553</ele>
        <time>2010-12-18T15:11:23.704Z</time>
      </trkpt>
      <trkpt lat="43.48331" lon="5.25841">
        <ele>250.512903521</ele>
        <time>2010-12-18T15:11:25.700Z</time>
      </trkpt>
      <trkpt lat="43.48327" lon="5.25836">
        <ele>250.506451514</ele>
        <time>2010-12-18T15:11:27.699Z</time>
      </trkpt>
      <trkpt lat="43.48321" lon="5.25826">
        <ele>250.529032553</ele>
        <time>2010-12-18T15:11:31.697Z</time>
      </trkpt>
      <trkpt lat="43.48315" lon="5.25819">
        <ele>250.653333537</ele>
        <time>2010-12-18T15:11:34.708Z</time>
      </trkpt>
      <trkpt lat="43.48312" lon="5.25814">
        <ele>250.73666687</ele>
        <time>2010-12-18T15:11:36.722Z</time>
      </trkpt>
      <trkpt lat="43.48309" lon="5.25813">
        <ele>250.776666768</ele>
        <time>2010-12-18T15:11:37.740Z</time>
      </trkpt>
      <trkpt lat="43.48307" lon="5.25812">
        <ele>250.820000203</ele>
        <time>2010-12-18T15:11:38.703Z</time>
      </trkpt>
      <trkpt lat="43.48304" lon="5.2581">
        <ele>250.848387195</ele>
        <time>2010-12-18T15:11:39.699Z</time>
      </trkpt>
      <trkpt lat="43.48302" lon="5.2581">
        <ele>250.896774292</ele>
        <time>2010-12-18T15:11:40.703Z</time>
      </trkpt>
      <trkpt lat="43.48299" lon="5.2581">
        <ele>250.966666667</ele>
        <time>2010-12-18T15:11:41.704Z</time>
      </trkpt>
      <trkpt lat="43.48292" lon="5.25808">
        <ele>251.133333842</ele>
        <time>2010-12-18T15:11:44.705Z</time>
      </trkpt>
      <trkpt lat="43.48284" lon="5.25804">
        <ele>251.29666748</ele>
        <time>2010-12-18T15:11:47.745Z</time>
      </trkpt>
      <trkpt lat="43.48273" lon="5.25798">
        <ele>251.509677518</ele>
        <time>2010-12-18T15:11:51.670Z</time>
      </trkpt>
      <trkpt lat="43.48263" lon="5.25793">
        <ele>251.849999491</ele>
        <time>2010-12-18T15:11:55.762Z</time>
      </trkpt>
      <trkpt lat="43.48257" lon="5.25789">
        <ele>252.066666158</ele>
        <time>2010-12-18T15:11:57.775Z</time>
      </trkpt>
      <trkpt lat="43.48247" lon="5.25782">
        <ele>252.533332825</ele>
        <time>2010-12-18T15:12:01.716Z</time>
      </trkpt>
      <trkpt lat="43.48236" lon="5.25776">
        <ele>252.958063925</ele>
        <time>2010-12-18T15:12:05.698Z</time>
      </trkpt>
      <trkpt lat="43.48233" lon="5.25775">
        <ele>253.074193155</ele>
        <time>2010-12-18T15:12:06.698Z</time>
      </trkpt>
      <trkpt lat="43.48227" lon="5.25772">
        <ele>253.309676632</ele>
        <time>2010-12-18T15:12:08.699Z</time>
      </trkpt>
      <trkpt lat="43.48222" lon="5.2577">
        <ele>253.545160601</ele>
        <time>2010-12-18T15:12:10.700Z</time>
      </trkpt>
      <trkpt lat="43.48219" lon="5.2577">
        <ele>253.658063827</ele>
        <time>2010-12-18T15:12:11.698Z</time>
      </trkpt>
      <trkpt lat="43.48209" lon="5.25769">
        <ele>253.958063925</ele>
        <time>2010-12-18T15:12:14.689Z</time>
      </trkpt>
      <trkpt lat="43.482" lon="5.25768">
        <ele>254.222579464</ele>
        <time>2010-12-18T15:12:17.693Z</time>
      </trkpt>
      <trkpt lat="43.48197" lon="5.25769">
        <ele>254.369998678</ele>
        <time>2010-12-18T15:12:18.694Z</time>
      </trkpt>
      <trkpt lat="43.48194" lon="5.25767">
        <ele>254.453332011</ele>
        <time>2010-12-18T15:12:19.700Z</time>
      </trkpt>
      <trkpt lat="43.48192" lon="5.25765">
        <ele>254.543332418</ele>
        <time>2010-12-18T15:12:20.701Z</time>
      </trkpt>
      <trkpt lat="43.48188" lon="5.25764">
        <ele>254.619999186</ele>
        <time>2010-12-18T15:12:21.712Z</time>
      </trkpt>
      <trkpt lat="43.48182" lon="5.25761">
        <ele>254.78999939</ele>
        <time>2010-12-18T15:12:23.716Z</time>
      </trkpt>
      <trkpt lat="43.48178" lon="5.2576">
        <ele>254.859999593</ele>
        <time>2010-12-18T15:12:24.717Z</time>
      </trkpt>
      <trkpt lat="43.48175" lon="5.25761">
        <ele>254.877418764</ele>
        <time>2010-12-18T15:12:25.703Z</time>
      </trkpt>
      <trkpt lat="43.48161" lon="5.2576">
        <ele>255.03225708</ele>
        <time>2010-12-18T15:12:29.687Z</time>
      </trkpt>
      <trkpt lat="43.48154" lon="5.25759">
        <ele>255.073332214</ele>
        <time>2010-12-18T15:12:32.279Z</time>
      </trkpt>
      <trkpt lat="43.48149" lon="5.25758">
        <ele>255.054837627</ele>
        <time>2010-12-18T15:12:32.700Z</time>
      </trkpt>
      <trkpt lat="43.48138" lon="5.25756">
        <ele>255.049998983</ele>
        <time>2010-12-18T15:12:35.709Z</time>
      </trkpt>
      <trkpt lat="43.48124" lon="5.25752">
        <ele>255.05333252</ele>
        <time>2010-12-18T15:12:39.703Z</time>
      </trkpt>
      <trkpt lat="43.48117" lon="5.25749">
        <ele>255.03999939</ele>
        <time>2010-12-18T15:12:41.707Z</time>
      </trkpt>
      <trkpt lat="43.48105" lon="5.25746">
        <ele>255.016665649</ele>
        <time>2010-12-18T15:12:44.697Z</time>
      </trkpt>
      <trkpt lat="43.48102" lon="5.25744">
        <ele>255.016128048</ele>
        <time>2010-12-18T15:12:45.699Z</time>
      </trkpt>
      <trkpt lat="43.48098" lon="5.25742">
        <ele>255.029999288</ele>
        <time>2010-12-18T15:12:46.701Z</time>
      </trkpt>
      <trkpt lat="43.48091" lon="5.25737">
        <ele>255.05333252</ele>
        <time>2010-12-18T15:12:48.697Z</time>
      </trkpt>
      <trkpt lat="43.48081" lon="5.2573">
        <ele>255.10967673</ele>
        <time>2010-12-18T15:12:51.699Z</time>
      </trkpt>
      <trkpt lat="43.48078" lon="5.25727">
        <ele>255.148386801</ele>
        <time>2010-12-18T15:12:52.704Z</time>
      </trkpt>
      <trkpt lat="43.48075" lon="5.25725">
        <ele>255.153333028</ele>
        <time>2010-12-18T15:12:54.299Z</time>
      </trkpt>
      <trkpt lat="43.48067" lon="5.25715">
        <ele>255.196666972</ele>
        <time>2010-12-18T15:12:56.720Z</time>
      </trkpt>
      <trkpt lat="43.48061" lon="5.2571">
        <ele>255.21000061</ele>
        <time>2010-12-18T15:12:59.102Z</time>
      </trkpt>
      <trkpt lat="43.48058" lon="5.25706">
        <ele>255.200000394</ele>
        <time>2010-12-18T15:12:59.650Z</time>
      </trkpt>
      <trkpt lat="43.4805" lon="5.25696">
        <ele>255.200000394</ele>
        <time>2010-12-18T15:13:02.692Z</time>
      </trkpt>
      <trkpt lat="43.48041" lon="5.25686">
        <ele>255.206667582</ele>
        <time>2010-12-18T15:13:05.718Z</time>
      </trkpt>
      <trkpt lat="43.48038" lon="5.25684">
        <ele>255.200000886</ele>
        <time>2010-12-18T15:13:06.714Z</time>
      </trkpt>
      <trkpt lat="43.48028" lon="5.25676">
        <ele>255.153334045</ele>
        <time>2010-12-18T15:13:10.265Z</time>
      </trkpt>
      <trkpt lat="43.48019" lon="5.25668">
        <ele>255.070000203</ele>
        <time>2010-12-18T15:13:12.704Z</time>
      </trkpt>
      <trkpt lat="43.48016" lon="5.25664">
        <ele>255.033333842</ele>
        <time>2010-12-18T15:13:13.712Z</time>
      </trkpt>
      <trkpt lat="43.4801" lon="5.25658">
        <ele>254.966667175</ele>
        <time>2010-12-18T15:13:15.704Z</time>
      </trkpt>
      <trkpt lat="43.48007" lon="5.25656">
        <ele>254.938710367</ele>
        <time>2010-12-18T15:13:16.701Z</time>
      </trkpt>
      <trkpt lat="43.48002" lon="5.25651">
        <ele>254.873334249</ele>
        <time>2010-12-18T15:13:18.698Z</time>
      </trkpt>
      <trkpt lat="43.47997" lon="5.25646">
        <ele>254.867742723</ele>
        <time>2010-12-18T15:13:20.699Z</time>
      </trkpt>
      <trkpt lat="43.47991" lon="5.25641">
        <ele>254.790000407</ele>
        <time>2010-12-18T15:13:22.711Z</time>
      </trkpt>
      <trkpt lat="43.47984" lon="5.25637">
        <ele>254.777420044</ele>
        <time>2010-12-18T15:13:24.718Z</time>
      </trkpt>
      <trkpt lat="43.47982" lon="5.25635">
        <ele>254.700000509</ele>
        <time>2010-12-18T15:13:26.291Z</time>
      </trkpt>
      <trkpt lat="43.47978" lon="5.25632">
        <ele>254.683333842</ele>
        <time>2010-12-18T15:13:27.287Z</time>
      </trkpt>
      <trkpt lat="43.47973" lon="5.25627">
        <ele>254.683871362</ele>
        <time>2010-12-18T15:13:28.706Z</time>
      </trkpt>
      <trkpt lat="43.47965" lon="5.25618">
        <ele>254.71000061</ele>
        <time>2010-12-18T15:13:31.716Z</time>
      </trkpt>
      <trkpt lat="43.47962" lon="5.25616">
        <ele>254.72333374</ele>
        <time>2010-12-18T15:13:32.702Z</time>
      </trkpt>
      <trkpt lat="43.47959" lon="5.25614">
        <ele>254.743333435</ele>
        <time>2010-12-18T15:13:33.706Z</time>
      </trkpt>
      <trkpt lat="43.47948" lon="5.25608">
        <ele>254.730000305</ele>
        <time>2010-12-18T15:13:37.303Z</time>
      </trkpt>
      <trkpt lat="43.47945" lon="5.25605">
        <ele>254.72258094</ele>
        <time>2010-12-18T15:13:37.702Z</time>
      </trkpt>
      <trkpt lat="43.47943" lon="5.25603">
        <ele>254.716129426</ele>
        <time>2010-12-18T15:13:38.698Z</time>
      </trkpt>
      <trkpt lat="43.47934" lon="5.25594">
        <ele>254.770000203</ele>
        <time>2010-12-18T15:13:42.294Z</time>
      </trkpt>
      <trkpt lat="43.47923" lon="5.25582">
        <ele>254.940000407</ele>
        <time>2010-12-18T15:13:45.708Z</time>
      </trkpt>
      <trkpt lat="43.47914" lon="5.25573">
        <ele>255.141935287</ele>
        <time>2010-12-18T15:13:49.700Z</time>
      </trkpt>
      <trkpt lat="43.47909" lon="5.25566">
        <ele>255.306666056</ele>
        <time>2010-12-18T15:13:53.298Z</time>
      </trkpt>
      <trkpt lat="43.47901" lon="5.25558">
        <ele>255.554837627</ele>
        <time>2010-12-18T15:13:56.703Z</time>
      </trkpt>
      <trkpt lat="43.47896" lon="5.25553">
        <ele>255.746665955</ele>
        <time>2010-12-18T15:13:59.312Z</time>
      </trkpt>
      <trkpt lat="43.47891" lon="5.25548">
        <ele>255.858063729</ele>
        <time>2010-12-18T15:14:00.698Z</time>
      </trkpt>
      <trkpt lat="43.47884" lon="5.2554">
        <ele>256.041935582</ele>
        <time>2010-12-18T15:14:03.700Z</time>
      </trkpt>
      <trkpt lat="43.47874" lon="5.25529">
        <ele>256.300000591</ele>
        <time>2010-12-18T15:14:07.701Z</time>
      </trkpt>
      <trkpt lat="43.4787" lon="5.25523">
        <ele>256.466667175</ele>
        <time>2010-12-18T15:14:09.714Z</time>
      </trkpt>
      <trkpt lat="43.47868" lon="5.2552">
        <ele>256.458065402</ele>
        <time>2010-12-18T15:14:10.702Z</time>
      </trkpt>
      <trkpt lat="43.47865" lon="5.25518">
        <ele>256.500000492</ele>
        <time>2010-12-18T15:14:11.704Z</time>
      </trkpt>
      <trkpt lat="43.47858" lon="5.25509">
        <ele>256.706667582</ele>
        <time>2010-12-18T15:14:15.294Z</time>
      </trkpt>
      <trkpt lat="43.47847" lon="5.25498">
        <ele>256.823334757</ele>
        <time>2010-12-18T15:14:18.708Z</time>
      </trkpt>
      <trkpt lat="43.47837" lon="5.25486">
        <ele>256.825809602</ele>
        <time>2010-12-18T15:14:22.715Z</time>
      </trkpt>
      <trkpt lat="43.47829" lon="5.25474">
        <ele>256.783337402</ele>
        <time>2010-12-18T15:14:26.716Z</time>
      </trkpt>
      <trkpt lat="43.47821" lon="5.25463">
        <ele>256.760003662</ele>
        <time>2010-12-18T15:14:31.254Z</time>
      </trkpt>
      <trkpt lat="43.47818" lon="5.25457">
        <ele>256.790325534</ele>
        <time>2010-12-18T15:14:32.699Z</time>
      </trkpt>
      <trkpt lat="43.47814" lon="5.25451">
        <ele>256.813336182</ele>
        <time>2010-12-18T15:14:34.722Z</time>
      </trkpt>
      <trkpt lat="43.47812" lon="5.25448">
        <ele>256.856669108</ele>
        <time>2010-12-18T15:14:35.727Z</time>
      </trkpt>
      <trkpt lat="43.47809" lon="5.25441">
        <ele>256.920002238</ele>
        <time>2010-12-18T15:14:37.711Z</time>
      </trkpt>
      <trkpt lat="43.47804" lon="5.2543">
        <ele>257.080002848</ele>
        <time>2010-12-18T15:14:41.277Z</time>
      </trkpt>
      <trkpt lat="43.47803" lon="5.25423">
        <ele>257.174197289</ele>
        <time>2010-12-18T15:14:42.696Z</time>
      </trkpt>
      <trkpt lat="43.47801" lon="5.25417">
        <ele>257.293552522</ele>
        <time>2010-12-18T15:14:44.703Z</time>
      </trkpt>
      <trkpt lat="43.47799" lon="5.2541">
        <ele>257.440004476</ele>
        <time>2010-12-18T15:14:47.294Z</time>
      </trkpt>
      <trkpt lat="43.47797" lon="5.254">
        <ele>257.654842254</ele>
        <time>2010-12-18T15:14:49.726Z</time>
      </trkpt>
      <trkpt lat="43.47796" lon="5.25397">
        <ele>257.796669515</ele>
        <time>2010-12-18T15:14:50.698Z</time>
      </trkpt>
      <trkpt lat="43.47795" lon="5.25393">
        <ele>257.910002645</ele>
        <time>2010-12-18T15:14:51.705Z</time>
      </trkpt>
      <trkpt lat="43.47792" lon="5.25389">
        <ele>258.093551144</ele>
        <time>2010-12-18T15:14:53.697Z</time>
      </trkpt>
      <trkpt lat="43.4779" lon="5.25388">
        <ele>258.206454369</ele>
        <time>2010-12-18T15:14:54.722Z</time>
      </trkpt>
      <trkpt lat="43.47789" lon="5.25386">
        <ele>258.312905588</ele>
        <time>2010-12-18T15:14:55.704Z</time>
      </trkpt>
      <trkpt lat="43.47787" lon="5.25384">
        <ele>258.409679782</ele>
        <time>2010-12-18T15:14:56.699Z</time>
      </trkpt>
      <trkpt lat="43.47785" lon="5.25381">
        <ele>258.543335978</ele>
        <time>2010-12-18T15:14:57.736Z</time>
      </trkpt>
      <trkpt lat="43.47782" lon="5.25378">
        <ele>258.620002238</ele>
        <time>2010-12-18T15:14:58.736Z</time>
      </trkpt>
      <trkpt lat="43.4778" lon="5.25372">
        <ele>258.673335775</ele>
        <time>2010-12-18T15:14:59.732Z</time>
      </trkpt>
      <trkpt lat="43.47778" lon="5.25366">
        <ele>258.664518295</ele>
        <time>2010-12-18T15:15:00.714Z</time>
      </trkpt>
      <trkpt lat="43.47772" lon="5.25352">
        <ele>258.800002035</ele>
        <time>2010-12-18T15:15:03.713Z</time>
      </trkpt>
      <trkpt lat="43.47768" lon="5.25342">
        <ele>258.906668091</ele>
        <time>2010-12-18T15:15:06.712Z</time>
      </trkpt>
      <trkpt lat="43.47766" lon="5.25339">
        <ele>258.950001017</ele>
        <time>2010-12-18T15:15:07.727Z</time>
      </trkpt>
      <trkpt lat="43.47764" lon="5.25337">
        <ele>258.948387884</ele>
        <time>2010-12-18T15:15:08.703Z</time>
      </trkpt>
      <trkpt lat="43.47761" lon="5.25332">
        <ele>259.032259049</ele>
        <time>2010-12-18T15:15:10.705Z</time>
      </trkpt>
      <trkpt lat="43.47755" lon="5.25324">
        <ele>259.17666626</ele>
        <time>2010-12-18T15:15:14.299Z</time>
      </trkpt>
      <trkpt lat="43.47747" lon="5.25313">
        <ele>259.222580448</ele>
        <time>2010-12-18T15:15:17.711Z</time>
      </trkpt>
      <trkpt lat="43.47746" lon="5.25311">
        <ele>259.243332926</ele>
        <time>2010-12-18T15:15:19.295Z</time>
      </trkpt>
      <trkpt lat="43.47743" lon="5.25309">
        <ele>259.25</ele>
        <time>2010-12-18T15:15:20.296Z</time>
      </trkpt>
      <trkpt lat="43.47741" lon="5.25307">
        <ele>259.253333537</ele>
        <time>2010-12-18T15:15:20.723Z</time>
      </trkpt>
      <trkpt lat="43.47735" lon="5.25302">
        <ele>259.256666056</ele>
        <time>2010-12-18T15:15:23.705Z</time>
      </trkpt>
      <trkpt lat="43.47733" lon="5.25301">
        <ele>259.296773603</ele>
        <time>2010-12-18T15:15:24.721Z</time>
      </trkpt>
      <trkpt lat="43.47728" lon="5.25298">
        <ele>259.32666626</ele>
        <time>2010-12-18T15:15:26.703Z</time>
      </trkpt>
      <trkpt lat="43.47724" lon="5.25295">
        <ele>259.416127851</ele>
        <time>2010-12-18T15:15:28.706Z</time>
      </trkpt>
      <trkpt lat="43.47719" lon="5.2529">
        <ele>259.563332113</ele>
        <time>2010-12-18T15:15:30.721Z</time>
      </trkpt>
      <trkpt lat="43.47717" lon="5.25287">
        <ele>259.646665446</ele>
        <time>2010-12-18T15:15:31.706Z</time>
      </trkpt>
      <trkpt lat="43.47716" lon="5.25284">
        <ele>259.680644374</ele>
        <time>2010-12-18T15:15:32.710Z</time>
      </trkpt>
      <trkpt lat="43.47714" lon="5.2528">
        <ele>259.758063532</ele>
        <time>2010-12-18T15:15:33.692Z</time>
      </trkpt>
      <trkpt lat="43.47711" lon="5.25274">
        <ele>259.933332316</ele>
        <time>2010-12-18T15:15:35.705Z</time>
      </trkpt>
      <trkpt lat="43.47707" lon="5.25267">
        <ele>260.022580054</ele>
        <time>2010-12-18T15:15:37.719Z</time>
      </trkpt>
      <trkpt lat="43.47703" lon="5.25262">
        <ele>260.193332926</ele>
        <time>2010-12-18T15:15:39.714Z</time>
      </trkpt>
      <trkpt lat="43.47698" lon="5.25256">
        <ele>260.296665446</ele>
        <time>2010-12-18T15:15:41.704Z</time>
      </trkpt>
      <trkpt lat="43.47692" lon="5.25252">
        <ele>260.351612706</ele>
        <time>2010-12-18T15:15:43.696Z</time>
      </trkpt>
      <trkpt lat="43.47684" lon="5.25244">
        <ele>260.5</ele>
        <time>2010-12-18T15:15:46.703Z</time>
      </trkpt>
      <trkpt lat="43.47682" lon="5.25241">
        <ele>260.54193509</ele>
        <time>2010-12-18T15:15:47.703Z</time>
      </trkpt>
      <trkpt lat="43.47679" lon="5.25239">
        <ele>260.580644177</ele>
        <time>2010-12-18T15:15:48.699Z</time>
      </trkpt>
      <trkpt lat="43.47677" lon="5.25237">
        <ele>260.62580527</ele>
        <time>2010-12-18T15:15:49.717Z</time>
      </trkpt>
      <trkpt lat="43.47667" lon="5.25228">
        <ele>260.749996948</ele>
        <time>2010-12-18T15:15:53.711Z</time>
      </trkpt>
      <trkpt lat="43.47663" lon="5.25222">
        <ele>260.773329671</ele>
        <time>2010-12-18T15:15:55.705Z</time>
      </trkpt>
      <trkpt lat="43.47662" lon="5.25219">
        <ele>260.774189611</ele>
        <time>2010-12-18T15:15:56.696Z</time>
      </trkpt>
      <trkpt lat="43.47657" lon="5.25211">
        <ele>260.825803695</ele>
        <time>2010-12-18T15:15:59.714Z</time>
      </trkpt>
      <trkpt lat="43.47649" lon="5.25201">
        <ele>261.033331299</ele>
        <time>2010-12-18T15:16:03.716Z</time>
      </trkpt>
      <trkpt lat="43.47646" lon="5.25199">
        <ele>261.077417189</ele>
        <time>2010-12-18T15:16:04.699Z</time>
      </trkpt>
      <trkpt lat="43.47641" lon="5.25194">
        <ele>261.187094412</ele>
        <time>2010-12-18T15:16:06.698Z</time>
      </trkpt>
      <trkpt lat="43.47633" lon="5.25187">
        <ele>261.390320809</ele>
        <time>2010-12-18T15:16:09.707Z</time>
      </trkpt>
      <trkpt lat="43.47626" lon="5.2518">
        <ele>261.623331706</ele>
        <time>2010-12-18T15:16:12.704Z</time>
      </trkpt>
      <trkpt lat="43.47616" lon="5.25171">
        <ele>261.903223838</ele>
        <time>2010-12-18T15:16:16.699Z</time>
      </trkpt>
      <trkpt lat="43.47611" lon="5.25167">
        <ele>262.123331706</ele>
        <time>2010-12-18T15:16:19.292Z</time>
      </trkpt>
      <trkpt lat="43.47608" lon="5.25165">
        <ele>262.154837331</ele>
        <time>2010-12-18T15:16:19.700Z</time>
      </trkpt>
      <trkpt lat="43.47603" lon="5.25161">
        <ele>262.383332316</ele>
        <time>2010-12-18T15:16:21.714Z</time>
      </trkpt>
      <trkpt lat="43.476" lon="5.25159">
        <ele>262.483332316</ele>
        <time>2010-12-18T15:16:22.704Z</time>
      </trkpt>
      <trkpt lat="43.47594" lon="5.2515">
        <ele>262.816665649</ele>
        <time>2010-12-18T15:16:25.716Z</time>
      </trkpt>
      <trkpt lat="43.47585" lon="5.25138">
        <ele>263.219355429</ele>
        <time>2010-12-18T15:16:29.702Z</time>
      </trkpt>
      <trkpt lat="43.47577" lon="5.25128">
        <ele>263.490000407</ele>
        <time>2010-12-18T15:16:32.705Z</time>
      </trkpt>
      <trkpt lat="43.47572" lon="5.25119">
        <ele>263.620000203</ele>
        <time>2010-12-18T15:16:35.295Z</time>
      </trkpt>
      <trkpt lat="43.47562" lon="5.25101">
        <ele>263.72333374</ele>
        <time>2010-12-18T15:16:39.302Z</time>
      </trkpt>
      <trkpt lat="43.47559" lon="5.25098">
        <ele>263.729999797</ele>
        <time>2010-12-18T15:16:40.297Z</time>
      </trkpt>
      <trkpt lat="43.47557" lon="5.25095">
        <ele>263.756666056</ele>
        <time>2010-12-18T15:16:41.298Z</time>
      </trkpt>
      <trkpt lat="43.47547" lon="5.25084">
        <ele>263.838709677</ele>
        <time>2010-12-18T15:16:44.716Z</time>
      </trkpt>
      <trkpt lat="43.47545" lon="5.25079">
        <ele>263.841934696</ele>
        <time>2010-12-18T15:16:45.701Z</time>
      </trkpt>
      <trkpt lat="43.47542" lon="5.25074">
        <ele>263.863332113</ele>
        <time>2010-12-18T15:16:46.711Z</time>
      </trkpt>
      <trkpt lat="43.4753" lon="5.25051">
        <ele>263.713332113</ele>
        <time>2010-12-18T15:16:51.297Z</time>
      </trkpt>
      <trkpt lat="43.47525" lon="5.25039">
        <ele>263.579999797</ele>
        <time>2010-12-18T15:16:52.719Z</time>
      </trkpt>
      <trkpt lat="43.47521" lon="5.25032">
        <ele>263.538709087</ele>
        <time>2010-12-18T15:16:54.714Z</time>
      </trkpt>
      <trkpt lat="43.47519" lon="5.25029">
        <ele>263.525806058</ele>
        <time>2010-12-18T15:16:55.715Z</time>
      </trkpt>
      <trkpt lat="43.47515" lon="5.25022">
        <ele>263.449998983</ele>
        <time>2010-12-18T15:16:58.302Z</time>
      </trkpt>
      <trkpt lat="43.47508" lon="5.25012">
        <ele>263.396772815</ele>
        <time>2010-12-18T15:17:00.695Z</time>
      </trkpt>
      <trkpt lat="43.47503" lon="5.2501">
        <ele>263.343331909</ele>
        <time>2010-12-18T15:17:01.800Z</time>
      </trkpt>
      <trkpt lat="43.47501" lon="5.25007">
        <ele>263.329998779</ele>
        <time>2010-12-18T15:17:02.772Z</time>
      </trkpt>
      <trkpt lat="43.47498" lon="5.25004">
        <ele>263.319999186</ele>
        <time>2010-12-18T15:17:03.716Z</time>
      </trkpt>
      <trkpt lat="43.47495" lon="5.25001">
        <ele>263.358063729</ele>
        <time>2010-12-18T15:17:04.715Z</time>
      </trkpt>
      <trkpt lat="43.47487" lon="5.24992">
        <ele>263.461289929</ele>
        <time>2010-12-18T15:17:07.718Z</time>
      </trkpt>
      <trkpt lat="43.47483" lon="5.2499">
        <ele>263.516128048</ele>
        <time>2010-12-18T15:17:08.701Z</time>
      </trkpt>
      <trkpt lat="43.4748" lon="5.24989">
        <ele>263.574193155</ele>
        <time>2010-12-18T15:17:09.697Z</time>
      </trkpt>
      <trkpt lat="43.4747" lon="5.24984">
        <ele>263.720000203</ele>
        <time>2010-12-18T15:17:13.279Z</time>
      </trkpt>
      <trkpt lat="43.47467" lon="5.24981">
        <ele>263.759999593</ele>
        <time>2010-12-18T15:17:14.282Z</time>
      </trkpt>
      <trkpt lat="43.47465" lon="5.24979">
        <ele>263.7935476</ele>
        <time>2010-12-18T15:17:14.694Z</time>
      </trkpt>
      <trkpt lat="43.4746" lon="5.24971">
        <ele>263.835483674</ele>
        <time>2010-12-18T15:17:16.704Z</time>
      </trkpt>
      <trkpt lat="43.47457" lon="5.24968">
        <ele>263.861290716</ele>
        <time>2010-12-18T15:17:17.699Z</time>
      </trkpt>
      <trkpt lat="43.47455" lon="5.24965">
        <ele>263.890322778</ele>
        <time>2010-12-18T15:17:18.695Z</time>
      </trkpt>
      <trkpt lat="43.47449" lon="5.24956">
        <ele>263.948387884</ele>
        <time>2010-12-18T15:17:20.706Z</time>
      </trkpt>
      <trkpt lat="43.47441" lon="5.24943">
        <ele>263.996774981</ele>
        <time>2010-12-18T15:17:23.699Z</time>
      </trkpt>
      <trkpt lat="43.47438" lon="5.2494">
        <ele>264.003334554</ele>
        <time>2010-12-18T15:17:24.732Z</time>
      </trkpt>
      <trkpt lat="43.47436" lon="5.24937">
        <ele>263.970001221</ele>
        <time>2010-12-18T15:17:25.720Z</time>
      </trkpt>
      <trkpt lat="43.47434" lon="5.24933">
        <ele>263.92580783</ele>
        <time>2010-12-18T15:17:26.700Z</time>
      </trkpt>
      <trkpt lat="43.47431" lon="5.2493">
        <ele>263.903227775</ele>
        <time>2010-12-18T15:17:27.717Z</time>
      </trkpt>
      <trkpt lat="43.47426" lon="5.24924">
        <ele>263.873334757</ele>
        <time>2010-12-18T15:17:29.699Z</time>
      </trkpt>
      <trkpt lat="43.47424" lon="5.24921">
        <ele>263.883334351</ele>
        <time>2010-12-18T15:17:30.718Z</time>
      </trkpt>
      <trkpt lat="43.47418" lon="5.24916">
        <ele>263.906452794</ele>
        <time>2010-12-18T15:17:32.717Z</time>
      </trkpt>
      <trkpt lat="43.47416" lon="5.24913">
        <ele>263.922581826</ele>
        <time>2010-12-18T15:17:33.698Z</time>
      </trkpt>
      <trkpt lat="43.47408" lon="5.24904">
        <ele>263.956667074</ele>
        <time>2010-12-18T15:17:37.295Z</time>
      </trkpt>
      <trkpt lat="43.47404" lon="5.24899">
        <ele>264.048387097</ele>
        <time>2010-12-18T15:17:38.699Z</time>
      </trkpt>
      <trkpt lat="43.47401" lon="5.24894">
        <ele>264.053334554</ele>
        <time>2010-12-18T15:17:40.703Z</time>
      </trkpt>
      <trkpt lat="43.47398" lon="5.2489">
        <ele>264.141937256</ele>
        <time>2010-12-18T15:17:42.715Z</time>
      </trkpt>
      <trkpt lat="43.47394" lon="5.24884">
        <ele>264.166668701</ele>
        <time>2010-12-18T15:17:44.703Z</time>
      </trkpt>
      <trkpt lat="43.47392" lon="5.24883">
        <ele>264.200002035</ele>
        <time>2010-12-18T15:17:46.299Z</time>
      </trkpt>
      <trkpt lat="43.4739" lon="5.24881">
        <ele>264.266668701</ele>
        <time>2010-12-18T15:17:47.303Z</time>
      </trkpt>
      <trkpt lat="43.47387" lon="5.24879">
        <ele>264.323334757</ele>
        <time>2010-12-18T15:17:47.716Z</time>
      </trkpt>
      <trkpt lat="43.47382" lon="5.24874">
        <ele>264.420001221</ele>
        <time>2010-12-18T15:17:49.703Z</time>
      </trkpt>
      <trkpt lat="43.47374" lon="5.24867">
        <ele>264.600000197</ele>
        <time>2010-12-18T15:17:52.716Z</time>
      </trkpt>
      <trkpt lat="43.47368" lon="5.24863">
        <ele>264.758064516</ele>
        <time>2010-12-18T15:17:54.715Z</time>
      </trkpt>
      <trkpt lat="43.47364" lon="5.24862">
        <ele>264.87666626</ele>
        <time>2010-12-18T15:17:56.297Z</time>
      </trkpt>
      <trkpt lat="43.47357" lon="5.24857">
        <ele>264.906450825</ele>
        <time>2010-12-18T15:17:57.704Z</time>
      </trkpt>
      <trkpt lat="43.47354" lon="5.24855">
        <ele>264.92903088</ele>
        <time>2010-12-18T15:17:58.704Z</time>
      </trkpt>
      <trkpt lat="43.47346" lon="5.24847">
        <ele>265.006666056</ele>
        <time>2010-12-18T15:18:01.716Z</time>
      </trkpt>
      <trkpt lat="43.4734" lon="5.24843">
        <ele>264.973332723</ele>
        <time>2010-12-18T15:18:03.706Z</time>
      </trkpt>
      <trkpt lat="43.47328" lon="5.24833">
        <ele>264.799998622</ele>
        <time>2010-12-18T15:18:07.694Z</time>
      </trkpt>
      <trkpt lat="43.47324" lon="5.24832">
        <ele>264.696665446</ele>
        <time>2010-12-18T15:18:08.801Z</time>
      </trkpt>
      <trkpt lat="43.47321" lon="5.2483">
        <ele>264.619998169</ele>
        <time>2010-12-18T15:18:09.777Z</time>
      </trkpt>
      <trkpt lat="43.47318" lon="5.24828">
        <ele>264.583869196</ele>
        <time>2010-12-18T15:18:10.698Z</time>
      </trkpt>
      <trkpt lat="43.47315" lon="5.24825">
        <ele>264.51290106</ele>
        <time>2010-12-18T15:18:11.699Z</time>
      </trkpt>
      <trkpt lat="43.47305" lon="5.24818">
        <ele>264.196665446</ele>
        <time>2010-12-18T15:18:14.706Z</time>
      </trkpt>
      <trkpt lat="43.47298" lon="5.24816">
        <ele>264.087095199</ele>
        <time>2010-12-18T15:18:16.818Z</time>
      </trkpt>
      <trkpt lat="43.47295" lon="5.24816">
        <ele>263.956665039</ele>
        <time>2010-12-18T15:18:18.274Z</time>
      </trkpt>
      <trkpt lat="43.47283" lon="5.24817">
        <ele>263.726665243</ele>
        <time>2010-12-18T15:18:20.704Z</time>
      </trkpt>
      <trkpt lat="43.47266" lon="5.24819">
        <ele>263.266665649</ele>
        <time>2010-12-18T15:18:24.717Z</time>
      </trkpt>
      <trkpt lat="43.47255" lon="5.2482">
        <ele>262.939998372</ele>
        <time>2010-12-18T15:18:28.258Z</time>
      </trkpt>
      <trkpt lat="43.47249" lon="5.24822">
        <ele>262.776665243</ele>
        <time>2010-12-18T15:18:29.716Z</time>
      </trkpt>
      <trkpt lat="43.47241" lon="5.24823">
        <ele>262.683869393</ele>
        <time>2010-12-18T15:18:31.699Z</time>
      </trkpt>
      <trkpt lat="43.47238" lon="5.24824">
        <ele>262.62580527</ele>
        <time>2010-12-18T15:18:32.704Z</time>
      </trkpt>
      <trkpt lat="43.47225" lon="5.24829">
        <ele>262.299998983</ele>
        <time>2010-12-18T15:18:36.698Z</time>
      </trkpt>
      <trkpt lat="43.47213" lon="5.24833">
        <ele>262.064516129</ele>
        <time>2010-12-18T15:18:40.691Z</time>
      </trkpt>
      <trkpt lat="43.47209" lon="5.24829">
        <ele>261.909999593</ele>
        <time>2010-12-18T15:18:41.750Z</time>
      </trkpt>
      <trkpt lat="43.47207" lon="5.24828">
        <ele>261.82666626</ele>
        <time>2010-12-18T15:18:42.739Z</time>
      </trkpt>
      <trkpt lat="43.47204" lon="5.24827">
        <ele>261.7935476</ele>
        <time>2010-12-18T15:18:43.700Z</time>
      </trkpt>
      <trkpt lat="43.472" lon="5.24826">
        <ele>261.716127457</ele>
        <time>2010-12-18T15:18:44.698Z</time>
      </trkpt>
      <trkpt lat="43.4719" lon="5.24824">
        <ele>261.474191973</ele>
        <time>2010-12-18T15:18:47.793Z</time>
      </trkpt>
      <trkpt lat="43.47183" lon="5.24823">
        <ele>261.266665649</ele>
        <time>2010-12-18T15:18:50.289Z</time>
      </trkpt>
      <trkpt lat="43.4718" lon="5.24824">
        <ele>261.213332113</ele>
        <time>2010-12-18T15:18:51.290Z</time>
      </trkpt>
      <trkpt lat="43.47168" lon="5.24828">
        <ele>261.099998983</ele>
        <time>2010-12-18T15:18:53.704Z</time>
      </trkpt>
      <trkpt lat="43.4716" lon="5.24832">
        <ele>261.019999186</ele>
        <time>2010-12-18T15:18:55.817Z</time>
      </trkpt>
      <trkpt lat="43.47155" lon="5.24834">
        <ele>260.98999939</ele>
        <time>2010-12-18T15:18:56.758Z</time>
      </trkpt>
      <trkpt lat="43.4715" lon="5.24836">
        <ele>260.954837922</ele>
        <time>2010-12-18T15:18:57.702Z</time>
      </trkpt>
      <trkpt lat="43.47146" lon="5.24837">
        <ele>260.903225806</ele>
        <time>2010-12-18T15:18:58.705Z</time>
      </trkpt>
      <trkpt lat="43.47136" lon="5.24839">
        <ele>260.774193548</ele>
        <time>2010-12-18T15:19:00.696Z</time>
      </trkpt>
      <trkpt lat="43.47121" lon="5.24841">
        <ele>260.45333252</ele>
        <time>2010-12-18T15:19:03.715Z</time>
      </trkpt>
      <trkpt lat="43.47116" lon="5.2484">
        <ele>260.346666463</ele>
        <time>2010-12-18T15:19:04.699Z</time>
      </trkpt>
      <trkpt lat="43.47111" lon="5.24839">
        <ele>260.233333333</ele>
        <time>2010-12-18T15:19:05.699Z</time>
      </trkpt>
      <trkpt lat="43.47106" lon="5.24836">
        <ele>260.164516326</ele>
        <time>2010-12-18T15:19:06.697Z</time>
      </trkpt>
      <trkpt lat="43.47101" lon="5.24832">
        <ele>259.983332316</ele>
        <time>2010-12-18T15:19:07.703Z</time>
      </trkpt>
      <trkpt lat="43.47096" lon="5.24829">
        <ele>259.849998983</ele>
        <time>2010-12-18T15:19:08.700Z</time>
      </trkpt>
      <trkpt lat="43.47091" lon="5.24827">
        <ele>259.723332723</ele>
        <time>2010-12-18T15:19:09.698Z</time>
      </trkpt>
      <trkpt lat="43.47086" lon="5.24825">
        <ele>259.593332926</ele>
        <time>2010-12-18T15:19:10.704Z</time>
      </trkpt>
      <trkpt lat="43.47081" lon="5.24823">
        <ele>259.5</ele>
        <time>2010-12-18T15:19:11.701Z</time>
      </trkpt>
      <trkpt lat="43.47076" lon="5.2482">
        <ele>259.383871755</ele>
        <time>2010-12-18T15:19:12.704Z</time>
      </trkpt>
      <trkpt lat="43.47072" lon="5.24816">
        <ele>259.200001017</ele>
        <time>2010-12-18T15:19:13.705Z</time>
      </trkpt>
      <trkpt lat="43.47069" lon="5.24811">
        <ele>259.043334961</ele>
        <time>2010-12-18T15:19:14.704Z</time>
      </trkpt>
      <trkpt lat="43.47056" lon="5.24792">
        <ele>258.448388377</ele>
        <time>2010-12-18T15:19:18.729Z</time>
      </trkpt>
      <trkpt lat="43.47046" lon="5.24778">
        <ele>257.863334656</ele>
        <time>2010-12-18T15:19:22.294Z</time>
      </trkpt>
      <trkpt lat="43.47035" lon="5.24759">
        <ele>257.248387983</ele>
        <time>2010-12-18T15:19:25.739Z</time>
      </trkpt>
      <trkpt lat="43.47033" lon="5.24754">
        <ele>257.074194139</ele>
        <time>2010-12-18T15:19:26.724Z</time>
      </trkpt>
      <trkpt lat="43.47028" lon="5.24744">
        <ele>256.590000916</ele>
        <time>2010-12-18T15:19:28.770Z</time>
      </trkpt>
      <trkpt lat="43.47025" lon="5.2474">
        <ele>256.406667582</ele>
        <time>2010-12-18T15:19:29.766Z</time>
      </trkpt>
      <trkpt lat="43.47022" lon="5.24737">
        <ele>256.236667379</ele>
        <time>2010-12-18T15:19:30.769Z</time>
      </trkpt>
      <trkpt lat="43.47016" lon="5.24737">
        <ele>256.066667684</ele>
        <time>2010-12-18T15:19:31.756Z</time>
      </trkpt>
      <trkpt lat="43.47012" lon="5.24735">
        <ele>256.009678502</ele>
        <time>2010-12-18T15:19:32.661Z</time>
      </trkpt>
      <trkpt lat="43.47009" lon="5.24735">
        <ele>255.858065697</ele>
        <time>2010-12-18T15:19:33.679Z</time>
      </trkpt>
      <trkpt lat="43.47006" lon="5.24734">
        <ele>255.745162472</ele>
        <time>2010-12-18T15:19:34.673Z</time>
      </trkpt>
      <trkpt lat="43.47002" lon="5.24742">
        <ele>255.651613789</ele>
        <time>2010-12-18T15:19:35.673Z</time>
      </trkpt>
      <trkpt lat="43.46999" lon="5.24746">
        <ele>255.590323664</ele>
        <time>2010-12-18T15:19:36.659Z</time>
      </trkpt>
      <trkpt lat="43.46997" lon="5.24752">
        <ele>255.558065599</ele>
        <time>2010-12-18T15:19:37.703Z</time>
      </trkpt>
      <trkpt lat="43.46994" lon="5.24756">
        <ele>255.538711548</ele>
        <time>2010-12-18T15:19:38.700Z</time>
      </trkpt>
      <trkpt lat="43.46992" lon="5.24761">
        <ele>255.453335063</ele>
        <time>2010-12-18T15:19:39.703Z</time>
      </trkpt>
      <trkpt lat="43.46986" lon="5.24769">
        <ele>255.453334045</ele>
        <time>2010-12-18T15:19:41.710Z</time>
      </trkpt>
      <trkpt lat="43.46983" lon="5.24774">
        <ele>255.49354947</ele>
        <time>2010-12-18T15:19:42.699Z</time>
      </trkpt>
      <trkpt lat="43.46981" lon="5.2478">
        <ele>255.450000509</ele>
        <time>2010-12-18T15:19:43.706Z</time>
      </trkpt>
      <trkpt lat="43.46976" lon="5.24792">
        <ele>255.430000305</ele>
        <time>2010-12-18T15:19:45.706Z</time>
      </trkpt>
      <trkpt lat="43.46971" lon="5.24805">
        <ele>255.389999898</ele>
        <time>2010-12-18T15:19:47.699Z</time>
      </trkpt>
      <trkpt lat="43.46965" lon="5.24824">
        <ele>255.306451613</ele>
        <time>2010-12-18T15:19:50.699Z</time>
      </trkpt>
      <trkpt lat="43.46962" lon="5.2483">
        <ele>255.274193548</ele>
        <time>2010-12-18T15:19:51.697Z</time>
      </trkpt>
      <trkpt lat="43.46957" lon="5.24834">
        <ele>255.245161487</ele>
        <time>2010-12-18T15:19:52.711Z</time>
      </trkpt>
      <trkpt lat="43.46949" lon="5.24842">
        <ele>255.187097365</ele>
        <time>2010-12-18T15:19:54.707Z</time>
      </trkpt>
      <trkpt lat="43.46937" lon="5.24856">
        <ele>255.138710268</ele>
        <time>2010-12-18T15:19:57.699Z</time>
      </trkpt>
      <trkpt lat="43.46935" lon="5.24862">
        <ele>255.132258261</ele>
        <time>2010-12-18T15:19:58.698Z</time>
      </trkpt>
      <trkpt lat="43.46933" lon="5.24869">
        <ele>255.148387294</ele>
        <time>2010-12-18T15:19:59.716Z</time>
      </trkpt>
      <trkpt lat="43.4693" lon="5.24875">
        <ele>255.167742329</ele>
        <time>2010-12-18T15:20:00.700Z</time>
      </trkpt>
      <trkpt lat="43.46927" lon="5.24881">
        <ele>255.174194336</ele>
        <time>2010-12-18T15:20:01.696Z</time>
      </trkpt>
      <trkpt lat="43.46923" lon="5.24885">
        <ele>255.206667074</ele>
        <time>2010-12-18T15:20:02.699Z</time>
      </trkpt>
      <trkpt lat="43.46919" lon="5.2489">
        <ele>255.203334045</ele>
        <time>2010-12-18T15:20:03.693Z</time>
      </trkpt>
      <trkpt lat="43.46913" lon="5.24894">
        <ele>255.156667582</ele>
        <time>2010-12-18T15:20:04.706Z</time>
      </trkpt>
      <trkpt lat="43.46903" lon="5.24902">
        <ele>254.983334351</ele>
        <time>2010-12-18T15:20:06.695Z</time>
      </trkpt>
      <trkpt lat="43.46887" lon="5.24916">
        <ele>254.587097168</ele>
        <time>2010-12-18T15:20:09.697Z</time>
      </trkpt>
      <trkpt lat="43.46866" lon="5.24937">
        <ele>253.916128835</ele>
        <time>2010-12-18T15:20:13.699Z</time>
      </trkpt>
      <trkpt lat="43.46855" lon="5.24946">
        <ele>253.577419158</ele>
        <time>2010-12-18T15:20:15.697Z</time>
      </trkpt>
      <trkpt lat="43.46843" lon="5.24953">
        <ele>253.254838513</ele>
        <time>2010-12-18T15:20:17.696Z</time>
      </trkpt>
      <trkpt lat="43.46837" lon="5.24956">
        <ele>253.096774194</ele>
        <time>2010-12-18T15:20:18.704Z</time>
      </trkpt>
      <trkpt lat="43.46831" lon="5.24958">
        <ele>252.932257868</ele>
        <time>2010-12-18T15:20:19.699Z</time>
      </trkpt>
      <trkpt lat="43.46825" lon="5.24962">
        <ele>252.710000102</ele>
        <time>2010-12-18T15:20:20.716Z</time>
      </trkpt>
      <trkpt lat="43.46813" lon="5.24968">
        <ele>252.363333639</ele>
        <time>2010-12-18T15:20:22.724Z</time>
      </trkpt>
      <trkpt lat="43.46802" lon="5.24977">
        <ele>251.989999898</ele>
        <time>2010-12-18T15:20:24.721Z</time>
      </trkpt>
      <trkpt lat="43.46784" lon="5.24992">
        <ele>251.213333639</ele>
        <time>2010-12-18T15:20:28.725Z</time>
      </trkpt>
      <trkpt lat="43.46781" lon="5.24997">
        <ele>251.093548682</ele>
        <time>2010-12-18T15:20:29.667Z</time>
      </trkpt>
      <trkpt lat="43.46778" lon="5.25002">
        <ele>250.870967742</ele>
        <time>2010-12-18T15:20:30.659Z</time>
      </trkpt>
      <trkpt lat="43.46778" lon="5.25008">
        <ele>250.64516129</ele>
        <time>2010-12-18T15:20:31.664Z</time>
      </trkpt>
      <trkpt lat="43.46778" lon="5.25015">
        <ele>250.425806353</ele>
        <time>2010-12-18T15:20:32.660Z</time>
      </trkpt>
      <trkpt lat="43.4678" lon="5.25037">
        <ele>249.790322581</ele>
        <time>2010-12-18T15:20:35.699Z</time>
      </trkpt>
      <trkpt lat="43.46779" lon="5.25044">
        <ele>249.599999705</ele>
        <time>2010-12-18T15:20:36.692Z</time>
      </trkpt>
      <trkpt lat="43.46778" lon="5.25059">
        <ele>249.238709481</ele>
        <time>2010-12-18T15:20:38.689Z</time>
      </trkpt>
      <trkpt lat="43.46776" lon="5.25066">
        <ele>248.96333313</ele>
        <time>2010-12-18T15:20:39.703Z</time>
      </trkpt>
      <trkpt lat="43.46772" lon="5.25089">
        <ele>248.493333435</ele>
        <time>2010-12-18T15:20:43.297Z</time>
      </trkpt>
      <trkpt lat="43.46769" lon="5.25121">
        <ele>248.070968136</ele>
        <time>2010-12-18T15:20:46.666Z</time>
      </trkpt>
      <trkpt lat="43.46767" lon="5.25136">
        <ele>247.786667379</ele>
        <time>2010-12-18T15:20:48.712Z</time>
      </trkpt>
      <trkpt lat="43.46764" lon="5.25151">
        <ele>247.667742821</ele>
        <time>2010-12-18T15:20:50.693Z</time>
      </trkpt>
      <trkpt lat="43.46759" lon="5.25174">
        <ele>247.366667175</ele>
        <time>2010-12-18T15:20:54.244Z</time>
      </trkpt>
      <trkpt lat="43.46753" lon="5.25205">
        <ele>247.093333435</ele>
        <time>2010-12-18T15:20:57.694Z</time>
      </trkpt>
      <trkpt lat="43.46751" lon="5.25212">
        <ele>247.054838611</ele>
        <time>2010-12-18T15:20:58.695Z</time>
      </trkpt>
      <trkpt lat="43.46744" lon="5.25225">
        <ele>246.923333232</ele>
        <time>2010-12-18T15:21:00.725Z</time>
      </trkpt>
      <trkpt lat="43.46734" lon="5.25243">
        <ele>246.76333313</ele>
        <time>2010-12-18T15:21:03.668Z</time>
      </trkpt>
      <trkpt lat="43.46727" lon="5.25255">
        <ele>246.670967348</ele>
        <time>2010-12-18T15:21:05.672Z</time>
      </trkpt>
      <trkpt lat="43.46718" lon="5.25275">
        <ele>246.45</ele>
        <time>2010-12-18T15:21:08.697Z</time>
      </trkpt>
      <trkpt lat="43.46713" lon="5.25288">
        <ele>246.351612706</ele>
        <time>2010-12-18T15:21:10.698Z</time>
      </trkpt>
      <trkpt lat="43.4671" lon="5.25295">
        <ele>246.290322088</ele>
        <time>2010-12-18T15:21:11.696Z</time>
      </trkpt>
      <trkpt lat="43.46706" lon="5.253">
        <ele>246.232257474</ele>
        <time>2010-12-18T15:21:12.694Z</time>
      </trkpt>
      <trkpt lat="43.46694" lon="5.25317">
        <ele>245.966665649</ele>
        <time>2010-12-18T15:21:16.265Z</time>
      </trkpt>
      <trkpt lat="43.46691" lon="5.25323">
        <ele>245.886665344</ele>
        <time>2010-12-18T15:21:17.266Z</time>
      </trkpt>
      <trkpt lat="43.46684" lon="5.25335">
        <ele>245.780643586</ele>
        <time>2010-12-18T15:21:18.698Z</time>
      </trkpt>
      <trkpt lat="43.46678" lon="5.25349">
        <ele>245.599998474</ele>
        <time>2010-12-18T15:21:20.707Z</time>
      </trkpt>
      <trkpt lat="43.46673" lon="5.25363">
        <ele>245.489998372</ele>
        <time>2010-12-18T15:21:22.702Z</time>
      </trkpt>
      <trkpt lat="43.46667" lon="5.25384">
        <ele>245.386665344</ele>
        <time>2010-12-18T15:21:26.288Z</time>
      </trkpt>
      <trkpt lat="43.46662" lon="5.25398">
        <ele>245.319998678</ele>
        <time>2010-12-18T15:21:27.723Z</time>
      </trkpt>
      <trkpt lat="43.46658" lon="5.25404">
        <ele>245.269998678</ele>
        <time>2010-12-18T15:21:28.698Z</time>
      </trkpt>
      <trkpt lat="43.46648" lon="5.25422">
        <ele>245.069999186</ele>
        <time>2010-12-18T15:21:32.290Z</time>
      </trkpt>
      <trkpt lat="43.46633" lon="5.25447">
        <ele>244.70333252</ele>
        <time>2010-12-18T15:21:35.704Z</time>
      </trkpt>
      <trkpt lat="43.46629" lon="5.25452">
        <ele>244.613332113</ele>
        <time>2010-12-18T15:21:36.703Z</time>
      </trkpt>
      <trkpt lat="43.46615" lon="5.25465">
        <ele>244.36128924</ele>
        <time>2010-12-18T15:21:39.701Z</time>
      </trkpt>
      <trkpt lat="43.46605" lon="5.25473">
        <ele>244.206450432</ele>
        <time>2010-12-18T15:21:41.696Z</time>
      </trkpt>
      <trkpt lat="43.46585" lon="5.25486">
        <ele>243.938708398</ele>
        <time>2010-12-18T15:21:45.697Z</time>
      </trkpt>
      <trkpt lat="43.46571" lon="5.25496">
        <ele>243.669999186</ele>
        <time>2010-12-18T15:21:49.286Z</time>
      </trkpt>
      <trkpt lat="43.46561" lon="5.25501">
        <ele>243.545160109</ele>
        <time>2010-12-18T15:21:50.698Z</time>
      </trkpt>
      <trkpt lat="43.46543" lon="5.25511">
        <ele>243.177418863</ele>
        <time>2010-12-18T15:21:54.716Z</time>
      </trkpt>
      <trkpt lat="43.46538" lon="5.25515">
        <ele>243.064515637</ele>
        <time>2010-12-18T15:21:55.700Z</time>
      </trkpt>
      <trkpt lat="43.46526" lon="5.25524">
        <ele>242.693332926</ele>
        <time>2010-12-18T15:21:59.288Z</time>
      </trkpt>
      <trkpt lat="43.46519" lon="5.2553">
        <ele>242.529999797</ele>
        <time>2010-12-18T15:22:00.709Z</time>
      </trkpt>
      <trkpt lat="43.46515" lon="5.25533">
        <ele>242.506451514</ele>
        <time>2010-12-18T15:22:01.710Z</time>
      </trkpt>
      <trkpt lat="43.46511" lon="5.25534">
        <ele>242.403333028</ele>
        <time>2010-12-18T15:22:02.744Z</time>
      </trkpt>
      <trkpt lat="43.46495" lon="5.25541">
        <ele>242.25333252</ele>
        <time>2010-12-18T15:22:06.714Z</time>
      </trkpt>
      <trkpt lat="43.46491" lon="5.25543">
        <ele>242.219999186</ele>
        <time>2010-12-18T15:22:07.725Z</time>
      </trkpt>
      <trkpt lat="43.46481" lon="5.25549">
        <ele>242.129999288</ele>
        <time>2010-12-18T15:22:10.734Z</time>
      </trkpt>
      <trkpt lat="43.4647" lon="5.25555">
        <ele>241.969999186</ele>
        <time>2010-12-18T15:22:13.700Z</time>
      </trkpt>
      <trkpt lat="43.46463" lon="5.25557">
        <ele>241.849999491</ele>
        <time>2010-12-18T15:22:15.884Z</time>
      </trkpt>
      <trkpt lat="43.46459" lon="5.25557">
        <ele>241.793332926</ele>
        <time>2010-12-18T15:22:16.746Z</time>
      </trkpt>
      <trkpt lat="43.46447" lon="5.25561">
        <ele>241.677418863</ele>
        <time>2010-12-18T15:22:19.661Z</time>
      </trkpt>
      <trkpt lat="43.46431" lon="5.25566">
        <ele>241.446666463</ele>
        <time>2010-12-18T15:22:23.700Z</time>
      </trkpt>
      <trkpt lat="43.46423" lon="5.25568">
        <ele>241.364515735</ele>
        <time>2010-12-18T15:22:25.694Z</time>
      </trkpt>
      <trkpt lat="43.46413" lon="5.25567">
        <ele>241.264515046</ele>
        <time>2010-12-18T15:22:27.699Z</time>
      </trkpt>
      <trkpt lat="43.46403" lon="5.25565">
        <ele>241.174192859</ele>
        <time>2010-12-18T15:22:29.693Z</time>
      </trkpt>
      <trkpt lat="43.46398" lon="5.25566">
        <ele>241.109999084</ele>
        <time>2010-12-18T15:22:31.267Z</time>
      </trkpt>
      <trkpt lat="43.46391" lon="5.2556">
        <ele>241.013332113</ele>
        <time>2010-12-18T15:22:32.707Z</time>
      </trkpt>
      <trkpt lat="43.46386" lon="5.25558">
        <ele>240.896665446</ele>
        <time>2010-12-18T15:22:33.702Z</time>
      </trkpt>
      <trkpt lat="43.46382" lon="5.25555">
        <ele>240.773332214</ele>
        <time>2010-12-18T15:22:34.697Z</time>
      </trkpt>
      <trkpt lat="43.46377" lon="5.25553">
        <ele>240.639998881</ele>
        <time>2010-12-18T15:22:35.697Z</time>
      </trkpt>
      <trkpt lat="43.46373" lon="5.25549">
        <ele>240.496665955</ele>
        <time>2010-12-18T15:22:36.701Z</time>
      </trkpt>
      <trkpt lat="43.4636" lon="5.2554">
        <ele>240.060000102</ele>
        <time>2010-12-18T15:22:39.706Z</time>
      </trkpt>
      <trkpt lat="43.46356" lon="5.25536">
        <ele>239.88666687</ele>
        <time>2010-12-18T15:22:40.704Z</time>
      </trkpt>
      <trkpt lat="43.46343" lon="5.25526">
        <ele>239.282759042</ele>
        <time>2010-12-18T15:22:43.704Z</time>
      </trkpt>
      <trkpt lat="43.46339" lon="5.25524">
        <ele>239.140000407</ele>
        <time>2010-12-18T15:22:44.700Z</time>
      </trkpt>
      <trkpt lat="43.46329" lon="5.25519">
        <ele>238.617241695</ele>
        <time>2010-12-18T15:22:47.283Z</time>
      </trkpt>
      <trkpt lat="43.46312" lon="5.25514">
        <ele>237.882758831</ele>
        <time>2010-12-18T15:22:49.700Z</time>
      </trkpt>
      <trkpt lat="43.463" lon="5.2551">
        <ele>237.372413898</ele>
        <time>2010-12-18T15:22:51.715Z</time>
      </trkpt>
      <trkpt lat="43.46294" lon="5.25506">
        <ele>237.089654857</ele>
        <time>2010-12-18T15:22:52.714Z</time>
      </trkpt>
      <trkpt lat="43.46277" lon="5.25496">
        <ele>236.258620163</ele>
        <time>2010-12-18T15:22:55.716Z</time>
      </trkpt>
      <trkpt lat="43.46265" lon="5.25489">
        <ele>235.74137931</ele>
        <time>2010-12-18T15:22:57.704Z</time>
      </trkpt>
      <trkpt lat="43.4626" lon="5.25486">
        <ele>235.65</ele>
        <time>2010-12-18T15:22:58.697Z</time>
      </trkpt>
      <trkpt lat="43.46254" lon="5.25481">
        <ele>235.213792998</ele>
        <time>2010-12-18T15:22:59.697Z</time>
      </trkpt>
      <trkpt lat="43.46232" lon="5.25466">
        <ele>234.445161389</ele>
        <time>2010-12-18T15:23:03.694Z</time>
      </trkpt>
      <trkpt lat="43.46215" lon="5.25456">
        <ele>233.58666687</ele>
        <time>2010-12-18T15:23:06.708Z</time>
      </trkpt>
      <trkpt lat="43.4621" lon="5.25452">
        <ele>233.480645457</ele>
        <time>2010-12-18T15:23:07.699Z</time>
      </trkpt>
      <trkpt lat="43.46205" lon="5.25447">
        <ele>233.093333435</ele>
        <time>2010-12-18T15:23:08.711Z</time>
      </trkpt>
      <trkpt lat="43.46199" lon="5.25443">
        <ele>232.993548486</ele>
        <time>2010-12-18T15:23:09.702Z</time>
      </trkpt>
      <trkpt lat="43.4619" lon="5.25435">
        <ele>232.403333537</ele>
        <time>2010-12-18T15:23:11.699Z</time>
      </trkpt>
      <trkpt lat="43.46177" lon="5.25424">
        <ele>231.836666361</ele>
        <time>2010-12-18T15:23:14.712Z</time>
      </trkpt>
      <trkpt lat="43.4616" lon="5.25408">
        <ele>231.264516031</ele>
        <time>2010-12-18T15:23:18.700Z</time>
      </trkpt>
      <trkpt lat="43.46152" lon="5.25398">
        <ele>230.760000102</ele>
        <time>2010-12-18T15:23:20.701Z</time>
      </trkpt>
      <trkpt lat="43.46148" lon="5.25392">
        <ele>230.533333842</ele>
        <time>2010-12-18T15:23:21.718Z</time>
      </trkpt>
      <trkpt lat="43.46142" lon="5.25385">
        <ele>230.060001119</ele>
        <time>2010-12-18T15:23:23.702Z</time>
      </trkpt>
      <trkpt lat="43.46137" lon="5.25379">
        <ele>229.573334249</ele>
        <time>2010-12-18T15:23:26.293Z</time>
      </trkpt>
      <trkpt lat="43.46131" lon="5.25372">
        <ele>228.986667379</ele>
        <time>2010-12-18T15:23:27.716Z</time>
      </trkpt>
      <trkpt lat="43.46126" lon="5.25365">
        <ele>228.370000712</ele>
        <time>2010-12-18T15:23:29.707Z</time>
      </trkpt>
      <trkpt lat="43.46123" lon="5.25361">
        <ele>228.177419847</ele>
        <time>2010-12-18T15:23:30.698Z</time>
      </trkpt>
      <trkpt lat="43.46115" lon="5.25352">
        <ele>227.143333435</ele>
        <time>2010-12-18T15:23:33.698Z</time>
      </trkpt>
      <trkpt lat="43.46113" lon="5.2535">
        <ele>226.970967939</ele>
        <time>2010-12-18T15:23:34.686Z</time>
      </trkpt>
      <trkpt lat="43.46105" lon="5.25359">
        <ele>226.560000102</ele>
        <time>2010-12-18T15:23:36.296Z</time>
      </trkpt>
      <trkpt lat="43.46099" lon="5.25363">
        <ele>226.069999695</ele>
        <time>2010-12-18T15:23:37.723Z</time>
      </trkpt>
      <trkpt lat="43.46096" lon="5.25364">
        <ele>225.980644964</ele>
        <time>2010-12-18T15:23:38.696Z</time>
      </trkpt>
      <trkpt lat="43.46094" lon="5.25366">
        <ele>225.751612509</ele>
        <time>2010-12-18T15:23:39.695Z</time>
      </trkpt>
      <trkpt lat="43.46088" lon="5.25368">
        <ele>225.2935476</ele>
        <time>2010-12-18T15:23:41.686Z</time>
      </trkpt>
      <trkpt lat="43.46081" lon="5.25375">
        <ele>224.933332825</ele>
        <time>2010-12-18T15:23:42.711Z</time>
      </trkpt>
      <trkpt lat="43.4607" lon="5.25385">
        <ele>224.460000102</ele>
        <time>2010-12-18T15:23:45.702Z</time>
      </trkpt>
      <trkpt lat="43.46067" lon="5.25385">
        <ele>224.339999898</ele>
        <time>2010-12-18T15:23:46.703Z</time>
      </trkpt>
      <trkpt lat="43.46062" lon="5.25388">
        <ele>224.42258035</ele>
        <time>2010-12-18T15:23:47.696Z</time>
      </trkpt>
      <trkpt lat="43.46059" lon="5.2539">
        <ele>224.199999491</ele>
        <time>2010-12-18T15:23:48.704Z</time>
      </trkpt>
      <trkpt lat="43.46051" lon="5.25392">
        <ele>224.203225413</ele>
        <time>2010-12-18T15:23:50.698Z</time>
      </trkpt>
      <trkpt lat="43.46039" lon="5.25395">
        <ele>224.199999409</ele>
        <time>2010-12-18T15:23:53.693Z</time>
      </trkpt>
      <trkpt lat="43.4603" lon="5.25399">
        <ele>224.241934992</ele>
        <time>2010-12-18T15:23:55.694Z</time>
      </trkpt>
      <trkpt lat="43.46022" lon="5.25402">
        <ele>224.289999898</ele>
        <time>2010-12-18T15:23:58.278Z</time>
      </trkpt>
      <trkpt lat="43.46017" lon="5.25404">
        <ele>224.374193253</ele>
        <time>2010-12-18T15:23:59.696Z</time>
      </trkpt>
      <trkpt lat="43.46007" lon="5.25408">
        <ele>224.760000102</ele>
        <time>2010-12-18T15:24:02.695Z</time>
      </trkpt>
      <trkpt lat="43.46004" lon="5.25408">
        <ele>224.803226102</ele>
        <time>2010-12-18T15:24:03.675Z</time>
      </trkpt>
      <trkpt lat="43.45993" lon="5.2541">
        <ele>225.151613297</ele>
        <time>2010-12-18T15:24:06.693Z</time>
      </trkpt>
      <trkpt lat="43.4598" lon="5.25413">
        <ele>225.543334452</ele>
        <time>2010-12-18T15:24:10.698Z</time>
      </trkpt>
      <trkpt lat="43.4597" lon="5.25415">
        <ele>225.730001322</ele>
        <time>2010-12-18T15:24:14.273Z</time>
      </trkpt>
      <trkpt lat="43.45956" lon="5.25418">
        <ele>225.712904899</ele>
        <time>2010-12-18T15:24:17.687Z</time>
      </trkpt>
      <trkpt lat="43.45953" lon="5.2542">
        <ele>225.635485741</ele>
        <time>2010-12-18T15:24:18.690Z</time>
      </trkpt>
      <trkpt lat="43.45942" lon="5.25424">
        <ele>225.380001322</ele>
        <time>2010-12-18T15:24:21.700Z</time>
      </trkpt>
      <trkpt lat="43.45933" lon="5.25425">
        <ele>225.328572954</ele>
        <time>2010-12-18T15:24:25.282Z</time>
      </trkpt>
      <trkpt lat="43.45927" lon="5.25426">
        <ele>225.362070544</ele>
        <time>2010-12-18T15:24:26.692Z</time>
      </trkpt>
      <trkpt lat="43.45921" lon="5.25428">
        <ele>225.417858124</ele>
        <time>2010-12-18T15:24:28.691Z</time>
      </trkpt>
      <trkpt lat="43.45916" lon="5.2543">
        <ele>225.435715267</ele>
        <time>2010-12-18T15:24:31.265Z</time>
      </trkpt>
      <trkpt lat="43.45909" lon="5.25438">
        <ele>225.435715267</ele>
        <time>2010-12-18T15:24:31.696Z</time>
      </trkpt>
      <trkpt lat="43.45904" lon="5.25441">
        <ele>225.332143511</ele>
        <time>2010-12-18T15:24:33.705Z</time>
      </trkpt>
      <trkpt lat="43.45901" lon="5.25443">
        <ele>225.253572192</ele>
        <time>2010-12-18T15:24:34.705Z</time>
      </trkpt>
      <trkpt lat="43.45889" lon="5.25452">
        <ele>225.079310976</ele>
        <time>2010-12-18T15:24:37.711Z</time>
      </trkpt>
      <trkpt lat="43.45885" lon="5.25454">
        <ele>225.01071494</ele>
        <time>2010-12-18T15:24:38.701Z</time>
      </trkpt>
      <trkpt lat="43.4588" lon="5.25455">
        <ele>224.942858015</ele>
        <time>2010-12-18T15:24:39.705Z</time>
      </trkpt>
      <trkpt lat="43.45875" lon="5.25456">
        <ele>224.853572301</ele>
        <time>2010-12-18T15:24:41.279Z</time>
      </trkpt>
      <trkpt lat="43.4587" lon="5.25456">
        <ele>224.764286586</ele>
        <time>2010-12-18T15:24:41.694Z</time>
      </trkpt>
      <trkpt lat="43.45865" lon="5.25456">
        <ele>224.678572518</ele>
        <time>2010-12-18T15:24:42.692Z</time>
      </trkpt>
      <trkpt lat="43.4585" lon="5.25456">
        <ele>224.371429443</ele>
        <time>2010-12-18T15:24:46.278Z</time>
      </trkpt>
      <trkpt lat="43.45846" lon="5.25457">
        <ele>224.267857688</ele>
        <time>2010-12-18T15:24:47.292Z</time>
      </trkpt>
      <trkpt lat="43.45836" lon="5.25457">
        <ele>224.107143402</ele>
        <time>2010-12-18T15:24:48.695Z</time>
      </trkpt>
      <trkpt lat="43.4583" lon="5.25457">
        <ele>224.048148826</ele>
        <time>2010-12-18T15:24:50.718Z</time>
      </trkpt>
      <trkpt lat="43.45823" lon="5.2546">
        <ele>223.971429552</ele>
        <time>2010-12-18T15:24:52.713Z</time>
      </trkpt>
      <trkpt lat="43.4582" lon="5.2546">
        <ele>223.982759673</ele>
        <time>2010-12-18T15:24:53.719Z</time>
      </trkpt>
      <trkpt lat="43.45814" lon="5.25462">
        <ele>224.030000814</ele>
        <time>2010-12-18T15:24:54.719Z</time>
      </trkpt>
      <trkpt lat="43.4581" lon="5.25463">
        <ele>223.941379942</ele>
        <time>2010-12-18T15:24:55.694Z</time>
      </trkpt>
      <trkpt lat="43.45803" lon="5.25463">
        <ele>224.003449012</ele>
        <time>2010-12-18T15:24:57.719Z</time>
      </trkpt>
      <trkpt lat="43.45785" lon="5.25464">
        <ele>224.183333842</ele>
        <time>2010-12-18T15:25:01.691Z</time>
      </trkpt>
      <trkpt lat="43.45773" lon="5.25463">
        <ele>224.320000712</ele>
        <time>2010-12-18T15:25:04.695Z</time>
      </trkpt>
      <trkpt lat="43.45764" lon="5.25465">
        <ele>224.524138352</ele>
        <time>2010-12-18T15:25:06.715Z</time>
      </trkpt>
      <trkpt lat="43.4576" lon="5.25465">
        <ele>224.596666972</ele>
        <time>2010-12-18T15:25:07.707Z</time>
      </trkpt>
      <trkpt lat="43.45756" lon="5.25466">
        <ele>224.724138457</ele>
        <time>2010-12-18T15:25:08.727Z</time>
      </trkpt>
      <trkpt lat="43.45748" lon="5.25465">
        <ele>224.890000407</ele>
        <time>2010-12-18T15:25:10.691Z</time>
      </trkpt>
      <trkpt lat="43.45744" lon="5.25465">
        <ele>225</ele>
        <time>2010-12-18T15:25:11.686Z</time>
      </trkpt>
      <trkpt lat="43.4574" lon="5.25464">
        <ele>225.189654646</ele>
        <time>2010-12-18T15:25:12.704Z</time>
      </trkpt>
      <trkpt lat="43.45732" lon="5.25462">
        <ele>225.44827481</ele>
        <time>2010-12-18T15:25:14.705Z</time>
      </trkpt>
      <trkpt lat="43.45727" lon="5.25461">
        <ele>225.473332214</ele>
        <time>2010-12-18T15:25:15.696Z</time>
      </trkpt>
      <trkpt lat="43.45714" lon="5.25459">
        <ele>225.910343565</ele>
        <time>2010-12-18T15:25:19.285Z</time>
      </trkpt>
      <trkpt lat="43.4571" lon="5.25461">
        <ele>225.883332316</ele>
        <time>2010-12-18T15:25:20.286Z</time>
      </trkpt>
      <trkpt lat="43.45706" lon="5.25462">
        <ele>225.851611722</ele>
        <time>2010-12-18T15:25:20.690Z</time>
      </trkpt>
      <trkpt lat="43.45694" lon="5.25464">
        <ele>226.04838562</ele>
        <time>2010-12-18T15:25:23.662Z</time>
      </trkpt>
      <trkpt lat="43.45676" lon="5.25465">
        <ele>225.961288944</ele>
        <time>2010-12-18T15:25:27.679Z</time>
      </trkpt>
      <trkpt lat="43.45664" lon="5.25466">
        <ele>225.679999288</ele>
        <time>2010-12-18T15:25:30.738Z</time>
      </trkpt>
      <trkpt lat="43.45656" lon="5.25468">
        <ele>225.569999695</ele>
        <time>2010-12-18T15:25:32.818Z</time>
      </trkpt>
      <trkpt lat="43.45648" lon="5.25469">
        <ele>225.476665751</ele>
        <time>2010-12-18T15:25:34.723Z</time>
      </trkpt>
      <trkpt lat="43.45636" lon="5.2547">
        <ele>225.309999084</ele>
        <time>2010-12-18T15:25:37.806Z</time>
      </trkpt>
      <trkpt lat="43.4562" lon="5.25471">
        <ele>225.054837627</ele>
        <time>2010-12-18T15:25:41.685Z</time>
      </trkpt>
      <trkpt lat="43.45616" lon="5.25472">
        <ele>224.974192466</ele>
        <time>2010-12-18T15:25:42.679Z</time>
      </trkpt>
      <trkpt lat="43.45604" lon="5.25475">
        <ele>224.589998881</ele>
        <time>2010-12-18T15:25:46.274Z</time>
      </trkpt>
      <trkpt lat="43.45596" lon="5.25478">
        <ele>224.425805369</ele>
        <time>2010-12-18T15:25:47.686Z</time>
      </trkpt>
      <trkpt lat="43.45584" lon="5.25481">
        <ele>224.05333252</ele>
        <time>2010-12-18T15:25:51.278Z</time>
      </trkpt>
      <trkpt lat="43.45555" lon="5.2549">
        <ele>223.743999023</ele>
        <time>2010-12-18T15:25:56.701Z</time>
      </trkpt>
      <trkpt lat="43.45544" lon="5.25494">
        <ele>223.387999268</ele>
        <time>2010-12-18T15:25:58.705Z</time>
      </trkpt>
      <trkpt lat="43.45526" lon="5.25504">
        <ele>222.738460834</ele>
        <time>2010-12-18T15:26:02.683Z</time>
      </trkpt>
      <trkpt lat="43.45516" lon="5.25507">
        <ele>222.35384545</ele>
        <time>2010-12-18T15:26:04.693Z</time>
      </trkpt>
      <trkpt lat="43.455" lon="5.25511">
        <ele>221.675999146</ele>
        <time>2010-12-18T15:26:08.277Z</time>
      </trkpt>
      <trkpt lat="43.45489" lon="5.25514">
        <ele>221.267999268</ele>
        <time>2010-12-18T15:26:09.703Z</time>
      </trkpt>
      <trkpt lat="43.45464" lon="5.25528">
        <ele>220.3782614</ele>
        <time>2010-12-18T15:26:14.695Z</time>
      </trkpt>
      <trkpt lat="43.45459" lon="5.25531">
        <ele>220.233333588</ele>
        <time>2010-12-18T15:26:15.682Z</time>
      </trkpt>
      <trkpt lat="43.45458" lon="5.25534">
        <ele>219.84782675</ele>
        <time>2010-12-18T15:26:16.710Z</time>
      </trkpt>
      <trkpt lat="43.45454" lon="5.25538">
        <ele>219.630435446</ele>
        <time>2010-12-18T15:26:18.286Z</time>
      </trkpt>
      <trkpt lat="43.4545" lon="5.25542">
        <ele>219.439131364</ele>
        <time>2010-12-18T15:26:18.702Z</time>
      </trkpt>
      <trkpt lat="43.4544" lon="5.25548">
        <ele>219.191666921</ele>
        <time>2010-12-18T15:26:20.691Z</time>
      </trkpt>
      <trkpt lat="43.45436" lon="5.25548">
        <ele>219.041666667</ele>
        <time>2010-12-18T15:26:21.714Z</time>
      </trkpt>
      <trkpt lat="43.45431" lon="5.25548">
        <ele>219.015999756</ele>
        <time>2010-12-18T15:26:22.695Z</time>
      </trkpt>
      <trkpt lat="43.4542" lon="5.25549">
        <ele>218.959259033</ele>
        <time>2010-12-18T15:26:24.707Z</time>
      </trkpt>
      <trkpt lat="43.45415" lon="5.25548">
        <ele>218.93214253</ele>
        <time>2010-12-18T15:26:25.699Z</time>
      </trkpt>
      <trkpt lat="43.45409" lon="5.25548">
        <ele>218.896551198</ele>
        <time>2010-12-18T15:26:26.696Z</time>
      </trkpt>
      <trkpt lat="43.45403" lon="5.25547">
        <ele>218.746427808</ele>
        <time>2010-12-18T15:26:27.711Z</time>
      </trkpt>
      <trkpt lat="43.45398" lon="5.25552">
        <ele>218.717856271</ele>
        <time>2010-12-18T15:26:28.734Z</time>
      </trkpt>
      <trkpt lat="43.45393" lon="5.25555">
        <ele>218.671427591</ele>
        <time>2010-12-18T15:26:29.714Z</time>
      </trkpt>
      <trkpt lat="43.4539" lon="5.25559">
        <ele>218.653570448</ele>
        <time>2010-12-18T15:26:30.743Z</time>
      </trkpt>
      <trkpt lat="43.45386" lon="5.25564">
        <ele>218.642856053</ele>
        <time>2010-12-18T15:26:31.758Z</time>
      </trkpt>
      <trkpt lat="43.45381" lon="5.25568">
        <ele>218.617856162</ele>
        <time>2010-12-18T15:26:32.760Z</time>
      </trkpt>
      <trkpt lat="43.45377" lon="5.25571">
        <ele>218.61034367</ele>
        <time>2010-12-18T15:26:33.663Z</time>
      </trkpt>
      <trkpt lat="43.45367" lon="5.25578">
        <ele>218.468964675</ele>
        <time>2010-12-18T15:26:35.656Z</time>
      </trkpt>
      <trkpt lat="43.45352" lon="5.25589">
        <ele>218.264284951</ele>
        <time>2010-12-18T15:26:38.698Z</time>
      </trkpt>
      <trkpt lat="43.45342" lon="5.25596">
        <ele>218.121427808</ele>
        <time>2010-12-18T15:26:41.255Z</time>
      </trkpt>
      <trkpt lat="43.45338" lon="5.25599">
        <ele>218.028570448</ele>
        <time>2010-12-18T15:26:41.699Z</time>
      </trkpt>
      <trkpt lat="43.45324" lon="5.2561">
        <ele>217.849998983</ele>
        <time>2010-12-18T15:26:44.705Z</time>
      </trkpt>
      <trkpt lat="43.45319" lon="5.25612">
        <ele>217.826665751</ele>
        <time>2010-12-18T15:26:45.695Z</time>
      </trkpt>
      <trkpt lat="43.45305" lon="5.25621">
        <ele>217.674192859</ele>
        <time>2010-12-18T15:26:48.695Z</time>
      </trkpt>
      <trkpt lat="43.45295" lon="5.25627">
        <ele>217.523333232</ele>
        <time>2010-12-18T15:26:50.696Z</time>
      </trkpt>
      <trkpt lat="43.45275" lon="5.25638">
        <ele>217.166666667</ele>
        <time>2010-12-18T15:26:54.719Z</time>
      </trkpt>
      <trkpt lat="43.4527" lon="5.2564">
        <ele>217.080000305</ele>
        <time>2010-12-18T15:26:56.257Z</time>
      </trkpt>
      <trkpt lat="43.4526" lon="5.25644">
        <ele>216.954838907</ele>
        <time>2010-12-18T15:26:57.697Z</time>
      </trkpt>
      <trkpt lat="43.4525" lon="5.25652">
        <ele>216.741935484</ele>
        <time>2010-12-18T15:26:59.699Z</time>
      </trkpt>
      <trkpt lat="43.45246" lon="5.25656">
        <ele>216.622580744</ele>
        <time>2010-12-18T15:27:00.698Z</time>
      </trkpt>
      <trkpt lat="43.45243" lon="5.25661">
        <ele>216.493548486</ele>
        <time>2010-12-18T15:27:01.704Z</time>
      </trkpt>
      <trkpt lat="43.45239" lon="5.25667">
        <ele>216.361290224</ele>
        <time>2010-12-18T15:27:02.695Z</time>
      </trkpt>
      <trkpt lat="43.45236" lon="5.25673">
        <ele>216.176666768</ele>
        <time>2010-12-18T15:27:03.704Z</time>
      </trkpt>
      <trkpt lat="43.45231" lon="5.25677">
        <ele>216.083333333</ele>
        <time>2010-12-18T15:27:04.704Z</time>
      </trkpt>
      <trkpt lat="43.45226" lon="5.25681">
        <ele>215.970000203</ele>
        <time>2010-12-18T15:27:05.696Z</time>
      </trkpt>
      <trkpt lat="43.45221" lon="5.25684">
        <ele>215.840000407</ele>
        <time>2010-12-18T15:27:06.696Z</time>
      </trkpt>
      <trkpt lat="43.45199" lon="5.25698">
        <ele>215.435484363</ele>
        <time>2010-12-18T15:27:10.714Z</time>
      </trkpt>
      <trkpt lat="43.45178" lon="5.2571">
        <ele>215.119355232</ele>
        <time>2010-12-18T15:27:14.699Z</time>
      </trkpt>
      <trkpt lat="43.45163" lon="5.25718">
        <ele>214.883871263</ele>
        <time>2010-12-18T15:27:17.699Z</time>
      </trkpt>
      <trkpt lat="43.45158" lon="5.25722">
        <ele>214.790000407</ele>
        <time>2010-12-18T15:27:18.701Z</time>
      </trkpt>
      <trkpt lat="43.45138" lon="5.25736">
        <ele>214.506666565</ele>
        <time>2010-12-18T15:27:23.136Z</time>
      </trkpt>
      <trkpt lat="43.45132" lon="5.25738">
        <ele>214.433333333</ele>
        <time>2010-12-18T15:27:23.709Z</time>
      </trkpt>
      <trkpt lat="43.45114" lon="5.25742">
        <ele>214.21290293</ele>
        <time>2010-12-18T15:27:26.705Z</time>
      </trkpt>
      <trkpt lat="43.45103" lon="5.25745">
        <ele>213.919999695</ele>
        <time>2010-12-18T15:27:29.138Z</time>
      </trkpt>
      <trkpt lat="43.45098" lon="5.25748">
        <ele>213.819999695</ele>
        <time>2010-12-18T15:27:29.716Z</time>
      </trkpt>
      <trkpt lat="43.45093" lon="5.25749">
        <ele>213.767741542</ele>
        <time>2010-12-18T15:27:30.690Z</time>
      </trkpt>
      <trkpt lat="43.45075" lon="5.25753">
        <ele>213.509677026</ele>
        <time>2010-12-18T15:27:33.681Z</time>
      </trkpt>
      <trkpt lat="43.45067" lon="5.25752">
        <ele>213.263332621</ele>
        <time>2010-12-18T15:27:35.698Z</time>
      </trkpt>
      <trkpt lat="43.45062" lon="5.25753">
        <ele>213.232257474</ele>
        <time>2010-12-18T15:27:36.677Z</time>
      </trkpt>
      <trkpt lat="43.45056" lon="5.25752">
        <ele>213.154838316</ele>
        <time>2010-12-18T15:27:37.680Z</time>
      </trkpt>
      <trkpt lat="43.45057" lon="5.25745">
        <ele>213.063332621</ele>
        <time>2010-12-18T15:27:38.704Z</time>
      </trkpt>
      <trkpt lat="43.45054" lon="5.2574">
        <ele>213.006666056</ele>
        <time>2010-12-18T15:27:39.704Z</time>
      </trkpt>
      <trkpt lat="43.45051" lon="5.25737">
        <ele>212.983870476</ele>
        <time>2010-12-18T15:27:40.698Z</time>
      </trkpt>
      <trkpt lat="43.45047" lon="5.25734">
        <ele>212.919354346</ele>
        <time>2010-12-18T15:27:41.702Z</time>
      </trkpt>
      <trkpt lat="43.45044" lon="5.25731">
        <ele>212.848386703</ele>
        <time>2010-12-18T15:27:42.715Z</time>
      </trkpt>
      <trkpt lat="43.45037" lon="5.25726">
        <ele>212.723333232</ele>
        <time>2010-12-18T15:27:44.711Z</time>
      </trkpt>
      <trkpt lat="43.45033" lon="5.25724">
        <ele>212.670000203</ele>
        <time>2010-12-18T15:27:45.739Z</time>
      </trkpt>
      <trkpt lat="43.4503" lon="5.25723">
        <ele>212.613333639</ele>
        <time>2010-12-18T15:27:46.744Z</time>
      </trkpt>
      <trkpt lat="43.45026" lon="5.25722">
        <ele>212.560000102</ele>
        <time>2010-12-18T15:27:47.830Z</time>
      </trkpt>
      <trkpt lat="43.45018" lon="5.25722">
        <ele>212.487096971</ele>
        <time>2010-12-18T15:27:49.698Z</time>
      </trkpt>
      <trkpt lat="43.45007" lon="5.25722">
        <ele>212.290322581</ele>
        <time>2010-12-18T15:27:52.650Z</time>
      </trkpt>
      <trkpt lat="43.45001" lon="5.25728">
        <ele>212.238709973</ele>
        <time>2010-12-18T15:27:53.670Z</time>
      </trkpt>
      <trkpt lat="43.44996" lon="5.25731">
        <ele>212.17333374</ele>
        <time>2010-12-18T15:27:55.244Z</time>
      </trkpt>
      <trkpt lat="43.44991" lon="5.25736">
        <ele>212.190322876</ele>
        <time>2010-12-18T15:27:55.662Z</time>
      </trkpt>
      <trkpt lat="43.44983" lon="5.2574">
        <ele>212.203225905</ele>
        <time>2010-12-18T15:27:57.684Z</time>
      </trkpt>
      <trkpt lat="43.44978" lon="5.25742">
        <ele>212.245161487</ele>
        <time>2010-12-18T15:27:58.683Z</time>
      </trkpt>
      <trkpt lat="43.44974" lon="5.25745">
        <ele>212.293333944</ele>
        <time>2010-12-18T15:27:59.726Z</time>
      </trkpt>
      <trkpt lat="43.44965" lon="5.25749">
        <ele>212.361290716</ele>
        <time>2010-12-18T15:28:01.655Z</time>
      </trkpt>
      <trkpt lat="43.44951" lon="5.25754">
        <ele>212.429032849</ele>
        <time>2010-12-18T15:28:04.662Z</time>
      </trkpt>
      <trkpt lat="43.44942" lon="5.25757">
        <ele>212.496774981</ele>
        <time>2010-12-18T15:28:06.654Z</time>
      </trkpt>
      <trkpt lat="43.44937" lon="5.25757">
        <ele>212.525807042</ele>
        <time>2010-12-18T15:28:07.652Z</time>
      </trkpt>
      <trkpt lat="43.44926" lon="5.25761">
        <ele>212.570968136</ele>
        <time>2010-12-18T15:28:09.666Z</time>
      </trkpt>
      <trkpt lat="43.44921" lon="5.25763">
        <ele>212.587097168</ele>
        <time>2010-12-18T15:28:10.657Z</time>
      </trkpt>
      <trkpt lat="43.44911" lon="5.25762">
        <ele>212.638710268</ele>
        <time>2010-12-18T15:28:12.699Z</time>
      </trkpt>
      <trkpt lat="43.44905" lon="5.25763">
        <ele>212.663334147</ele>
        <time>2010-12-18T15:28:13.711Z</time>
      </trkpt>
      <trkpt lat="43.449" lon="5.25763">
        <ele>212.658065304</ele>
        <time>2010-12-18T15:28:14.697Z</time>
      </trkpt>
      <trkpt lat="43.44896" lon="5.25765">
        <ele>212.651613789</ele>
        <time>2010-12-18T15:28:15.680Z</time>
      </trkpt>
      <trkpt lat="43.44891" lon="5.25768">
        <ele>212.6548393</ele>
        <time>2010-12-18T15:28:16.694Z</time>
      </trkpt>
      <trkpt lat="43.44887" lon="5.25768">
        <ele>212.638710268</ele>
        <time>2010-12-18T15:28:17.698Z</time>
      </trkpt>
      <trkpt lat="43.44883" lon="5.25768">
        <ele>212.629033243</ele>
        <time>2010-12-18T15:28:18.675Z</time>
      </trkpt>
      <trkpt lat="43.44869" lon="5.2577">
        <ele>212.593549175</ele>
        <time>2010-12-18T15:28:21.656Z</time>
      </trkpt>
      <trkpt lat="43.44856" lon="5.25772">
        <ele>212.53548456</ele>
        <time>2010-12-18T15:28:24.652Z</time>
      </trkpt>
      <trkpt lat="43.4485" lon="5.25771">
        <ele>212.476667277</ele>
        <time>2010-12-18T15:28:25.675Z</time>
      </trkpt>
      <trkpt lat="43.44841" lon="5.25778">
        <ele>212.403334045</ele>
        <time>2010-12-18T15:28:26.702Z</time>
      </trkpt>
      <trkpt lat="43.44834" lon="5.25781">
        <ele>212.330000814</ele>
        <time>2010-12-18T15:28:27.703Z</time>
      </trkpt>
      <trkpt lat="43.44829" lon="5.25782">
        <ele>212.24666748</ele>
        <time>2010-12-18T15:28:28.702Z</time>
      </trkpt>
      <trkpt lat="43.44824" lon="5.25785">
        <ele>212.177420339</ele>
        <time>2010-12-18T15:28:29.682Z</time>
      </trkpt>
      <trkpt lat="43.44818" lon="5.25787">
        <ele>212.083872149</ele>
        <time>2010-12-18T15:28:30.684Z</time>
      </trkpt>
      <trkpt lat="43.44814" lon="5.2579">
        <ele>211.923334757</ele>
        <time>2010-12-18T15:28:31.684Z</time>
      </trkpt>
      <trkpt lat="43.44808" lon="5.25792">
        <ele>211.800001526</ele>
        <time>2010-12-18T15:28:32.684Z</time>
      </trkpt>
      <trkpt lat="43.44803" lon="5.25796">
        <ele>211.696667989</ele>
        <time>2010-12-18T15:28:33.701Z</time>
      </trkpt>
      <trkpt lat="43.44798" lon="5.25798">
        <ele>211.576667786</ele>
        <time>2010-12-18T15:28:34.754Z</time>
      </trkpt>
      <trkpt lat="43.44792" lon="5.25801">
        <ele>211.443334452</ele>
        <time>2010-12-18T15:28:35.681Z</time>
      </trkpt>
      <trkpt lat="43.44783" lon="5.25806">
        <ele>211.190000916</ele>
        <time>2010-12-18T15:28:37.706Z</time>
      </trkpt>
      <trkpt lat="43.44764" lon="5.25814">
        <ele>210.773334249</ele>
        <time>2010-12-18T15:28:41.750Z</time>
      </trkpt>
      <trkpt lat="43.44753" lon="5.2582">
        <ele>210.553333537</ele>
        <time>2010-12-18T15:28:44.029Z</time>
      </trkpt>
      <trkpt lat="43.44747" lon="5.25822">
        <ele>210.493548486</ele>
        <time>2010-12-18T15:28:44.655Z</time>
      </trkpt>
      <trkpt lat="43.4473" lon="5.25828">
        <ele>210.046666972</ele>
        <time>2010-12-18T15:28:47.745Z</time>
      </trkpt>
      <trkpt lat="43.44709" lon="5.25835">
        <ele>209.453333537</ele>
        <time>2010-12-18T15:28:51.704Z</time>
      </trkpt>
      <trkpt lat="43.447" lon="5.25839">
        <ele>209.146666972</ele>
        <time>2010-12-18T15:28:53.705Z</time>
      </trkpt>
      <trkpt lat="43.44694" lon="5.25841">
        <ele>208.983333842</ele>
        <time>2010-12-18T15:28:54.711Z</time>
      </trkpt>
      <trkpt lat="43.44689" lon="5.25845">
        <ele>208.813334147</ele>
        <time>2010-12-18T15:28:55.702Z</time>
      </trkpt>
      <trkpt lat="43.44679" lon="5.25851">
        <ele>208.53548456</ele>
        <time>2010-12-18T15:28:57.702Z</time>
      </trkpt>
      <trkpt lat="43.44675" lon="5.25853">
        <ele>208.320000712</ele>
        <time>2010-12-18T15:28:59.296Z</time>
      </trkpt>
      <trkpt lat="43.44664" lon="5.25855">
        <ele>208.03666687</ele>
        <time>2010-12-18T15:29:00.704Z</time>
      </trkpt>
      <trkpt lat="43.44649" lon="5.25858">
        <ele>207.576667277</ele>
        <time>2010-12-18T15:29:03.794Z</time>
      </trkpt>
      <trkpt lat="43.4463" lon="5.25862">
        <ele>206.977419946</ele>
        <time>2010-12-18T15:29:07.651Z</time>
      </trkpt>
      <trkpt lat="43.44614" lon="5.25865">
        <ele>206.266667684</ele>
        <time>2010-12-18T15:29:10.763Z</time>
      </trkpt>
      <trkpt lat="43.44599" lon="5.25869">
        <ele>205.761291504</ele>
        <time>2010-12-18T15:29:13.783Z</time>
      </trkpt>
      <trkpt lat="43.44594" lon="5.2587">
        <ele>205.463334656</ele>
        <time>2010-12-18T15:29:14.791Z</time>
      </trkpt>
      <trkpt lat="43.44582" lon="5.25873">
        <ele>205.153334045</ele>
        <time>2010-12-18T15:29:16.798Z</time>
      </trkpt>
      <trkpt lat="43.44577" lon="5.25875">
        <ele>205.02333374</ele>
        <time>2010-12-18T15:29:17.787Z</time>
      </trkpt>
      <trkpt lat="43.44571" lon="5.25877">
        <ele>204.900000509</ele>
        <time>2010-12-18T15:29:18.836Z</time>
      </trkpt>
      <trkpt lat="43.44567" lon="5.2588">
        <ele>204.776667277</ele>
        <time>2010-12-18T15:29:19.825Z</time>
      </trkpt>
      <trkpt lat="43.44553" lon="5.25887">
        <ele>204.403333537</ele>
        <time>2010-12-18T15:29:22.846Z</time>
      </trkpt>
      <trkpt lat="43.44538" lon="5.25896">
        <ele>203.996666463</ele>
        <time>2010-12-18T15:29:25.793Z</time>
      </trkpt>
      <trkpt lat="43.44517" lon="5.25905">
        <ele>203.554838119</ele>
        <time>2010-12-18T15:29:29.712Z</time>
      </trkpt>
      <trkpt lat="43.44506" lon="5.25908">
        <ele>203.290322088</ele>
        <time>2010-12-18T15:29:31.635Z</time>
      </trkpt>
      <trkpt lat="43.44504" lon="5.25912">
        <ele>203.16128983</ele>
        <time>2010-12-18T15:29:32.640Z</time>
      </trkpt>
      <trkpt lat="43.44501" lon="5.25915">
        <ele>203.061289633</ele>
        <time>2010-12-18T15:29:33.640Z</time>
      </trkpt>
      <trkpt lat="43.44493" lon="5.25924">
        <ele>202.896773308</ele>
        <time>2010-12-18T15:29:35.641Z</time>
      </trkpt>
      <trkpt lat="43.44489" lon="5.25931">
        <ele>202.68999939</ele>
        <time>2010-12-18T15:29:37.703Z</time>
      </trkpt>
      <trkpt lat="43.44485" lon="5.25936">
        <ele>202.66128983</ele>
        <time>2010-12-18T15:29:38.686Z</time>
      </trkpt>
      <trkpt lat="43.4448" lon="5.25942">
        <ele>202.564515637</ele>
        <time>2010-12-18T15:29:39.703Z</time>
      </trkpt>
      <trkpt lat="43.44466" lon="5.25963">
        <ele>202.16128983</ele>
        <time>2010-12-18T15:29:43.684Z</time>
      </trkpt>
      <trkpt lat="43.44462" lon="5.25969">
        <ele>202.051612608</ele>
        <time>2010-12-18T15:29:44.712Z</time>
      </trkpt>
      <trkpt lat="43.44458" lon="5.25975">
        <ele>201.935483871</ele>
        <time>2010-12-18T15:29:45.684Z</time>
      </trkpt>
      <trkpt lat="43.44447" lon="5.2599">
        <ele>201.516129524</ele>
        <time>2010-12-18T15:29:48.638Z</time>
      </trkpt>
      <trkpt lat="43.44443" lon="5.25995">
        <ele>201.374194237</ele>
        <time>2010-12-18T15:29:49.650Z</time>
      </trkpt>
      <trkpt lat="43.44439" lon="5.25997">
        <ele>201.216129426</ele>
        <time>2010-12-18T15:29:50.647Z</time>
      </trkpt>
      <trkpt lat="43.44434" lon="5.26001">
        <ele>201.041936075</ele>
        <time>2010-12-18T15:29:51.710Z</time>
      </trkpt>
      <trkpt lat="43.44429" lon="5.26004">
        <ele>200.896774784</ele>
        <time>2010-12-18T15:29:52.643Z</time>
      </trkpt>
      <trkpt lat="43.44423" lon="5.26008">
        <ele>200.729032947</ele>
        <time>2010-12-18T15:29:53.638Z</time>
      </trkpt>
      <trkpt lat="43.44419" lon="5.26012">
        <ele>200.577420142</ele>
        <time>2010-12-18T15:29:54.638Z</time>
      </trkpt>
      <trkpt lat="43.44398" lon="5.26026">
        <ele>199.926667786</ele>
        <time>2010-12-18T15:29:58.699Z</time>
      </trkpt>
      <trkpt lat="43.44388" lon="5.26034">
        <ele>199.563334656</ele>
        <time>2010-12-18T15:30:00.765Z</time>
      </trkpt>
      <trkpt lat="43.44384" lon="5.26039">
        <ele>199.360001119</ele>
        <time>2010-12-18T15:30:01.894Z</time>
      </trkpt>
      <trkpt lat="43.44377" lon="5.26049">
        <ele>198.893334452</ele>
        <time>2010-12-18T15:30:03.706Z</time>
      </trkpt>
      <trkpt lat="43.4437" lon="5.26056">
        <ele>198.333334351</ele>
        <time>2010-12-18T15:30:05.701Z</time>
      </trkpt>
      <trkpt lat="43.44365" lon="5.26059">
        <ele>198.170968825</ele>
        <time>2010-12-18T15:30:06.646Z</time>
      </trkpt>
      <trkpt lat="43.44358" lon="5.26065">
        <ele>197.596775178</ele>
        <time>2010-12-18T15:30:08.635Z</time>
      </trkpt>
      <trkpt lat="43.44349" lon="5.26073">
        <ele>197.006452499</ele>
        <time>2010-12-18T15:30:10.637Z</time>
      </trkpt>
      <trkpt lat="43.44345" lon="5.26077">
        <ele>196.735484462</ele>
        <time>2010-12-18T15:30:11.642Z</time>
      </trkpt>
      <trkpt lat="43.44341" lon="5.26082">
        <ele>196.470968431</ele>
        <time>2010-12-18T15:30:12.647Z</time>
      </trkpt>
      <trkpt lat="43.44329" lon="5.26091">
        <ele>195.586667379</ele>
        <time>2010-12-18T15:30:15.705Z</time>
      </trkpt>
      <trkpt lat="43.44326" lon="5.26093">
        <ele>195.346666972</ele>
        <time>2010-12-18T15:30:16.701Z</time>
      </trkpt>
      <trkpt lat="43.44322" lon="5.26094">
        <ele>195.116667175</ele>
        <time>2010-12-18T15:30:17.703Z</time>
      </trkpt>
      <trkpt lat="43.44318" lon="5.26096">
        <ele>194.896666972</ele>
        <time>2010-12-18T15:30:18.703Z</time>
      </trkpt>
      <trkpt lat="43.44314" lon="5.26098">
        <ele>194.693333435</ele>
        <time>2010-12-18T15:30:19.702Z</time>
      </trkpt>
      <trkpt lat="43.4431" lon="5.26101">
        <ele>194.510000102</ele>
        <time>2010-12-18T15:30:20.710Z</time>
      </trkpt>
      <trkpt lat="43.44307" lon="5.26104">
        <ele>194.477419453</ele>
        <time>2010-12-18T15:30:21.705Z</time>
      </trkpt>
      <trkpt lat="43.44297" lon="5.26113">
        <ele>193.923332723</ele>
        <time>2010-12-18T15:30:24.829Z</time>
      </trkpt>
      <trkpt lat="43.44295" lon="5.26117">
        <ele>193.77666626</ele>
        <time>2010-12-18T15:30:25.710Z</time>
      </trkpt>
      <trkpt lat="43.44288" lon="5.26126">
        <ele>193.473332723</ele>
        <time>2010-12-18T15:30:27.711Z</time>
      </trkpt>
      <trkpt lat="43.44281" lon="5.26135">
        <ele>193.203332011</ele>
        <time>2010-12-18T15:30:29.715Z</time>
      </trkpt>
      <trkpt lat="43.44272" lon="5.26147">
        <ele>192.983332825</ele>
        <time>2010-12-18T15:30:32.724Z</time>
      </trkpt>
      <trkpt lat="43.44262" lon="5.2616">
        <ele>192.886665853</ele>
        <time>2010-12-18T15:30:35.705Z</time>
      </trkpt>
      <trkpt lat="43.44258" lon="5.26162">
        <ele>192.869999186</ele>
        <time>2010-12-18T15:30:36.704Z</time>
      </trkpt>
      <trkpt lat="43.44254" lon="5.26164">
        <ele>192.859999084</ele>
        <time>2010-12-18T15:30:37.710Z</time>
      </trkpt>
      <trkpt lat="43.44247" lon="5.26169">
        <ele>192.893332418</ele>
        <time>2010-12-18T15:30:39.693Z</time>
      </trkpt>
      <trkpt lat="43.44243" lon="5.26171">
        <ele>192.926665751</ele>
        <time>2010-12-18T15:30:40.709Z</time>
      </trkpt>
      <trkpt lat="43.44237" lon="5.26178">
        <ele>193.023332723</ele>
        <time>2010-12-18T15:30:42.701Z</time>
      </trkpt>
      <trkpt lat="43.44227" lon="5.26189">
        <ele>193.15333252</ele>
        <time>2010-12-18T15:30:45.712Z</time>
      </trkpt>
      <trkpt lat="43.44213" lon="5.26206">
        <ele>193.287096085</ele>
        <time>2010-12-18T15:30:49.699Z</time>
      </trkpt>
      <trkpt lat="43.44202" lon="5.26218">
        <ele>193.296666463</ele>
        <time>2010-12-18T15:30:52.721Z</time>
      </trkpt>
      <trkpt lat="43.44189" lon="5.26234">
        <ele>193.274194041</ele>
        <time>2010-12-18T15:30:56.710Z</time>
      </trkpt>
      <trkpt lat="43.44185" lon="5.26238">
        <ele>193.264516523</ele>
        <time>2010-12-18T15:30:57.711Z</time>
      </trkpt>
      <trkpt lat="43.44177" lon="5.26244">
        <ele>193.293549076</ele>
        <time>2010-12-18T15:30:59.677Z</time>
      </trkpt>
      <trkpt lat="43.44165" lon="5.26255">
        <ele>193.283871558</ele>
        <time>2010-12-18T15:31:02.708Z</time>
      </trkpt>
      <trkpt lat="43.44158" lon="5.26263">
        <ele>193.28709707</ele>
        <time>2010-12-18T15:31:04.706Z</time>
      </trkpt>
      <trkpt lat="43.44155" lon="5.26268">
        <ele>193.309678108</ele>
        <time>2010-12-18T15:31:05.705Z</time>
      </trkpt>
      <trkpt lat="43.44152" lon="5.26272">
        <ele>193.332259147</ele>
        <time>2010-12-18T15:31:06.699Z</time>
      </trkpt>
      <trkpt lat="43.4414" lon="5.26286">
        <ele>193.353334554</ele>
        <time>2010-12-18T15:31:09.709Z</time>
      </trkpt>
      <trkpt lat="43.44124" lon="5.26304">
        <ele>193.193549372</ele>
        <time>2010-12-18T15:31:13.694Z</time>
      </trkpt>
      <trkpt lat="43.44113" lon="5.26318">
        <ele>193.035485052</ele>
        <time>2010-12-18T15:31:16.705Z</time>
      </trkpt>
      <trkpt lat="43.44098" lon="5.26339">
        <ele>192.758065993</ele>
        <time>2010-12-18T15:31:20.702Z</time>
      </trkpt>
      <trkpt lat="43.44094" lon="5.26345">
        <ele>192.674194828</ele>
        <time>2010-12-18T15:31:21.702Z</time>
      </trkpt>
      <trkpt lat="43.44084" lon="5.26363">
        <ele>192.356667074</ele>
        <time>2010-12-18T15:31:24.726Z</time>
      </trkpt>
      <trkpt lat="43.4407" lon="5.26387">
        <ele>192.006451514</ele>
        <time>2010-12-18T15:31:28.704Z</time>
      </trkpt>
      <trkpt lat="43.44061" lon="5.26398">
        <ele>191.793548584</ele>
        <time>2010-12-18T15:31:30.705Z</time>
      </trkpt>
      <trkpt lat="43.44056" lon="5.26403">
        <ele>191.62333374</ele>
        <time>2010-12-18T15:31:31.704Z</time>
      </trkpt>
      <trkpt lat="43.44037" lon="5.26421">
        <ele>191.154838808</ele>
        <time>2010-12-18T15:31:35.698Z</time>
      </trkpt>
      <trkpt lat="43.44022" lon="5.26437">
        <ele>190.586665853</ele>
        <time>2010-12-18T15:31:38.704Z</time>
      </trkpt>
      <trkpt lat="43.44007" lon="5.26452">
        <ele>190.180644374</ele>
        <time>2010-12-18T15:31:41.694Z</time>
      </trkpt>
      <trkpt lat="43.43993" lon="5.26469">
        <ele>189.636665344</ele>
        <time>2010-12-18T15:31:44.706Z</time>
      </trkpt>
      <trkpt lat="43.43978" lon="5.26484">
        <ele>189.209675943</ele>
        <time>2010-12-18T15:31:47.709Z</time>
      </trkpt>
      <trkpt lat="43.43962" lon="5.26497">
        <ele>188.623331706</ele>
        <time>2010-12-18T15:31:50.705Z</time>
      </trkpt>
      <trkpt lat="43.43945" lon="5.26505">
        <ele>188.222579464</ele>
        <time>2010-12-18T15:31:53.706Z</time>
      </trkpt>
      <trkpt lat="43.43928" lon="5.26514">
        <ele>187.686666361</ele>
        <time>2010-12-18T15:31:56.719Z</time>
      </trkpt>
      <trkpt lat="43.43905" lon="5.26526">
        <ele>187.164516326</ele>
        <time>2010-12-18T15:32:00.693Z</time>
      </trkpt>
      <trkpt lat="43.43888" lon="5.26536">
        <ele>186.674193844</ele>
        <time>2010-12-18T15:32:03.695Z</time>
      </trkpt>
      <trkpt lat="43.43872" lon="5.26547">
        <ele>186.170968333</ele>
        <time>2010-12-18T15:32:06.704Z</time>
      </trkpt>
      <trkpt lat="43.43854" lon="5.2656">
        <ele>185.506452007</ele>
        <time>2010-12-18T15:32:10.695Z</time>
      </trkpt>
      <trkpt lat="43.43848" lon="5.26564">
        <ele>185.36451672</ele>
        <time>2010-12-18T15:32:11.693Z</time>
      </trkpt>
      <trkpt lat="43.43834" lon="5.26574">
        <ele>185.016130017</ele>
        <time>2010-12-18T15:32:14.695Z</time>
      </trkpt>
      <trkpt lat="43.4383" lon="5.26578">
        <ele>184.912904309</ele>
        <time>2010-12-18T15:32:15.696Z</time>
      </trkpt>
      <trkpt lat="43.43815" lon="5.26588">
        <ele>184.609678207</ele>
        <time>2010-12-18T15:32:18.699Z</time>
      </trkpt>
      <trkpt lat="43.4381" lon="5.26591">
        <ele>184.50967801</ele>
        <time>2010-12-18T15:32:19.705Z</time>
      </trkpt>
      <trkpt lat="43.43795" lon="5.26599">
        <ele>184.180645358</ele>
        <time>2010-12-18T15:32:22.698Z</time>
      </trkpt>
      <trkpt lat="43.43779" lon="5.26608">
        <ele>183.883870771</ele>
        <time>2010-12-18T15:32:25.694Z</time>
      </trkpt>
      <trkpt lat="43.43764" lon="5.26616">
        <ele>183.55333252</ele>
        <time>2010-12-18T15:32:28.696Z</time>
      </trkpt>
      <trkpt lat="43.43754" lon="5.26621">
        <ele>183.379998779</ele>
        <time>2010-12-18T15:32:30.697Z</time>
      </trkpt>
      <trkpt lat="43.43749" lon="5.26624">
        <ele>183.299998474</ele>
        <time>2010-12-18T15:32:31.705Z</time>
      </trkpt>
      <trkpt lat="43.43744" lon="5.26628">
        <ele>183.258063039</ele>
        <time>2010-12-18T15:32:32.694Z</time>
      </trkpt>
      <trkpt lat="43.43725" lon="5.2664">
        <ele>182.961288452</ele>
        <time>2010-12-18T15:32:36.694Z</time>
      </trkpt>
      <trkpt lat="43.43712" lon="5.26652">
        <ele>182.793331401</ele>
        <time>2010-12-18T15:32:39.699Z</time>
      </trkpt>
      <trkpt lat="43.43695" lon="5.2667">
        <ele>182.532256588</ele>
        <time>2010-12-18T15:32:43.694Z</time>
      </trkpt>
      <trkpt lat="43.43681" lon="5.26681">
        <ele>182.169998169</ele>
        <time>2010-12-18T15:32:46.698Z</time>
      </trkpt>
      <trkpt lat="43.4367" lon="5.26687">
        <ele>182.038708102</ele>
        <time>2010-12-18T15:32:48.698Z</time>
      </trkpt>
      <trkpt lat="43.43665" lon="5.26689">
        <ele>181.961288944</ele>
        <time>2010-12-18T15:32:49.691Z</time>
      </trkpt>
      <trkpt lat="43.43661" lon="5.2669">
        <ele>181.877418272</ele>
        <time>2010-12-18T15:32:50.689Z</time>
      </trkpt>
      <trkpt lat="43.43647" lon="5.26692">
        <ele>181.629031766</ele>
        <time>2010-12-18T15:32:53.699Z</time>
      </trkpt>
      <trkpt lat="43.43634" lon="5.26694">
        <ele>181.353333028</ele>
        <time>2010-12-18T15:32:56.706Z</time>
      </trkpt>
      <trkpt lat="43.43625" lon="5.26695">
        <ele>181.219354445</ele>
        <time>2010-12-18T15:32:58.694Z</time>
      </trkpt>
      <trkpt lat="43.43615" lon="5.26697">
        <ele>181.048387097</ele>
        <time>2010-12-18T15:33:00.691Z</time>
      </trkpt>
      <trkpt lat="43.43611" lon="5.26699">
        <ele>180.961290421</ele>
        <time>2010-12-18T15:33:01.697Z</time>
      </trkpt>
      <trkpt lat="43.43597" lon="5.26704">
        <ele>180.764516523</ele>
        <time>2010-12-18T15:33:04.693Z</time>
      </trkpt>
      <trkpt lat="43.43592" lon="5.26706">
        <ele>180.666667175</ele>
        <time>2010-12-18T15:33:05.695Z</time>
      </trkpt>
      <trkpt lat="43.43579" lon="5.26711">
        <ele>180.525807042</ele>
        <time>2010-12-18T15:33:08.703Z</time>
      </trkpt>
      <trkpt lat="43.43565" lon="5.26715">
        <ele>180.350000509</ele>
        <time>2010-12-18T15:33:11.706Z</time>
      </trkpt>
      <trkpt lat="43.43547" lon="5.2672">
        <ele>180.21333313</ele>
        <time>2010-12-18T15:33:15.693Z</time>
      </trkpt>
      <trkpt lat="43.43532" lon="5.26725">
        <ele>180.046666463</ele>
        <time>2010-12-18T15:33:18.723Z</time>
      </trkpt>
      <trkpt lat="43.43529" lon="5.26726">
        <ele>179.979999797</ele>
        <time>2010-12-18T15:33:19.696Z</time>
      </trkpt>
      <trkpt lat="43.43525" lon="5.26728">
        <ele>179.919999695</ele>
        <time>2010-12-18T15:33:20.695Z</time>
      </trkpt>
      <trkpt lat="43.43517" lon="5.26732">
        <ele>179.816666158</ele>
        <time>2010-12-18T15:33:22.694Z</time>
      </trkpt>
      <trkpt lat="43.43503" lon="5.2674">
        <ele>179.656666056</ele>
        <time>2010-12-18T15:33:25.692Z</time>
      </trkpt>
      <trkpt lat="43.43493" lon="5.26744">
        <ele>179.577419158</ele>
        <time>2010-12-18T15:33:27.676Z</time>
      </trkpt>
      <trkpt lat="43.43482" lon="5.26746">
        <ele>179.467741935</ele>
        <time>2010-12-18T15:33:29.688Z</time>
      </trkpt>
      <trkpt lat="43.43459" lon="5.26748">
        <ele>179.203225413</ele>
        <time>2010-12-18T15:33:33.679Z</time>
      </trkpt>
      <trkpt lat="43.4345" lon="5.26748">
        <ele>179.051612608</ele>
        <time>2010-12-18T15:33:35.693Z</time>
      </trkpt>
      <trkpt lat="43.43445" lon="5.26748">
        <ele>178.977418961</ele>
        <time>2010-12-18T15:33:36.678Z</time>
      </trkpt>
      <trkpt lat="43.43439" lon="5.26749">
        <ele>178.8967738</ele>
        <time>2010-12-18T15:33:37.692Z</time>
      </trkpt>
      <trkpt lat="43.43434" lon="5.26751">
        <ele>178.80322561</ele>
        <time>2010-12-18T15:33:38.678Z</time>
      </trkpt>
      <trkpt lat="43.43428" lon="5.26754">
        <ele>178.690322384</ele>
        <time>2010-12-18T15:33:39.698Z</time>
      </trkpt>
      <trkpt lat="43.43419" lon="5.26758">
        <ele>178.451612903</ele>
        <time>2010-12-18T15:33:41.697Z</time>
      </trkpt>
      <trkpt lat="43.43413" lon="5.26762">
        <ele>178.309677616</ele>
        <time>2010-12-18T15:33:42.693Z</time>
      </trkpt>
      <trkpt lat="43.434" lon="5.26771">
        <ele>177.840000407</ele>
        <time>2010-12-18T15:33:45.698Z</time>
      </trkpt>
      <trkpt lat="43.43395" lon="5.26775">
        <ele>177.690000407</ele>
        <time>2010-12-18T15:33:46.694Z</time>
      </trkpt>
      <trkpt lat="43.4339" lon="5.26779">
        <ele>177.536667379</ele>
        <time>2010-12-18T15:33:47.691Z</time>
      </trkpt>
      <trkpt lat="43.43373" lon="5.26788">
        <ele>177.125806747</ele>
        <time>2010-12-18T15:33:50.693Z</time>
      </trkpt>
      <trkpt lat="43.43368" lon="5.26791">
        <ele>176.964516424</ele>
        <time>2010-12-18T15:33:51.696Z</time>
      </trkpt>
      <trkpt lat="43.43353" lon="5.26799">
        <ele>176.493548978</ele>
        <time>2010-12-18T15:33:54.697Z</time>
      </trkpt>
      <trkpt lat="43.43344" lon="5.26805">
        <ele>176.093333944</ele>
        <time>2010-12-18T15:33:56.695Z</time>
      </trkpt>
      <trkpt lat="43.4334" lon="5.26809">
        <ele>175.930000305</ele>
        <time>2010-12-18T15:33:57.692Z</time>
      </trkpt>
      <trkpt lat="43.43327" lon="5.26823">
        <ele>175.483333842</ele>
        <time>2010-12-18T15:34:00.697Z</time>
      </trkpt>
      <trkpt lat="43.43323" lon="5.26828">
        <ele>175.350000509</ele>
        <time>2010-12-18T15:34:01.707Z</time>
      </trkpt>
      <trkpt lat="43.43308" lon="5.26847">
        <ele>174.951613395</ele>
        <time>2010-12-18T15:34:05.687Z</time>
      </trkpt>
      <trkpt lat="43.43304" lon="5.26851">
        <ele>174.730000305</ele>
        <time>2010-12-18T15:34:06.694Z</time>
      </trkpt>
      <trkpt lat="43.43297" lon="5.26859">
        <ele>174.483333333</ele>
        <time>2010-12-18T15:34:08.695Z</time>
      </trkpt>
      <trkpt lat="43.4329" lon="5.26867">
        <ele>174.273333232</ele>
        <time>2010-12-18T15:34:10.702Z</time>
      </trkpt>
      <trkpt lat="43.43287" lon="5.26872">
        <ele>174.232257966</ele>
        <time>2010-12-18T15:34:11.697Z</time>
      </trkpt>
      <trkpt lat="43.43283" lon="5.26882">
        <ele>173.956666056</ele>
        <time>2010-12-18T15:34:13.710Z</time>
      </trkpt>
      <trkpt lat="43.43272" lon="5.26902">
        <ele>173.593332926</ele>
        <time>2010-12-18T15:34:17.707Z</time>
      </trkpt>
      <trkpt lat="43.4327" lon="5.26908">
        <ele>173.52666626</ele>
        <time>2010-12-18T15:34:18.709Z</time>
      </trkpt>
      <trkpt lat="43.43269" lon="5.26915">
        <ele>173.449999491</ele>
        <time>2010-12-18T15:34:19.703Z</time>
      </trkpt>
      <trkpt lat="43.43268" lon="5.26922">
        <ele>173.406666056</ele>
        <time>2010-12-18T15:34:20.703Z</time>
      </trkpt>
      <trkpt lat="43.43267" lon="5.26929">
        <ele>173.359999593</ele>
        <time>2010-12-18T15:34:21.706Z</time>
      </trkpt>
      <trkpt lat="43.43265" lon="5.26952">
        <ele>173.18999939</ele>
        <time>2010-12-18T15:34:24.716Z</time>
      </trkpt>
      <trkpt lat="43.43265" lon="5.2696">
        <ele>173.123332723</ele>
        <time>2010-12-18T15:34:25.700Z</time>
      </trkpt>
      <trkpt lat="43.43266" lon="5.26975">
        <ele>172.959999084</ele>
        <time>2010-12-18T15:34:27.697Z</time>
      </trkpt>
      <trkpt lat="43.43268" lon="5.26983">
        <ele>172.883332316</ele>
        <time>2010-12-18T15:34:28.695Z</time>
      </trkpt>
      <trkpt lat="43.4327" lon="5.26997">
        <ele>172.793547107</ele>
        <time>2010-12-18T15:34:30.694Z</time>
      </trkpt>
      <trkpt lat="43.43273" lon="5.27012">
        <ele>172.656665548</ele>
        <time>2010-12-18T15:34:32.709Z</time>
      </trkpt>
      <trkpt lat="43.43274" lon="5.27019">
        <ele>172.603332011</ele>
        <time>2010-12-18T15:34:33.711Z</time>
      </trkpt>
      <trkpt lat="43.43278" lon="5.27033">
        <ele>172.459998576</ele>
        <time>2010-12-18T15:34:35.698Z</time>
      </trkpt>
      <trkpt lat="43.43283" lon="5.27047">
        <ele>172.336665853</ele>
        <time>2010-12-18T15:34:37.699Z</time>
      </trkpt>
      <trkpt lat="43.43291" lon="5.27069">
        <ele>172.216128934</ele>
        <time>2010-12-18T15:34:40.698Z</time>
      </trkpt>
      <trkpt lat="43.43292" lon="5.27077">
        <ele>172.164515834</ele>
        <time>2010-12-18T15:34:41.696Z</time>
      </trkpt>
      <trkpt lat="43.43293" lon="5.27084">
        <ele>172.103225708</ele>
        <time>2010-12-18T15:34:42.695Z</time>
      </trkpt>
      <trkpt lat="43.43294" lon="5.27101">
        <ele>171.976667277</ele>
        <time>2010-12-18T15:34:44.693Z</time>
      </trkpt>
      <trkpt lat="43.43294" lon="5.27124">
        <ele>171.848387687</ele>
        <time>2010-12-18T15:34:47.697Z</time>
      </trkpt>
      <trkpt lat="43.43292" lon="5.27131">
        <ele>171.796774587</ele>
        <time>2010-12-18T15:34:48.696Z</time>
      </trkpt>
      <trkpt lat="43.4329" lon="5.27138">
        <ele>171.735483969</ele>
        <time>2010-12-18T15:34:49.699Z</time>
      </trkpt>
      <trkpt lat="43.43285" lon="5.27151">
        <ele>171.616129229</ele>
        <time>2010-12-18T15:34:51.698Z</time>
      </trkpt>
      <trkpt lat="43.43282" lon="5.27165">
        <ele>171.448387392</ele>
        <time>2010-12-18T15:34:53.694Z</time>
      </trkpt>
      <trkpt lat="43.43282" lon="5.27173">
        <ele>171.358064713</ele>
        <time>2010-12-18T15:34:54.710Z</time>
      </trkpt>
      <trkpt lat="43.43281" lon="5.27192">
        <ele>171.093333944</ele>
        <time>2010-12-18T15:34:57.777Z</time>
      </trkpt>
      <trkpt lat="43.43281" lon="5.27215">
        <ele>170.61000061</ele>
        <time>2010-12-18T15:35:01.694Z</time>
      </trkpt>
      <trkpt lat="43.43281" lon="5.27227">
        <ele>170.145162275</ele>
        <time>2010-12-18T15:35:04.695Z</time>
      </trkpt>
      <trkpt lat="43.43281" lon="5.27233">
        <ele>169.754839989</ele>
        <time>2010-12-18T15:35:06.698Z</time>
      </trkpt>
      <trkpt lat="43.43281" lon="5.27237">
        <ele>169.443334452</ele>
        <time>2010-12-18T15:35:07.700Z</time>
      </trkpt>
      <trkpt lat="43.4328" lon="5.27246">
        <ele>168.993548978</ele>
        <time>2010-12-18T15:35:09.696Z</time>
      </trkpt>
      <trkpt lat="43.43278" lon="5.27254">
        <ele>168.374193745</ele>
        <time>2010-12-18T15:35:11.690Z</time>
      </trkpt>
      <trkpt lat="43.43277" lon="5.27258">
        <ele>167.920000203</ele>
        <time>2010-12-18T15:35:12.771Z</time>
      </trkpt>
      <trkpt lat="43.43276" lon="5.27266">
        <ele>167.163333639</ele>
        <time>2010-12-18T15:35:14.701Z</time>
      </trkpt>
      <trkpt lat="43.43273" lon="5.27276">
        <ele>165.923333232</ele>
        <time>2010-12-18T15:35:17.703Z</time>
      </trkpt>
      <trkpt lat="43.43268" lon="5.27282">
        <ele>165.238709481</ele>
        <time>2010-12-18T15:35:19.683Z</time>
      </trkpt>
      <trkpt lat="43.43266" lon="5.27285">
        <ele>164.777419552</ele>
        <time>2010-12-18T15:35:20.686Z</time>
      </trkpt>
      <trkpt lat="43.43265" lon="5.27288">
        <ele>164.261290519</ele>
        <time>2010-12-18T15:35:21.687Z</time>
      </trkpt>
      <trkpt lat="43.43263" lon="5.27288">
        <ele>163.761290519</ele>
        <time>2010-12-18T15:35:22.666Z</time>
      </trkpt>
      <trkpt lat="43.43259" lon="5.27292">
        <ele>162.729032455</ele>
        <time>2010-12-18T15:35:24.695Z</time>
      </trkpt>
      <trkpt lat="43.43255" lon="5.27294">
        <ele>162.174193844</ele>
        <time>2010-12-18T15:35:25.686Z</time>
      </trkpt>
      <trkpt lat="43.43251" lon="5.27295">
        <ele>161.330000305</ele>
        <time>2010-12-18T15:35:26.764Z</time>
      </trkpt>
      <trkpt lat="43.43247" lon="5.27294">
        <ele>160.95806491</ele>
        <time>2010-12-18T15:35:27.686Z</time>
      </trkpt>
      <trkpt lat="43.43239" lon="5.27295">
        <ele>159.389999898</ele>
        <time>2010-12-18T15:35:29.705Z</time>
      </trkpt>
      <trkpt lat="43.43224" lon="5.27296">
        <ele>157.14516129</ele>
        <time>2010-12-18T15:35:33.682Z</time>
      </trkpt>
      <trkpt lat="43.43213" lon="5.27296">
        <ele>155.525806058</ele>
        <time>2010-12-18T15:35:36.664Z</time>
      </trkpt>
      <trkpt lat="43.43209" lon="5.27297">
        <ele>154.696665955</ele>
        <time>2010-12-18T15:35:37.711Z</time>
      </trkpt>
      <trkpt lat="43.43203" lon="5.27297">
        <ele>154.259999593</ele>
        <time>2010-12-18T15:35:38.699Z</time>
      </trkpt>
      <trkpt lat="43.43197" lon="5.27296">
        <ele>153.889999898</ele>
        <time>2010-12-18T15:35:39.697Z</time>
      </trkpt>
      <trkpt lat="43.43187" lon="5.27297">
        <ele>153.754838513</ele>
        <time>2010-12-18T15:35:40.699Z</time>
      </trkpt>
      <trkpt lat="43.43182" lon="5.27293">
        <ele>153.020000203</ele>
        <time>2010-12-18T15:35:41.700Z</time>
      </trkpt>
      <trkpt lat="43.43176" lon="5.2729">
        <ele>152.845161684</ele>
        <time>2010-12-18T15:35:42.681Z</time>
      </trkpt>
      <trkpt lat="43.43167" lon="5.27283">
        <ele>151.996773997</ele>
        <time>2010-12-18T15:35:44.680Z</time>
      </trkpt>
      <trkpt lat="43.43158" lon="5.27272">
        <ele>150.913332621</ele>
        <time>2010-12-18T15:35:46.697Z</time>
      </trkpt>
      <trkpt lat="43.43149" lon="5.27266">
        <ele>150.616128245</ele>
        <time>2010-12-18T15:35:47.695Z</time>
      </trkpt>
      <trkpt lat="43.43144" lon="5.2726">
        <ele>149.73999939</ele>
        <time>2010-12-18T15:35:48.695Z</time>
      </trkpt>
      <trkpt lat="43.43134" lon="5.27246">
        <ele>148.463332113</ele>
        <time>2010-12-18T15:35:50.688Z</time>
      </trkpt>
      <trkpt lat="43.43127" lon="5.27231">
        <ele>147.223332723</ele>
        <time>2010-12-18T15:35:52.678Z</time>
      </trkpt>
      <trkpt lat="43.43122" lon="5.27218">
        <ele>146.046665955</ele>
        <time>2010-12-18T15:35:54.731Z</time>
      </trkpt>
      <trkpt lat="43.43118" lon="5.27214">
        <ele>145.55333252</ele>
        <time>2010-12-18T15:35:55.733Z</time>
      </trkpt>
      <trkpt lat="43.43114" lon="5.2721">
        <ele>145.303225117</ele>
        <time>2010-12-18T15:35:56.706Z</time>
      </trkpt>
      <trkpt lat="43.43102" lon="5.27196">
        <ele>144.132257277</ele>
        <time>2010-12-18T15:35:59.682Z</time>
      </trkpt>
      <trkpt lat="43.43099" lon="5.27195">
        <ele>143.633332316</ele>
        <time>2010-12-18T15:36:00.703Z</time>
      </trkpt>
      <trkpt lat="43.43097" lon="5.27195">
        <ele>143.33999939</ele>
        <time>2010-12-18T15:36:01.718Z</time>
      </trkpt>
      <trkpt lat="43.43096" lon="5.27195">
        <ele>143.076665751</ele>
        <time>2010-12-18T15:36:02.720Z</time>
      </trkpt>
      <trkpt lat="43.43093" lon="5.272">
        <ele>142.809999084</ele>
        <time>2010-12-18T15:36:03.700Z</time>
      </trkpt>
      <trkpt lat="43.43091" lon="5.27204">
        <ele>142.751612017</ele>
        <time>2010-12-18T15:36:04.690Z</time>
      </trkpt>
      <trkpt lat="43.43089" lon="5.27208">
        <ele>142.46451544</ele>
        <time>2010-12-18T15:36:05.684Z</time>
      </trkpt>
      <trkpt lat="43.43084" lon="5.27215">
        <ele>141.86333313</ele>
        <time>2010-12-18T15:36:06.703Z</time>
      </trkpt>
      <trkpt lat="43.4308" lon="5.27219">
        <ele>141.758064516</ele>
        <time>2010-12-18T15:36:07.696Z</time>
      </trkpt>
      <trkpt lat="43.43076" lon="5.27222">
        <ele>141.370967742</ele>
        <time>2010-12-18T15:36:08.695Z</time>
      </trkpt>
      <trkpt lat="43.43071" lon="5.27221">
        <ele>140.951612903</ele>
        <time>2010-12-18T15:36:09.692Z</time>
      </trkpt>
      <trkpt lat="43.43059" lon="5.27218">
        <ele>139.849999491</ele>
        <time>2010-12-18T15:36:11.706Z</time>
      </trkpt>
      <trkpt lat="43.43048" lon="5.27214">
        <ele>139.159999593</ele>
        <time>2010-12-18T15:36:13.704Z</time>
      </trkpt>
      <trkpt lat="43.43036" lon="5.27209">
        <ele>138.741935484</ele>
        <time>2010-12-18T15:36:15.697Z</time>
      </trkpt>
      <trkpt lat="43.43031" lon="5.27205">
        <ele>138.40645181</ele>
        <time>2010-12-18T15:36:16.678Z</time>
      </trkpt>
      <trkpt lat="43.43025" lon="5.27191">
        <ele>137.880000305</ele>
        <time>2010-12-18T15:36:18.696Z</time>
      </trkpt>
      <trkpt lat="43.43024" lon="5.27185">
        <ele>137.777419552</ele>
        <time>2010-12-18T15:36:19.692Z</time>
      </trkpt>
      <trkpt lat="43.43022" lon="5.27181">
        <ele>137.648387294</ele>
        <time>2010-12-18T15:36:20.680Z</time>
      </trkpt>
      <trkpt lat="43.43017" lon="5.27178">
        <ele>137.553333537</ele>
        <time>2010-12-18T15:36:21.684Z</time>
      </trkpt>
      <trkpt lat="43.43013" lon="5.27175">
        <ele>137.426666768</ele>
        <time>2010-12-18T15:36:22.697Z</time>
      </trkpt>
      <trkpt lat="43.43011" lon="5.27172">
        <ele>137.254839005</ele>
        <time>2010-12-18T15:36:23.682Z</time>
      </trkpt>
      <trkpt lat="43.43006" lon="5.27173">
        <ele>137.132258261</ele>
        <time>2010-12-18T15:36:24.699Z</time>
      </trkpt>
      <trkpt lat="43.43001" lon="5.27175">
        <ele>137.009677518</ele>
        <time>2010-12-18T15:36:25.683Z</time>
      </trkpt>
      <trkpt lat="43.42999" lon="5.2718">
        <ele>136.880000305</ele>
        <time>2010-12-18T15:36:26.711Z</time>
      </trkpt>
      <trkpt lat="43.42997" lon="5.2718">
        <ele>136.832258163</ele>
        <time>2010-12-18T15:36:27.700Z</time>
      </trkpt>
      <trkpt lat="43.42992" lon="5.27189">
        <ele>136.650000509</ele>
        <time>2010-12-18T15:36:29.706Z</time>
      </trkpt>
      <trkpt lat="43.4299" lon="5.27194">
        <ele>136.6032262</ele>
        <time>2010-12-18T15:36:30.695Z</time>
      </trkpt>
      <trkpt lat="43.42988" lon="5.27198">
        <ele>136.509677518</ele>
        <time>2010-12-18T15:36:31.696Z</time>
      </trkpt>
      <trkpt lat="43.42988" lon="5.27202">
        <ele>136.370967742</ele>
        <time>2010-12-18T15:36:32.693Z</time>
      </trkpt>
      <trkpt lat="43.42988" lon="5.27207">
        <ele>136.206451908</ele>
        <time>2010-12-18T15:36:33.690Z</time>
      </trkpt>
      <trkpt lat="43.42986" lon="5.27222">
        <ele>135.587096676</ele>
        <time>2010-12-18T15:36:36.695Z</time>
      </trkpt>
      <trkpt lat="43.42984" lon="5.27226">
        <ele>135.451612903</ele>
        <time>2010-12-18T15:36:37.684Z</time>
      </trkpt>
      <trkpt lat="43.4298" lon="5.27234">
        <ele>135.12666626</ele>
        <time>2010-12-18T15:36:39.694Z</time>
      </trkpt>
      <trkpt lat="43.42976" lon="5.27236">
        <ele>135.09354819</ele>
        <time>2010-12-18T15:36:40.697Z</time>
      </trkpt>
      <trkpt lat="43.42973" lon="5.27238">
        <ele>134.853333537</ele>
        <time>2010-12-18T15:36:41.712Z</time>
      </trkpt>
      <trkpt lat="43.42972" lon="5.27243">
        <ele>134.760000102</ele>
        <time>2010-12-18T15:36:42.710Z</time>
      </trkpt>
      <trkpt lat="43.4297" lon="5.27247">
        <ele>134.683333333</ele>
        <time>2010-12-18T15:36:43.711Z</time>
      </trkpt>
      <trkpt lat="43.42968" lon="5.27251">
        <ele>134.61333313</ele>
        <time>2010-12-18T15:36:44.697Z</time>
      </trkpt>
      <trkpt lat="43.42965" lon="5.27253">
        <ele>134.53999939</ele>
        <time>2010-12-18T15:36:45.703Z</time>
      </trkpt>
      <trkpt lat="43.4296" lon="5.27255">
        <ele>134.413332621</ele>
        <time>2010-12-18T15:36:46.715Z</time>
      </trkpt>
      <trkpt lat="43.42952" lon="5.27255">
        <ele>134.216666158</ele>
        <time>2010-12-18T15:36:47.705Z</time>
      </trkpt>
      <trkpt lat="43.42944" lon="5.27246">
        <ele>133.969999695</ele>
        <time>2010-12-18T15:36:48.697Z</time>
      </trkpt>
      <trkpt lat="43.42938" lon="5.27245">
        <ele>133.709999847</ele>
        <time>2010-12-18T15:36:49.703Z</time>
      </trkpt>
      <trkpt lat="43.42934" lon="5.27243">
        <ele>133.456666819</ele>
        <time>2010-12-18T15:36:50.695Z</time>
      </trkpt>
      <trkpt lat="43.4293" lon="5.2724">
        <ele>133.222580694</ele>
        <time>2010-12-18T15:36:51.681Z</time>
      </trkpt>
      <trkpt lat="43.42924" lon="5.27243">
        <ele>132.796666463</ele>
        <time>2010-12-18T15:36:53.695Z</time>
      </trkpt>
      <trkpt lat="43.42924" lon="5.27245">
        <ele>132.564515883</ele>
        <time>2010-12-18T15:36:54.698Z</time>
      </trkpt>
      <trkpt lat="43.42923" lon="5.27248">
        <ele>132.346666463</ele>
        <time>2010-12-18T15:36:55.691Z</time>
      </trkpt>
      <trkpt lat="43.42922" lon="5.27251">
        <ele>132.148386801</ele>
        <time>2010-12-18T15:36:56.696Z</time>
      </trkpt>
      <trkpt lat="43.42924" lon="5.27254">
        <ele>131.874193253</ele>
        <time>2010-12-18T15:36:57.700Z</time>
      </trkpt>
      <trkpt lat="43.42925" lon="5.27256">
        <ele>131.409999593</ele>
        <time>2010-12-18T15:36:58.695Z</time>
      </trkpt>
      <trkpt lat="43.42927" lon="5.2726">
        <ele>131.241934992</ele>
        <time>2010-12-18T15:36:59.694Z</time>
      </trkpt>
      <trkpt lat="43.42928" lon="5.27264">
        <ele>130.806666056</ele>
        <time>2010-12-18T15:37:00.701Z</time>
      </trkpt>
      <trkpt lat="43.42931" lon="5.27267">
        <ele>130.446666209</ele>
        <time>2010-12-18T15:37:01.723Z</time>
      </trkpt>
      <trkpt lat="43.42934" lon="5.27269">
        <ele>130.053332774</ele>
        <time>2010-12-18T15:37:02.698Z</time>
      </trkpt>
      <trkpt lat="43.42937" lon="5.27271">
        <ele>129.649999237</ele>
        <time>2010-12-18T15:37:03.694Z</time>
      </trkpt>
      <trkpt lat="43.4294" lon="5.27274">
        <ele>129.229999288</ele>
        <time>2010-12-18T15:37:04.696Z</time>
      </trkpt>
      <trkpt lat="43.42942" lon="5.27278">
        <ele>128.799999491</ele>
        <time>2010-12-18T15:37:05.705Z</time>
      </trkpt>
      <trkpt lat="43.42944" lon="5.27282">
        <ele>128.558064122</ele>
        <time>2010-12-18T15:37:06.684Z</time>
      </trkpt>
      <trkpt lat="43.42944" lon="5.27289">
        <ele>127.836666107</ele>
        <time>2010-12-18T15:37:07.701Z</time>
      </trkpt>
      <trkpt lat="43.42943" lon="5.27294">
        <ele>127.303332774</ele>
        <time>2010-12-18T15:37:08.701Z</time>
      </trkpt>
      <trkpt lat="43.42942" lon="5.27299">
        <ele>126.786666107</ele>
        <time>2010-12-18T15:37:09.703Z</time>
      </trkpt>
      <trkpt lat="43.4294" lon="5.27304">
        <ele>126.545160847</ele>
        <time>2010-12-18T15:37:10.693Z</time>
      </trkpt>
      <trkpt lat="43.42937" lon="5.27309">
        <ele>126.041934844</ele>
        <time>2010-12-18T15:37:11.685Z</time>
      </trkpt>
      <trkpt lat="43.42933" lon="5.27314">
        <ele>125.474192712</ele>
        <time>2010-12-18T15:37:12.686Z</time>
      </trkpt>
      <trkpt lat="43.42919" lon="5.27337">
        <ele>122.983870476</ele>
        <time>2010-12-18T15:37:16.678Z</time>
      </trkpt>
      <trkpt lat="43.42912" lon="5.27348">
        <ele>121.899999311</ele>
        <time>2010-12-18T15:37:18.659Z</time>
      </trkpt>
      <trkpt lat="43.42913" lon="5.27348">
        <ele>120.74814747</ele>
        <time>2010-12-18T15:37:23.679Z</time>
      </trkpt>
      <trkpt lat="43.42917" lon="5.27353">
        <ele>120.348147357</ele>
        <time>2010-12-18T15:37:24.673Z</time>
      </trkpt>
      <trkpt lat="43.42918" lon="5.27353">
        <ele>119.959258468</ele>
        <time>2010-12-18T15:37:25.679Z</time>
      </trkpt>
      <trkpt lat="43.42917" lon="5.27354">
        <ele>119.559258355</ele>
        <time>2010-12-18T15:37:26.677Z</time>
      </trkpt>
      <trkpt lat="43.42912" lon="5.27358">
        <ele>118.740739893</ele>
        <time>2010-12-18T15:37:28.675Z</time>
      </trkpt>
      <trkpt lat="43.42912" lon="5.27359">
        <ele>117.137036359</ele>
        <time>2010-12-18T15:37:32.666Z</time>
      </trkpt>
      <trkpt lat="43.42913" lon="5.2736">
        <ele>116.262962341</ele>
        <time>2010-12-18T15:37:35.676Z</time>
      </trkpt>
      <trkpt lat="43.42914" lon="5.27362">
        <ele>116.022221601</ele>
        <time>2010-12-18T15:37:36.680Z</time>
      </trkpt>
      <trkpt lat="43.42915" lon="5.27364">
        <ele>115.788888154</ele>
        <time>2010-12-18T15:37:37.682Z</time>
      </trkpt>
      <trkpt lat="43.42914" lon="5.27364">
        <ele>115.622221488</ele>
        <time>2010-12-18T15:37:38.678Z</time>
      </trkpt>
      <trkpt lat="43.42914" lon="5.27366">
        <ele>115.462962398</ele>
        <time>2010-12-18T15:37:39.675Z</time>
      </trkpt>
      <trkpt lat="43.42915" lon="5.27369">
        <ele>115.140740289</ele>
        <time>2010-12-18T15:37:41.673Z</time>
      </trkpt>
      <trkpt lat="43.42914" lon="5.27368">
        <ele>115.007407012</ele>
        <time>2010-12-18T15:37:42.681Z</time>
      </trkpt>
      <trkpt lat="43.42913" lon="5.27367">
        <ele>114.966666328</ele>
        <time>2010-12-18T15:37:43.633Z</time>
      </trkpt>
      <trkpt lat="43.42912" lon="5.27371">
        <ele>114.99259214</ele>
        <time>2010-12-18T15:37:44.635Z</time>
      </trkpt>
      <trkpt lat="43.42909" lon="5.27362">
        <ele>115.053845626</ele>
        <time>2010-12-18T15:37:45.678Z</time>
      </trkpt>
      <trkpt lat="43.42904" lon="5.27367">
        <ele>115.359259146</ele>
        <time>2010-12-18T15:37:48.637Z</time>
      </trkpt>
      <trkpt lat="43.42902" lon="5.27368">
        <ele>115.53333339</ele>
        <time>2010-12-18T15:37:49.638Z</time>
      </trkpt>
      <trkpt lat="43.429" lon="5.27369">
        <ele>115.696428571</ele>
        <time>2010-12-18T15:37:50.637Z</time>
      </trkpt>
      <trkpt lat="43.42899" lon="5.27371">
        <ele>115.82068976</ele>
        <time>2010-12-18T15:37:51.646Z</time>
      </trkpt>
      <trkpt lat="43.42894" lon="5.27375">
        <ele>116.106666565</ele>
        <time>2010-12-18T15:37:53.690Z</time>
      </trkpt>
      <trkpt lat="43.42892" lon="5.27378">
        <ele>116.216666667</ele>
        <time>2010-12-18T15:37:54.699Z</time>
      </trkpt>
      <trkpt lat="43.4289" lon="5.27381">
        <ele>116.25</ele>
        <time>2010-12-18T15:37:55.691Z</time>
      </trkpt>
      <trkpt lat="43.42885" lon="5.27386">
        <ele>116.296666718</ele>
        <time>2010-12-18T15:37:57.691Z</time>
      </trkpt>
      <trkpt lat="43.42882" lon="5.27387">
        <ele>116.35</ele>
        <time>2010-12-18T15:37:58.694Z</time>
      </trkpt>
      <trkpt lat="43.42876" lon="5.27389">
        <ele>116.40645181</ele>
        <time>2010-12-18T15:38:00.678Z</time>
      </trkpt>
      <trkpt lat="43.42867" lon="5.27392">
        <ele>116.574193893</ele>
        <time>2010-12-18T15:38:03.676Z</time>
      </trkpt>
      <trkpt lat="43.4286" lon="5.27396">
        <ele>116.756667074</ele>
        <time>2010-12-18T15:38:05.693Z</time>
      </trkpt>
      <trkpt lat="43.42853" lon="5.274">
        <ele>116.890000407</ele>
        <time>2010-12-18T15:38:07.694Z</time>
      </trkpt>
      <trkpt lat="43.42849" lon="5.27402">
        <ele>116.97333374</ele>
        <time>2010-12-18T15:38:08.697Z</time>
      </trkpt>
      <trkpt lat="43.42844" lon="5.27409">
        <ele>117.160000102</ele>
        <time>2010-12-18T15:38:10.699Z</time>
      </trkpt>
      <trkpt lat="43.42838" lon="5.27416">
        <ele>117.356666565</ele>
        <time>2010-12-18T15:38:12.697Z</time>
      </trkpt>
      <trkpt lat="43.42836" lon="5.27422">
        <ele>117.463333384</ele>
        <time>2010-12-18T15:38:13.698Z</time>
      </trkpt>
      <trkpt lat="43.42836" lon="5.27427">
        <ele>117.580000051</ele>
        <time>2010-12-18T15:38:14.698Z</time>
      </trkpt>
      <trkpt lat="43.42832" lon="5.27445">
        <ele>117.843333435</ele>
        <time>2010-12-18T15:38:17.704Z</time>
      </trkpt>
      <trkpt lat="43.42829" lon="5.27456">
        <ele>117.963333639</ele>
        <time>2010-12-18T15:38:19.702Z</time>
      </trkpt>
      <trkpt lat="43.42826" lon="5.27467">
        <ele>118.100000254</ele>
        <time>2010-12-18T15:38:21.699Z</time>
      </trkpt>
      <trkpt lat="43.42823" lon="5.27478">
        <ele>118.276667023</ele>
        <time>2010-12-18T15:38:23.693Z</time>
      </trkpt>
      <trkpt lat="43.42821" lon="5.27483">
        <ele>118.406666819</ele>
        <time>2010-12-18T15:38:24.706Z</time>
      </trkpt>
      <trkpt lat="43.42819" lon="5.27488">
        <ele>118.603333537</ele>
        <time>2010-12-18T15:38:25.695Z</time>
      </trkpt>
      <trkpt lat="43.42817" lon="5.27493">
        <ele>118.813333639</ele>
        <time>2010-12-18T15:38:26.697Z</time>
      </trkpt>
      <trkpt lat="43.42815" lon="5.27499">
        <ele>119.020000203</ele>
        <time>2010-12-18T15:38:27.703Z</time>
      </trkpt>
      <trkpt lat="43.42811" lon="5.27516">
        <ele>119.563333639</ele>
        <time>2010-12-18T15:38:30.704Z</time>
      </trkpt>
      <trkpt lat="43.42806" lon="5.27535">
        <ele>120.320000203</ele>
        <time>2010-12-18T15:38:34.697Z</time>
      </trkpt>
      <trkpt lat="43.42804" lon="5.27545">
        <ele>120.7</ele>
        <time>2010-12-18T15:38:36.704Z</time>
      </trkpt>
      <trkpt lat="43.428" lon="5.27555">
        <ele>120.948387146</ele>
        <time>2010-12-18T15:38:38.685Z</time>
      </trkpt>
      <trkpt lat="43.42798" lon="5.27565">
        <ele>121.290322827</ele>
        <time>2010-12-18T15:38:40.696Z</time>
      </trkpt>
      <trkpt lat="43.42794" lon="5.27576">
        <ele>121.619355232</ele>
        <time>2010-12-18T15:38:42.696Z</time>
      </trkpt>
      <trkpt lat="43.4279" lon="5.2759">
        <ele>122.130000305</ele>
        <time>2010-12-18T15:38:45.703Z</time>
      </trkpt>
      <trkpt lat="43.42785" lon="5.2761">
        <ele>122.406451564</ele>
        <time>2010-12-18T15:38:49.697Z</time>
      </trkpt>
      <trkpt lat="43.42785" lon="5.27616">
        <ele>122.483333079</ele>
        <time>2010-12-18T15:38:50.697Z</time>
      </trkpt>
      <trkpt lat="43.42786" lon="5.27622">
        <ele>122.470967447</ele>
        <time>2010-12-18T15:38:51.695Z</time>
      </trkpt>
      <trkpt lat="43.42788" lon="5.27629">
        <ele>122.438709382</ele>
        <time>2010-12-18T15:38:52.695Z</time>
      </trkpt>
      <trkpt lat="43.4279" lon="5.27636">
        <ele>122.383333079</ele>
        <time>2010-12-18T15:38:53.697Z</time>
      </trkpt>
      <trkpt lat="43.42794" lon="5.27642">
        <ele>122.30322561</ele>
        <time>2010-12-18T15:38:54.697Z</time>
      </trkpt>
      <trkpt lat="43.42798" lon="5.27647">
        <ele>122.209677419</ele>
        <time>2010-12-18T15:38:55.691Z</time>
      </trkpt>
      <trkpt lat="43.42808" lon="5.27655">
        <ele>122.035483822</ele>
        <time>2010-12-18T15:38:57.693Z</time>
      </trkpt>
      <trkpt lat="43.42818" lon="5.27661">
        <ele>121.841935435</ele>
        <time>2010-12-18T15:38:59.683Z</time>
      </trkpt>
      <trkpt lat="43.42822" lon="5.27662">
        <ele>121.774193302</ele>
        <time>2010-12-18T15:39:00.686Z</time>
      </trkpt>
      <trkpt lat="43.42826" lon="5.27665">
        <ele>121.703225413</ele>
        <time>2010-12-18T15:39:01.683Z</time>
      </trkpt>
      <trkpt lat="43.42831" lon="5.27667">
        <ele>121.638709284</ele>
        <time>2010-12-18T15:39:02.684Z</time>
      </trkpt>
      <trkpt lat="43.42836" lon="5.27668">
        <ele>121.548386851</ele>
        <time>2010-12-18T15:39:03.695Z</time>
      </trkpt>
      <trkpt lat="43.42847" lon="5.27669">
        <ele>121.370967496</ele>
        <time>2010-12-18T15:39:05.703Z</time>
      </trkpt>
      <trkpt lat="43.42852" lon="5.2767">
        <ele>121.293548338</ele>
        <time>2010-12-18T15:39:06.680Z</time>
      </trkpt>
      <trkpt lat="43.42861" lon="5.27671">
        <ele>121.060000102</ele>
        <time>2010-12-18T15:39:08.704Z</time>
      </trkpt>
      <trkpt lat="43.42872" lon="5.27672">
        <ele>120.970967693</ele>
        <time>2010-12-18T15:39:10.695Z</time>
      </trkpt>
      <trkpt lat="43.42876" lon="5.27672">
        <ele>120.833333079</ele>
        <time>2010-12-18T15:39:11.715Z</time>
      </trkpt>
      <trkpt lat="43.42895" lon="5.27676">
        <ele>120.61290298</ele>
        <time>2010-12-18T15:39:15.699Z</time>
      </trkpt>
      <trkpt lat="43.42911" lon="5.27677">
        <ele>120.483333588</ele>
        <time>2010-12-18T15:39:19.703Z</time>
      </trkpt>
      <trkpt lat="43.42919" lon="5.27676">
        <ele>120.613333639</ele>
        <time>2010-12-18T15:39:21.709Z</time>
      </trkpt>
      <trkpt lat="43.42927" lon="5.27677">
        <ele>120.950000254</ele>
        <time>2010-12-18T15:39:23.698Z</time>
      </trkpt>
      <trkpt lat="43.42931" lon="5.27678">
        <ele>121.141935779</ele>
        <time>2010-12-18T15:39:24.697Z</time>
      </trkpt>
      <trkpt lat="43.42939" lon="5.27678">
        <ele>121.723333486</ele>
        <time>2010-12-18T15:39:26.697Z</time>
      </trkpt>
      <trkpt lat="43.42953" lon="5.27677">
        <ele>122.423333232</ele>
        <time>2010-12-18T15:39:29.705Z</time>
      </trkpt>
      <trkpt lat="43.42967" lon="5.27678">
        <ele>123.161290323</ele>
        <time>2010-12-18T15:39:33.693Z</time>
      </trkpt>
      <trkpt lat="43.42971" lon="5.27678">
        <ele>123.523333232</ele>
        <time>2010-12-18T15:39:34.693Z</time>
      </trkpt>
      <trkpt lat="43.42976" lon="5.27678">
        <ele>123.730000051</ele>
        <time>2010-12-18T15:39:35.705Z</time>
      </trkpt>
      <trkpt lat="43.42981" lon="5.27677">
        <ele>123.889999898</ele>
        <time>2010-12-18T15:39:36.686Z</time>
      </trkpt>
      <trkpt lat="43.42985" lon="5.27679">
        <ele>124.046666463</ele>
        <time>2010-12-18T15:39:37.700Z</time>
      </trkpt>
      <trkpt lat="43.42989" lon="5.27679">
        <ele>124.058064368</ele>
        <time>2010-12-18T15:39:38.696Z</time>
      </trkpt>
      <trkpt lat="43.42993" lon="5.2768">
        <ele>124.209677419</ele>
        <time>2010-12-18T15:39:39.696Z</time>
      </trkpt>
      <trkpt lat="43.42999" lon="5.2768">
        <ele>124.593333435</ele>
        <time>2010-12-18T15:39:41.729Z</time>
      </trkpt>
      <trkpt lat="43.43002" lon="5.27681">
        <ele>124.587096922</ele>
        <time>2010-12-18T15:39:42.688Z</time>
      </trkpt>
      <trkpt lat="43.43008" lon="5.27683">
        <ele>124.88064526</ele>
        <time>2010-12-18T15:39:44.685Z</time>
      </trkpt>
      <trkpt lat="43.43014" lon="5.27685">
        <ele>125.077419404</ele>
        <time>2010-12-18T15:39:45.695Z</time>
      </trkpt>
      <trkpt lat="43.43022" lon="5.27689">
        <ele>125.500000246</ele>
        <time>2010-12-18T15:39:47.688Z</time>
      </trkpt>
      <trkpt lat="43.43029" lon="5.27693">
        <ele>125.90645181</ele>
        <time>2010-12-18T15:39:49.683Z</time>
      </trkpt>
      <trkpt lat="43.43037" lon="5.27695">
        <ele>126.31290362</ele>
        <time>2010-12-18T15:39:51.682Z</time>
      </trkpt>
      <trkpt lat="43.43035" lon="5.27697">
        <ele>126.563333893</ele>
        <time>2010-12-18T15:39:52.698Z</time>
      </trkpt>
      <trkpt lat="43.43038" lon="5.27698">
        <ele>126.750000509</ele>
        <time>2010-12-18T15:39:53.703Z</time>
      </trkpt>
      <trkpt lat="43.43041" lon="5.27698">
        <ele>126.876667023</ele>
        <time>2010-12-18T15:39:54.704Z</time>
      </trkpt>
      <trkpt lat="43.43043" lon="5.27698">
        <ele>127.006667328</ele>
        <time>2010-12-18T15:39:55.704Z</time>
      </trkpt>
      <trkpt lat="43.43045" lon="5.27698">
        <ele>127.143334198</ele>
        <time>2010-12-18T15:39:56.700Z</time>
      </trkpt>
      <trkpt lat="43.43047" lon="5.27698">
        <ele>127.293549322</ele>
        <time>2010-12-18T15:39:57.683Z</time>
      </trkpt>
      <trkpt lat="43.43051" lon="5.27703">
        <ele>127.480001322</ele>
        <time>2010-12-18T15:39:58.695Z</time>
      </trkpt>
      <trkpt lat="43.4306" lon="5.27712">
        <ele>127.95161438</ele>
        <time>2010-12-18T15:40:01.680Z</time>
      </trkpt>
      <trkpt lat="43.43061" lon="5.27714">
        <ele>128.183334859</ele>
        <time>2010-12-18T15:40:02.701Z</time>
      </trkpt>
      <trkpt lat="43.43064" lon="5.27716">
        <ele>128.356668091</ele>
        <time>2010-12-18T15:40:03.701Z</time>
      </trkpt>
      <trkpt lat="43.43067" lon="5.27718">
        <ele>128.706453139</ele>
        <time>2010-12-18T15:40:05.693Z</time>
      </trkpt>
      <trkpt lat="43.43072" lon="5.27722">
        <ele>129.103335063</ele>
        <time>2010-12-18T15:40:06.699Z</time>
      </trkpt>
      <trkpt lat="43.43075" lon="5.27725">
        <ele>129.258065993</ele>
        <time>2010-12-18T15:40:07.679Z</time>
      </trkpt>
      <trkpt lat="43.43082" lon="5.27731">
        <ele>130.225807682</ele>
        <time>2010-12-18T15:40:10.687Z</time>
      </trkpt>
      <trkpt lat="43.43088" lon="5.27736">
        <ele>131.120001475</ele>
        <time>2010-12-18T15:40:12.691Z</time>
      </trkpt>
      <trkpt lat="43.4309" lon="5.27736">
        <ele>131.47666804</ele>
        <time>2010-12-18T15:40:13.726Z</time>
      </trkpt>
      <trkpt lat="43.43092" lon="5.27735">
        <ele>131.59032391</ele>
        <time>2010-12-18T15:40:14.684Z</time>
      </trkpt>
      <trkpt lat="43.43093" lon="5.27737">
        <ele>132.113334656</ele>
        <time>2010-12-18T15:40:15.698Z</time>
      </trkpt>
      <trkpt lat="43.43097" lon="5.2774">
        <ele>132.538711056</ele>
        <time>2010-12-18T15:40:17.682Z</time>
      </trkpt>
      <trkpt lat="43.43099" lon="5.27742">
        <ele>132.793549568</ele>
        <time>2010-12-18T15:40:18.695Z</time>
      </trkpt>
      <trkpt lat="43.43103" lon="5.27742">
        <ele>133.170001221</ele>
        <time>2010-12-18T15:40:19.713Z</time>
      </trkpt>
      <trkpt lat="43.43105" lon="5.27745">
        <ele>133.287098054</ele>
        <time>2010-12-18T15:40:20.684Z</time>
      </trkpt>
      <trkpt lat="43.43108" lon="5.27747">
        <ele>133.643334452</ele>
        <time>2010-12-18T15:40:21.698Z</time>
      </trkpt>
      <trkpt lat="43.43111" lon="5.27749">
        <ele>133.830000814</ele>
        <time>2010-12-18T15:40:22.710Z</time>
      </trkpt>
      <trkpt lat="43.43116" lon="5.27754">
        <ele>134.39032327</ele>
        <time>2010-12-18T15:40:25.685Z</time>
      </trkpt>
      <trkpt lat="43.43121" lon="5.27757">
        <ele>134.750000509</ele>
        <time>2010-12-18T15:40:26.705Z</time>
      </trkpt>
      <trkpt lat="43.43129" lon="5.2776">
        <ele>135.212903915</ele>
        <time>2010-12-18T15:40:28.691Z</time>
      </trkpt>
      <trkpt lat="43.43132" lon="5.27763">
        <ele>135.525807042</ele>
        <time>2010-12-18T15:40:29.688Z</time>
      </trkpt>
      <trkpt lat="43.43135" lon="5.27765">
        <ele>136.006667074</ele>
        <time>2010-12-18T15:40:30.686Z</time>
      </trkpt>
      <trkpt lat="43.4314" lon="5.27769">
        <ele>136.66000061</ele>
        <time>2010-12-18T15:40:32.702Z</time>
      </trkpt>
      <trkpt lat="43.43145" lon="5.27776">
        <ele>137.109678207</ele>
        <time>2010-12-18T15:40:34.680Z</time>
      </trkpt>
      <trkpt lat="43.43155" lon="5.27787">
        <ele>138.356667074</ele>
        <time>2010-12-18T15:40:38.700Z</time>
      </trkpt>
      <trkpt lat="43.43159" lon="5.27789">
        <ele>138.500000492</ele>
        <time>2010-12-18T15:40:39.706Z</time>
      </trkpt>
      <trkpt lat="43.43161" lon="5.27791">
        <ele>138.716129426</ele>
        <time>2010-12-18T15:40:40.687Z</time>
      </trkpt>
      <trkpt lat="43.43162" lon="5.27793">
        <ele>139.053334045</ele>
        <time>2010-12-18T15:40:41.706Z</time>
      </trkpt>
      <trkpt lat="43.43163" lon="5.27794">
        <ele>139.093549175</ele>
        <time>2010-12-18T15:40:42.689Z</time>
      </trkpt>
      <trkpt lat="43.43162" lon="5.27796">
        <ele>139.254839497</ele>
        <time>2010-12-18T15:40:43.706Z</time>
      </trkpt>
      <trkpt lat="43.43161" lon="5.27799">
        <ele>139.563334147</ele>
        <time>2010-12-18T15:40:44.708Z</time>
      </trkpt>
      <trkpt lat="43.43161" lon="5.27804">
        <ele>139.816667175</ele>
        <time>2010-12-18T15:40:46.705Z</time>
      </trkpt>
      <trkpt lat="43.43162" lon="5.27809">
        <ele>139.833333842</ele>
        <time>2010-12-18T15:40:47.703Z</time>
      </trkpt>
      <trkpt lat="43.43161" lon="5.27818">
        <ele>139.6548393</ele>
        <time>2010-12-18T15:40:49.699Z</time>
      </trkpt>
      <trkpt lat="43.43163" lon="5.27821">
        <ele>139.680000305</ele>
        <time>2010-12-18T15:40:50.699Z</time>
      </trkpt>
      <trkpt lat="43.43165" lon="5.27826">
        <ele>139.535484068</ele>
        <time>2010-12-18T15:40:51.681Z</time>
      </trkpt>
      <trkpt lat="43.43167" lon="5.27837">
        <ele>139.413333639</ele>
        <time>2010-12-18T15:40:54.716Z</time>
      </trkpt>
      <trkpt lat="43.43167" lon="5.27841">
        <ele>139.263333639</ele>
        <time>2010-12-18T15:40:55.694Z</time>
      </trkpt>
      <trkpt lat="43.43169" lon="5.27844">
        <ele>139.07741965</ele>
        <time>2010-12-18T15:40:56.685Z</time>
      </trkpt>
      <trkpt lat="43.4317" lon="5.27848">
        <ele>138.900000295</ele>
        <time>2010-12-18T15:40:57.684Z</time>
      </trkpt>
      <trkpt lat="43.43172" lon="5.27851">
        <ele>138.687096873</ele>
        <time>2010-12-18T15:40:58.681Z</time>
      </trkpt>
      <trkpt lat="43.43172" lon="5.27855">
        <ele>138.343333435</ele>
        <time>2010-12-18T15:40:59.693Z</time>
      </trkpt>
      <trkpt lat="43.43173" lon="5.2786">
        <ele>138.043333435</ele>
        <time>2010-12-18T15:41:00.703Z</time>
      </trkpt>
      <trkpt lat="43.43174" lon="5.27864">
        <ele>137.689999898</ele>
        <time>2010-12-18T15:41:01.695Z</time>
      </trkpt>
      <trkpt lat="43.43175" lon="5.27868">
        <ele>137.451612903</ele>
        <time>2010-12-18T15:41:02.694Z</time>
      </trkpt>
      <trkpt lat="43.43175" lon="5.2787">
        <ele>136.959999593</ele>
        <time>2010-12-18T15:41:03.700Z</time>
      </trkpt>
      <trkpt lat="43.43174" lon="5.27873">
        <ele>136.593332926</ele>
        <time>2010-12-18T15:41:04.681Z</time>
      </trkpt>
      <trkpt lat="43.43174" lon="5.27876">
        <ele>136.229999288</ele>
        <time>2010-12-18T15:41:05.685Z</time>
      </trkpt>
      <trkpt lat="43.43171" lon="5.27878">
        <ele>135.83999939</ele>
        <time>2010-12-18T15:41:06.693Z</time>
      </trkpt>
      <trkpt lat="43.4317" lon="5.2788">
        <ele>135.419999186</ele>
        <time>2010-12-18T15:41:07.695Z</time>
      </trkpt>
      <trkpt lat="43.43168" lon="5.27882">
        <ele>135.196773406</ele>
        <time>2010-12-18T15:41:08.697Z</time>
      </trkpt>
      <trkpt lat="43.43166" lon="5.27884">
        <ele>134.712902438</ele>
        <time>2010-12-18T15:41:09.698Z</time>
      </trkpt>
      <trkpt lat="43.43164" lon="5.27886">
        <ele>134.248386014</ele>
        <time>2010-12-18T15:41:10.686Z</time>
      </trkpt>
      <trkpt lat="43.43159" lon="5.27889">
        <ele>133.209998576</ele>
        <time>2010-12-18T15:41:12.706Z</time>
      </trkpt>
      <trkpt lat="43.43152" lon="5.27894">
        <ele>132.374192269</ele>
        <time>2010-12-18T15:41:15.696Z</time>
      </trkpt>
      <trkpt lat="43.43149" lon="5.27895">
        <ele>132.00645053</ele>
        <time>2010-12-18T15:41:16.695Z</time>
      </trkpt>
      <trkpt lat="43.43143" lon="5.279">
        <ele>131.245160011</ele>
        <time>2010-12-18T15:41:19.688Z</time>
      </trkpt>
      <trkpt lat="43.43136" lon="5.27905">
        <ele>130.566666158</ele>
        <time>2010-12-18T15:41:22.690Z</time>
      </trkpt>
      <trkpt lat="43.4313" lon="5.27911">
        <ele>130.139999898</ele>
        <time>2010-12-18T15:41:25.720Z</time>
      </trkpt>
      <trkpt lat="43.43122" lon="5.27918">
        <ele>129.816666158</ele>
        <time>2010-12-18T15:41:29.698Z</time>
      </trkpt>
      <trkpt lat="43.43114" lon="5.27925">
        <ele>129.790322088</ele>
        <time>2010-12-18T15:41:33.696Z</time>
      </trkpt>
      <trkpt lat="43.43114" lon="5.27926">
        <ele>129.806666056</ele>
        <time>2010-12-18T15:41:34.698Z</time>
      </trkpt>
      <trkpt lat="43.43113" lon="5.27928">
        <ele>129.82666626</ele>
        <time>2010-12-18T15:41:35.696Z</time>
      </trkpt>
      <trkpt lat="43.43112" lon="5.2793">
        <ele>129.843332926</ele>
        <time>2010-12-18T15:41:36.706Z</time>
      </trkpt>
      <trkpt lat="43.43114" lon="5.27935">
        <ele>129.835483674</ele>
        <time>2010-12-18T15:41:37.691Z</time>
      </trkpt>
      <trkpt lat="43.43114" lon="5.27938">
        <ele>129.832258163</ele>
        <time>2010-12-18T15:41:38.696Z</time>
      </trkpt>
      <trkpt lat="43.43115" lon="5.27941">
        <ele>129.832258163</ele>
        <time>2010-12-18T15:41:39.695Z</time>
      </trkpt>
      <trkpt lat="43.43116" lon="5.27944">
        <ele>129.890000407</ele>
        <time>2010-12-18T15:41:40.696Z</time>
      </trkpt>
      <trkpt lat="43.43117" lon="5.27946">
        <ele>129.867742231</ele>
        <time>2010-12-18T15:41:41.693Z</time>
      </trkpt>
      <trkpt lat="43.43118" lon="5.27949">
        <ele>129.900000295</ele>
        <time>2010-12-18T15:41:42.694Z</time>
      </trkpt>
      <trkpt lat="43.4312" lon="5.27954">
        <ele>129.970967939</ele>
        <time>2010-12-18T15:41:44.684Z</time>
      </trkpt>
      <trkpt lat="43.43123" lon="5.27961">
        <ele>130.100000197</ele>
        <time>2010-12-18T15:41:47.692Z</time>
      </trkpt>
      <trkpt lat="43.43125" lon="5.27967">
        <ele>130.243333435</ele>
        <time>2010-12-18T15:41:49.694Z</time>
      </trkpt>
      <trkpt lat="43.43128" lon="5.27974">
        <ele>130.445160897</ele>
        <time>2010-12-18T15:41:52.678Z</time>
      </trkpt>
      <trkpt lat="43.4313" lon="5.27979">
        <ele>130.58999939</ele>
        <time>2010-12-18T15:41:54.697Z</time>
      </trkpt>
      <trkpt lat="43.43131" lon="5.27985">
        <ele>130.696773406</ele>
        <time>2010-12-18T15:41:56.686Z</time>
      </trkpt>
      <trkpt lat="43.43132" lon="5.2799">
        <ele>130.763332621</ele>
        <time>2010-12-18T15:41:58.692Z</time>
      </trkpt>
      <trkpt lat="43.43134" lon="5.27994">
        <ele>130.873332723</ele>
        <time>2010-12-18T15:42:00.685Z</time>
      </trkpt>
      <trkpt lat="43.43136" lon="5.28">
        <ele>131.051612116</ele>
        <time>2010-12-18T15:42:03.674Z</time>
      </trkpt>
      <trkpt lat="43.43136" lon="5.28001">
        <ele>131.119354248</ele>
        <time>2010-12-18T15:42:04.684Z</time>
      </trkpt>
      <trkpt lat="43.43137" lon="5.28003">
        <ele>131.196666463</ele>
        <time>2010-12-18T15:42:05.781Z</time>
      </trkpt>
      <trkpt lat="43.43138" lon="5.28007">
        <ele>131.403225806</ele>
        <time>2010-12-18T15:42:07.652Z</time>
      </trkpt>
      <trkpt lat="43.43139" lon="5.28009">
        <ele>131.554838611</ele>
        <time>2010-12-18T15:42:08.642Z</time>
      </trkpt>
      <trkpt lat="43.4314" lon="5.28011">
        <ele>131.741935484</ele>
        <time>2010-12-18T15:42:09.638Z</time>
      </trkpt>
      <trkpt lat="43.43142" lon="5.28015">
        <ele>132.25</ele>
        <time>2010-12-18T15:42:11.695Z</time>
      </trkpt>
      <trkpt lat="43.43142" lon="5.28019">
        <ele>132.538710071</ele>
        <time>2010-12-18T15:42:13.685Z</time>
      </trkpt>
      <trkpt lat="43.43143" lon="5.28021">
        <ele>132.738709973</ele>
        <time>2010-12-18T15:42:14.675Z</time>
      </trkpt>
      <trkpt lat="43.43142" lon="5.28022">
        <ele>133.040000407</ele>
        <time>2010-12-18T15:42:15.715Z</time>
      </trkpt>
      <trkpt lat="43.43142" lon="5.28026">
        <ele>133.383871755</ele>
        <time>2010-12-18T15:42:17.690Z</time>
      </trkpt>
      <trkpt lat="43.43142" lon="5.28027">
        <ele>133.680000814</ele>
        <time>2010-12-18T15:42:18.707Z</time>
      </trkpt>
      <trkpt lat="43.43142" lon="5.28028">
        <ele>133.82258163</ele>
        <time>2010-12-18T15:42:19.694Z</time>
      </trkpt>
      <trkpt lat="43.43141" lon="5.28031">
        <ele>134.254839497</ele>
        <time>2010-12-18T15:42:21.693Z</time>
      </trkpt>
      <trkpt lat="43.43141" lon="5.28033">
        <ele>134.540001424</ele>
        <time>2010-12-18T15:42:22.703Z</time>
      </trkpt>
      <trkpt lat="43.43142" lon="5.28035">
        <ele>134.730001322</ele>
        <time>2010-12-18T15:42:23.694Z</time>
      </trkpt>
      <trkpt lat="43.43142" lon="5.28036">
        <ele>134.910001119</ele>
        <time>2010-12-18T15:42:24.708Z</time>
      </trkpt>
      <trkpt lat="43.43142" lon="5.28038">
        <ele>135.19032386</ele>
        <time>2010-12-18T15:42:26.677Z</time>
      </trkpt>
      <trkpt lat="43.43142" lon="5.28038">
        <ele>135.941936862</ele>
        <time>2010-12-18T15:42:30.684Z</time>
      </trkpt>
      <trkpt lat="43.43142" lon="5.28038">
        <ele>136.683871854</ele>
        <time>2010-12-18T15:42:34.642Z</time>
      </trkpt>
      <trkpt lat="43.43142" lon="5.2804">
        <ele>137.143333944</ele>
        <time>2010-12-18T15:42:36.695Z</time>
      </trkpt>
      <trkpt lat="43.43142" lon="5.28043">
        <ele>137.583333333</ele>
        <time>2010-12-18T15:42:39.646Z</time>
      </trkpt>
      <trkpt lat="43.43141" lon="5.28046">
        <ele>137.758064516</ele>
        <time>2010-12-18T15:42:41.638Z</time>
      </trkpt>
      <trkpt lat="43.43141" lon="5.2805">
        <ele>138.206666565</ele>
        <time>2010-12-18T15:42:44.696Z</time>
      </trkpt>
      <trkpt lat="43.43142" lon="5.28054">
        <ele>138.479999797</ele>
        <time>2010-12-18T15:42:47.702Z</time>
      </trkpt>
      <trkpt lat="43.43142" lon="5.28057">
        <ele>138.612903226</ele>
        <time>2010-12-18T15:42:49.688Z</time>
      </trkpt>
      <trkpt lat="43.43142" lon="5.28059">
        <ele>138.777419552</ele>
        <time>2010-12-18T15:42:51.639Z</time>
      </trkpt>
      <trkpt lat="43.43142" lon="5.28061">
        <ele>138.867742231</ele>
        <time>2010-12-18T15:42:52.641Z</time>
      </trkpt>
      <trkpt lat="43.43141" lon="5.28062">
        <ele>138.964516424</ele>
        <time>2010-12-18T15:42:53.637Z</time>
      </trkpt>
      <trkpt lat="43.43141" lon="5.28064">
        <ele>139.067742625</ele>
        <time>2010-12-18T15:42:54.636Z</time>
      </trkpt>
      <trkpt lat="43.4314" lon="5.28066">
        <ele>139.164516818</ele>
        <time>2010-12-18T15:42:55.638Z</time>
      </trkpt>
      <trkpt lat="43.4314" lon="5.28067">
        <ele>139.254839497</ele>
        <time>2010-12-18T15:42:56.639Z</time>
      </trkpt>
      <trkpt lat="43.43141" lon="5.2807">
        <ele>139.451613888</ele>
        <time>2010-12-18T15:42:58.641Z</time>
      </trkpt>
      <trkpt lat="43.43141" lon="5.28071">
        <ele>139.633334351</ele>
        <time>2010-12-18T15:42:59.699Z</time>
      </trkpt>
      <trkpt lat="43.43141" lon="5.28076">
        <ele>140.256668091</ele>
        <time>2010-12-18T15:43:03.674Z</time>
      </trkpt>
      <trkpt lat="43.43141" lon="5.28078">
        <ele>140.423334757</ele>
        <time>2010-12-18T15:43:04.686Z</time>
      </trkpt>
      <trkpt lat="43.43142" lon="5.28081">
        <ele>140.683872346</ele>
        <time>2010-12-18T15:43:06.688Z</time>
      </trkpt>
      <trkpt lat="43.43142" lon="5.28083">
        <ele>140.926668294</ele>
        <time>2010-12-18T15:43:07.695Z</time>
      </trkpt>
      <trkpt lat="43.43142" lon="5.28087">
        <ele>141.523334757</ele>
        <time>2010-12-18T15:43:10.648Z</time>
      </trkpt>
      <trkpt lat="43.43142" lon="5.28091">
        <ele>141.950001017</ele>
        <time>2010-12-18T15:43:12.692Z</time>
      </trkpt>
      <trkpt lat="43.43142" lon="5.28095">
        <ele>142.483871952</ele>
        <time>2010-12-18T15:43:15.642Z</time>
      </trkpt>
      <trkpt lat="43.43143" lon="5.28101">
        <ele>143.246666972</ele>
        <time>2010-12-18T15:43:18.685Z</time>
      </trkpt>
      <trkpt lat="43.43143" lon="5.28102">
        <ele>143.354839202</ele>
        <time>2010-12-18T15:43:19.646Z</time>
      </trkpt>
      <trkpt lat="43.43144" lon="5.28104">
        <ele>143.745160995</ele>
        <time>2010-12-18T15:43:21.638Z</time>
      </trkpt>
      <trkpt lat="43.43146" lon="5.28109">
        <ele>144.106451219</ele>
        <time>2010-12-18T15:43:24.635Z</time>
      </trkpt>
      <trkpt lat="43.43146" lon="5.28113">
        <ele>144.380644768</ele>
        <time>2010-12-18T15:43:27.633Z</time>
      </trkpt>
      <trkpt lat="43.43146" lon="5.28115">
        <ele>144.483869983</ele>
        <time>2010-12-18T15:43:29.696Z</time>
      </trkpt>
      <trkpt lat="43.43144" lon="5.28112">
        <ele>144.559998067</ele>
        <time>2010-12-18T15:43:32.705Z</time>
      </trkpt>
      <trkpt lat="43.43144" lon="5.28112">
        <ele>144.423332214</ele>
        <time>2010-12-18T15:43:36.709Z</time>
      </trkpt>
      <trkpt lat="43.43144" lon="5.28111">
        <ele>144.03999939</ele>
        <time>2010-12-18T15:43:40.710Z</time>
      </trkpt>
      <trkpt lat="43.43143" lon="5.28111">
        <ele>143.496665446</ele>
        <time>2010-12-18T15:43:44.692Z</time>
      </trkpt>
      <trkpt lat="43.43144" lon="5.28112">
        <ele>142.938708398</ele>
        <time>2010-12-18T15:43:48.674Z</time>
      </trkpt>
      <trkpt lat="43.43145" lon="5.28109">
        <ele>142.246665446</ele>
        <time>2010-12-18T15:43:51.676Z</time>
      </trkpt>
      <trkpt lat="43.43146" lon="5.28106">
        <ele>141.829998271</ele>
        <time>2010-12-18T15:43:54.674Z</time>
      </trkpt>
      <trkpt lat="43.43148" lon="5.28105">
        <ele>141.579998271</ele>
        <time>2010-12-18T15:43:56.677Z</time>
      </trkpt>
      <trkpt lat="43.43149" lon="5.28105">
        <ele>141.483331807</ele>
        <time>2010-12-18T15:43:57.674Z</time>
      </trkpt>
      <trkpt lat="43.4315" lon="5.28106">
        <ele>141.393331909</ele>
        <time>2010-12-18T15:43:58.677Z</time>
      </trkpt>
      <trkpt lat="43.43151" lon="5.28105">
        <ele>141.361288747</ele>
        <time>2010-12-18T15:43:59.675Z</time>
      </trkpt>
      <trkpt lat="43.43151" lon="5.28103">
        <ele>141.236665344</ele>
        <time>2010-12-18T15:44:00.675Z</time>
      </trkpt>
      <trkpt lat="43.43151" lon="5.28101">
        <ele>141.206450432</ele>
        <time>2010-12-18T15:44:01.674Z</time>
      </trkpt>
      <trkpt lat="43.43151" lon="5.28098">
        <ele>141.135482788</ele>
        <time>2010-12-18T15:44:02.679Z</time>
      </trkpt>
      <trkpt lat="43.43151" lon="5.28097">
        <ele>141.012902044</ele>
        <time>2010-12-18T15:44:04.675Z</time>
      </trkpt>
      <trkpt lat="43.43151" lon="5.28097">
        <ele>140.874192761</ele>
        <time>2010-12-18T15:44:07.677Z</time>
      </trkpt>
      <trkpt lat="43.43151" lon="5.28101">
        <ele>140.738708496</ele>
        <time>2010-12-18T15:44:11.675Z</time>
      </trkpt>
      <trkpt lat="43.43151" lon="5.28103">
        <ele>140.673332723</ele>
        <time>2010-12-18T15:44:14.696Z</time>
      </trkpt>
      <trkpt lat="43.43151" lon="5.28102">
        <ele>140.709677419</ele>
        <time>2010-12-18T15:44:18.639Z</time>
      </trkpt>
      <trkpt lat="43.43151" lon="5.28103">
        <ele>140.846666972</ele>
        <time>2010-12-18T15:44:22.702Z</time>
      </trkpt>
      <trkpt lat="43.43151" lon="5.28103">
        <ele>140.893333944</ele>
        <time>2010-12-18T15:44:23.701Z</time>
      </trkpt>
      <trkpt lat="43.4315" lon="5.28102">
        <ele>140.993548978</ele>
        <time>2010-12-18T15:44:25.639Z</time>
      </trkpt>
      <trkpt lat="43.43148" lon="5.28102">
        <ele>141.132258261</ele>
        <time>2010-12-18T15:44:28.642Z</time>
      </trkpt>
      <trkpt lat="43.43147" lon="5.28103">
        <ele>141.203225905</ele>
        <time>2010-12-18T15:44:29.642Z</time>
      </trkpt>
      <trkpt lat="43.43146" lon="5.28105">
        <ele>141.325806649</ele>
        <time>2010-12-18T15:44:31.634Z</time>
      </trkpt>
      <trkpt lat="43.43145" lon="5.28108">
        <ele>141.451612903</ele>
        <time>2010-12-18T15:44:33.635Z</time>
      </trkpt>
      <trkpt lat="43.43145" lon="5.2811">
        <ele>141.5</ele>
        <time>2010-12-18T15:44:34.638Z</time>
      </trkpt>
      <trkpt lat="43.43145" lon="5.28111">
        <ele>141.545161093</ele>
        <time>2010-12-18T15:44:35.634Z</time>
      </trkpt>
      <trkpt lat="43.43145" lon="5.28112">
        <ele>141.603225216</ele>
        <time>2010-12-18T15:44:36.634Z</time>
      </trkpt>
      <trkpt lat="43.43144" lon="5.28112">
        <ele>141.674192859</ele>
        <time>2010-12-18T15:44:37.635Z</time>
      </trkpt>
      <trkpt lat="43.43144" lon="5.28111">
        <ele>141.770967053</ele>
        <time>2010-12-18T15:44:38.635Z</time>
      </trkpt>
      <trkpt lat="43.43141" lon="5.28106">
        <ele>142.087096184</ele>
        <time>2010-12-18T15:44:41.636Z</time>
      </trkpt>
      <trkpt lat="43.43139" lon="5.28098">
        <ele>142.263332621</ele>
        <time>2010-12-18T15:44:42.675Z</time>
      </trkpt>
      <trkpt lat="43.43138" lon="5.28096">
        <ele>142.436665853</ele>
        <time>2010-12-18T15:44:43.638Z</time>
      </trkpt>
      <trkpt lat="43.43138" lon="5.28094">
        <ele>142.525805566</ele>
        <time>2010-12-18T15:44:44.639Z</time>
      </trkpt>
      <trkpt lat="43.43137" lon="5.2809">
        <ele>142.661289338</ele>
        <time>2010-12-18T15:44:45.649Z</time>
      </trkpt>
      <trkpt lat="43.43135" lon="5.28083">
        <ele>143.006665548</ele>
        <time>2010-12-18T15:44:47.651Z</time>
      </trkpt>
      <trkpt lat="43.43134" lon="5.28081">
        <ele>143.122579759</ele>
        <time>2010-12-18T15:44:48.635Z</time>
      </trkpt>
      <trkpt lat="43.43133" lon="5.2808">
        <ele>143.287096085</ele>
        <time>2010-12-18T15:44:49.635Z</time>
      </trkpt>
      <trkpt lat="43.43132" lon="5.28078">
        <ele>143.445160404</ele>
        <time>2010-12-18T15:44:50.635Z</time>
      </trkpt>
      <trkpt lat="43.43134" lon="5.28077">
        <ele>143.619999186</ele>
        <time>2010-12-18T15:44:51.641Z</time>
      </trkpt>
      <trkpt lat="43.43133" lon="5.28075">
        <ele>143.683870377</ele>
        <time>2010-12-18T15:44:52.682Z</time>
      </trkpt>
      <trkpt lat="43.43133" lon="5.28073">
        <ele>143.790322088</ele>
        <time>2010-12-18T15:44:53.678Z</time>
      </trkpt>
      <trkpt lat="43.43131" lon="5.28071">
        <ele>144.069999186</ele>
        <time>2010-12-18T15:44:55.677Z</time>
      </trkpt>
      <trkpt lat="43.4313" lon="5.2807">
        <ele>144.248386506</ele>
        <time>2010-12-18T15:44:57.635Z</time>
      </trkpt>
      <trkpt lat="43.43129" lon="5.28072">
        <ele>144.380644768</ele>
        <time>2010-12-18T15:44:58.635Z</time>
      </trkpt>
      <trkpt lat="43.43129" lon="5.28071">
        <ele>144.773333232</ele>
        <time>2010-12-18T15:45:01.705Z</time>
      </trkpt>
      <trkpt lat="43.43129" lon="5.28071">
        <ele>145.230000305</ele>
        <time>2010-12-18T15:45:05.693Z</time>
      </trkpt>
      <trkpt lat="43.43128" lon="5.2807">
        <ele>145.42333374</ele>
        <time>2010-12-18T15:45:07.699Z</time>
      </trkpt>
      <trkpt lat="43.43129" lon="5.28071">
        <ele>145.55</ele>
        <time>2010-12-18T15:45:09.700Z</time>
      </trkpt>
      <trkpt lat="43.43129" lon="5.28071">
        <ele>145.649999491</ele>
        <time>2010-12-18T15:45:12.696Z</time>
      </trkpt>
      <trkpt lat="43.43129" lon="5.2807">
        <ele>145.643332926</ele>
        <time>2010-12-18T15:45:15.698Z</time>
      </trkpt>
      <trkpt lat="43.43129" lon="5.2807">
        <ele>145.503333028</ele>
        <time>2010-12-18T15:45:19.705Z</time>
      </trkpt>
      <trkpt lat="43.43129" lon="5.2807">
        <ele>145.423333232</ele>
        <time>2010-12-18T15:45:23.695Z</time>
      </trkpt>
      <trkpt lat="43.43129" lon="5.28071">
        <ele>145.383333333</ele>
        <time>2010-12-18T15:45:27.698Z</time>
      </trkpt>
      <trkpt lat="43.43129" lon="5.2807">
        <ele>145.36451672</ele>
        <time>2010-12-18T15:45:31.695Z</time>
      </trkpt>
      <trkpt lat="43.43129" lon="5.2807">
        <ele>145.361291209</ele>
        <time>2010-12-18T15:45:33.637Z</time>
      </trkpt>
      <trkpt lat="43.43128" lon="5.28058">
        <ele>145.403226791</ele>
        <time>2010-12-18T15:45:34.645Z</time>
      </trkpt>
      <trkpt lat="43.43128" lon="5.28052">
        <ele>145.351613691</ele>
        <time>2010-12-18T15:45:35.641Z</time>
      </trkpt>
      <trkpt lat="43.43128" lon="5.28047">
        <ele>145.251613494</ele>
        <time>2010-12-18T15:45:36.649Z</time>
      </trkpt>
      <trkpt lat="43.43129" lon="5.28037">
        <ele>144.996774981</ele>
        <time>2010-12-18T15:45:38.643Z</time>
      </trkpt>
      <trkpt lat="43.43131" lon="5.28033">
        <ele>144.86451672</ele>
        <time>2010-12-18T15:45:39.638Z</time>
      </trkpt>
      <trkpt lat="43.43132" lon="5.2803">
        <ele>144.735484462</ele>
        <time>2010-12-18T15:45:40.636Z</time>
      </trkpt>
      <trkpt lat="43.43135" lon="5.28031">
        <ele>144.616129721</ele>
        <time>2010-12-18T15:45:41.641Z</time>
      </trkpt>
      <trkpt lat="43.43138" lon="5.2803">
        <ele>144.480645949</ele>
        <time>2010-12-18T15:45:42.651Z</time>
      </trkpt>
      <trkpt lat="43.4314" lon="5.28029">
        <ele>144.335484659</ele>
        <time>2010-12-18T15:45:43.644Z</time>
      </trkpt>
      <trkpt lat="43.43139" lon="5.2803">
        <ele>144.183871854</ele>
        <time>2010-12-18T15:45:44.641Z</time>
      </trkpt>
      <trkpt lat="43.4314" lon="5.28031">
        <ele>144.025807534</ele>
        <time>2010-12-18T15:45:45.635Z</time>
      </trkpt>
      <trkpt lat="43.43142" lon="5.28029">
        <ele>143.751613494</ele>
        <time>2010-12-18T15:45:47.692Z</time>
      </trkpt>
      <trkpt lat="43.43143" lon="5.28027">
        <ele>143.632258754</ele>
        <time>2010-12-18T15:45:48.634Z</time>
      </trkpt>
      <trkpt lat="43.43144" lon="5.28026">
        <ele>143.512904013</ele>
        <time>2010-12-18T15:45:49.634Z</time>
      </trkpt>
      <trkpt lat="43.43146" lon="5.28027">
        <ele>143.36451672</ele>
        <time>2010-12-18T15:45:50.640Z</time>
      </trkpt>
      <trkpt lat="43.43148" lon="5.28025">
        <ele>143.206451908</ele>
        <time>2010-12-18T15:45:51.643Z</time>
      </trkpt>
      <trkpt lat="43.43149" lon="5.28024">
        <ele>142.938709874</ele>
        <time>2010-12-18T15:45:53.643Z</time>
      </trkpt>
      <trkpt lat="43.4315" lon="5.28022">
        <ele>142.85483871</ele>
        <time>2010-12-18T15:45:54.639Z</time>
      </trkpt>
      <trkpt lat="43.43151" lon="5.2802">
        <ele>142.77741906</ele>
        <time>2010-12-18T15:45:55.636Z</time>
      </trkpt>
      <trkpt lat="43.43154" lon="5.28021">
        <ele>142.625805763</ele>
        <time>2010-12-18T15:45:57.641Z</time>
      </trkpt>
      <trkpt lat="43.43155" lon="5.2802">
        <ele>142.529031569</ele>
        <time>2010-12-18T15:45:58.643Z</time>
      </trkpt>
      <trkpt lat="43.43157" lon="5.28019">
        <ele>142.448386408</ele>
        <time>2010-12-18T15:45:59.643Z</time>
      </trkpt>
      <trkpt lat="43.43158" lon="5.28017">
        <ele>142.41290234</ele>
        <time>2010-12-18T15:46:00.646Z</time>
      </trkpt>
      <trkpt lat="43.43161" lon="5.28015">
        <ele>142.345160207</ele>
        <time>2010-12-18T15:46:02.636Z</time>
      </trkpt>
      <trkpt lat="43.43163" lon="5.28015">
        <ele>142.146665446</ele>
        <time>2010-12-18T15:46:03.641Z</time>
      </trkpt>
      <trkpt lat="43.43165" lon="5.28014">
        <ele>142.15161182</ele>
        <time>2010-12-18T15:46:04.643Z</time>
      </trkpt>
      <trkpt lat="43.43167" lon="5.28012">
        <ele>142.006450038</ele>
        <time>2010-12-18T15:46:06.642Z</time>
      </trkpt>
      <trkpt lat="43.43167" lon="5.28011">
        <ele>142.103332011</ele>
        <time>2010-12-18T15:46:07.643Z</time>
      </trkpt>
      <trkpt lat="43.4317" lon="5.2801">
        <ele>142.306450136</ele>
        <time>2010-12-18T15:46:09.636Z</time>
      </trkpt>
      <trkpt lat="43.43177" lon="5.28007">
        <ele>142.83548269</ele>
        <time>2010-12-18T15:46:13.642Z</time>
      </trkpt>
      <trkpt lat="43.43182" lon="5.28004">
        <ele>143.390321793</ele>
        <time>2010-12-18T15:46:16.641Z</time>
      </trkpt>
      <trkpt lat="43.43184" lon="5.28003">
        <ele>143.866666158</ele>
        <time>2010-12-18T15:46:18.636Z</time>
      </trkpt>
      <trkpt lat="43.43188" lon="5.28001">
        <ele>144.323332723</ele>
        <time>2010-12-18T15:46:20.641Z</time>
      </trkpt>
      <trkpt lat="43.43193" lon="5.27999">
        <ele>144.873333232</ele>
        <time>2010-12-18T15:46:22.639Z</time>
      </trkpt>
      <trkpt lat="43.43197" lon="5.27996">
        <ele>145.299999606</ele>
        <time>2010-12-18T15:46:24.639Z</time>
      </trkpt>
      <trkpt lat="43.432" lon="5.27996">
        <ele>145.623333232</ele>
        <time>2010-12-18T15:46:25.642Z</time>
      </trkpt>
      <trkpt lat="43.43205" lon="5.27995">
        <ele>145.796666463</ele>
        <time>2010-12-18T15:46:26.693Z</time>
      </trkpt>
      <trkpt lat="43.43209" lon="5.27995">
        <ele>145.845161192</ele>
        <time>2010-12-18T15:46:27.641Z</time>
      </trkpt>
      <trkpt lat="43.43215" lon="5.27994">
        <ele>146.058064615</ele>
        <time>2010-12-18T15:46:29.642Z</time>
      </trkpt>
      <trkpt lat="43.43224" lon="5.27991">
        <ele>146.306666565</ele>
        <time>2010-12-18T15:46:32.646Z</time>
      </trkpt>
      <trkpt lat="43.43226" lon="5.27991">
        <ele>146.406666565</ele>
        <time>2010-12-18T15:46:33.692Z</time>
      </trkpt>
      <trkpt lat="43.43233" lon="5.27991">
        <ele>146.566666667</ele>
        <time>2010-12-18T15:46:35.697Z</time>
      </trkpt>
      <trkpt lat="43.43235" lon="5.27991">
        <ele>146.57333374</ele>
        <time>2010-12-18T15:46:36.698Z</time>
      </trkpt>
      <trkpt lat="43.43238" lon="5.27991">
        <ele>146.480645457</ele>
        <time>2010-12-18T15:46:37.642Z</time>
      </trkpt>
      <trkpt lat="43.43241" lon="5.2799">
        <ele>146.489999898</ele>
        <time>2010-12-18T15:46:38.641Z</time>
      </trkpt>
      <trkpt lat="43.43244" lon="5.2799">
        <ele>146.433333333</ele>
        <time>2010-12-18T15:46:39.652Z</time>
      </trkpt>
      <trkpt lat="43.43248" lon="5.2799">
        <ele>146.376666768</ele>
        <time>2010-12-18T15:46:40.642Z</time>
      </trkpt>
      <trkpt lat="43.43251" lon="5.2799">
        <ele>146.293548584</ele>
        <time>2010-12-18T15:46:41.634Z</time>
      </trkpt>
      <trkpt lat="43.43254" lon="5.27989">
        <ele>146.280000814</ele>
        <time>2010-12-18T15:46:42.641Z</time>
      </trkpt>
      <trkpt lat="43.43261" lon="5.2799">
        <ele>146.00967801</ele>
        <time>2010-12-18T15:46:44.635Z</time>
      </trkpt>
      <trkpt lat="43.43264" lon="5.2799">
        <ele>145.830000814</ele>
        <time>2010-12-18T15:46:45.695Z</time>
      </trkpt>
      <trkpt lat="43.43268" lon="5.2799">
        <ele>145.396666972</ele>
        <time>2010-12-18T15:46:47.695Z</time>
      </trkpt>
      <trkpt lat="43.43269" lon="5.27988">
        <ele>145.17333374</ele>
        <time>2010-12-18T15:46:48.642Z</time>
      </trkpt>
      <trkpt lat="43.43269" lon="5.27986">
        <ele>144.933333842</ele>
        <time>2010-12-18T15:46:49.643Z</time>
      </trkpt>
      <trkpt lat="43.43269" lon="5.27984">
        <ele>144.793549076</ele>
        <time>2010-12-18T15:46:50.636Z</time>
      </trkpt>
      <trkpt lat="43.43269" lon="5.27983">
        <ele>144.554839103</ele>
        <time>2010-12-18T15:46:51.635Z</time>
      </trkpt>
      <trkpt lat="43.4327" lon="5.27981">
        <ele>144.322581137</ele>
        <time>2010-12-18T15:46:52.636Z</time>
      </trkpt>
      <trkpt lat="43.43272" lon="5.2798">
        <ele>144.045161586</ele>
        <time>2010-12-18T15:46:53.647Z</time>
      </trkpt>
      <trkpt lat="43.43273" lon="5.27979">
        <ele>143.748387491</ele>
        <time>2010-12-18T15:46:54.638Z</time>
      </trkpt>
      <trkpt lat="43.43274" lon="5.27978">
        <ele>143.216667175</ele>
        <time>2010-12-18T15:46:55.648Z</time>
      </trkpt>
      <trkpt lat="43.43275" lon="5.27975">
        <ele>143.18064585</ele>
        <time>2010-12-18T15:46:56.642Z</time>
      </trkpt>
      <trkpt lat="43.43277" lon="5.2797">
        <ele>142.753334045</ele>
        <time>2010-12-18T15:46:58.697Z</time>
      </trkpt>
      <trkpt lat="43.43278" lon="5.27969">
        <ele>142.680000814</ele>
        <time>2010-12-18T15:46:59.643Z</time>
      </trkpt>
      <trkpt lat="43.43279" lon="5.27968">
        <ele>142.703226397</ele>
        <time>2010-12-18T15:47:00.642Z</time>
      </trkpt>
      <trkpt lat="43.43279" lon="5.27966">
        <ele>142.53548456</ele>
        <time>2010-12-18T15:47:02.640Z</time>
      </trkpt>
      <trkpt lat="43.43278" lon="5.27965">
        <ele>142.454839399</ele>
        <time>2010-12-18T15:47:03.635Z</time>
      </trkpt>
      <trkpt lat="43.43278" lon="5.27964">
        <ele>142.374194237</ele>
        <time>2010-12-18T15:47:04.636Z</time>
      </trkpt>
      <trkpt lat="43.43276" lon="5.27959">
        <ele>142.258065008</ele>
        <time>2010-12-18T15:47:05.648Z</time>
      </trkpt>
      <trkpt lat="43.43276" lon="5.27957">
        <ele>142.138710268</ele>
        <time>2010-12-18T15:47:06.691Z</time>
      </trkpt>
      <trkpt lat="43.43273" lon="5.27951">
        <ele>141.763334147</ele>
        <time>2010-12-18T15:47:08.678Z</time>
      </trkpt>
      <trkpt lat="43.43271" lon="5.27948">
        <ele>141.593333944</ele>
        <time>2010-12-18T15:47:09.676Z</time>
      </trkpt>
      <trkpt lat="43.43268" lon="5.27945">
        <ele>141.420000712</ele>
        <time>2010-12-18T15:47:10.678Z</time>
      </trkpt>
      <trkpt lat="43.43264" lon="5.27943">
        <ele>141.22333374</ele>
        <time>2010-12-18T15:47:11.679Z</time>
      </trkpt>
      <trkpt lat="43.43257" lon="5.27935">
        <ele>140.866666667</ele>
        <time>2010-12-18T15:47:13.678Z</time>
      </trkpt>
      <trkpt lat="43.4325" lon="5.27928">
        <ele>140.567742132</ele>
        <time>2010-12-18T15:47:15.686Z</time>
      </trkpt>
      <trkpt lat="43.43245" lon="5.27926">
        <ele>140.396666972</ele>
        <time>2010-12-18T15:47:16.698Z</time>
      </trkpt>
      <trkpt lat="43.43241" lon="5.27919">
        <ele>140.170000203</ele>
        <time>2010-12-18T15:47:17.698Z</time>
      </trkpt>
      <trkpt lat="43.43232" lon="5.27909">
        <ele>139.583333842</ele>
        <time>2010-12-18T15:47:19.678Z</time>
      </trkpt>
      <trkpt lat="43.43226" lon="5.27907">
        <ele>139.296666972</ele>
        <time>2010-12-18T15:47:20.707Z</time>
      </trkpt>
      <trkpt lat="43.43221" lon="5.27904">
        <ele>138.993333944</ele>
        <time>2010-12-18T15:47:21.678Z</time>
      </trkpt>
      <trkpt lat="43.43216" lon="5.27902">
        <ele>138.67333374</ele>
        <time>2010-12-18T15:47:22.696Z</time>
      </trkpt>
      <trkpt lat="43.43211" lon="5.27901">
        <ele>138.380000305</ele>
        <time>2010-12-18T15:47:23.692Z</time>
      </trkpt>
      <trkpt lat="43.43206" lon="5.27899">
        <ele>138.066666667</ele>
        <time>2010-12-18T15:47:24.694Z</time>
      </trkpt>
      <trkpt lat="43.43197" lon="5.27897">
        <ele>137.360000102</ele>
        <time>2010-12-18T15:47:26.679Z</time>
      </trkpt>
      <trkpt lat="43.43191" lon="5.27896">
        <ele>136.764516031</ele>
        <time>2010-12-18T15:47:28.685Z</time>
      </trkpt>
      <trkpt lat="43.4318" lon="5.27892">
        <ele>135.323333232</ele>
        <time>2010-12-18T15:47:31.696Z</time>
      </trkpt>
      <trkpt lat="43.43175" lon="5.27891">
        <ele>134.910000102</ele>
        <time>2010-12-18T15:47:32.680Z</time>
      </trkpt>
      <trkpt lat="43.43172" lon="5.27889">
        <ele>134.493333435</ele>
        <time>2010-12-18T15:47:33.686Z</time>
      </trkpt>
      <trkpt lat="43.43171" lon="5.27882">
        <ele>134.066666667</ele>
        <time>2010-12-18T15:47:34.697Z</time>
      </trkpt>
      <trkpt lat="43.43166" lon="5.27875">
        <ele>133.27333374</ele>
        <time>2010-12-18T15:47:36.694Z</time>
      </trkpt>
      <trkpt lat="43.43163" lon="5.27872">
        <ele>132.950000509</ele>
        <time>2010-12-18T15:47:37.684Z</time>
      </trkpt>
      <trkpt lat="43.43161" lon="5.27867">
        <ele>132.650000509</ele>
        <time>2010-12-18T15:47:38.682Z</time>
      </trkpt>
      <trkpt lat="43.43159" lon="5.27865">
        <ele>132.356667582</ele>
        <time>2010-12-18T15:47:39.686Z</time>
      </trkpt>
      <trkpt lat="43.43158" lon="5.27854">
        <ele>132.050001017</ele>
        <time>2010-12-18T15:47:40.704Z</time>
      </trkpt>
      <trkpt lat="43.43156" lon="5.27847">
        <ele>131.753334554</ele>
        <time>2010-12-18T15:47:41.685Z</time>
      </trkpt>
      <trkpt lat="43.43153" lon="5.27839">
        <ele>131.387097759</ele>
        <time>2010-12-18T15:47:43.663Z</time>
      </trkpt>
      <trkpt lat="43.43153" lon="5.27836">
        <ele>130.903334045</ele>
        <time>2010-12-18T15:47:44.704Z</time>
      </trkpt>
      <trkpt lat="43.43153" lon="5.27833">
        <ele>130.845162176</ele>
        <time>2010-12-18T15:47:45.637Z</time>
      </trkpt>
      <trkpt lat="43.43153" lon="5.27831">
        <ele>130.603226692</ele>
        <time>2010-12-18T15:47:46.687Z</time>
      </trkpt>
      <trkpt lat="43.43153" lon="5.27828">
        <ele>130.39032327</ele>
        <time>2010-12-18T15:47:47.683Z</time>
      </trkpt>
      <trkpt lat="43.43151" lon="5.27828">
        <ele>130.193333944</ele>
        <time>2010-12-18T15:47:48.699Z</time>
      </trkpt>
      <trkpt lat="43.43151" lon="5.27827">
        <ele>130.100000509</ele>
        <time>2010-12-18T15:47:49.690Z</time>
      </trkpt>
      <trkpt lat="43.4315" lon="5.27825">
        <ele>130.061290618</ele>
        <time>2010-12-18T15:47:50.697Z</time>
      </trkpt>
      <trkpt lat="43.43149" lon="5.27825">
        <ele>129.916666667</ele>
        <time>2010-12-18T15:47:51.685Z</time>
      </trkpt>
      <trkpt lat="43.43147" lon="5.27825">
        <ele>129.929032357</ele>
        <time>2010-12-18T15:47:52.686Z</time>
      </trkpt>
      <trkpt lat="43.43143" lon="5.27823">
        <ele>129.896774784</ele>
        <time>2010-12-18T15:47:54.672Z</time>
      </trkpt>
      <trkpt lat="43.43132" lon="5.27825">
        <ele>129.953333537</ele>
        <time>2010-12-18T15:47:56.697Z</time>
      </trkpt>
      <trkpt lat="43.43125" lon="5.27823">
        <ele>130.043333435</ele>
        <time>2010-12-18T15:47:58.701Z</time>
      </trkpt>
      <trkpt lat="43.43118" lon="5.27823">
        <ele>130.133333333</ele>
        <time>2010-12-18T15:48:00.700Z</time>
      </trkpt>
      <trkpt lat="43.43115" lon="5.27823">
        <ele>130.222580448</ele>
        <time>2010-12-18T15:48:01.686Z</time>
      </trkpt>
      <trkpt lat="43.43112" lon="5.27823">
        <ele>130.316666158</ele>
        <time>2010-12-18T15:48:02.703Z</time>
      </trkpt>
      <trkpt lat="43.43109" lon="5.27824">
        <ele>130.590322187</ele>
        <time>2010-12-18T15:48:04.686Z</time>
      </trkpt>
      <trkpt lat="43.43107" lon="5.27825">
        <ele>130.783870574</ele>
        <time>2010-12-18T15:48:05.686Z</time>
      </trkpt>
      <trkpt lat="43.43101" lon="5.27824">
        <ele>131.286665344</ele>
        <time>2010-12-18T15:48:07.704Z</time>
      </trkpt>
      <trkpt lat="43.43099" lon="5.27824">
        <ele>131.526665243</ele>
        <time>2010-12-18T15:48:08.704Z</time>
      </trkpt>
      <trkpt lat="43.43092" lon="5.27824">
        <ele>131.763331604</ele>
        <time>2010-12-18T15:48:09.872Z</time>
      </trkpt>
      <trkpt lat="43.43082" lon="5.27825">
        <ele>132.25666453</ele>
        <time>2010-12-18T15:48:11.700Z</time>
      </trkpt>
      <trkpt lat="43.43077" lon="5.27826">
        <ele>132.50666453</ele>
        <time>2010-12-18T15:48:12.709Z</time>
      </trkpt>
      <trkpt lat="43.43072" lon="5.27827">
        <ele>132.739997864</ele>
        <time>2010-12-18T15:48:13.710Z</time>
      </trkpt>
      <trkpt lat="43.43068" lon="5.27829">
        <ele>132.845159223</ele>
        <time>2010-12-18T15:48:14.697Z</time>
      </trkpt>
      <trkpt lat="43.43058" lon="5.27831">
        <ele>133.403331502</ele>
        <time>2010-12-18T15:48:16.704Z</time>
      </trkpt>
      <trkpt lat="43.43043" lon="5.27836">
        <ele>134.206665039</ele>
        <time>2010-12-18T15:48:20.720Z</time>
      </trkpt>
      <trkpt lat="43.4303" lon="5.27843">
        <ele>134.886664836</ele>
        <time>2010-12-18T15:48:24.694Z</time>
      </trkpt>
      <trkpt lat="43.43026" lon="5.27843">
        <ele>134.925804877</ele>
        <time>2010-12-18T15:48:25.695Z</time>
      </trkpt>
      <trkpt lat="43.43022" lon="5.27844">
        <ele>135.035482591</ele>
        <time>2010-12-18T15:48:26.690Z</time>
      </trkpt>
      <trkpt lat="43.43006" lon="5.27848">
        <ele>135.738708988</ele>
        <time>2010-12-18T15:48:30.696Z</time>
      </trkpt>
      <trkpt lat="43.42994" lon="5.27851">
        <ele>136.270967545</ele>
        <time>2010-12-18T15:48:33.694Z</time>
      </trkpt>
      <trkpt lat="43.42987" lon="5.27851">
        <ele>136.473333232</ele>
        <time>2010-12-18T15:48:34.690Z</time>
      </trkpt>
      <trkpt lat="43.42982" lon="5.2785">
        <ele>136.593333435</ele>
        <time>2010-12-18T15:48:35.706Z</time>
      </trkpt>
      <trkpt lat="43.42973" lon="5.27854">
        <ele>136.677419355</ele>
        <time>2010-12-18T15:48:36.705Z</time>
      </trkpt>
      <trkpt lat="43.42961" lon="5.27857">
        <ele>136.819355134</ele>
        <time>2010-12-18T15:48:38.646Z</time>
      </trkpt>
      <trkpt lat="43.42948" lon="5.27859">
        <ele>136.858065205</ele>
        <time>2010-12-18T15:48:40.677Z</time>
      </trkpt>
      <trkpt lat="43.42941" lon="5.27861">
        <ele>136.823334249</ele>
        <time>2010-12-18T15:48:41.703Z</time>
      </trkpt>
      <trkpt lat="43.42935" lon="5.27864">
        <ele>136.703226889</ele>
        <time>2010-12-18T15:48:42.705Z</time>
      </trkpt>
      <trkpt lat="43.42929" lon="5.27867">
        <ele>136.577420635</ele>
        <time>2010-12-18T15:48:43.704Z</time>
      </trkpt>
      <trkpt lat="43.42922" lon="5.27868">
        <ele>136.420001729</ele>
        <time>2010-12-18T15:48:44.699Z</time>
      </trkpt>
      <trkpt lat="43.42917" lon="5.2787">
        <ele>136.229033932</ele>
        <time>2010-12-18T15:48:45.689Z</time>
      </trkpt>
      <trkpt lat="43.42912" lon="5.27871">
        <ele>136.07096912</ele>
        <time>2010-12-18T15:48:46.685Z</time>
      </trkpt>
      <trkpt lat="43.42902" lon="5.27873">
        <ele>135.780001322</ele>
        <time>2010-12-18T15:48:48.702Z</time>
      </trkpt>
      <trkpt lat="43.42885" lon="5.27875">
        <ele>135.230000814</ele>
        <time>2010-12-18T15:48:51.706Z</time>
      </trkpt>
      <trkpt lat="43.42869" lon="5.27878">
        <ele>134.563334147</ele>
        <time>2010-12-18T15:48:54.712Z</time>
      </trkpt>
      <trkpt lat="43.42859" lon="5.27881">
        <ele>134.040000407</ele>
        <time>2010-12-18T15:48:56.697Z</time>
      </trkpt>
      <trkpt lat="43.42854" lon="5.27882">
        <ele>133.851613199</ele>
        <time>2010-12-18T15:48:57.692Z</time>
      </trkpt>
      <trkpt lat="43.42839" lon="5.27884">
        <ele>132.760000356</ele>
        <time>2010-12-18T15:49:00.699Z</time>
      </trkpt>
      <trkpt lat="43.42825" lon="5.27885">
        <ele>131.636666616</ele>
        <time>2010-12-18T15:49:03.752Z</time>
      </trkpt>
      <trkpt lat="43.4282" lon="5.27886">
        <ele>131.229999797</ele>
        <time>2010-12-18T15:49:04.699Z</time>
      </trkpt>
      <trkpt lat="43.42816" lon="5.27887">
        <ele>131.090322433</ele>
        <time>2010-12-18T15:49:05.689Z</time>
      </trkpt>
      <trkpt lat="43.42814" lon="5.27888">
        <ele>130.416666412</ele>
        <time>2010-12-18T15:49:06.708Z</time>
      </trkpt>
      <trkpt lat="43.42801" lon="5.27892">
        <ele>129.429999797</ele>
        <time>2010-12-18T15:49:09.707Z</time>
      </trkpt>
      <trkpt lat="43.42794" lon="5.27894">
        <ele>129.149999491</ele>
        <time>2010-12-18T15:49:10.691Z</time>
      </trkpt>
      <trkpt lat="43.42779" lon="5.27898">
        <ele>128.764515538</ele>
        <time>2010-12-18T15:49:13.695Z</time>
      </trkpt>
      <trkpt lat="43.42773" lon="5.27899">
        <ele>128.556666056</ele>
        <time>2010-12-18T15:49:14.703Z</time>
      </trkpt>
      <trkpt lat="43.42768" lon="5.279">
        <ele>128.545160601</ele>
        <time>2010-12-18T15:49:15.678Z</time>
      </trkpt>
      <trkpt lat="43.42765" lon="5.27901">
        <ele>128.406666056</ele>
        <time>2010-12-18T15:49:16.701Z</time>
      </trkpt>
      <trkpt lat="43.42763" lon="5.27903">
        <ele>128.43870889</ele>
        <time>2010-12-18T15:49:17.683Z</time>
      </trkpt>
      <trkpt lat="43.42756" lon="5.27905">
        <ele>128.403224822</ele>
        <time>2010-12-18T15:49:18.692Z</time>
      </trkpt>
      <trkpt lat="43.4275" lon="5.27906">
        <ele>128.259999084</ele>
        <time>2010-12-18T15:49:19.697Z</time>
      </trkpt>
      <trkpt lat="43.42738" lon="5.2791">
        <ele>128.129999542</ele>
        <time>2010-12-18T15:49:22.775Z</time>
      </trkpt>
      <trkpt lat="43.4273" lon="5.27912">
        <ele>128.148387048</ele>
        <time>2010-12-18T15:49:24.688Z</time>
      </trkpt>
      <trkpt lat="43.42726" lon="5.27914">
        <ele>128.141935041</ele>
        <time>2010-12-18T15:49:25.691Z</time>
      </trkpt>
      <trkpt lat="43.42723" lon="5.27915">
        <ele>128.138709038</ele>
        <time>2010-12-18T15:49:26.685Z</time>
      </trkpt>
      <trkpt lat="43.42717" lon="5.27917">
        <ele>128.122580251</ele>
        <time>2010-12-18T15:49:28.689Z</time>
      </trkpt>
      <trkpt lat="43.42715" lon="5.27918">
        <ele>128.129032012</ele>
        <time>2010-12-18T15:49:29.688Z</time>
      </trkpt>
      <trkpt lat="43.42713" lon="5.27919">
        <ele>128.158064565</ele>
        <time>2010-12-18T15:49:30.694Z</time>
      </trkpt>
      <trkpt lat="43.4271" lon="5.27922">
        <ele>128.199999746</ele>
        <time>2010-12-18T15:49:31.704Z</time>
      </trkpt>
      <trkpt lat="43.42707" lon="5.27928">
        <ele>128.158064319</ele>
        <time>2010-12-18T15:49:32.679Z</time>
      </trkpt>
      <trkpt lat="43.42706" lon="5.27929">
        <ele>128.125806255</ele>
        <time>2010-12-18T15:49:33.695Z</time>
      </trkpt>
      <trkpt lat="43.42704" lon="5.27936">
        <ele>128.086666616</ele>
        <time>2010-12-18T15:49:35.697Z</time>
      </trkpt>
      <trkpt lat="43.42704" lon="5.2794">
        <ele>128.019354789</ele>
        <time>2010-12-18T15:49:36.697Z</time>
      </trkpt>
      <trkpt lat="43.42699" lon="5.27941">
        <ele>127.993548239</ele>
        <time>2010-12-18T15:49:37.701Z</time>
      </trkpt>
      <trkpt lat="43.42694" lon="5.27943">
        <ele>127.951612657</ele>
        <time>2010-12-18T15:49:38.700Z</time>
      </trkpt>
      <trkpt lat="43.4269" lon="5.27944">
        <ele>127.90322556</ele>
        <time>2010-12-18T15:49:39.696Z</time>
      </trkpt>
      <trkpt lat="43.42685" lon="5.27945">
        <ele>127.840000153</ele>
        <time>2010-12-18T15:49:40.695Z</time>
      </trkpt>
      <trkpt lat="43.42675" lon="5.27949">
        <ele>127.712903177</ele>
        <time>2010-12-18T15:49:43.681Z</time>
      </trkpt>
      <trkpt lat="43.42672" lon="5.27952">
        <ele>127.683871115</ele>
        <time>2010-12-18T15:49:44.679Z</time>
      </trkpt>
      <trkpt lat="43.42673" lon="5.27957">
        <ele>127.676666514</ele>
        <time>2010-12-18T15:49:45.695Z</time>
      </trkpt>
      <trkpt lat="43.42671" lon="5.2796">
        <ele>127.699999655</ele>
        <time>2010-12-18T15:49:46.694Z</time>
      </trkpt>
      <trkpt lat="43.42669" lon="5.27963">
        <ele>127.646666718</ele>
        <time>2010-12-18T15:49:47.700Z</time>
      </trkpt>
      <trkpt lat="43.42667" lon="5.27966">
        <ele>127.646666718</ele>
        <time>2010-12-18T15:49:48.705Z</time>
      </trkpt>
      <trkpt lat="43.42667" lon="5.27968">
        <ele>127.740000153</ele>
        <time>2010-12-18T15:49:49.699Z</time>
      </trkpt>
      <trkpt lat="43.42666" lon="5.27972">
        <ele>127.870967988</ele>
        <time>2010-12-18T15:49:50.686Z</time>
      </trkpt>
      <trkpt lat="43.42665" lon="5.27975">
        <ele>128.054839103</ele>
        <time>2010-12-18T15:49:51.705Z</time>
      </trkpt>
      <trkpt lat="43.42661" lon="5.27989">
        <ele>128.754839005</ele>
        <time>2010-12-18T15:49:54.683Z</time>
      </trkpt>
      <trkpt lat="43.42657" lon="5.27996">
        <ele>129.370000712</ele>
        <time>2010-12-18T15:49:56.710Z</time>
      </trkpt>
      <trkpt lat="43.42655" lon="5.28001">
        <ele>129.703334045</ele>
        <time>2010-12-18T15:49:57.719Z</time>
      </trkpt>
      <trkpt lat="43.42653" lon="5.28005">
        <ele>130.063333893</ele>
        <time>2010-12-18T15:49:58.698Z</time>
      </trkpt>
      <trkpt lat="43.42652" lon="5.2801">
        <ele>130.440000153</ele>
        <time>2010-12-18T15:49:59.695Z</time>
      </trkpt>
      <trkpt lat="43.42648" lon="5.28019">
        <ele>131.125806009</ele>
        <time>2010-12-18T15:50:01.696Z</time>
      </trkpt>
      <trkpt lat="43.42646" lon="5.28024">
        <ele>131.67666626</ele>
        <time>2010-12-18T15:50:02.682Z</time>
      </trkpt>
      <trkpt lat="43.42644" lon="5.28029">
        <ele>132.003225511</ele>
        <time>2010-12-18T15:50:03.680Z</time>
      </trkpt>
      <trkpt lat="43.42643" lon="5.28034">
        <ele>132.749999746</ele>
        <time>2010-12-18T15:50:04.699Z</time>
      </trkpt>
      <trkpt lat="43.42639" lon="5.28045">
        <ele>133.866666412</ele>
        <time>2010-12-18T15:50:06.714Z</time>
      </trkpt>
      <trkpt lat="43.42637" lon="5.28052">
        <ele>134.376666514</ele>
        <time>2010-12-18T15:50:07.710Z</time>
      </trkpt>
      <trkpt lat="43.42633" lon="5.28061">
        <ele>135.479999797</ele>
        <time>2010-12-18T15:50:09.703Z</time>
      </trkpt>
      <trkpt lat="43.42627" lon="5.28067">
        <ele>136.009999593</ele>
        <time>2010-12-18T15:50:10.700Z</time>
      </trkpt>
      <trkpt lat="43.42623" lon="5.28072">
        <ele>136.238709481</ele>
        <time>2010-12-18T15:50:11.700Z</time>
      </trkpt>
      <trkpt lat="43.4262" lon="5.28077">
        <ele>137.086666616</ele>
        <time>2010-12-18T15:50:12.695Z</time>
      </trkpt>
      <trkpt lat="43.42617" lon="5.28082">
        <ele>137.636666361</ele>
        <time>2010-12-18T15:50:13.695Z</time>
      </trkpt>
      <trkpt lat="43.42614" lon="5.28087">
        <ele>138.179999797</ele>
        <time>2010-12-18T15:50:14.697Z</time>
      </trkpt>
      <trkpt lat="43.42607" lon="5.28097">
        <ele>139.143333944</ele>
        <time>2010-12-18T15:50:16.698Z</time>
      </trkpt>
      <trkpt lat="43.42595" lon="5.28113">
        <ele>140.620000712</ele>
        <time>2010-12-18T15:50:20.701Z</time>
      </trkpt>
      <trkpt lat="43.42589" lon="5.28122">
        <ele>141.016667175</ele>
        <time>2010-12-18T15:50:22.709Z</time>
      </trkpt>
      <trkpt lat="43.42584" lon="5.28132">
        <ele>141.220000712</ele>
        <time>2010-12-18T15:50:24.696Z</time>
      </trkpt>
      <trkpt lat="43.42578" lon="5.2814">
        <ele>141.203226397</ele>
        <time>2010-12-18T15:50:26.695Z</time>
      </trkpt>
      <trkpt lat="43.42572" lon="5.28149">
        <ele>141.353333537</ele>
        <time>2010-12-18T15:50:28.704Z</time>
      </trkpt>
      <trkpt lat="43.42561" lon="5.28166">
        <ele>141.226667786</ele>
        <time>2010-12-18T15:50:32.699Z</time>
      </trkpt>
      <trkpt lat="43.42549" lon="5.28183">
        <ele>140.777420536</ele>
        <time>2010-12-18T15:50:36.695Z</time>
      </trkpt>
      <trkpt lat="43.42537" lon="5.28199">
        <ele>140.248387983</ele>
        <time>2010-12-18T15:50:40.695Z</time>
      </trkpt>
      <trkpt lat="43.42525" lon="5.28216">
        <ele>139.52333374</ele>
        <time>2010-12-18T15:50:44.704Z</time>
      </trkpt>
      <trkpt lat="43.42516" lon="5.28229">
        <ele>139.196666463</ele>
        <time>2010-12-18T15:50:47.729Z</time>
      </trkpt>
      <trkpt lat="43.42511" lon="5.28239">
        <ele>139.069999695</ele>
        <time>2010-12-18T15:50:49.936Z</time>
      </trkpt>
      <trkpt lat="43.42507" lon="5.28243">
        <ele>139.023332723</ele>
        <time>2010-12-18T15:50:50.903Z</time>
      </trkpt>
      <trkpt lat="43.42503" lon="5.28252">
        <ele>139.119354248</ele>
        <time>2010-12-18T15:50:52.676Z</time>
      </trkpt>
      <trkpt lat="43.42493" lon="5.28266">
        <ele>139.470966462</ele>
        <time>2010-12-18T15:50:55.668Z</time>
      </trkpt>
      <trkpt lat="43.4249" lon="5.2827">
        <ele>139.564514652</ele>
        <time>2010-12-18T15:50:56.664Z</time>
      </trkpt>
      <trkpt lat="43.42487" lon="5.28274">
        <ele>139.658063335</ele>
        <time>2010-12-18T15:50:57.664Z</time>
      </trkpt>
      <trkpt lat="43.42478" lon="5.28288">
        <ele>139.954837922</ele>
        <time>2010-12-18T15:51:00.663Z</time>
      </trkpt>
      <trkpt lat="43.42476" lon="5.28291">
        <ele>140.077418666</ele>
        <time>2010-12-18T15:51:01.662Z</time>
      </trkpt>
      <trkpt lat="43.42473" lon="5.28296">
        <ele>140.325805172</ele>
        <time>2010-12-18T15:51:03.664Z</time>
      </trkpt>
      <trkpt lat="43.4247" lon="5.28301">
        <ele>140.503332011</ele>
        <time>2010-12-18T15:51:05.812Z</time>
      </trkpt>
      <trkpt lat="43.42467" lon="5.28305">
        <ele>140.583331807</ele>
        <time>2010-12-18T15:51:06.763Z</time>
      </trkpt>
      <trkpt lat="43.42462" lon="5.28313">
        <ele>140.651611328</ele>
        <time>2010-12-18T15:51:08.657Z</time>
      </trkpt>
      <trkpt lat="43.42451" lon="5.2833">
        <ele>140.958063433</ele>
        <time>2010-12-18T15:51:12.667Z</time>
      </trkpt>
      <trkpt lat="43.42446" lon="5.28339">
        <ele>141.096773209</ele>
        <time>2010-12-18T15:51:14.668Z</time>
      </trkpt>
      <trkpt lat="43.42436" lon="5.28355">
        <ele>141.267741049</ele>
        <time>2010-12-18T15:51:17.662Z</time>
      </trkpt>
      <trkpt lat="43.42429" lon="5.28364">
        <ele>141.319353657</ele>
        <time>2010-12-18T15:51:19.664Z</time>
      </trkpt>
      <trkpt lat="43.42419" lon="5.28378">
        <ele>141.303224625</ele>
        <time>2010-12-18T15:51:22.663Z</time>
      </trkpt>
      <trkpt lat="43.42407" lon="5.28393">
        <ele>140.864514751</ele>
        <time>2010-12-18T15:51:25.667Z</time>
      </trkpt>
      <trkpt lat="43.42405" lon="5.28396">
        <ele>140.696665446</ele>
        <time>2010-12-18T15:51:26.670Z</time>
      </trkpt>
      <trkpt lat="43.42401" lon="5.28402">
        <ele>140.569998678</ele>
        <time>2010-12-18T15:51:27.674Z</time>
      </trkpt>
      <trkpt lat="43.42394" lon="5.28412">
        <ele>140.339998881</ele>
        <time>2010-12-18T15:51:29.726Z</time>
      </trkpt>
      <trkpt lat="43.42384" lon="5.28427">
        <ele>139.839998881</ele>
        <time>2010-12-18T15:51:32.755Z</time>
      </trkpt>
      <trkpt lat="43.42374" lon="5.28442">
        <ele>139.454837922</ele>
        <time>2010-12-18T15:51:35.773Z</time>
      </trkpt>
      <trkpt lat="43.4236" lon="5.2846">
        <ele>138.956666056</ele>
        <time>2010-12-18T15:51:39.885Z</time>
      </trkpt>
      <trkpt lat="43.42357" lon="5.28468">
        <ele>138.779999288</ele>
        <time>2010-12-18T15:51:41.735Z</time>
      </trkpt>
      <trkpt lat="43.42349" lon="5.28478">
        <ele>138.616666158</ele>
        <time>2010-12-18T15:51:43.770Z</time>
      </trkpt>
      <trkpt lat="43.42346" lon="5.28483">
        <ele>138.519999186</ele>
        <time>2010-12-18T15:51:44.686Z</time>
      </trkpt>
      <trkpt lat="43.42337" lon="5.28497">
        <ele>138.229999288</ele>
        <time>2010-12-18T15:51:47.861Z</time>
      </trkpt>
      <trkpt lat="43.42335" lon="5.28501">
        <ele>138.166666158</ele>
        <time>2010-12-18T15:51:48.786Z</time>
      </trkpt>
      <trkpt lat="43.42332" lon="5.28506">
        <ele>138.119999695</ele>
        <time>2010-12-18T15:51:49.699Z</time>
      </trkpt>
      <trkpt lat="43.42326" lon="5.28513">
        <ele>138.060000102</ele>
        <time>2010-12-18T15:51:50.697Z</time>
      </trkpt>
      <trkpt lat="43.42317" lon="5.28525">
        <ele>137.866666667</ele>
        <time>2010-12-18T15:51:52.695Z</time>
      </trkpt>
      <trkpt lat="43.42314" lon="5.28532">
        <ele>137.766666667</ele>
        <time>2010-12-18T15:51:53.734Z</time>
      </trkpt>
      <trkpt lat="43.4231" lon="5.28538">
        <ele>137.63666687</ele>
        <time>2010-12-18T15:51:54.712Z</time>
      </trkpt>
      <trkpt lat="43.42305" lon="5.28543">
        <ele>137.500000509</ele>
        <time>2010-12-18T15:51:55.701Z</time>
      </trkpt>
      <trkpt lat="43.42301" lon="5.28548">
        <ele>137.353334045</ele>
        <time>2010-12-18T15:51:56.703Z</time>
      </trkpt>
      <trkpt lat="43.42294" lon="5.2856">
        <ele>137.003334045</ele>
        <time>2010-12-18T15:51:58.695Z</time>
      </trkpt>
      <trkpt lat="43.42283" lon="5.28577">
        <ele>136.243333944</ele>
        <time>2010-12-18T15:52:01.738Z</time>
      </trkpt>
      <trkpt lat="43.42279" lon="5.28582">
        <ele>135.990000916</ele>
        <time>2010-12-18T15:52:02.885Z</time>
      </trkpt>
      <trkpt lat="43.42276" lon="5.28588">
        <ele>135.736667379</ele>
        <time>2010-12-18T15:52:03.798Z</time>
      </trkpt>
      <trkpt lat="43.42262" lon="5.2861">
        <ele>134.848387687</ele>
        <time>2010-12-18T15:52:07.669Z</time>
      </trkpt>
      <trkpt lat="43.42259" lon="5.28614">
        <ele>134.641936271</ele>
        <time>2010-12-18T15:52:08.667Z</time>
      </trkpt>
      <trkpt lat="43.42256" lon="5.28619">
        <ele>134.44193637</ele>
        <time>2010-12-18T15:52:09.666Z</time>
      </trkpt>
      <trkpt lat="43.4225" lon="5.28627">
        <ele>134.019355528</ele>
        <time>2010-12-18T15:52:11.663Z</time>
      </trkpt>
      <trkpt lat="43.42242" lon="5.2864">
        <ele>133.100000509</ele>
        <time>2010-12-18T15:52:14.725Z</time>
      </trkpt>
      <trkpt lat="43.4224" lon="5.28643">
        <ele>133.019355528</ele>
        <time>2010-12-18T15:52:15.799Z</time>
      </trkpt>
      <trkpt lat="43.4224" lon="5.28645">
        <ele>132.790323073</ele>
        <time>2010-12-18T15:52:16.711Z</time>
      </trkpt>
      <trkpt lat="43.42242" lon="5.28651">
        <ele>132.545162078</ele>
        <time>2010-12-18T15:52:17.802Z</time>
      </trkpt>
      <trkpt lat="43.42242" lon="5.28655">
        <ele>132.080000814</ele>
        <time>2010-12-18T15:52:18.803Z</time>
      </trkpt>
      <trkpt lat="43.42243" lon="5.28659">
        <ele>131.800001017</ele>
        <time>2010-12-18T15:52:19.739Z</time>
      </trkpt>
      <trkpt lat="43.42243" lon="5.28666">
        <ele>131.310001119</ele>
        <time>2010-12-18T15:52:21.736Z</time>
      </trkpt>
      <trkpt lat="43.42242" lon="5.28664">
        <ele>131.090000916</ele>
        <time>2010-12-18T15:52:22.763Z</time>
      </trkpt>
      <trkpt lat="43.42241" lon="5.28666">
        <ele>131.041936567</ele>
        <time>2010-12-18T15:52:23.655Z</time>
      </trkpt>
      <trkpt lat="43.4224" lon="5.28672">
        <ele>130.683871854</ele>
        <time>2010-12-18T15:52:25.656Z</time>
      </trkpt>
      <trkpt lat="43.42239" lon="5.28676">
        <ele>130.567742625</ele>
        <time>2010-12-18T15:52:26.654Z</time>
      </trkpt>
      <trkpt lat="43.42238" lon="5.2868">
        <ele>130.36000061</ele>
        <time>2010-12-18T15:52:27.780Z</time>
      </trkpt>
      <trkpt lat="43.42236" lon="5.28684">
        <ele>130.33871017</ele>
        <time>2010-12-18T15:52:28.636Z</time>
      </trkpt>
      <trkpt lat="43.42234" lon="5.28691">
        <ele>130.158064811</ele>
        <time>2010-12-18T15:52:30.648Z</time>
      </trkpt>
      <trkpt lat="43.42233" lon="5.28694">
        <ele>130.112903718</ele>
        <time>2010-12-18T15:52:31.642Z</time>
      </trkpt>
      <trkpt lat="43.42234" lon="5.28697">
        <ele>130.1032262</ele>
        <time>2010-12-18T15:52:32.646Z</time>
      </trkpt>
      <trkpt lat="43.42232" lon="5.28702">
        <ele>130.087097168</ele>
        <time>2010-12-18T15:52:34.646Z</time>
      </trkpt>
      <trkpt lat="43.42231" lon="5.28704">
        <ele>130.087097168</ele>
        <time>2010-12-18T15:52:35.647Z</time>
      </trkpt>
      <trkpt lat="43.42229" lon="5.28708">
        <ele>130.093548682</ele>
        <time>2010-12-18T15:52:36.644Z</time>
      </trkpt>
      <trkpt lat="43.42225" lon="5.28708">
        <ele>130.090323171</ele>
        <time>2010-12-18T15:52:37.637Z</time>
      </trkpt>
      <trkpt lat="43.42213" lon="5.28699">
        <ele>130.106452204</ele>
        <time>2010-12-18T15:52:38.644Z</time>
      </trkpt>
      <trkpt lat="43.42206" lon="5.28698">
        <ele>130.100000689</ele>
        <time>2010-12-18T15:52:39.648Z</time>
      </trkpt>
      <trkpt lat="43.42202" lon="5.28698">
        <ele>130.103226692</ele>
        <time>2010-12-18T15:52:40.636Z</time>
      </trkpt>
      <trkpt lat="43.42199" lon="5.28699">
        <ele>130.129033243</ele>
        <time>2010-12-18T15:52:41.637Z</time>
      </trkpt>
      <trkpt lat="43.42198" lon="5.28701">
        <ele>130.206667582</ele>
        <time>2010-12-18T15:52:42.695Z</time>
      </trkpt>
      <trkpt lat="43.42194" lon="5.28712">
        <ele>130.316130115</ele>
        <time>2010-12-18T15:52:43.648Z</time>
      </trkpt>
      <trkpt lat="43.4219" lon="5.28716">
        <ele>130.422581826</ele>
        <time>2010-12-18T15:52:44.646Z</time>
      </trkpt>
      <trkpt lat="43.42186" lon="5.28721">
        <ele>130.532259049</ele>
        <time>2010-12-18T15:52:45.645Z</time>
      </trkpt>
      <trkpt lat="43.42182" lon="5.28725">
        <ele>130.629033243</ele>
        <time>2010-12-18T15:52:46.650Z</time>
      </trkpt>
      <trkpt lat="43.42179" lon="5.2873">
        <ele>130.748387983</ele>
        <time>2010-12-18T15:52:47.647Z</time>
      </trkpt>
      <trkpt lat="43.4217" lon="5.28745">
        <ele>131.148387294</ele>
        <time>2010-12-18T15:52:50.704Z</time>
      </trkpt>
      <trkpt lat="43.42166" lon="5.28751">
        <ele>131.30322561</ele>
        <time>2010-12-18T15:52:51.711Z</time>
      </trkpt>
      <trkpt lat="43.42162" lon="5.28756">
        <ele>131.454838414</ele>
        <time>2010-12-18T15:52:52.662Z</time>
      </trkpt>
      <trkpt lat="43.42157" lon="5.2876">
        <ele>131.653333028</ele>
        <time>2010-12-18T15:52:53.660Z</time>
      </trkpt>
      <trkpt lat="43.42155" lon="5.28765">
        <ele>131.741934992</ele>
        <time>2010-12-18T15:52:54.663Z</time>
      </trkpt>
      <trkpt lat="43.42149" lon="5.28773">
        <ele>132.083333333</ele>
        <time>2010-12-18T15:52:56.661Z</time>
      </trkpt>
      <trkpt lat="43.42147" lon="5.28777">
        <ele>132.220000203</ele>
        <time>2010-12-18T15:52:57.811Z</time>
      </trkpt>
      <trkpt lat="43.42141" lon="5.28785">
        <ele>132.58666687</ele>
        <time>2010-12-18T15:52:59.767Z</time>
      </trkpt>
      <trkpt lat="43.42137" lon="5.2879">
        <ele>132.810000102</ele>
        <time>2010-12-18T15:53:00.733Z</time>
      </trkpt>
      <trkpt lat="43.42131" lon="5.288">
        <ele>133.263333639</ele>
        <time>2010-12-18T15:53:02.790Z</time>
      </trkpt>
      <trkpt lat="43.42128" lon="5.28805">
        <ele>133.506667074</ele>
        <time>2010-12-18T15:53:03.796Z</time>
      </trkpt>
      <trkpt lat="43.42115" lon="5.28823">
        <ele>134.506666565</ele>
        <time>2010-12-18T15:53:07.703Z</time>
      </trkpt>
      <trkpt lat="43.42111" lon="5.28832">
        <ele>134.933332825</ele>
        <time>2010-12-18T15:53:09.701Z</time>
      </trkpt>
      <trkpt lat="43.42108" lon="5.28835">
        <ele>135.149999491</ele>
        <time>2010-12-18T15:53:10.698Z</time>
      </trkpt>
      <trkpt lat="43.42106" lon="5.28838">
        <ele>135.399999491</ele>
        <time>2010-12-18T15:53:11.701Z</time>
      </trkpt>
      <trkpt lat="43.42103" lon="5.28842">
        <ele>135.599999491</ele>
        <time>2010-12-18T15:53:12.719Z</time>
      </trkpt>
      <trkpt lat="43.42097" lon="5.28851">
        <ele>136.389999898</ele>
        <time>2010-12-18T15:53:15.697Z</time>
      </trkpt>
      <trkpt lat="43.42091" lon="5.28861">
        <ele>137.543333435</ele>
        <time>2010-12-18T15:53:18.695Z</time>
      </trkpt>
      <trkpt lat="43.4209" lon="5.28864">
        <ele>137.812903127</ele>
        <time>2010-12-18T15:53:19.696Z</time>
      </trkpt>
      <trkpt lat="43.42085" lon="5.2887">
        <ele>138.561290618</ele>
        <time>2010-12-18T15:53:21.697Z</time>
      </trkpt>
      <trkpt lat="43.42081" lon="5.28876">
        <ele>139.500000509</ele>
        <time>2010-12-18T15:53:23.706Z</time>
      </trkpt>
      <trkpt lat="43.42078" lon="5.28881">
        <ele>139.863334147</ele>
        <time>2010-12-18T15:53:24.709Z</time>
      </trkpt>
      <trkpt lat="43.42078" lon="5.28884">
        <ele>140.190000916</ele>
        <time>2010-12-18T15:53:25.690Z</time>
      </trkpt>
      <trkpt lat="43.42076" lon="5.28891">
        <ele>140.600000689</ele>
        <time>2010-12-18T15:53:27.685Z</time>
      </trkpt>
      <trkpt lat="43.42076" lon="5.28893">
        <ele>140.89032327</ele>
        <time>2010-12-18T15:53:28.695Z</time>
      </trkpt>
      <trkpt lat="43.42077" lon="5.28899">
        <ele>141.109678207</ele>
        <time>2010-12-18T15:53:29.704Z</time>
      </trkpt>
      <trkpt lat="43.42079" lon="5.28913">
        <ele>141.554839596</ele>
        <time>2010-12-18T15:53:32.702Z</time>
      </trkpt>
      <trkpt lat="43.42081" lon="5.28917">
        <ele>141.616129721</ele>
        <time>2010-12-18T15:53:33.701Z</time>
      </trkpt>
      <trkpt lat="43.42085" lon="5.28926">
        <ele>141.622581236</ele>
        <time>2010-12-18T15:53:35.682Z</time>
      </trkpt>
      <trkpt lat="43.42088" lon="5.2893">
        <ele>141.593548682</ele>
        <time>2010-12-18T15:53:36.689Z</time>
      </trkpt>
      <trkpt lat="43.42093" lon="5.28938">
        <ele>141.529032553</ele>
        <time>2010-12-18T15:53:38.700Z</time>
      </trkpt>
      <trkpt lat="43.42096" lon="5.28943">
        <ele>141.613333639</ele>
        <time>2010-12-18T15:53:39.702Z</time>
      </trkpt>
      <trkpt lat="43.42107" lon="5.2896">
        <ele>140.95</ele>
        <time>2010-12-18T15:53:43.705Z</time>
      </trkpt>
      <trkpt lat="43.42116" lon="5.28976">
        <ele>139.589998881</ele>
        <time>2010-12-18T15:53:47.697Z</time>
      </trkpt>
      <trkpt lat="43.42119" lon="5.2898">
        <ele>139.169999186</ele>
        <time>2010-12-18T15:53:48.697Z</time>
      </trkpt>
      <trkpt lat="43.42122" lon="5.28983">
        <ele>138.746665955</ele>
        <time>2010-12-18T15:53:49.698Z</time>
      </trkpt>
      <trkpt lat="43.42131" lon="5.28993">
        <ele>137.433332825</ele>
        <time>2010-12-18T15:53:52.701Z</time>
      </trkpt>
      <trkpt lat="43.42141" lon="5.29007">
        <ele>136.045161093</ele>
        <time>2010-12-18T15:53:56.689Z</time>
      </trkpt>
      <trkpt lat="43.42149" lon="5.29018">
        <ele>134.816666667</ele>
        <time>2010-12-18T15:53:59.707Z</time>
      </trkpt>
      <trkpt lat="43.42157" lon="5.29029">
        <ele>134.245160503</ele>
        <time>2010-12-18T15:54:02.702Z</time>
      </trkpt>
      <trkpt lat="43.42163" lon="5.29036">
        <ele>133.77741906</ele>
        <time>2010-12-18T15:54:04.696Z</time>
      </trkpt>
      <trkpt lat="43.42172" lon="5.29047">
        <ele>133.189999898</ele>
        <time>2010-12-18T15:54:07.720Z</time>
      </trkpt>
      <trkpt lat="43.42183" lon="5.2906">
        <ele>132.796774095</ele>
        <time>2010-12-18T15:54:11.696Z</time>
      </trkpt>
      <trkpt lat="43.42191" lon="5.2907">
        <ele>132.53666687</ele>
        <time>2010-12-18T15:54:14.699Z</time>
      </trkpt>
      <trkpt lat="43.42194" lon="5.29073">
        <ele>132.483333842</ele>
        <time>2010-12-18T15:54:15.699Z</time>
      </trkpt>
      <trkpt lat="43.42197" lon="5.29074">
        <ele>132.440000916</ele>
        <time>2010-12-18T15:54:16.699Z</time>
      </trkpt>
      <trkpt lat="43.422" lon="5.29074">
        <ele>132.400000509</ele>
        <time>2010-12-18T15:54:17.701Z</time>
      </trkpt>
      <trkpt lat="43.42203" lon="5.29073">
        <ele>132.377419749</ele>
        <time>2010-12-18T15:54:18.697Z</time>
      </trkpt>
      <trkpt lat="43.42214" lon="5.29074">
        <ele>132.200000509</ele>
        <time>2010-12-18T15:54:21.696Z</time>
      </trkpt>
      <trkpt lat="43.42217" lon="5.29074">
        <ele>132.177419847</ele>
        <time>2010-12-18T15:54:22.697Z</time>
      </trkpt>
      <trkpt lat="43.4222" lon="5.29076">
        <ele>132.12903275</ele>
        <time>2010-12-18T15:54:23.694Z</time>
      </trkpt>
      <trkpt lat="43.42223" lon="5.29078">
        <ele>132.076666768</ele>
        <time>2010-12-18T15:54:24.715Z</time>
      </trkpt>
      <trkpt lat="43.42229" lon="5.29082">
        <ele>132.02666626</ele>
        <time>2010-12-18T15:54:26.700Z</time>
      </trkpt>
      <trkpt lat="43.42226" lon="5.29088">
        <ele>132.036665853</ele>
        <time>2010-12-18T15:54:27.701Z</time>
      </trkpt>
      <trkpt lat="43.42226" lon="5.29093">
        <ele>132.067741148</ele>
        <time>2010-12-18T15:54:28.695Z</time>
      </trkpt>
      <trkpt lat="43.42225" lon="5.29096">
        <ele>132.070967151</ele>
        <time>2010-12-18T15:54:29.684Z</time>
      </trkpt>
      <trkpt lat="43.42224" lon="5.29109">
        <ele>132.136666361</ele>
        <time>2010-12-18T15:54:32.704Z</time>
      </trkpt>
      <trkpt lat="43.42224" lon="5.29117">
        <ele>132.326665751</ele>
        <time>2010-12-18T15:54:34.698Z</time>
      </trkpt>
      <trkpt lat="43.42225" lon="5.29124">
        <ele>132.551612116</ele>
        <time>2010-12-18T15:54:36.689Z</time>
      </trkpt>
      <trkpt lat="43.42226" lon="5.29126">
        <ele>132.690321892</ele>
        <time>2010-12-18T15:54:37.689Z</time>
      </trkpt>
      <trkpt lat="43.42226" lon="5.29128">
        <ele>132.87666626</ele>
        <time>2010-12-18T15:54:38.702Z</time>
      </trkpt>
      <trkpt lat="43.42227" lon="5.29129">
        <ele>133.009677026</ele>
        <time>2010-12-18T15:54:39.697Z</time>
      </trkpt>
      <trkpt lat="43.42231" lon="5.29134">
        <ele>133.206666565</ele>
        <time>2010-12-18T15:54:40.700Z</time>
      </trkpt>
      <trkpt lat="43.42233" lon="5.29137">
        <ele>133.370000203</ele>
        <time>2010-12-18T15:54:41.697Z</time>
      </trkpt>
      <trkpt lat="43.42234" lon="5.29141">
        <ele>133.467741935</ele>
        <time>2010-12-18T15:54:42.697Z</time>
      </trkpt>
      <trkpt lat="43.42234" lon="5.29144">
        <ele>133.653333028</ele>
        <time>2010-12-18T15:54:43.683Z</time>
      </trkpt>
      <trkpt lat="43.42235" lon="5.29146">
        <ele>133.748386998</ele>
        <time>2010-12-18T15:54:44.683Z</time>
      </trkpt>
      <trkpt lat="43.42234" lon="5.29149">
        <ele>133.896774292</ele>
        <time>2010-12-18T15:54:45.685Z</time>
      </trkpt>
      <trkpt lat="43.42233" lon="5.2915">
        <ele>134.029032061</ele>
        <time>2010-12-18T15:54:46.696Z</time>
      </trkpt>
      <trkpt lat="43.42233" lon="5.29151">
        <ele>134.246666463</ele>
        <time>2010-12-18T15:54:47.702Z</time>
      </trkpt>
      <trkpt lat="43.42232" lon="5.29153">
        <ele>134.322580645</ele>
        <time>2010-12-18T15:54:48.677Z</time>
      </trkpt>
      <trkpt lat="43.42232" lon="5.29154">
        <ele>134.622580251</ele>
        <time>2010-12-18T15:54:50.698Z</time>
      </trkpt>
      <trkpt lat="43.42232" lon="5.29155">
        <ele>134.790322088</ele>
        <time>2010-12-18T15:54:51.696Z</time>
      </trkpt>
      <trkpt lat="43.42232" lon="5.29159">
        <ele>135.264515538</ele>
        <time>2010-12-18T15:54:54.687Z</time>
      </trkpt>
      <trkpt lat="43.42232" lon="5.29159">
        <ele>135.703225413</ele>
        <time>2010-12-18T15:54:57.676Z</time>
      </trkpt>
      <trkpt lat="43.42232" lon="5.29159">
        <ele>136.006451514</ele>
        <time>2010-12-18T15:55:00.684Z</time>
      </trkpt>
      <trkpt lat="43.42232" lon="5.29159">
        <ele>136.241935976</ele>
        <time>2010-12-18T15:55:03.703Z</time>
      </trkpt>
      <trkpt lat="43.42232" lon="5.29158">
        <ele>136.39666748</ele>
        <time>2010-12-18T15:55:06.693Z</time>
      </trkpt>
      <trkpt lat="43.42232" lon="5.29158">
        <ele>136.393549273</ele>
        <time>2010-12-18T15:55:07.681Z</time>
      </trkpt>
      <trkpt lat="43.42232" lon="5.29158">
        <ele>136.361291209</ele>
        <time>2010-12-18T15:55:10.682Z</time>
      </trkpt>
      <trkpt lat="43.42232" lon="5.29158">
        <ele>136.320000712</ele>
        <time>2010-12-18T15:55:13.684Z</time>
      </trkpt>
      <trkpt lat="43.42232" lon="5.29158">
        <ele>136.283871066</ele>
        <time>2010-12-18T15:55:16.693Z</time>
      </trkpt>
      <trkpt lat="43.42232" lon="5.29158">
        <ele>136.256666565</ele>
        <time>2010-12-18T15:55:19.695Z</time>
      </trkpt>
      <trkpt lat="43.42232" lon="5.29158">
        <ele>136.200000509</ele>
        <time>2010-12-18T15:55:23.691Z</time>
      </trkpt>
      <trkpt lat="43.42232" lon="5.29158">
        <ele>136.187097857</ele>
        <time>2010-12-18T15:55:27.650Z</time>
      </trkpt>
      <trkpt lat="43.42232" lon="5.29158">
        <ele>136.183872346</ele>
        <time>2010-12-18T15:55:30.674Z</time>
      </trkpt>
      <trkpt lat="43.42232" lon="5.29158">
        <ele>136.183871854</ele>
        <time>2010-12-18T15:55:33.686Z</time>
      </trkpt>
      <trkpt lat="43.42232" lon="5.29158">
        <ele>136.174193844</ele>
        <time>2010-12-18T15:55:37.639Z</time>
      </trkpt>
      <trkpt lat="43.42232" lon="5.29158">
        <ele>136.164515834</ele>
        <time>2010-12-18T15:55:40.651Z</time>
      </trkpt>
    </trkseg>
  </trk>
</gpx>